Index of /library/deepconv/sample/2012-01-09_yamasita_2/figdir

[ICO]NameLast modifiedSizeDescription

[PARENTDIR]Parent Directory  -  
[IMG]CS1_50kmx20km-fall-loading-thetafix_N5e7_VelZ_00000000.png2012-01-10 12:09 8.3K 
[IMG]CS1_50kmx20km-fall-loading-thetafix_N5e7_VelX_00000000.png2012-01-10 12:09 8.3K 
[IMG]CS1_50kmx20km-fall-loading-thetafix_N5e7_SatRatio_00000000.png2012-01-10 12:09 8.8K 
[IMG]CS1_50kmx20km-fall-loading-thetafix_N5e7_DensCloud_00000000.png2012-01-10 12:08 8.8K 
[IMG]CS1_50kmx20km-fall-loading-thetafix_N5e7_DensCloud_00003600.png2012-01-10 12:08 8.9K 
[IMG]CS1_50kmx20km-fall-loading-thetafix_N5e7_ExnerDev_00000000.png2012-01-10 12:08 8.9K 
[IMG]CS1_50kmx20km-fall-loading-thetafix_N5e7_DensCloud_00007200.png2012-01-10 12:08 8.9K 
[IMG]CS1_50kmx20km-fall-loading-thetafix_N5e7_Temp-TZ_0_30days.png2012-01-10 12:11 8.9K 
[IMG]CS1_50kmx20km-fall-loading-thetafix_N5e7_MassTotal.png2012-01-10 12:11 9.0K 
[IMG]CS1_50kmx20km-fall-loading-thetafix_N5e7_ThetaTend_02592000.png2012-01-24 15:46 9.0K 
[IMG]CS1_50kmx20km-fall-loading-thetafix_N5e7_CloudTend_02592000.png2012-01-24 15:46 9.0K 
[IMG]CS1_50kmx20km-fall-loading-thetafix_N5e7_DensCloud_00010800.png2012-01-10 12:08 9.1K 
[IMG]CS1_50kmx20km-fall-loading-thetafix_N5e7_DensGas-1D_00864000.png2012-01-24 15:45 9.2K 
[IMG]CS1_50kmx20km-fall-loading-thetafix_N5e7_DensGas-1D_00432000.png2012-01-24 15:43 9.2K 
[IMG]CS1_50kmx20km-fall-loading-thetafix_N5e7_DensCloud_00014400.png2012-01-10 12:08 9.2K 
[IMG]CS1_50kmx20km-fall-loading-thetafix_N5e7_PotTempDev_00000000.png2012-01-10 12:08 9.2K 
[IMG]CS1_50kmx20km-fall-loading-thetafix_N5e7_DensGas-1D_01296000.png2012-01-24 15:45 9.2K 
[IMG]CS1_50kmx20km-fall-loading-thetafix_N5e7_DensGas-1D_02160000.png2012-01-24 15:46 9.2K 
[IMG]CS1_50kmx20km-fall-loading-thetafix_N5e7_DensGas-1D_02592000.png2012-01-24 15:46 9.2K 
[IMG]CS1_50kmx20km-fall-loading-thetafix_N5e7_DensGas-1D_01728000.png2012-01-24 15:45 9.2K 
[IMG]CS1_50kmx20km-fall-loading-thetafix-N5e7_BuoyInt_02590000-02592000_A00500-02000.png2013-02-22 13:15 9.4K 
[IMG]CS1_50kmx20km-fall-loading-thetafix_N5e7_VelZ_00007200.png2012-01-10 12:09 9.4K 
[IMG]CS1N5e7_DensCloud-estimate.png2013-02-22 13:14 9.5K 
[IMG]CS1_50kmx20km-fall-loading-thetafix_N5e7_KineticEnergyTotal.png2012-01-10 12:11 9.5K 
[IMG]CS1_50kmx20km-fall-loading-thetafix_N5e7_CloudMassTotal.png2012-01-10 12:11 9.6K 
[IMG]CS1_50kmx20km-fall-loading-thetafix_N5e7_VelZ_00003600.png2012-01-10 12:09 9.6K 
[IMG]CS1_50kmx20km-fall-loading-thetafix_N5e7_SatRatio_00007200.png2012-01-10 12:09 9.6K 
[IMG]CS1_50kmx20km-fall-loading-thetafix_N5e7_SatRatio_00003600.png2012-01-10 12:09 9.6K 
[IMG]CS1_50kmx20km-fall-loading-thetafix_N5e7_DensCloud_00018000.png2012-01-10 12:08 9.7K 
[IMG]CS1_50kmx20km-fall-loading-thetafix_N5e7_SatRatio_00010800.png2012-01-10 12:09 10K 
[IMG]CS1_50kmx20km-fall-loading-thetafix_N5e7_Exner_00000000.png2012-01-10 12:08 10K 
[IMG]CS1_50kmx20km-fall-loading-thetafix_N5e7_DensCloud-TZ_0_30days.png2012-01-10 12:11 11K 
[IMG]CS1_50kmx20km-fall-loading-thetafix_N5e7_DensCloud_00021600.png2012-01-10 12:08 11K 
[IMG]CS1_50kmx20km-fall-loading-thetafix_N5e7_StaticEnergy-TZ.png2012-01-24 15:44 11K 
[IMG]CS1_50kmx20km-fall-loading-thetafix_N5e7_Exner_00003600.png2012-01-10 12:08 11K 
[IMG]CS1_50kmx20km-fall-loading-thetafix_N5e7_Exner_00007200.png2012-01-10 12:08 11K 
[IMG]CS1_50kmx20km-fall-loading-thetafix_N5e7_DensCloud_00025200.png2012-01-10 12:08 12K 
[IMG]CS1_50kmx20km-fall-loading-thetafix_N5e7_PotTempDist-TZ_0_30days.png2012-01-10 12:11 12K 
[IMG]CS1_50kmx20km-fall-loading-thetafix_N5e7_VelZ_00010800.png2012-01-10 12:09 12K 
[IMG]CS1_50kmx20km-fall-loading-thetafix_N5e7_Exner_00014400.png2012-01-10 12:08 12K 
[IMG]CS1_50kmx20km-fall-loading-thetafix_N5e7_Exner_00010800.png2012-01-10 12:08 12K 
[IMG]CS1_50kmx20km-fall-loading-thetafix_N5e7_Exner_00018000.png2012-01-10 12:08 12K 
[IMG]CS1_50kmx20km-fall-loading-thetafix_N5e7_Km_00000000.png2012-01-10 12:08 12K 
[IMG]CS1_50kmx20km-fall-loading-thetafix_N5e7_Km_00003600.png2012-01-10 12:08 13K 
[IMG]CS1_50kmx20km-fall-loading-thetafix_N5e7_VelX_00010800.png2012-01-10 12:09 13K 
[IMG]CS1_50kmx20km-fall-loading-thetafix_N5e7_DensCloud_00028800.png2012-01-10 12:08 13K 
[IMG]CS1_50kmx20km-fall-loading-thetafix_N5e7_Exner_00021600.png2012-01-10 12:08 13K 
[IMG]CS1_50kmx20km-fall-loading-thetafix_N5e7_ExnerDev_00010800.png2012-01-10 12:08 13K 
[IMG]CS1_50kmx20km-fall-loading-thetafix_N5e7_ExnerDev_00018000.png2012-01-10 12:08 13K 
[IMG]CS1_50kmx20km-fall-loading-thetafix_N5e7_Exner_00025200.png2012-01-10 12:08 13K 
[IMG]CS1_50kmx20km-fall-loading-thetafix_N5e7_ExnerDev_00014400.png2012-01-10 12:08 13K 
[IMG]CS1_50kmx20km-fall-loading-thetafix_N5e7_VelX_02185200.png2012-01-10 12:16 14K 
[IMG]CS1_50kmx20km-fall-loading-thetafix_N5e7_VelX_01609200.png2012-01-10 12:14 14K 
[IMG]CS1_50kmx20km-fall-loading-thetafix_N5e7_ExnerDev_00025200.png2012-01-10 12:08 14K 
[IMG]CS1_50kmx20km-fall-loading-thetafix_N5e7_VelX_01684800.png2012-01-10 12:14 14K 
[IMG]CS1_50kmx20km-fall-loading-thetafix_N5e7_VelX_00802800.png2012-01-10 12:10 14K 
[IMG]CS1_50kmx20km-fall-loading-thetafix_N5e7_VelX_01720800.png2012-01-10 12:14 14K 
[IMG]CS1_50kmx20km-fall-loading-thetafix_N5e7_VelX_00018000.png2012-01-10 12:09 14K 
[IMG]CS1_50kmx20km-fall-loading-thetafix_N5e7_VelX_01879200.png2012-01-10 12:14 14K 
[IMG]CS1_50kmx20km-fall-loading-thetafix_N5e7_VelX_01926000.png2012-01-10 12:14 14K 
[IMG]CS1_50kmx20km-fall-loading-thetafix_N5e7_VelX_01332000.png2012-01-10 12:13 14K 
[IMG]CS1_50kmx20km-fall-loading-thetafix_N5e7_VelX_01771200.png2012-01-10 12:14 14K 
[IMG]CS1_50kmx20km-fall-loading-thetafix_N5e7_VelX_01238400.png2012-01-10 12:12 14K 
[IMG]CS1_50kmx20km-fall-loading-thetafix_N5e7_VelX_01854000.png2012-01-10 12:14 14K 
[IMG]CS1_50kmx20km-fall-loading-thetafix_N5e7_VelZ_00014400.png2012-01-10 12:09 14K 
[IMG]CS1_50kmx20km-fall-loading-thetafix_N5e7_VelX_01742400.png2012-01-10 12:14 14K 
[IMG]CS1_50kmx20km-fall-loading-thetafix_N5e7_VelX_02149200.png2012-01-10 12:14 14K 
[IMG]CS1_50kmx20km-fall-loading-thetafix_N5e7_SatRatio_00014400.png2012-01-10 12:09 14K 
[IMG]CS1_50kmx20km-fall-loading-thetafix_N5e7_VelX_02286000.png2012-01-10 12:16 14K 
[IMG]CS1_50kmx20km-fall-loading-thetafix_N5e7_VelX_00828000.png2012-01-10 12:10 14K 
[IMG]CS1_50kmx20km-fall-loading-thetafix_N5e7_VelX_01231200.png2012-01-10 12:12 14K 
[IMG]CS1_50kmx20km-fall-loading-thetafix_N5e7_VelX_01717200.png2012-01-10 12:14 14K 
[IMG]CS1_50kmx20km-fall-loading-thetafix_N5e7_VelX_02109600.png2012-01-10 12:14 14K 
[IMG]CS1_50kmx20km-fall-loading-thetafix_N5e7_VelX_02293200.png2012-01-10 12:16 14K 
[IMG]CS1_50kmx20km-fall-loading-thetafix_N5e7_VelX_02253600.png2012-01-10 12:16 14K 
[IMG]CS1_50kmx20km-fall-loading-thetafix_N5e7_VelX_01328400.png2012-01-10 12:13 14K 
[IMG]CS1_50kmx20km-fall-loading-thetafix_N5e7_VelX_02188800.png2012-01-10 12:16 14K 
[IMG]CS1_50kmx20km-fall-loading-thetafix_N5e7_ExnerDev_00021600.png2012-01-10 12:08 14K 
[IMG]CS1_50kmx20km-fall-loading-thetafix_N5e7_VelX_01800000.png2012-01-10 12:14 14K 
[IMG]CS1_50kmx20km-fall-loading-thetafix_N5e7_VelX_01263600.png2012-01-10 12:12 14K 
[IMG]CS1_50kmx20km-fall-loading-thetafix_N5e7_VelX_01360800.png2012-01-10 12:13 14K 
[IMG]CS1_50kmx20km-fall-loading-thetafix_N5e7_VelX_02336400.png2012-01-10 12:16 14K 
[IMG]CS1_50kmx20km-fall-loading-thetafix_N5e7_VelX_01814400.png2012-01-10 12:14 14K 
[IMG]CS1_50kmx20km-fall-loading-thetafix_N5e7_VelX_02275200.png2012-01-10 12:16 14K 
[IMG]CS1_50kmx20km-fall-loading-thetafix_N5e7_VelX_00774000.png2012-01-10 12:10 14K 
[IMG]CS1_50kmx20km-fall-loading-thetafix_N5e7_VelX_01666800.png2012-01-10 12:14 14K 
[IMG]CS1_50kmx20km-fall-loading-thetafix_N5e7_VelX_02289600.png2012-01-10 12:16 14K 
[IMG]CS1_50kmx20km-fall-loading-thetafix_N5e7_VelX_00849600.png2012-01-10 12:10 14K 
[IMG]CS1_50kmx20km-fall-loading-thetafix_N5e7_VelX_01843200.png2012-01-10 12:14 14K 
[IMG]CS1_50kmx20km-fall-loading-thetafix_N5e7_VelX_02368800.png2012-01-10 12:16 14K 
[IMG]CS1_50kmx20km-fall-loading-thetafix_N5e7_VelX_00792000.png2012-01-10 12:10 14K 
[IMG]CS1_50kmx20km-fall-loading-thetafix_N5e7_VelX_01724400.png2012-01-10 12:14 14K 
[IMG]CS1_50kmx20km-fall-loading-thetafix_N5e7_VelX_01303200.png2012-01-10 12:13 14K 
[IMG]CS1_50kmx20km-fall-loading-thetafix_N5e7_VelX_01702800.png2012-01-10 12:14 14K 
[IMG]CS1_50kmx20km-fall-loading-thetafix_N5e7_VelX_01767600.png2012-01-10 12:14 14K 
[IMG]CS1_50kmx20km-fall-loading-thetafix_N5e7_VelX_01861200.png2012-01-10 12:14 14K 
[IMG]CS1_50kmx20km-fall-loading-thetafix_N5e7_VelX_01659600.png2012-01-10 12:14 14K 
[IMG]CS1_50kmx20km-fall-loading-thetafix_N5e7_VelX_00709200.png2012-01-10 12:10 14K 
[IMG]CS1_50kmx20km-fall-loading-thetafix_N5e7_VelX_01393200.png2012-01-10 12:13 14K 
[IMG]CS1_50kmx20km-fall-loading-thetafix_N5e7_VelX_01353600.png2012-01-10 12:13 14K 
[IMG]CS1_50kmx20km-fall-loading-thetafix_N5e7_VelX_01350000.png2012-01-10 12:13 14K 
[IMG]CS1_50kmx20km-fall-loading-thetafix_N5e7_VelX_01857600.png2012-01-10 12:14 14K 
[IMG]CS1_50kmx20km-fall-loading-thetafix_N5e7_VelX_02206800.png2012-01-10 12:16 14K 
[IMG]CS1_50kmx20km-fall-loading-thetafix_N5e7_VelX_01296000.png2012-01-10 12:13 14K 
[IMG]CS1_50kmx20km-fall-loading-thetafix_N5e7_VelX_01836000.png2012-01-10 12:14 14K 
[IMG]CS1_50kmx20km-fall-loading-thetafix_N5e7_VelX_01911600.png2012-01-10 12:14 14K 
[IMG]CS1_50kmx20km-fall-loading-thetafix_N5e7_Exner_00028800.png2012-01-10 12:08 14K 
[IMG]CS1_50kmx20km-fall-loading-thetafix_N5e7_VelX_01846800.png2012-01-10 12:14 14K 
[IMG]CS1_50kmx20km-fall-loading-thetafix_N5e7_VelX_00842400.png2012-01-10 12:10 14K 
[IMG]CS1_50kmx20km-fall-loading-thetafix_N5e7_VelX_01551600.png2012-01-10 12:13 14K 
[IMG]CS1_50kmx20km-fall-loading-thetafix_N5e7_VelX_01746000.png2012-01-10 12:14 14K 
[IMG]CS1_50kmx20km-fall-loading-thetafix_N5e7_VelX_02271600.png2012-01-10 12:16 14K 
[IMG]CS1_50kmx20km-fall-loading-thetafix_N5e7_VelX_02332800.png2012-01-10 12:16 14K 
[IMG]CS1_50kmx20km-fall-loading-thetafix_N5e7_VelX_01674000.png2012-01-10 12:14 14K 
[IMG]CS1_50kmx20km-fall-loading-thetafix_N5e7_VelX_01818000.png2012-01-10 12:14 14K 
[IMG]CS1_50kmx20km-fall-loading-thetafix_N5e7_VelX_00856800.png2012-01-10 12:10 14K 
[IMG]CS1_50kmx20km-fall-loading-thetafix_N5e7_VelX_01731600.png2012-01-10 12:14 14K 
[IMG]CS1_50kmx20km-fall-loading-thetafix_N5e7_VelX_01886400.png2012-01-10 12:14 14K 
[IMG]CS1_50kmx20km-fall-loading-thetafix_N5e7_VelX_01396800.png2012-01-10 12:13 14K 
[IMG]CS1_50kmx20km-fall-loading-thetafix_N5e7_VelX_00889200.png2012-01-10 12:12 14K 
[IMG]CS1_50kmx20km-fall-loading-thetafix_N5e7_VelX_01864800.png2012-01-10 12:14 14K 
[IMG]CS1_50kmx20km-fall-loading-thetafix_N5e7_VelX_02142000.png2012-01-10 12:14 14K 
[IMG]CS1_50kmx20km-fall-loading-thetafix_N5e7_VelX_00788400.png2012-01-10 12:10 14K 
[IMG]CS1_50kmx20km-fall-loading-thetafix_N5e7_VelX_01641600.png2012-01-10 12:14 14K 
[IMG]CS1_50kmx20km-fall-loading-thetafix_N5e7_VelX_01292400.png2012-01-10 12:12 14K 
[IMG]CS1_50kmx20km-fall-loading-thetafix_N5e7_VelX_00014400.png2012-01-10 12:09 14K 
[IMG]CS1_50kmx20km-fall-loading-thetafix_N5e7_VelX_02163600.png2012-01-10 12:16 14K 
[IMG]CS1_50kmx20km-fall-loading-thetafix_N5e7_VelX_01656000.png2012-01-10 12:14 14K 
[IMG]CS1_50kmx20km-fall-loading-thetafix_N5e7_VelX_01220400.png2012-01-10 12:12 14K 
[IMG]CS1_50kmx20km-fall-loading-thetafix_N5e7_VelX_01018800.png2012-01-10 12:12 14K 
[IMG]CS1_50kmx20km-fall-loading-thetafix_N5e7_VelX_01839600.png2012-01-10 12:14 14K 
[IMG]CS1_50kmx20km-fall-loading-thetafix_N5e7_VelX_02444400.png2012-01-10 12:16 14K 
[IMG]CS1_50kmx20km-fall-loading-thetafix_N5e7_VelX_01900800.png2012-01-10 12:14 14K 
[IMG]CS1_50kmx20km-fall-loading-thetafix_N5e7_VelX_01692000.png2012-01-10 12:14 14K 
[IMG]CS1_50kmx20km-fall-loading-thetafix_N5e7_VelX_00777600.png2012-01-10 12:10 14K 
[IMG]CS1_50kmx20km-fall-loading-thetafix_N5e7_VelX_02340000.png2012-01-10 12:16 14K 
[IMG]CS1_50kmx20km-fall-loading-thetafix_N5e7_VelX_01897200.png2012-01-10 12:14 14K 
[IMG]CS1_50kmx20km-fall-loading-thetafix_N5e7_VelX_01785600.png2012-01-10 12:14 14K 
[IMG]CS1_50kmx20km-fall-loading-thetafix_N5e7_VelX_02214000.png2012-01-10 12:16 14K 
[IMG]CS1_50kmx20km-fall-loading-thetafix_N5e7_VelX_02372400.png2012-01-10 12:16 14K 
[IMG]CS1_50kmx20km-fall-loading-thetafix_N5e7_VelX_02242800.png2012-01-10 12:16 14K 
[IMG]CS1_50kmx20km-fall-loading-thetafix_N5e7_VelX_02430000.png2012-01-10 12:16 14K 
[IMG]CS1_50kmx20km-fall-loading-thetafix_N5e7_VelX_02192400.png2012-01-10 12:16 14K 
[IMG]CS1_50kmx20km-fall-loading-thetafix_N5e7_VelX_01792800.png2012-01-10 12:14 14K 
[IMG]CS1_50kmx20km-fall-loading-thetafix_N5e7_VelX_01594800.png2012-01-10 12:14 14K 
[IMG]CS1_50kmx20km-fall-loading-thetafix_N5e7_VelX_02246400.png2012-01-10 12:16 14K 
[IMG]CS1_50kmx20km-fall-loading-thetafix_N5e7_VelX_02523600.png2012-01-10 12:16 14K 
[IMG]CS1_50kmx20km-fall-loading-thetafix_N5e7_VelX_00838800.png2012-01-10 12:10 14K 
[IMG]CS1_50kmx20km-fall-loading-thetafix_N5e7_VelX_01476000.png2012-01-10 12:13 14K 
[IMG]CS1_50kmx20km-fall-loading-thetafix_N5e7_VelX_00900000.png2012-01-10 12:12 14K 
[IMG]CS1_50kmx20km-fall-loading-thetafix_N5e7_VelX_01242000.png2012-01-10 12:12 14K 
[IMG]CS1_50kmx20km-fall-loading-thetafix_N5e7_VelX_01699200.png2012-01-10 12:14 14K 
[IMG]CS1_50kmx20km-fall-loading-thetafix_N5e7_VelX_01288800.png2012-01-10 12:12 14K 
[IMG]CS1_50kmx20km-fall-loading-thetafix_N5e7_VelX_00676800.png2012-01-10 12:10 14K 
[IMG]CS1_50kmx20km-fall-loading-thetafix_N5e7_VelX_01875600.png2012-01-10 12:14 14K 
[IMG]CS1_50kmx20km-fall-loading-thetafix_N5e7_VelX_01299600.png2012-01-10 12:13 14K 
[IMG]CS1_50kmx20km-fall-loading-thetafix_N5e7_VelX_01648800.png2012-01-10 12:14 14K 
[IMG]CS1_50kmx20km-fall-loading-thetafix_N5e7_VelX_01782000.png2012-01-10 12:14 14K 
[IMG]CS1_50kmx20km-fall-loading-thetafix_N5e7_VelX_01832400.png2012-01-10 12:14 14K 
[IMG]CS1_50kmx20km-fall-loading-thetafix_N5e7_VelX_01681200.png2012-01-10 12:14 14K 
[IMG]CS1_50kmx20km-fall-loading-thetafix_N5e7_VelX_01695600.png2012-01-10 12:14 14K 
[IMG]CS1_50kmx20km-fall-loading-thetafix_N5e7_VelX_02311200.png2012-01-10 12:16 14K 
[IMG]CS1_50kmx20km-fall-loading-thetafix_N5e7_VelX_00831600.png2012-01-10 12:10 14K 
[IMG]CS1_50kmx20km-fall-loading-thetafix_N5e7_VelX_01868400.png2012-01-10 12:14 14K 
[IMG]CS1_50kmx20km-fall-loading-thetafix_N5e7_VelX_00770400.png2012-01-10 12:10 14K 
[IMG]CS1_50kmx20km-fall-loading-thetafix_N5e7_VelX_02264400.png2012-01-10 12:16 14K 
[IMG]CS1_50kmx20km-fall-loading-thetafix_N5e7_VelX_01270800.png2012-01-10 12:12 14K 
[IMG]CS1_50kmx20km-fall-loading-thetafix_N5e7_VelX_01249200.png2012-01-10 12:12 14K 
[IMG]CS1_50kmx20km-fall-loading-thetafix_N5e7_VelX_02401200.png2012-01-10 12:16 14K 
[IMG]CS1_50kmx20km-fall-loading-thetafix_N5e7_VelX_00691200.png2012-01-10 12:10 14K 
[IMG]CS1_50kmx20km-fall-loading-thetafix_N5e7_VelX_01216800.png2012-01-10 12:12 14K 
[IMG]CS1_50kmx20km-fall-loading-thetafix_N5e7_VelX_01504800.png2012-01-10 12:13 14K 
[IMG]CS1_50kmx20km-fall-loading-thetafix_N5e7_VelX_01486800.png2012-01-10 12:13 14K 
[IMG]CS1_50kmx20km-fall-loading-thetafix_N5e7_VelX_02199600.png2012-01-10 12:16 14K 
[IMG]CS1_50kmx20km-fall-loading-thetafix_N5e7_VelX_02152800.png2012-01-10 12:14 14K 
[IMG]CS1_50kmx20km-fall-loading-thetafix_N5e7_VelX_02160000.png2012-01-10 12:16 14K 
[IMG]CS1_50kmx20km-fall-loading-thetafix_N5e7_VelX_02408400.png2012-01-10 12:16 14K 
[IMG]CS1_50kmx20km-fall-loading-thetafix_N5e7_VelX_02574000.png2012-01-10 12:16 14K 
[IMG]CS1_50kmx20km-fall-loading-thetafix_N5e7_VelX_01630800.png2012-01-10 12:14 14K 
[IMG]CS1_50kmx20km-fall-loading-thetafix_N5e7_VelX_01951200.png2012-01-10 12:14 14K 
[IMG]CS1_50kmx20km-fall-loading-thetafix_N5e7_VelX_01807200.png2012-01-10 12:14 14K 
[IMG]CS1_50kmx20km-fall-loading-thetafix_N5e7_VelX_02386800.png2012-01-10 12:16 14K 
[IMG]CS1_50kmx20km-fall-loading-thetafix_N5e7_VelX_01591200.png2012-01-10 12:14 14K 
[IMG]CS1_50kmx20km-fall-loading-thetafix_N5e7_VelX_01317600.png2012-01-10 12:13 14K 
[IMG]CS1_50kmx20km-fall-loading-thetafix_N5e7_VelX_02451600.png2012-01-10 12:16 14K 
[IMG]CS1_50kmx20km-fall-loading-thetafix_N5e7_VelX_01796400.png2012-01-10 12:14 14K 
[IMG]CS1_50kmx20km-fall-loading-thetafix_N5e7_VelX_00723600.png2012-01-10 12:10 14K 
[IMG]CS1_50kmx20km-fall-loading-thetafix_N5e7_VelX_02088000.png2012-01-10 12:14 14K 
[IMG]CS1_50kmx20km-fall-loading-thetafix_N5e7_VelX_02304000.png2012-01-10 12:16 14K 
[IMG]CS1_50kmx20km-fall-loading-thetafix_N5e7_VelX_01321200.png2012-01-10 12:13 14K 
[IMG]CS1_50kmx20km-fall-loading-thetafix_N5e7_VelX_01548000.png2012-01-10 12:13 14K 
[IMG]CS1_50kmx20km-fall-loading-thetafix_N5e7_VelX_01735200.png2012-01-10 12:14 14K 
[IMG]CS1_50kmx20km-fall-loading-thetafix_N5e7_VelX_01285200.png2012-01-10 12:12 14K 
[IMG]CS1_50kmx20km-fall-loading-thetafix_N5e7_VelX_02300400.png2012-01-10 12:16 14K 
[IMG]CS1_50kmx20km-fall-loading-thetafix_N5e7_VelX_02134800.png2012-01-10 12:14 14K 
[IMG]CS1_50kmx20km-fall-loading-thetafix_N5e7_VelX_01850400.png2012-01-10 12:14 14K 
[IMG]CS1_50kmx20km-fall-loading-thetafix_N5e7_VelX_02224800.png2012-01-10 12:16 14K 
[IMG]CS1_50kmx20km-fall-loading-thetafix_N5e7_VelX_01598400.png2012-01-10 12:14 14K 
[IMG]CS1_50kmx20km-fall-loading-thetafix_N5e7_VelX_02448000.png2012-01-10 12:16 14K 
[IMG]CS1_50kmx20km-fall-loading-thetafix_N5e7_VelX_02268000.png2012-01-10 12:16 14K 
[IMG]CS1_50kmx20km-fall-loading-thetafix_N5e7_VelX_01677600.png2012-01-10 12:14 14K 
[IMG]CS1_50kmx20km-fall-loading-thetafix_N5e7_VelX_00860400.png2012-01-10 12:10 14K 
[IMG]CS1_50kmx20km-fall-loading-thetafix_N5e7_VelX_01929600.png2012-01-10 12:14 14K 
[IMG]CS1_50kmx20km-fall-loading-thetafix_N5e7_ExnerDev_00028800.png2012-01-10 12:08 14K 
[IMG]CS1_50kmx20km-fall-loading-thetafix_N5e7_VelX_00741600.png2012-01-10 12:10 15K 
[IMG]CS1_50kmx20km-fall-loading-thetafix_N5e7_VelX_01310400.png2012-01-10 12:13 15K 
[IMG]CS1_50kmx20km-fall-loading-thetafix_N5e7_VelX_01652400.png2012-01-10 12:14 15K 
[IMG]CS1_50kmx20km-fall-loading-thetafix_N5e7_VelX_02228400.png2012-01-10 12:16 15K 
[IMG]CS1_50kmx20km-fall-loading-thetafix_N5e7_VelX_00835200.png2012-01-10 12:10 15K 
[IMG]CS1_50kmx20km-fall-loading-thetafix_N5e7_VelX_02278800.png2012-01-10 12:16 15K 
[IMG]CS1_50kmx20km-fall-loading-thetafix_N5e7_VelX_02322000.png2012-01-10 12:16 15K 
[IMG]CS1_50kmx20km-fall-loading-thetafix_N5e7_VelX_01569600.png2012-01-10 12:13 15K 
[IMG]CS1_50kmx20km-fall-loading-thetafix_N5e7_VelX_01933200.png2012-01-10 12:14 15K 
[IMG]CS1_50kmx20km-fall-loading-thetafix_N5e7_VelX_01738800.png2012-01-10 12:14 15K 
[IMG]CS1_50kmx20km-fall-loading-thetafix_N5e7_VelX_01407600.png2012-01-10 12:13 15K 
[IMG]CS1_50kmx20km-fall-loading-thetafix_N5e7_VelX_01447200.png2012-01-10 12:13 15K 
[IMG]CS1_50kmx20km-fall-loading-thetafix_N5e7_VelX_00806400.png2012-01-10 12:10 15K 
[IMG]CS1_50kmx20km-fall-loading-thetafix_N5e7_VelX_01749600.png2012-01-10 12:14 15K 
[IMG]CS1_50kmx20km-fall-loading-thetafix_N5e7_VelX_01202400.png2012-01-10 12:12 15K 
[IMG]CS1_50kmx20km-fall-loading-thetafix_N5e7_VelX_01828800.png2012-01-10 12:14 15K 
[IMG]CS1_50kmx20km-fall-loading-thetafix_N5e7_VelX_02235600.png2012-01-10 12:16 15K 
[IMG]CS1_50kmx20km-fall-loading-thetafix_N5e7_VelX_01789200.png2012-01-10 12:14 15K 
[IMG]CS1_50kmx20km-fall-loading-thetafix_N5e7_VelX_00745200.png2012-01-10 12:10 15K 
[IMG]CS1_50kmx20km-fall-loading-thetafix_N5e7_VelX_01105200.png2012-01-10 12:12 15K 
[IMG]CS1_50kmx20km-fall-loading-thetafix_N5e7_VelX_01324800.png2012-01-10 12:13 15K 
[IMG]CS1_50kmx20km-fall-loading-thetafix_N5e7_VelX_02365200.png2012-01-10 12:16 15K 
[IMG]CS1_50kmx20km-fall-loading-thetafix_N5e7_VelX_01587600.png2012-01-10 12:14 15K 
[IMG]CS1_50kmx20km-fall-loading-thetafix_N5e7_VelX_00738000.png2012-01-10 12:10 15K 
[IMG]CS1_50kmx20km-fall-loading-thetafix_N5e7_VelX_01756800.png2012-01-10 12:14 15K 
[IMG]CS1_50kmx20km-fall-loading-thetafix_N5e7_VelX_01940400.png2012-01-10 12:14 15K 
[IMG]CS1_50kmx20km-fall-loading-thetafix_N5e7_VelX_01774800.png2012-01-10 12:14 15K 
[IMG]CS1_50kmx20km-fall-loading-thetafix_N5e7_VelX_01882800.png2012-01-10 12:14 15K 
[IMG]CS1_50kmx20km-fall-loading-thetafix_N5e7_VelX_00702000.png2012-01-10 12:10 15K 
[IMG]CS1_50kmx20km-fall-loading-thetafix_N5e7_VelX_01281600.png2012-01-10 12:12 15K 
[IMG]CS1_50kmx20km-fall-loading-thetafix_N5e7_VelX_01713600.png2012-01-10 12:14 15K 
[IMG]CS1_50kmx20km-fall-loading-thetafix_N5e7_VelX_01555200.png2012-01-10 12:13 15K 
[IMG]CS1_50kmx20km-fall-loading-thetafix_N5e7_VelX_02307600.png2012-01-10 12:16 15K 
[IMG]CS1_50kmx20km-fall-loading-thetafix_N5e7_VelX_02404800.png2012-01-10 12:16 15K 
[IMG]CS1_50kmx20km-fall-loading-thetafix_N5e7_VelX_02570400.png2012-01-10 12:16 15K 
[IMG]CS1_50kmx20km-fall-loading-thetafix_N5e7_VelX_01764000.png2012-01-10 12:14 15K 
[IMG]CS1_50kmx20km-fall-loading-thetafix_N5e7_VelX_02048400.png2012-01-10 12:14 15K 
[IMG]CS1_50kmx20km-fall-loading-thetafix_N5e7_VelX_01198800.png2012-01-10 12:12 15K 
[IMG]CS1_50kmx20km-fall-loading-thetafix_N5e7_VelX_01890000.png2012-01-10 12:14 15K 
[IMG]CS1_50kmx20km-fall-loading-thetafix_N5e7_VelX_00846000.png2012-01-10 12:10 15K 
[IMG]CS1_50kmx20km-fall-loading-thetafix_N5e7_VelX_02131200.png2012-01-10 12:14 15K 
[IMG]CS1_50kmx20km-fall-loading-thetafix_N5e7_VelX_02343600.png2012-01-10 12:16 15K 
[IMG]CS1_50kmx20km-fall-loading-thetafix_N5e7_VelX_01893600.png2012-01-10 12:14 15K 
[IMG]CS1_50kmx20km-fall-loading-thetafix_N5e7_VelX_02584800.png2012-01-10 12:16 15K 
[IMG]CS1_50kmx20km-fall-loading-thetafix_N5e7_VelX_02127600.png2012-01-10 12:14 15K 
[IMG]CS1_50kmx20km-fall-loading-thetafix_N5e7_VelX_00867600.png2012-01-10 12:12 15K 
[IMG]CS1_50kmx20km-fall-loading-thetafix_N5e7_VelX_01339200.png2012-01-10 12:13 15K 
[IMG]CS1_50kmx20km-fall-loading-thetafix_N5e7_VelX_01958400.png2012-01-10 12:14 15K 
[IMG]CS1_50kmx20km-fall-loading-thetafix_N5e7_VelX_02509200.png2012-01-10 12:16 15K 
[IMG]CS1_50kmx20km-fall-loading-thetafix_N5e7_VelX_00720000.png2012-01-10 12:10 15K 
[IMG]CS1_50kmx20km-fall-loading-thetafix_N5e7_VelX_01213200.png2012-01-10 12:12 15K 
[IMG]CS1_50kmx20km-fall-loading-thetafix_N5e7_VelX_00928800.png2012-01-10 12:12 15K 
[IMG]CS1_50kmx20km-fall-loading-thetafix_N5e7_VelX_00874800.png2012-01-10 12:12 15K 
[IMG]CS1_50kmx20km-fall-loading-thetafix_N5e7_VelX_01803600.png2012-01-10 12:14 15K 
[IMG]CS1_50kmx20km-fall-loading-thetafix_N5e7_VelX_01915200.png2012-01-10 12:14 15K 
[IMG]CS1_50kmx20km-fall-loading-thetafix_N5e7_VelX_01821600.png2012-01-10 12:14 15K 
[IMG]CS1_50kmx20km-fall-loading-thetafix_N5e7_VelX_01252800.png2012-01-10 12:12 15K 
[IMG]CS1_50kmx20km-fall-loading-thetafix_N5e7_VelX_01234800.png2012-01-10 12:12 15K 
[IMG]CS1_50kmx20km-fall-loading-thetafix_N5e7_VelX_02282400.png2012-01-10 12:16 15K 
[IMG]CS1_50kmx20km-fall-loading-thetafix_N5e7_VelX_01490400.png2012-01-10 12:13 15K 
[IMG]CS1_50kmx20km-fall-loading-thetafix_N5e7_VelX_01245600.png2012-01-10 12:12 15K 
[IMG]CS1_50kmx20km-fall-loading-thetafix_N5e7_VelX_01760400.png2012-01-10 12:14 15K 
[IMG]CS1_50kmx20km-fall-loading-thetafix_N5e7_VelX_01602000.png2012-01-10 12:14 15K 
[IMG]CS1_50kmx20km-fall-loading-thetafix_N5e7_VelX_01962000.png2012-01-10 12:14 15K 
[IMG]CS1_50kmx20km-fall-loading-thetafix_N5e7_VelX_00727200.png2012-01-10 12:10 15K 
[IMG]CS1_50kmx20km-fall-loading-thetafix_N5e7_VelX_02422800.png2012-01-10 12:16 15K 
[IMG]CS1_50kmx20km-fall-loading-thetafix_N5e7_VelX_02296800.png2012-01-10 12:16 15K 
[IMG]CS1_50kmx20km-fall-loading-thetafix_N5e7_VelX_02325600.png2012-01-10 12:16 15K 
[IMG]CS1_50kmx20km-fall-loading-thetafix_N5e7_VelX_01908000.png2012-01-10 12:14 15K 
[IMG]CS1_50kmx20km-fall-loading-thetafix_N5e7_VelX_02106000.png2012-01-10 12:14 15K 
[IMG]CS1_50kmx20km-fall-loading-thetafix_N5e7_VelX_01576800.png2012-01-10 12:13 15K 
[IMG]CS1_50kmx20km-fall-loading-thetafix_N5e7_VelX_02347200.png2012-01-10 12:16 15K 
[IMG]CS1_50kmx20km-fall-loading-thetafix_N5e7_VelX_02318400.png2012-01-10 12:16 15K 
[IMG]CS1_50kmx20km-fall-loading-thetafix_N5e7_VelX_02138400.png2012-01-10 12:14 15K 
[IMG]CS1_50kmx20km-fall-loading-thetafix_N5e7_VelX_01566000.png2012-01-10 12:13 15K 
[IMG]CS1_50kmx20km-fall-loading-thetafix_N5e7_VelX_01904400.png2012-01-10 12:14 15K 
[IMG]CS1_50kmx20km-fall-loading-thetafix_N5e7_VelX_01670400.png2012-01-10 12:14 15K 
[IMG]CS1_50kmx20km-fall-loading-thetafix_N5e7_VelX_01728000.png2012-01-10 12:14 15K 
[IMG]CS1_50kmx20km-fall-loading-thetafix_N5e7_VelX_01342800.png2012-01-10 12:13 15K 
[IMG]CS1_50kmx20km-fall-loading-thetafix_N5e7_VelX_01382400.png2012-01-10 12:13 15K 
[IMG]CS1_50kmx20km-fall-loading-thetafix_N5e7_VelX_01994400.png2012-01-10 12:14 15K 
[IMG]CS1_50kmx20km-fall-loading-thetafix_N5e7_VelX_01357200.png2012-01-10 12:13 15K 
[IMG]CS1_50kmx20km-fall-loading-thetafix_N5e7_VelX_01954800.png2012-01-10 12:14 15K 
[IMG]CS1_50kmx20km-fall-loading-thetafix_N5e7_VelX_01753200.png2012-01-10 12:14 15K 
[IMG]CS1_50kmx20km-fall-loading-thetafix_N5e7_VelX_01418400.png2012-01-10 12:13 15K 
[IMG]CS1_50kmx20km-fall-loading-thetafix_N5e7_VelX_01483200.png2012-01-10 12:13 15K 
[IMG]CS1_50kmx20km-fall-loading-thetafix_N5e7_VelX_01306800.png2012-01-10 12:13 15K 
[IMG]CS1_50kmx20km-fall-loading-thetafix_N5e7_VelX_01371600.png2012-01-10 12:13 15K 
[IMG]CS1_50kmx20km-fall-loading-thetafix_N5e7_VelX_01267200.png2012-01-10 12:12 15K 
[IMG]CS1_50kmx20km-fall-loading-thetafix_N5e7_VelX_02102400.png2012-01-10 12:14 15K 
[IMG]CS1_50kmx20km-fall-loading-thetafix_N5e7_VelX_02221200.png2012-01-10 12:16 15K 
[IMG]CS1_50kmx20km-fall-loading-thetafix_N5e7_VelX_01573200.png2012-01-10 12:13 15K 
[IMG]CS1_50kmx20km-fall-loading-thetafix_N5e7_VelX_01645200.png2012-01-10 12:14 15K 
[IMG]CS1_50kmx20km-fall-loading-thetafix_N5e7_VelX_01638000.png2012-01-10 12:14 15K 
[IMG]CS1_50kmx20km-fall-loading-thetafix_N5e7_VelX_02358000.png2012-01-10 12:16 15K 
[IMG]CS1_50kmx20km-fall-loading-thetafix_N5e7_VelX_01778400.png2012-01-10 12:14 15K 
[IMG]CS1_50kmx20km-fall-loading-thetafix_N5e7_VelX_02397600.png2012-01-10 12:16 15K 
[IMG]CS1_50kmx20km-fall-loading-thetafix_N5e7_VelX_00914400.png2012-01-10 12:12 15K 
[IMG]CS1_50kmx20km-fall-loading-thetafix_N5e7_VelX_01584000.png2012-01-10 12:14 15K 
[IMG]CS1_50kmx20km-fall-loading-thetafix_N5e7_VelX_00813600.png2012-01-10 12:10 15K 
[IMG]CS1_50kmx20km-fall-loading-thetafix_N5e7_VelX_01278000.png2012-01-10 12:12 15K 
[IMG]CS1_50kmx20km-fall-loading-thetafix_N5e7_VelX_02145600.png2012-01-10 12:14 15K 
[IMG]CS1_50kmx20km-fall-loading-thetafix_N5e7_VelX_00882000.png2012-01-10 12:12 15K 
[IMG]CS1_50kmx20km-fall-loading-thetafix_N5e7_VelX_01580400.png2012-01-10 12:13 15K 
[IMG]CS1_50kmx20km-fall-loading-thetafix_N5e7_VelX_00655200.png2012-01-10 12:10 15K 
[IMG]CS1_50kmx20km-fall-loading-thetafix_N5e7_VelX_02581200.png2012-01-10 12:16 15K 
[IMG]CS1_50kmx20km-fall-loading-thetafix_N5e7_VelX_02412000.png2012-01-10 12:16 15K 
[IMG]CS1_50kmx20km-fall-loading-thetafix_N5e7_VelX_01494000.png2012-01-10 12:13 15K 
[IMG]CS1_50kmx20km-fall-loading-thetafix_N5e7_VelX_00817200.png2012-01-10 12:10 15K 
[IMG]CS1_50kmx20km-fall-loading-thetafix_N5e7_VelX_02437200.png2012-01-10 12:16 15K 
[IMG]CS1_50kmx20km-fall-loading-thetafix_N5e7_VelX_02415600.png2012-01-10 12:16 15K 
[IMG]CS1_50kmx20km-fall-loading-thetafix_N5e7_VelX_01188000.png2012-01-10 12:12 15K 
[IMG]CS1_50kmx20km-fall-loading-thetafix_N5e7_VelX_01976400.png2012-01-10 12:14 15K 
[IMG]CS1_50kmx20km-fall-loading-thetafix_N5e7_VelX_02354400.png2012-01-10 12:16 15K 
[IMG]CS1_50kmx20km-fall-loading-thetafix_N5e7_VelX_00820800.png2012-01-10 12:10 15K 
[IMG]CS1_50kmx20km-fall-loading-thetafix_N5e7_VelX_00853200.png2012-01-10 12:10 15K 
[IMG]CS1_50kmx20km-fall-loading-thetafix_N5e7_VelX_00871200.png2012-01-10 12:12 15K 
[IMG]CS1_50kmx20km-fall-loading-thetafix_N5e7_VelX_00025200.png2012-01-10 12:09 15K 
[IMG]CS1_50kmx20km-fall-loading-thetafix_N5e7_VelX_01472400.png2012-01-10 12:13 15K 
[IMG]CS1_50kmx20km-fall-loading-thetafix_N5e7_VelX_01605600.png2012-01-10 12:14 15K 
[IMG]CS1_50kmx20km-fall-loading-thetafix_N5e7_VelX_02239200.png2012-01-10 12:16 15K 
[IMG]CS1_50kmx20km-fall-loading-thetafix_N5e7_VelX_00781200.png2012-01-10 12:10 15K 
[IMG]CS1_50kmx20km-fall-loading-thetafix_N5e7_VelX_01314000.png2012-01-10 12:13 15K 
[IMG]CS1_50kmx20km-fall-loading-thetafix_N5e7_VelX_01634400.png2012-01-10 12:14 15K 
[IMG]CS1_50kmx20km-fall-loading-thetafix_N5e7_VelX_01134000.png2012-01-10 12:12 15K 
[IMG]CS1_50kmx20km-fall-loading-thetafix_N5e7_VelX_01479600.png2012-01-10 12:13 15K 
[IMG]CS1_50kmx20km-fall-loading-thetafix_N5e7_VelX_01008000.png2012-01-10 12:12 15K 
[IMG]CS1_50kmx20km-fall-loading-thetafix_N5e7_VelX_02203200.png2012-01-10 12:16 15K 
[IMG]CS1_50kmx20km-fall-loading-thetafix_N5e7_VelX_02210400.png2012-01-10 12:16 15K 
[IMG]CS1_50kmx20km-fall-loading-thetafix_N5e7_VelX_01688400.png2012-01-10 12:14 15K 
[IMG]CS1_50kmx20km-fall-loading-thetafix_N5e7_VelX_01468800.png2012-01-10 12:13 15K 
[IMG]CS1_50kmx20km-fall-loading-thetafix_N5e7_VelX_00021600.png2012-01-10 12:09 15K 
[IMG]CS1_50kmx20km-fall-loading-thetafix_N5e7_VelX_01274400.png2012-01-10 12:12 15K 
[IMG]CS1_50kmx20km-fall-loading-thetafix_N5e7_VelX_02113200.png2012-01-10 12:14 15K 
[IMG]CS1_50kmx20km-fall-loading-thetafix_N5e7_VelX_00766800.png2012-01-10 12:10 15K 
[IMG]CS1_50kmx20km-fall-loading-thetafix_N5e7_VelX_00946800.png2012-01-10 12:12 15K 
[IMG]CS1_50kmx20km-fall-loading-thetafix_N5e7_VelX_01227600.png2012-01-10 12:12 15K 
[IMG]CS1_50kmx20km-fall-loading-thetafix_N5e7_VelX_01872000.png2012-01-10 12:14 15K 
[IMG]CS1_50kmx20km-fall-loading-thetafix_N5e7_VelX_01051200.png2012-01-10 12:12 15K 
[IMG]CS1_50kmx20km-fall-loading-thetafix_N5e7_VelX_00734400.png2012-01-10 12:10 15K 
[IMG]CS1_50kmx20km-fall-loading-thetafix_N5e7_VelX_02314800.png2012-01-10 12:16 15K 
[IMG]CS1_50kmx20km-fall-loading-thetafix_N5e7_ExnerDev_00828000.png2012-01-10 12:09 15K 
[IMG]CS1_50kmx20km-fall-loading-thetafix_N5e7_VelX_01623600.png2012-01-10 12:14 15K 
[IMG]CS1_50kmx20km-fall-loading-thetafix_N5e7_VelX_02178000.png2012-01-10 12:16 15K 
[IMG]CS1_50kmx20km-fall-loading-thetafix_N5e7_VelX_01206000.png2012-01-10 12:12 15K 
[IMG]CS1_50kmx20km-fall-loading-thetafix_N5e7_VelX_01497600.png2012-01-10 12:13 15K 
[IMG]CS1_50kmx20km-fall-loading-thetafix_N5e7_VelX_01141200.png2012-01-10 12:12 15K 
[IMG]CS1_50kmx20km-fall-loading-thetafix_N5e7_VelX_00694800.png2012-01-10 12:10 15K 
[IMG]CS1_50kmx20km-fall-loading-thetafix_N5e7_VelX_01022400.png2012-01-10 12:12 15K 
[IMG]CS1_50kmx20km-fall-loading-thetafix_N5e7_VelX_02577600.png2012-01-10 12:16 15K 
[IMG]CS1_50kmx20km-fall-loading-thetafix_N5e7_VelX_01998000.png2012-01-10 12:14 15K 
[IMG]CS1_50kmx20km-fall-loading-thetafix_N5e7_VelX_00903600.png2012-01-10 12:12 15K 
[IMG]CS1_50kmx20km-fall-loading-thetafix_N5e7_VelX_00763200.png2012-01-10 12:10 15K 
[IMG]CS1_50kmx20km-fall-loading-thetafix_N5e7_VelX_01368000.png2012-01-10 12:13 15K 
[IMG]CS1_50kmx20km-fall-loading-thetafix_N5e7_VelX_02026800.png2012-01-10 12:14 15K 
[IMG]CS1_50kmx20km-fall-loading-thetafix_N5e7_VelX_01450800.png2012-01-10 12:13 15K 
[IMG]CS1_50kmx20km-fall-loading-thetafix_N5e7_VelX_00748800.png2012-01-10 12:10 15K 
[IMG]CS1_50kmx20km-fall-loading-thetafix_N5e7_VelX_01918800.png2012-01-10 12:14 15K 
[IMG]CS1_50kmx20km-fall-loading-thetafix_N5e7_VelX_00795600.png2012-01-10 12:10 15K 
[IMG]CS1_50kmx20km-fall-loading-thetafix_N5e7_VelX_02001600.png2012-01-10 12:14 15K 
[IMG]CS1_50kmx20km-fall-loading-thetafix_N5e7_VelX_01054800.png2012-01-10 12:12 15K 
[IMG]CS1_50kmx20km-fall-loading-thetafix_N5e7_VelX_02217600.png2012-01-10 12:16 15K 
[IMG]CS1_50kmx20km-fall-loading-thetafix_N5e7_VelX_01364400.png2012-01-10 12:13 15K 
[IMG]CS1_50kmx20km-fall-loading-thetafix_N5e7_VelX_01522800.png2012-01-10 12:13 15K 
[IMG]CS1_50kmx20km-fall-loading-thetafix_N5e7_VelX_01458000.png2012-01-10 12:13 15K 
[IMG]CS1_50kmx20km-fall-loading-thetafix_N5e7_VelX_01620000.png2012-01-10 12:14 15K 
[IMG]CS1_50kmx20km-fall-loading-thetafix_N5e7_VelX_01335600.png2012-01-10 12:13 15K 
[IMG]CS1_50kmx20km-fall-loading-thetafix_N5e7_VelX_01069200.png2012-01-10 12:12 15K 
[IMG]CS1_50kmx20km-fall-loading-thetafix_N5e7_VelX_01544400.png2012-01-10 12:13 15K 
[IMG]CS1_50kmx20km-fall-loading-thetafix_N5e7_VelX_02260800.png2012-01-10 12:16 15K 
[IMG]CS1_50kmx20km-fall-loading-thetafix_N5e7_VelX_02052000.png2012-01-10 12:14 15K 
[IMG]CS1_50kmx20km-fall-loading-thetafix_N5e7_VelX_02070000.png2012-01-10 12:14 15K 
[IMG]CS1_50kmx20km-fall-loading-thetafix_N5e7_VelX_02174400.png2012-01-10 12:16 15K 
[IMG]CS1_50kmx20km-fall-loading-thetafix_N5e7_VelX_01011600.png2012-01-10 12:12 15K 
[IMG]CS1_50kmx20km-fall-loading-thetafix_N5e7_DensCloud_00032400.png2012-01-10 12:08 15K 
[IMG]CS1_50kmx20km-fall-loading-thetafix_N5e7_VelX_02394000.png2012-01-10 12:16 15K 
[IMG]CS1_50kmx20km-fall-loading-thetafix_N5e7_VelX_00615600.png2012-01-10 12:10 15K 
[IMG]CS1_50kmx20km-fall-loading-thetafix_N5e7_VelX_01375200.png2012-01-10 12:13 15K 
[IMG]CS1_50kmx20km-fall-loading-thetafix_N5e7_VelX_02170800.png2012-01-10 12:16 15K 
[IMG]CS1_50kmx20km-fall-loading-thetafix_N5e7_VelX_02120400.png2012-01-10 12:14 15K 
[IMG]CS1_50kmx20km-fall-loading-thetafix_N5e7_VelX_01454400.png2012-01-10 12:13 15K 
[IMG]CS1_50kmx20km-fall-loading-thetafix_N5e7_VelX_00684000.png2012-01-10 12:10 15K 
[IMG]CS1_50kmx20km-fall-loading-thetafix_N5e7_VelX_02494800.png2012-01-10 12:16 15K 
[IMG]CS1_50kmx20km-fall-loading-thetafix_N5e7_VelX_01166400.png2012-01-10 12:12 15K 
[IMG]CS1_50kmx20km-fall-loading-thetafix_N5e7_VelX_01501200.png2012-01-10 12:13 15K 
[IMG]CS1_50kmx20km-fall-loading-thetafix_N5e7_VelX_02376000.png2012-01-10 12:16 15K 
[IMG]CS1_50kmx20km-fall-loading-thetafix_N5e7_VelX_00658800.png2012-01-10 12:10 15K 
[IMG]CS1_50kmx20km-fall-loading-thetafix_N5e7_VelX_00673200.png2012-01-10 12:10 15K 
[IMG]CS1_50kmx20km-fall-loading-thetafix_N5e7_VelX_00622800.png2012-01-10 12:10 15K 
[IMG]CS1_50kmx20km-fall-loading-thetafix_N5e7_VelX_01224000.png2012-01-10 12:12 15K 
[IMG]CS1_50kmx20km-fall-loading-thetafix_N5e7_VelX_01432800.png2012-01-10 12:13 15K 
[IMG]CS1_50kmx20km-fall-loading-thetafix_N5e7_VelX_01436400.png2012-01-10 12:13 15K 
[IMG]CS1_50kmx20km-fall-loading-thetafix_N5e7_ExnerDev_02286000.png2012-01-10 12:15 15K 
[IMG]CS1_50kmx20km-fall-loading-thetafix_N5e7_VelX_00799200.png2012-01-10 12:10 15K 
[IMG]CS1_50kmx20km-fall-loading-thetafix_N5e7_VelX_02458800.png2012-01-10 12:16 15K 
[IMG]CS1_50kmx20km-fall-loading-thetafix_N5e7_VelX_02116800.png2012-01-10 12:14 15K 
[IMG]CS1_50kmx20km-fall-loading-thetafix_N5e7_VelX_02181600.png2012-01-10 12:16 15K 
[IMG]CS1_50kmx20km-fall-loading-thetafix_N5e7_VelX_02426400.png2012-01-10 12:16 15K 
[IMG]CS1_50kmx20km-fall-loading-thetafix_N5e7_VelX_01378800.png2012-01-10 12:13 15K 
[IMG]CS1_50kmx20km-fall-loading-thetafix_N5e7_VelX_01710000.png2012-01-10 12:14 15K 
[IMG]CS1_50kmx20km-fall-loading-thetafix_N5e7_VelX_00824400.png2012-01-10 12:10 15K 
[IMG]CS1_50kmx20km-fall-loading-thetafix_N5e7_VelX_01087200.png2012-01-10 12:12 15K 
[IMG]CS1_50kmx20km-fall-loading-thetafix_N5e7_VelX_01465200.png2012-01-10 12:13 15K 
[IMG]CS1_50kmx20km-fall-loading-thetafix_N5e7_VelX_01108800.png2012-01-10 12:12 15K 
[IMG]CS1_50kmx20km-fall-loading-thetafix_N5e7_VelX_01706400.png2012-01-10 12:14 15K 
[IMG]CS1_50kmx20km-fall-loading-thetafix_N5e7_VelX_01947600.png2012-01-10 12:14 15K 
[IMG]CS1_50kmx20km-fall-loading-thetafix_N5e7_VelX_02390400.png2012-01-10 12:16 15K 
[IMG]CS1_50kmx20km-fall-loading-thetafix_N5e7_VelX_02016000.png2012-01-10 12:14 15K 
[IMG]CS1_50kmx20km-fall-loading-thetafix_N5e7_VelX_01148400.png2012-01-10 12:12 15K 
[IMG]CS1_50kmx20km-fall-loading-thetafix_N5e7_VelX_02250000.png2012-01-10 12:16 15K 
[IMG]CS1_50kmx20km-fall-loading-thetafix_N5e7_VelX_00730800.png2012-01-10 12:10 15K 
[IMG]CS1_50kmx20km-fall-loading-thetafix_N5e7_VelX_02361600.png2012-01-10 12:16 15K 
[IMG]CS1_50kmx20km-fall-loading-thetafix_N5e7_VelX_00608400.png2012-01-10 12:10 15K 
[IMG]CS1_50kmx20km-fall-loading-thetafix_N5e7_VelX_00892800.png2012-01-10 12:12 15K 
[IMG]CS1_50kmx20km-fall-loading-thetafix_N5e7_VelX_01036800.png2012-01-10 12:12 15K 
[IMG]CS1_50kmx20km-fall-loading-thetafix_N5e7_VelX_02124000.png2012-01-10 12:14 15K 
[IMG]CS1_50kmx20km-fall-loading-thetafix_N5e7_VelX_02527200.png2012-01-10 12:16 15K 
[IMG]CS1_50kmx20km-fall-loading-thetafix_N5e7_VelX_00986400.png2012-01-10 12:12 15K 
[IMG]CS1_50kmx20km-fall-loading-thetafix_N5e7_VelX_01015200.png2012-01-10 12:12 15K 
[IMG]CS1_50kmx20km-fall-loading-thetafix_N5e7_VelX_01461600.png2012-01-10 12:13 15K 
[IMG]CS1_50kmx20km-fall-loading-thetafix_N5e7_VelX_01972800.png2012-01-10 12:14 15K 
[IMG]CS1_50kmx20km-fall-loading-thetafix_N5e7_VelX_00885600.png2012-01-10 12:12 15K 
[IMG]CS1_50kmx20km-fall-loading-thetafix_N5e7_VelX_02541600.png2012-01-10 12:16 15K 
[IMG]CS1_50kmx20km-fall-loading-thetafix_N5e7_VelX_00756000.png2012-01-10 12:10 15K 
[IMG]CS1_50kmx20km-fall-loading-thetafix_N5e7_VelX_00990000.png2012-01-10 12:12 15K 
[IMG]CS1_50kmx20km-fall-loading-thetafix_N5e7_VelX_01425600.png2012-01-10 12:13 15K 
[IMG]CS1_50kmx20km-fall-loading-thetafix_N5e7_ExnerDev_01908000.png2012-01-10 12:13 15K 
[IMG]CS1_50kmx20km-fall-loading-thetafix_N5e7_VelX_02080800.png2012-01-10 12:14 15K 
[IMG]CS1_50kmx20km-fall-loading-thetafix_N5e7_VelX_02030400.png2012-01-10 12:14 15K 
[IMG]CS1_50kmx20km-fall-loading-thetafix_N5e7_VelZ_00018000.png2012-01-10 12:09 15K 
[IMG]CS1_50kmx20km-fall-loading-thetafix_N5e7_VelX_01159200.png2012-01-10 12:12 15K 
[IMG]CS1_50kmx20km-fall-loading-thetafix_N5e7_VelX_00586800.png2012-01-10 12:10 15K 
[IMG]CS1_50kmx20km-fall-loading-thetafix_N5e7_VelX_01256400.png2012-01-10 12:12 15K 
[IMG]CS1_50kmx20km-fall-loading-thetafix_N5e7_Exner_00032400.png2012-01-10 12:08 15K 
[IMG]CS1_50kmx20km-fall-loading-thetafix_N5e7_VelX_00651600.png2012-01-10 12:10 15K 
[IMG]CS1_50kmx20km-fall-loading-thetafix_N5e7_VelX_02167200.png2012-01-10 12:16 15K 
[IMG]CS1_50kmx20km-fall-loading-thetafix_N5e7_VelX_02329200.png2012-01-10 12:16 15K 
[IMG]CS1_50kmx20km-fall-loading-thetafix_N5e7_ExnerDev_00770400.png2012-01-10 12:09 15K 
[IMG]CS1_50kmx20km-fall-loading-thetafix_N5e7_VelX_01965600.png2012-01-10 12:14 15K 
[IMG]CS1_50kmx20km-fall-loading-thetafix_N5e7_VelX_00669600.png2012-01-10 12:10 15K 
[IMG]CS1_50kmx20km-fall-loading-thetafix_N5e7_VelX_00864000.png2012-01-10 12:12 15K 
[IMG]CS1_50kmx20km-fall-loading-thetafix_N5e7_VelX_00576000.png2012-01-10 12:10 15K 
[IMG]CS1_50kmx20km-fall-loading-thetafix_N5e7_VelX_01987200.png2012-01-10 12:14 15K 
[IMG]CS1_50kmx20km-fall-loading-thetafix_N5e7_VelX_00705600.png2012-01-10 12:10 15K 
[IMG]CS1_50kmx20km-fall-loading-thetafix_N5e7_VelX_00810000.png2012-01-10 12:10 15K 
[IMG]CS1_50kmx20km-fall-loading-thetafix_N5e7_VelX_01980000.png2012-01-10 12:14 15K 
[IMG]CS1_50kmx20km-fall-loading-thetafix_N5e7_VelX_02419200.png2012-01-10 12:16 15K 
[IMG]CS1_50kmx20km-fall-loading-thetafix_N5e7_VelX_01386000.png2012-01-10 12:13 15K 
[IMG]CS1_50kmx20km-fall-loading-thetafix_N5e7_VelX_02037600.png2012-01-10 12:14 15K 
[IMG]CS1_50kmx20km-fall-loading-thetafix_N5e7_VelX_01058400.png2012-01-10 12:12 15K 
[IMG]CS1_50kmx20km-fall-loading-thetafix_N5e7_VelX_00939600.png2012-01-10 12:12 15K 
[IMG]CS1_50kmx20km-fall-loading-thetafix_N5e7_VelX_01936800.png2012-01-10 12:14 15K 
[IMG]CS1_50kmx20km-fall-loading-thetafix_N5e7_VelX_01076400.png2012-01-10 12:12 15K 
[IMG]CS1_50kmx20km-fall-loading-thetafix_N5e7_VelX_01119600.png2012-01-10 12:12 15K 
[IMG]CS1_50kmx20km-fall-loading-thetafix_N5e7_ExnerDev_01875600.png2012-01-10 12:13 15K 
[IMG]CS1_50kmx20km-fall-loading-thetafix_N5e7_VelX_02592000.png2012-01-10 12:16 15K 
[IMG]CS1_50kmx20km-fall-loading-thetafix_N5e7_VelX_02257200.png2012-01-10 12:16 15K 
[IMG]CS1_50kmx20km-fall-loading-thetafix_N5e7_VelX_01170000.png2012-01-10 12:12 15K 
[IMG]CS1_50kmx20km-fall-loading-thetafix_N5e7_VelX_01112400.png2012-01-10 12:12 15K 
[IMG]CS1_50kmx20km-fall-loading-thetafix_N5e7_VelX_00666000.png2012-01-10 12:10 15K 
[IMG]CS1_50kmx20km-fall-loading-thetafix_N5e7_VelX_00644400.png2012-01-10 12:10 15K 
[IMG]CS1_50kmx20km-fall-loading-thetafix_N5e7_VelX_01411200.png2012-01-10 12:13 15K 
[IMG]CS1_50kmx20km-fall-loading-thetafix_N5e7_VelX_01562400.png2012-01-10 12:13 15K 
[IMG]CS1_50kmx20km-fall-loading-thetafix_N5e7_ExnerDev_01317600.png2012-01-10 12:12 15K 
[IMG]CS1_50kmx20km-fall-loading-thetafix_N5e7_VelX_00583200.png2012-01-10 12:10 15K 
[IMG]CS1_50kmx20km-fall-loading-thetafix_N5e7_VelX_01400400.png2012-01-10 12:13 15K 
[IMG]CS1_50kmx20km-fall-loading-thetafix_N5e7_ExnerDev_01785600.png2012-01-10 12:13 15K 
[IMG]CS1_50kmx20km-fall-loading-thetafix_N5e7_VelX_01209600.png2012-01-10 12:12 15K 
[IMG]CS1_50kmx20km-fall-loading-thetafix_N5e7_VelX_00712800.png2012-01-10 12:10 15K 
[IMG]CS1_50kmx20km-fall-loading-thetafix_N5e7_VelX_02512800.png2012-01-10 12:16 15K 
[IMG]CS1_50kmx20km-fall-loading-thetafix_N5e7_VelX_00601200.png2012-01-10 12:10 15K 
[IMG]CS1_50kmx20km-fall-loading-thetafix_N5e7_VelX_01429200.png2012-01-10 12:13 15K 
[IMG]CS1_50kmx20km-fall-loading-thetafix_N5e7_VelX_01983600.png2012-01-10 12:14 15K 
[IMG]CS1_50kmx20km-fall-loading-thetafix_N5e7_VelX_00597600.png2012-01-10 12:10 15K 
[IMG]CS1_50kmx20km-fall-loading-thetafix_N5e7_VelX_02077200.png2012-01-10 12:14 15K 
[IMG]CS1_50kmx20km-fall-loading-thetafix_N5e7_VelX_00907200.png2012-01-10 12:12 15K 
[IMG]CS1_50kmx20km-fall-loading-thetafix_N5e7_VelX_02012400.png2012-01-10 12:14 15K 
[IMG]CS1_50kmx20km-fall-loading-thetafix_N5e7_VelX_01810800.png2012-01-10 12:14 15K 
[IMG]CS1_50kmx20km-fall-loading-thetafix_N5e7_VelX_01346400.png2012-01-10 12:13 15K 
[IMG]CS1_50kmx20km-fall-loading-thetafix_N5e7_VelX_01177200.png2012-01-10 12:12 15K 
[IMG]CS1_50kmx20km-fall-loading-thetafix_N5e7_VelX_02023200.png2012-01-10 12:14 15K 
[IMG]CS1_50kmx20km-fall-loading-thetafix_N5e7_VelX_02095200.png2012-01-10 12:14 15K 
[IMG]CS1_50kmx20km-fall-loading-thetafix_N5e7_VelX_02350800.png2012-01-10 12:16 15K 
[IMG]CS1_50kmx20km-fall-loading-thetafix_N5e7_VelX_02379600.png2012-01-10 12:16 15K 
[IMG]CS1_50kmx20km-fall-loading-thetafix_N5e7_VelX_02520000.png2012-01-10 12:16 15K 
[IMG]CS1_50kmx20km-fall-loading-thetafix_N5e7_VelX_00662400.png2012-01-10 12:10 15K 
[IMG]CS1_50kmx20km-fall-loading-thetafix_N5e7_VelX_01184400.png2012-01-10 12:12 15K 
[IMG]CS1_50kmx20km-fall-loading-thetafix_N5e7_VelX_01072800.png2012-01-10 12:12 15K 
[IMG]CS1_50kmx20km-fall-loading-thetafix_N5e7_VelX_01922400.png2012-01-10 12:14 15K 
[IMG]CS1_50kmx20km-fall-loading-thetafix_N5e7_VelX_02034000.png2012-01-10 12:14 15K 
[IMG]CS1_50kmx20km-fall-loading-thetafix_N5e7_VelX_01180800.png2012-01-10 12:12 15K 
[IMG]CS1_50kmx20km-fall-loading-thetafix_N5e7_VelX_00921600.png2012-01-10 12:12 15K 
[IMG]CS1_50kmx20km-fall-loading-thetafix_N5e7_VelX_01191600.png2012-01-10 12:12 15K 
[IMG]CS1_50kmx20km-fall-loading-thetafix_N5e7_VelX_01663200.png2012-01-10 12:14 15K 
[IMG]CS1_50kmx20km-fall-loading-thetafix_N5e7_VelX_00752400.png2012-01-10 12:10 15K 
[IMG]CS1_50kmx20km-fall-loading-thetafix_N5e7_VelX_01825200.png2012-01-10 12:14 15K 
[IMG]CS1_50kmx20km-fall-loading-thetafix_N5e7_ExnerDev_02592000.png2012-01-10 12:15 15K 
[IMG]CS1_50kmx20km-fall-loading-thetafix_N5e7_VelX_01440000.png2012-01-10 12:13 15K 
[IMG]CS1_50kmx20km-fall-loading-thetafix_N5e7_VelX_00716400.png2012-01-10 12:10 15K 
[IMG]CS1_50kmx20km-fall-loading-thetafix_N5e7_VelX_01627200.png2012-01-10 12:14 15K 
[IMG]CS1_50kmx20km-fall-loading-thetafix_N5e7_ExnerDev_00849600.png2012-01-10 12:09 15K 
[IMG]CS1_50kmx20km-fall-loading-thetafix_N5e7_ExnerDev_02293200.png2012-01-10 12:15 15K 
[IMG]CS1_50kmx20km-fall-loading-thetafix_N5e7_VelX_00633600.png2012-01-10 12:10 15K 
[IMG]CS1_50kmx20km-fall-loading-thetafix_N5e7_VelX_01195200.png2012-01-10 12:12 15K 
[IMG]CS1_50kmx20km-fall-loading-thetafix_N5e7_VelX_02098800.png2012-01-10 12:14 15K 
[IMG]CS1_50kmx20km-fall-loading-thetafix_N5e7_VelX_01616400.png2012-01-10 12:14 15K 
[IMG]CS1_50kmx20km-fall-loading-thetafix_N5e7_VelX_02383200.png2012-01-10 12:16 15K 
[IMG]CS1_50kmx20km-fall-loading-thetafix_N5e7_ExnerDev_01587600.png2012-01-10 12:12 15K 
[IMG]CS1_50kmx20km-fall-loading-thetafix_N5e7_VelX_00932400.png2012-01-10 12:12 15K 
[IMG]CS1_50kmx20km-fall-loading-thetafix_N5e7_VelX_02232000.png2012-01-10 12:16 15K 
[IMG]CS1_50kmx20km-fall-loading-thetafix_N5e7_VelX_00878400.png2012-01-10 12:12 15K 
[IMG]CS1_50kmx20km-fall-loading-thetafix_N5e7_VelX_02538000.png2012-01-10 12:16 15K 
[IMG]CS1_50kmx20km-fall-loading-thetafix_N5e7_VelX_02502000.png2012-01-10 12:16 15K 
[IMG]CS1_50kmx20km-fall-loading-thetafix_N5e7_VelX_02196000.png2012-01-10 12:16 15K 
[IMG]CS1_50kmx20km-fall-loading-thetafix_N5e7_VelX_01519200.png2012-01-10 12:13 15K 
[IMG]CS1_50kmx20km-fall-loading-thetafix_N5e7_VelX_01126800.png2012-01-10 12:12 15K 
[IMG]CS1_50kmx20km-fall-loading-thetafix_N5e7_ExnerDev_00900000.png2012-01-10 12:11 15K 
[IMG]CS1_50kmx20km-fall-loading-thetafix_N5e7_VelX_02019600.png2012-01-10 12:14 15K 
[IMG]CS1_50kmx20km-fall-loading-thetafix_N5e7_ExnerDev_01605600.png2012-01-10 12:12 15K 
[IMG]CS1_50kmx20km-fall-loading-thetafix_N5e7_VelX_00925200.png2012-01-10 12:12 15K 
[IMG]CS1_50kmx20km-fall-loading-thetafix_N5e7_VelX_01101600.png2012-01-10 12:12 15K 
[IMG]CS1_50kmx20km-fall-loading-thetafix_N5e7_VelX_01162800.png2012-01-10 12:12 15K 
[IMG]CS1_50kmx20km-fall-loading-thetafix_N5e7_VelX_02059200.png2012-01-10 12:14 15K 
[IMG]CS1_50kmx20km-fall-loading-thetafix_N5e7_VelX_00612000.png2012-01-10 12:10 15K 
[IMG]CS1_50kmx20km-fall-loading-thetafix_N5e7_VelX_01558800.png2012-01-10 12:13 15K 
[IMG]CS1_50kmx20km-fall-loading-thetafix_N5e7_VelX_00637200.png2012-01-10 12:10 15K 
[IMG]CS1_50kmx20km-fall-loading-thetafix_N5e7_ExnerDev_00612000.png2012-01-10 12:09 15K 
[IMG]CS1_50kmx20km-fall-loading-thetafix_N5e7_VelX_00687600.png2012-01-10 12:10 15K 
[IMG]CS1_50kmx20km-fall-loading-thetafix_N5e7_VelX_02563200.png2012-01-10 12:16 15K 
[IMG]CS1_50kmx20km-fall-loading-thetafix_N5e7_VelX_01414800.png2012-01-10 12:13 15K 
[IMG]CS1_50kmx20km-fall-loading-thetafix_N5e7_VelX_02516400.png2012-01-10 12:16 15K 
[IMG]CS1_50kmx20km-fall-loading-thetafix_N5e7_VelX_01044000.png2012-01-10 12:12 15K 
[IMG]CS1_50kmx20km-fall-loading-thetafix_N5e7_VelX_02044800.png2012-01-10 12:14 15K 
[IMG]CS1_50kmx20km-fall-loading-thetafix_N5e7_VelX_00648000.png2012-01-10 12:10 15K 
[IMG]CS1_50kmx20km-fall-loading-thetafix_N5e7_VelX_02066400.png2012-01-10 12:14 15K 
[IMG]CS1_50kmx20km-fall-loading-thetafix_N5e7_VelX_00784800.png2012-01-10 12:10 15K 
[IMG]CS1_50kmx20km-fall-loading-thetafix_N5e7_VelX_02476800.png2012-01-10 12:16 15K 
[IMG]CS1_50kmx20km-fall-loading-thetafix_N5e7_VelX_01969200.png2012-01-10 12:14 15K 
[IMG]CS1_50kmx20km-fall-loading-thetafix_N5e7_VelX_01526400.png2012-01-10 12:13 15K 
[IMG]CS1_50kmx20km-fall-loading-thetafix_N5e7_VelX_00954000.png2012-01-10 12:12 15K 
[IMG]CS1_50kmx20km-fall-loading-thetafix_N5e7_VelX_00478800.png2012-01-10 12:10 15K 
[IMG]CS1_50kmx20km-fall-loading-thetafix_N5e7_VelX_00957600.png2012-01-10 12:12 15K 
[IMG]CS1_50kmx20km-fall-loading-thetafix_N5e7_VelX_00572400.png2012-01-10 12:10 15K 
[IMG]CS1_50kmx20km-fall-loading-thetafix_N5e7_VelX_01130400.png2012-01-10 12:12 15K 
[IMG]CS1_50kmx20km-fall-loading-thetafix_N5e7_VelX_00943200.png2012-01-10 12:12 15K 
[IMG]CS1_50kmx20km-fall-loading-thetafix_N5e7_VelX_01508400.png2012-01-10 12:13 15K 
[IMG]CS1_50kmx20km-fall-loading-thetafix_N5e7_VelX_01123200.png2012-01-10 12:12 15K 
[IMG]CS1_50kmx20km-fall-loading-thetafix_N5e7_ExnerDev_02289600.png2012-01-10 12:15 15K 
[IMG]CS1_50kmx20km-fall-loading-thetafix_N5e7_ExnerDev_01346400.png2012-01-10 12:12 15K 
[IMG]CS1_50kmx20km-fall-loading-thetafix_N5e7_VelX_01026000.png2012-01-10 12:12 15K 
[IMG]CS1_50kmx20km-fall-loading-thetafix_N5e7_VelX_01537200.png2012-01-10 12:13 15K 
[IMG]CS1_50kmx20km-fall-loading-thetafix_N5e7_ExnerDev_01393200.png2012-01-10 12:12 15K 
[IMG]CS1_50kmx20km-fall-loading-thetafix_N5e7_VelX_01144800.png2012-01-10 12:12 15K 
[IMG]CS1_50kmx20km-fall-loading-thetafix_N5e7_VelX_00529200.png2012-01-10 12:10 15K 
[IMG]CS1_50kmx20km-fall-loading-thetafix_N5e7_VelX_01040400.png2012-01-10 12:12 15K 
[IMG]CS1_50kmx20km-fall-loading-thetafix_N5e7_VelX_02084400.png2012-01-10 12:14 15K 
[IMG]CS1_50kmx20km-fall-loading-thetafix_N5e7_ExnerDev_01360800.png2012-01-10 12:12 15K 
[IMG]CS1_50kmx20km-fall-loading-thetafix_N5e7_VelX_01098000.png2012-01-10 12:12 15K 
[IMG]CS1_50kmx20km-fall-loading-thetafix_N5e7_ExnerDev_01328400.png2012-01-10 12:12 15K 
[IMG]CS1_50kmx20km-fall-loading-thetafix_N5e7_VelX_01990800.png2012-01-10 12:14 15K 
[IMG]CS1_50kmx20km-fall-loading-thetafix_N5e7_VelX_01029600.png2012-01-10 12:12 15K 
[IMG]CS1_50kmx20km-fall-loading-thetafix_N5e7_VelX_02073600.png2012-01-10 12:14 15K 
[IMG]CS1_50kmx20km-fall-loading-thetafix_N5e7_VelX_02487600.png2012-01-10 12:16 15K 
[IMG]CS1_50kmx20km-fall-loading-thetafix_N5e7_VelX_00896400.png2012-01-10 12:12 15K 
[IMG]CS1_50kmx20km-fall-loading-thetafix_N5e7_VelX_01090800.png2012-01-10 12:12 15K 
[IMG]CS1_50kmx20km-fall-loading-thetafix_N5e7_ExnerDev_01857600.png2012-01-10 12:13 15K 
[IMG]CS1_50kmx20km-fall-loading-thetafix_N5e7_VelX_00910800.png2012-01-10 12:12 15K 
[IMG]CS1_50kmx20km-fall-loading-thetafix_N5e7_VelX_01443600.png2012-01-10 12:13 15K 
[IMG]CS1_50kmx20km-fall-loading-thetafix_N5e7_VelX_01062000.png2012-01-10 12:12 15K 
[IMG]CS1_50kmx20km-fall-loading-thetafix_N5e7_ExnerDev_00673200.png2012-01-10 12:09 15K 
[IMG]CS1_50kmx20km-fall-loading-thetafix_N5e7_VelX_01047600.png2012-01-10 12:12 15K 
[IMG]CS1_50kmx20km-fall-loading-thetafix_N5e7_ExnerDev_01105200.png2012-01-10 12:11 15K 
[IMG]CS1_50kmx20km-fall-loading-thetafix_N5e7_VelX_00604800.png2012-01-10 12:10 15K 
[IMG]CS1_50kmx20km-fall-loading-thetafix_N5e7_ExnerDev_00680400.png2012-01-10 12:09 15K 
[IMG]CS1_50kmx20km-fall-loading-thetafix_N5e7_VelX_00961200.png2012-01-10 12:12 15K 
[IMG]CS1_50kmx20km-fall-loading-thetafix_N5e7_VelX_00972000.png2012-01-10 12:12 15K 
[IMG]CS1_50kmx20km-fall-loading-thetafix_N5e7_VelX_01094400.png2012-01-10 12:12 15K 
[IMG]CS1_50kmx20km-fall-loading-thetafix_N5e7_VelX_01116000.png2012-01-10 12:12 15K 
[IMG]CS1_50kmx20km-fall-loading-thetafix_N5e7_ExnerDev_01306800.png2012-01-10 12:12 15K 
[IMG]CS1_50kmx20km-fall-loading-thetafix_N5e7_VelX_02156400.png2012-01-10 12:14 15K 
[IMG]CS1_50kmx20km-fall-loading-thetafix_N5e7_VelX_02433600.png2012-01-10 12:16 15K 
[IMG]CS1_50kmx20km-fall-loading-thetafix_N5e7_VelX_01540800.png2012-01-10 12:13 15K 
[IMG]CS1_50kmx20km-fall-loading-thetafix_N5e7_VelX_00594000.png2012-01-10 12:10 15K 
[IMG]CS1_50kmx20km-fall-loading-thetafix_N5e7_VelX_01422000.png2012-01-10 12:13 15K 
[IMG]CS1_50kmx20km-fall-loading-thetafix_N5e7_VelX_00547200.png2012-01-10 12:10 15K 
[IMG]CS1_50kmx20km-fall-loading-thetafix_N5e7_VelX_02005200.png2012-01-10 12:14 15K 
[IMG]CS1_50kmx20km-fall-loading-thetafix_N5e7_VelX_00640800.png2012-01-10 12:10 15K 
[IMG]CS1_50kmx20km-fall-loading-thetafix_N5e7_ExnerDev_01922400.png2012-01-10 12:13 15K 
[IMG]CS1_50kmx20km-fall-loading-thetafix_N5e7_VelX_02008800.png2012-01-10 12:14 15K 
[IMG]CS1_50kmx20km-fall-loading-thetafix_N5e7_VelX_02548800.png2012-01-10 12:16 15K 
[IMG]CS1_50kmx20km-fall-loading-thetafix_N5e7_ExnerDev_01929600.png2012-01-10 12:13 15K 
[IMG]CS1_50kmx20km-fall-loading-thetafix_N5e7_ExnerDev_02264400.png2012-01-10 12:15 15K 
[IMG]CS1_50kmx20km-fall-loading-thetafix_N5e7_ExnerDev_00356400.png2012-01-10 12:08 15K 
[IMG]CS1_50kmx20km-fall-loading-thetafix_N5e7_VelX_01260000.png2012-01-10 12:12 15K 
[IMG]CS1_50kmx20km-fall-loading-thetafix_N5e7_VelX_00918000.png2012-01-10 12:12 15K 
[IMG]CS1_50kmx20km-fall-loading-thetafix_N5e7_VelX_01944000.png2012-01-10 12:14 15K 
[IMG]CS1_50kmx20km-fall-loading-thetafix_N5e7_ExnerDev_00709200.png2012-01-10 12:09 15K 
[IMG]CS1_50kmx20km-fall-loading-thetafix_N5e7_VelX_02091600.png2012-01-10 12:14 15K 
[IMG]CS1_50kmx20km-fall-loading-thetafix_N5e7_ExnerDev_00734400.png2012-01-10 12:09 15K 
[IMG]CS1_50kmx20km-fall-loading-thetafix_N5e7_VelX_00619200.png2012-01-10 12:10 15K 
[IMG]CS1_50kmx20km-fall-loading-thetafix_N5e7_VelX_01155600.png2012-01-10 12:12 15K 
[IMG]CS1_50kmx20km-fall-loading-thetafix_N5e7_VelX_00550800.png2012-01-10 12:10 15K 
[IMG]CS1_50kmx20km-fall-loading-thetafix_N5e7_ExnerDev_02494800.png2012-01-10 12:15 15K 
[IMG]CS1_50kmx20km-fall-loading-thetafix_N5e7_Exner_00036000.png2012-01-10 12:08 15K 
[IMG]CS1_50kmx20km-fall-loading-thetafix_N5e7_ExnerDev_00846000.png2012-01-10 12:09 15K 
[IMG]CS1_50kmx20km-fall-loading-thetafix_N5e7_VelX_00936000.png2012-01-10 12:12 15K 
[IMG]CS1_50kmx20km-fall-loading-thetafix_N5e7_VelX_01137600.png2012-01-10 12:12 15K 
[IMG]CS1_50kmx20km-fall-loading-thetafix_N5e7_ExnerDev_01350000.png2012-01-10 12:12 15K 
[IMG]CS1_50kmx20km-fall-loading-thetafix_N5e7_VelX_00759600.png2012-01-10 12:10 15K 
[IMG]CS1_50kmx20km-fall-loading-thetafix_N5e7_ExnerDev_01972800.png2012-01-10 12:13 15K 
[IMG]CS1_50kmx20km-fall-loading-thetafix_N5e7_VelX_02062800.png2012-01-10 12:14 15K 
[IMG]CS1_50kmx20km-fall-loading-thetafix_N5e7_ExnerDev_02016000.png2012-01-10 12:13 15K 
[IMG]CS1_50kmx20km-fall-loading-thetafix_N5e7_VelX_02566800.png2012-01-10 12:16 15K 
[IMG]CS1_50kmx20km-fall-loading-thetafix_N5e7_VelX_01000800.png2012-01-10 12:12 15K 
[IMG]CS1_50kmx20km-fall-loading-thetafix_N5e7_VelX_01173600.png2012-01-10 12:12 15K 
[IMG]CS1_50kmx20km-fall-loading-thetafix_N5e7_VelX_02534400.png2012-01-10 12:16 15K 
[IMG]CS1_50kmx20km-fall-loading-thetafix_N5e7_VelX_00561600.png2012-01-10 12:10 15K 
[IMG]CS1_50kmx20km-fall-loading-thetafix_N5e7_VelX_02505600.png2012-01-10 12:16 15K 
[IMG]CS1_50kmx20km-fall-loading-thetafix_N5e7_ExnerDev_00842400.png2012-01-10 12:09 15K 
[IMG]CS1_50kmx20km-fall-loading-thetafix_N5e7_VelX_01612800.png2012-01-10 12:14 15K 
[IMG]CS1_50kmx20km-fall-loading-thetafix_N5e7_ExnerDev_00309600.png2012-01-10 12:08 15K 
[IMG]CS1_50kmx20km-fall-loading-thetafix_N5e7_ExnerDev_01281600.png2012-01-10 12:11 15K 
[IMG]CS1_50kmx20km-fall-loading-thetafix_N5e7_VelX_00590400.png2012-01-10 12:10 15K 
[IMG]CS1_50kmx20km-fall-loading-thetafix_N5e7_VelZ_00021600.png2012-01-10 12:09 15K 
[IMG]CS1_50kmx20km-fall-loading-thetafix_N5e7_ExnerDev_02271600.png2012-01-10 12:15 15K 
[IMG]CS1_50kmx20km-fall-loading-thetafix_N5e7_PotTempDev_00010800.png2012-01-10 12:08 15K 
[IMG]CS1_50kmx20km-fall-loading-thetafix_N5e7_VelX_01080000.png2012-01-10 12:12 15K 
[IMG]CS1_50kmx20km-fall-loading-thetafix_N5e7_ExnerDev_00860400.png2012-01-10 12:09 15K 
[IMG]CS1_50kmx20km-fall-loading-thetafix_N5e7_ExnerDev_00032400.png2012-01-10 12:08 15K 
[IMG]CS1_50kmx20km-fall-loading-thetafix_N5e7_VelX_01404000.png2012-01-10 12:13 15K 
[IMG]CS1_50kmx20km-fall-loading-thetafix_N5e7_VelX_00993600.png2012-01-10 12:12 15K 
[IMG]CS1_50kmx20km-fall-loading-thetafix_N5e7_VelX_02588400.png2012-01-10 12:16 15K 
[IMG]CS1_50kmx20km-fall-loading-thetafix_N5e7_VelX_01512000.png2012-01-10 12:13 15K 
[IMG]CS1_50kmx20km-fall-loading-thetafix_N5e7_VelX_02473200.png2012-01-10 12:16 15K 
[IMG]CS1_50kmx20km-fall-loading-thetafix_N5e7_ExnerDev_01717200.png2012-01-10 12:13 15K 
[IMG]CS1_50kmx20km-fall-loading-thetafix_N5e7_ExnerDev_00831600.png2012-01-10 12:09 15K 
[IMG]CS1_50kmx20km-fall-loading-thetafix_N5e7_VelX_01004400.png2012-01-10 12:12 15K 
[IMG]CS1_50kmx20km-fall-loading-thetafix_N5e7_ExnerDev_01371600.png2012-01-10 12:12 15K 
[IMG]CS1_50kmx20km-fall-loading-thetafix_N5e7_ExnerDev_00763200.png2012-01-10 12:09 15K 
[IMG]CS1_50kmx20km-fall-loading-thetafix_N5e7_ExnerDev_01720800.png2012-01-10 12:13 15K 
[IMG]CS1_50kmx20km-fall-loading-thetafix_N5e7_VelX_01389600.png2012-01-10 12:13 15K 
[IMG]CS1_50kmx20km-fall-loading-thetafix_N5e7_ExnerDev_01551600.png2012-01-10 12:12 15K 
[IMG]CS1_50kmx20km-fall-loading-thetafix_N5e7_VelX_02055600.png2012-01-10 12:14 15K 
[IMG]CS1_50kmx20km-fall-loading-thetafix_N5e7_VelX_02041200.png2012-01-10 12:14 15K 
[IMG]CS1_50kmx20km-fall-loading-thetafix_N5e7_ExnerDev_00889200.png2012-01-10 12:11 15K 
[IMG]CS1_50kmx20km-fall-loading-thetafix_N5e7_VelX_00630000.png2012-01-10 12:10 15K 
[IMG]CS1_50kmx20km-fall-loading-thetafix_N5e7_VelX_01065600.png2012-01-10 12:12 15K 
[IMG]CS1_50kmx20km-fall-loading-thetafix_N5e7_ExnerDev_00036000.png2012-01-10 12:08 15K 
[IMG]CS1_50kmx20km-fall-loading-thetafix_N5e7_VelX_00698400.png2012-01-10 12:10 15K 
[IMG]CS1_50kmx20km-fall-loading-thetafix_N5e7_ExnerDev_01879200.png2012-01-10 12:13 15K 
[IMG]CS1_50kmx20km-fall-loading-thetafix_N5e7_VelX_00680400.png2012-01-10 12:10 15K 
[IMG]CS1_50kmx20km-fall-loading-thetafix_N5e7_VelX_00979200.png2012-01-10 12:12 15K 
[IMG]CS1_50kmx20km-fall-loading-thetafix_N5e7_ExnerDev_00039600.png2012-01-10 12:08 15K 
[IMG]CS1_50kmx20km-fall-loading-thetafix_N5e7_ExnerDev_01814400.png2012-01-10 12:13 15K 
[IMG]CS1_50kmx20km-fall-loading-thetafix_N5e7_ExnerDev_01332000.png2012-01-10 12:12 15K 
[IMG]CS1_50kmx20km-fall-loading-thetafix_N5e7_VelX_01530000.png2012-01-10 12:13 15K 
[IMG]CS1_50kmx20km-fall-loading-thetafix_N5e7_ExnerDev_00183600.png2012-01-10 12:08 15K 
[IMG]CS1_50kmx20km-fall-loading-thetafix_N5e7_ExnerDev_00583200.png2012-01-10 12:09 15K 
[IMG]CS1_50kmx20km-fall-loading-thetafix_N5e7_ExnerDev_01299600.png2012-01-10 12:12 15K 
[IMG]CS1_50kmx20km-fall-loading-thetafix_N5e7_VelX_02469600.png2012-01-10 12:16 15K 
[IMG]CS1_50kmx20km-fall-loading-thetafix_N5e7_VelX_00032400.png2012-01-10 12:09 15K 
[IMG]CS1_50kmx20km-fall-loading-thetafix_N5e7_ExnerDev_01954800.png2012-01-10 12:13 15K 
[IMG]CS1_50kmx20km-fall-loading-thetafix_N5e7_VelX_01083600.png2012-01-10 12:12 15K 
[IMG]CS1_50kmx20km-fall-loading-thetafix_N5e7_ExnerDev_00792000.png2012-01-10 12:09 15K 
[IMG]CS1_50kmx20km-fall-loading-thetafix_N5e7_ExnerDev_00748800.png2012-01-10 12:09 15K 
[IMG]CS1_50kmx20km-fall-loading-thetafix_N5e7_ExnerDev_02124000.png2012-01-10 12:13 15K 
[IMG]CS1_50kmx20km-fall-loading-thetafix_N5e7_ExnerDev_01933200.png2012-01-10 12:13 16K 
[IMG]CS1_50kmx20km-fall-loading-thetafix_N5e7_ExnerDev_02376000.png2012-01-10 12:15 16K 
[IMG]CS1_50kmx20km-fall-loading-thetafix_N5e7_VelX_02462400.png2012-01-10 12:16 16K 
[IMG]CS1_50kmx20km-fall-loading-thetafix_N5e7_ExnerDev_01746000.png2012-01-10 12:13 16K 
[IMG]CS1_50kmx20km-fall-loading-thetafix_N5e7_ExnerDev_02181600.png2012-01-10 12:15 16K 
[IMG]CS1_50kmx20km-fall-loading-thetafix_N5e7_SatRatio_00018000.png2012-01-10 12:09 16K 
[IMG]CS1_50kmx20km-fall-loading-thetafix_N5e7_VelX_01152000.png2012-01-10 12:12 16K 
[IMG]CS1_50kmx20km-fall-loading-thetafix_N5e7_ExnerDev_00774000.png2012-01-10 12:09 16K 
[IMG]CS1_50kmx20km-fall-loading-thetafix_N5e7_ExnerDev_01011600.png2012-01-10 12:11 16K 
[IMG]CS1_50kmx20km-fall-loading-thetafix_N5e7_ExnerDev_02354400.png2012-01-10 12:15 16K 
[IMG]CS1_50kmx20km-fall-loading-thetafix_N5e7_VelX_01533600.png2012-01-10 12:13 16K 
[IMG]CS1_50kmx20km-fall-loading-thetafix_N5e7_ExnerDev_01321200.png2012-01-10 12:12 16K 
[IMG]CS1_50kmx20km-fall-loading-thetafix_N5e7_VelX_02480400.png2012-01-10 12:16 16K 
[IMG]CS1_50kmx20km-fall-loading-thetafix_N5e7_VelX_00997200.png2012-01-10 12:12 16K 
[IMG]CS1_50kmx20km-fall-loading-thetafix_N5e7_ExnerDev_01396800.png2012-01-10 12:12 16K 
[IMG]CS1_50kmx20km-fall-loading-thetafix_N5e7_VelX_02455200.png2012-01-10 12:16 16K 
[IMG]CS1_50kmx20km-fall-loading-thetafix_N5e7_VelX_00568800.png2012-01-10 12:10 16K 
[IMG]CS1_50kmx20km-fall-loading-thetafix_N5e7_ExnerDev_01738800.png2012-01-10 12:13 16K 
[IMG]CS1_50kmx20km-fall-loading-thetafix_N5e7_ExnerDev_02275200.png2012-01-10 12:15 16K 
[IMG]CS1_50kmx20km-fall-loading-thetafix_N5e7_ExnerDev_01630800.png2012-01-10 12:12 16K 
[IMG]CS1_50kmx20km-fall-loading-thetafix_N5e7_VelX_02491200.png2012-01-10 12:16 16K 
[IMG]CS1_50kmx20km-fall-loading-thetafix_N5e7_ExnerDev_01353600.png2012-01-10 12:12 16K 
[IMG]CS1_50kmx20km-fall-loading-thetafix_N5e7_ExnerDev_00615600.png2012-01-10 12:09 16K 
[IMG]CS1_50kmx20km-fall-loading-thetafix_N5e7_ExnerDev_00550800.png2012-01-10 12:09 16K 
[IMG]CS1_50kmx20km-fall-loading-thetafix_N5e7_ExnerDev_01767600.png2012-01-10 12:13 16K 
[IMG]CS1_50kmx20km-fall-loading-thetafix_N5e7_VelX_00442800.png2012-01-10 12:10 16K 
[IMG]CS1_50kmx20km-fall-loading-thetafix_N5e7_VelX_02559600.png2012-01-10 12:16 16K 
[IMG]CS1_50kmx20km-fall-loading-thetafix_N5e7_ExnerDev_01483200.png2012-01-10 12:12 16K 
[IMG]CS1_50kmx20km-fall-loading-thetafix_N5e7_VelX_02440800.png2012-01-10 12:16 16K 
[IMG]CS1_50kmx20km-fall-loading-thetafix_N5e7_ExnerDev_00496800.png2012-01-10 12:09 16K 
[IMG]CS1_50kmx20km-fall-loading-thetafix_N5e7_ExnerDev_01364400.png2012-01-10 12:12 16K 
[IMG]CS1_50kmx20km-fall-loading-thetafix_N5e7_ExnerDev_01886400.png2012-01-10 12:13 16K 
[IMG]CS1_50kmx20km-fall-loading-thetafix_N5e7_VelX_00504000.png2012-01-10 12:10 16K 
[IMG]CS1_50kmx20km-fall-loading-thetafix_N5e7_VelX_02545200.png2012-01-10 12:16 16K 
[IMG]CS1_50kmx20km-fall-loading-thetafix_N5e7_ExnerDev_00986400.png2012-01-10 12:11 16K 
[IMG]CS1_50kmx20km-fall-loading-thetafix_N5e7_ExnerDev_02185200.png2012-01-10 12:15 16K 
[IMG]CS1_50kmx20km-fall-loading-thetafix_N5e7_ExnerDev_02523600.png2012-01-10 12:15 16K 
[IMG]CS1_50kmx20km-fall-loading-thetafix_N5e7_ExnerDev_00295200.png2012-01-10 12:08 16K 
[IMG]CS1_50kmx20km-fall-loading-thetafix_N5e7_ExnerDev_01285200.png2012-01-10 12:11 16K 
[IMG]CS1_50kmx20km-fall-loading-thetafix_N5e7_ExnerDev_01580400.png2012-01-10 12:12 16K 
[IMG]CS1_50kmx20km-fall-loading-thetafix_N5e7_ExnerDev_01184400.png2012-01-10 12:11 16K 
[IMG]CS1_50kmx20km-fall-loading-thetafix_N5e7_VelX_00532800.png2012-01-10 12:10 16K 
[IMG]CS1_50kmx20km-fall-loading-thetafix_N5e7_ExnerDev_00738000.png2012-01-10 12:09 16K 
[IMG]CS1_50kmx20km-fall-loading-thetafix_N5e7_ExnerDev_00871200.png2012-01-10 12:11 16K 
[IMG]CS1_50kmx20km-fall-loading-thetafix_N5e7_ExnerDev_01216800.png2012-01-10 12:11 16K 
[IMG]CS1_50kmx20km-fall-loading-thetafix_N5e7_ExnerDev_01648800.png2012-01-10 12:12 16K 
[IMG]CS1_50kmx20km-fall-loading-thetafix_N5e7_ExnerDev_00198000.png2012-01-10 12:08 16K 
[IMG]CS1_50kmx20km-fall-loading-thetafix_N5e7_ExnerDev_00604800.png2012-01-10 12:09 16K 
[IMG]CS1_50kmx20km-fall-loading-thetafix_N5e7_VelX_00453600.png2012-01-10 12:10 16K 
[IMG]CS1_50kmx20km-fall-loading-thetafix_N5e7_ExnerDev_01882800.png2012-01-10 12:13 16K 
[IMG]CS1_50kmx20km-fall-loading-thetafix_N5e7_ExnerDev_02358000.png2012-01-10 12:15 16K 
[IMG]CS1_50kmx20km-fall-loading-thetafix_N5e7_ExnerDev_01443600.png2012-01-10 12:12 16K 
[IMG]CS1_50kmx20km-fall-loading-thetafix_N5e7_ExnerDev_01468800.png2012-01-10 12:12 16K 
[IMG]CS1_50kmx20km-fall-loading-thetafix_N5e7_VelX_02556000.png2012-01-10 12:16 16K 
[IMG]CS1_50kmx20km-fall-loading-thetafix_N5e7_ExnerDev_00820800.png2012-01-10 12:09 16K 
[IMG]CS1_50kmx20km-fall-loading-thetafix_N5e7_ExnerDev_02577600.png2012-01-10 12:15 16K 
[IMG]CS1_50kmx20km-fall-loading-thetafix_N5e7_VelX_00432000.png2012-01-10 12:10 16K 
[IMG]CS1_50kmx20km-fall-loading-thetafix_N5e7_ExnerDev_01911600.png2012-01-10 12:13 16K 
[IMG]CS1_50kmx20km-fall-loading-thetafix_N5e7_VelX_00468000.png2012-01-10 12:10 16K 
[IMG]CS1_50kmx20km-fall-loading-thetafix_N5e7_ExnerDev_01764000.png2012-01-10 12:13 16K 
[IMG]CS1_50kmx20km-fall-loading-thetafix_N5e7_VelX_00554400.png2012-01-10 12:10 16K 
[IMG]CS1_50kmx20km-fall-loading-thetafix_N5e7_VelX_00950400.png2012-01-10 12:12 16K 
[IMG]CS1_50kmx20km-fall-loading-thetafix_N5e7_VelX_02552400.png2012-01-10 12:16 16K 
[IMG]CS1_50kmx20km-fall-loading-thetafix_N5e7_ExnerDev_00061200.png2012-01-10 12:08 16K 
[IMG]CS1_50kmx20km-fall-loading-thetafix_N5e7_ExnerDev_01231200.png2012-01-10 12:11 16K 
[IMG]CS1_50kmx20km-fall-loading-thetafix_N5e7_ExnerDev_02347200.png2012-01-10 12:15 16K 
[IMG]CS1_50kmx20km-fall-loading-thetafix_N5e7_ExnerDev_01555200.png2012-01-10 12:12 16K 
[IMG]CS1_50kmx20km-fall-loading-thetafix_N5e7_ExnerDev_02019600.png2012-01-10 12:13 16K 
[IMG]CS1_50kmx20km-fall-loading-thetafix_N5e7_ExnerDev_01263600.png2012-01-10 12:11 16K 
[IMG]CS1_50kmx20km-fall-loading-thetafix_N5e7_ExnerDev_01335600.png2012-01-10 12:12 16K 
[IMG]CS1_50kmx20km-fall-loading-thetafix_N5e7_ExnerDev_00835200.png2012-01-10 12:09 16K 
[IMG]CS1_50kmx20km-fall-loading-thetafix_N5e7_ExnerDev_01389600.png2012-01-10 12:12 16K 
[IMG]CS1_50kmx20km-fall-loading-thetafix_N5e7_ExnerDev_01458000.png2012-01-10 12:12 16K 
[IMG]CS1_50kmx20km-fall-loading-thetafix_N5e7_ExnerDev_01652400.png2012-01-10 12:12 16K 
[IMG]CS1_50kmx20km-fall-loading-thetafix_N5e7_ExnerDev_01994400.png2012-01-10 12:13 16K 
[IMG]CS1_50kmx20km-fall-loading-thetafix_N5e7_VelX_00270000.png2012-01-10 12:09 16K 
[IMG]CS1_50kmx20km-fall-loading-thetafix_N5e7_VelX_02484000.png2012-01-10 12:16 16K 
[IMG]CS1_50kmx20km-fall-loading-thetafix_N5e7_VelX_00144000.png2012-01-10 12:09 16K 
[IMG]CS1_50kmx20km-fall-loading-thetafix_N5e7_ExnerDev_02332800.png2012-01-10 12:15 16K 
[IMG]CS1_50kmx20km-fall-loading-thetafix_N5e7_ExnerDev_01126800.png2012-01-10 12:11 16K 
[IMG]CS1_50kmx20km-fall-loading-thetafix_N5e7_ExnerDev_01242000.png2012-01-10 12:11 16K 
[IMG]CS1_50kmx20km-fall-loading-thetafix_N5e7_ExnerDev_01713600.png2012-01-10 12:13 16K 
[IMG]CS1_50kmx20km-fall-loading-thetafix_N5e7_VelX_00363600.png2012-01-10 12:09 16K 
[IMG]CS1_50kmx20km-fall-loading-thetafix_N5e7_ExnerDev_02336400.png2012-01-10 12:15 16K 
[IMG]CS1_50kmx20km-fall-loading-thetafix_N5e7_VelX_00975600.png2012-01-10 12:12 16K 
[IMG]CS1_50kmx20km-fall-loading-thetafix_N5e7_ExnerDev_00788400.png2012-01-10 12:09 16K 
[IMG]CS1_50kmx20km-fall-loading-thetafix_N5e7_ExnerDev_02520000.png2012-01-10 12:15 16K 
[IMG]CS1_50kmx20km-fall-loading-thetafix_N5e7_ExnerDev_01454400.png2012-01-10 12:12 16K 
[IMG]CS1_50kmx20km-fall-loading-thetafix_N5e7_ExnerDev_00342000.png2012-01-10 12:08 16K 
[IMG]CS1_50kmx20km-fall-loading-thetafix_N5e7_ExnerDev_01058400.png2012-01-10 12:11 16K 
[IMG]CS1_50kmx20km-fall-loading-thetafix_N5e7_VelX_02530800.png2012-01-10 12:16 16K 
[IMG]CS1_50kmx20km-fall-loading-thetafix_N5e7_ExnerDev_01843200.png2012-01-10 12:13 16K 
[IMG]CS1_50kmx20km-fall-loading-thetafix_N5e7_ExnerDev_02214000.png2012-01-10 12:15 16K 
[IMG]CS1_50kmx20km-fall-loading-thetafix_N5e7_ExnerDev_02232000.png2012-01-10 12:15 16K 
[IMG]CS1_50kmx20km-fall-loading-thetafix_N5e7_VelX_00482400.png2012-01-10 12:10 16K 
[IMG]CS1_50kmx20km-fall-loading-thetafix_N5e7_Km_00007200.png2012-01-10 12:08 16K 
[IMG]CS1_50kmx20km-fall-loading-thetafix_N5e7_ExnerDev_00874800.png2012-01-10 12:11 16K 
[IMG]CS1_50kmx20km-fall-loading-thetafix_N5e7_ExnerDev_00766800.png2012-01-10 12:09 16K 
[IMG]CS1_50kmx20km-fall-loading-thetafix_N5e7_VelX_00522000.png2012-01-10 12:10 16K 
[IMG]CS1_50kmx20km-fall-loading-thetafix_N5e7_ExnerDev_01479600.png2012-01-10 12:12 16K 
[IMG]CS1_50kmx20km-fall-loading-thetafix_N5e7_ExnerDev_01818000.png2012-01-10 12:13 16K 
[IMG]CS1_50kmx20km-fall-loading-thetafix_N5e7_ExnerDev_01864800.png2012-01-10 12:13 16K 
[IMG]CS1_50kmx20km-fall-loading-thetafix_N5e7_ExnerDev_01926000.png2012-01-10 12:13 16K 
[IMG]CS1_50kmx20km-fall-loading-thetafix_N5e7_ExnerDev_00856800.png2012-01-10 12:09 16K 
[IMG]CS1_50kmx20km-fall-loading-thetafix_N5e7_ExnerDev_01180800.png2012-01-10 12:11 16K 
[IMG]CS1_50kmx20km-fall-loading-thetafix_N5e7_ExnerDev_00939600.png2012-01-10 12:11 16K 
[IMG]CS1_50kmx20km-fall-loading-thetafix_N5e7_ExnerDev_00050400.png2012-01-10 12:08 16K 
[IMG]CS1_50kmx20km-fall-loading-thetafix_N5e7_ExnerDev_01472400.png2012-01-10 12:12 16K 
[IMG]CS1_50kmx20km-fall-loading-thetafix_N5e7_ExnerDev_00360000.png2012-01-10 12:08 16K 
[IMG]CS1_50kmx20km-fall-loading-thetafix_N5e7_ExnerDev_00882000.png2012-01-10 12:11 16K 
[IMG]CS1_50kmx20km-fall-loading-thetafix_N5e7_ExnerDev_01976400.png2012-01-10 12:13 16K 
[IMG]CS1_50kmx20km-fall-loading-thetafix_N5e7_ExnerDev_01890000.png2012-01-10 12:13 16K 
[IMG]CS1_50kmx20km-fall-loading-thetafix_N5e7_ExnerDev_01407600.png2012-01-10 12:12 16K 
[IMG]CS1_50kmx20km-fall-loading-thetafix_N5e7_ExnerDev_02037600.png2012-01-10 12:13 16K 
[IMG]CS1_50kmx20km-fall-loading-thetafix_N5e7_VelX_00626400.png2012-01-10 12:10 16K 
[IMG]CS1_50kmx20km-fall-loading-thetafix_N5e7_ExnerDev_01378800.png2012-01-10 12:12 16K 
[IMG]CS1_50kmx20km-fall-loading-thetafix_N5e7_ExnerDev_01742400.png2012-01-10 12:13 16K 
[IMG]CS1_50kmx20km-fall-loading-thetafix_N5e7_ExnerDev_02142000.png2012-01-10 12:13 16K 
[IMG]CS1_50kmx20km-fall-loading-thetafix_N5e7_VelX_02498400.png2012-01-10 12:16 16K 
[IMG]CS1_50kmx20km-fall-loading-thetafix_N5e7_ExnerDev_00914400.png2012-01-10 12:11 16K 
[IMG]CS1_50kmx20km-fall-loading-thetafix_N5e7_ExnerDev_01609200.png2012-01-10 12:12 16K 
[IMG]CS1_50kmx20km-fall-loading-thetafix_N5e7_VelX_01515600.png2012-01-10 12:13 16K 
[IMG]CS1_50kmx20km-fall-loading-thetafix_N5e7_VelX_00511200.png2012-01-10 12:10 16K 
[IMG]CS1_50kmx20km-fall-loading-thetafix_N5e7_ExnerDev_00838800.png2012-01-10 12:09 16K 
[IMG]CS1_50kmx20km-fall-loading-thetafix_N5e7_ExnerDev_00457200.png2012-01-10 12:09 16K 
[IMG]CS1_50kmx20km-fall-loading-thetafix_N5e7_VelX_00241200.png2012-01-10 12:09 16K 
[IMG]CS1_50kmx20km-fall-loading-thetafix_N5e7_ExnerDev_01018800.png2012-01-10 12:11 16K 
[IMG]CS1_50kmx20km-fall-loading-thetafix_N5e7_ExnerDev_02134800.png2012-01-10 12:13 16K 
[IMG]CS1_50kmx20km-fall-loading-thetafix_N5e7_VelX_00151200.png2012-01-10 12:09 16K 
[IMG]CS1_50kmx20km-fall-loading-thetafix_N5e7_VelX_02466000.png2012-01-10 12:16 16K 
[IMG]CS1_50kmx20km-fall-loading-thetafix_N5e7_ExnerDev_00745200.png2012-01-10 12:09 16K 
[IMG]CS1_50kmx20km-fall-loading-thetafix_N5e7_ExnerDev_01522800.png2012-01-10 12:12 16K 
[IMG]CS1_50kmx20km-fall-loading-thetafix_N5e7_ExnerDev_01958400.png2012-01-10 12:13 16K 
[IMG]CS1_50kmx20km-fall-loading-thetafix_N5e7_ExnerDev_02088000.png2012-01-10 12:13 16K 
[IMG]CS1_50kmx20km-fall-loading-thetafix_N5e7_ExnerDev_00896400.png2012-01-10 12:11 16K 
[IMG]CS1_50kmx20km-fall-loading-thetafix_N5e7_ExnerDev_00572400.png2012-01-10 12:09 16K 
[IMG]CS1_50kmx20km-fall-loading-thetafix_N5e7_ExnerDev_01436400.png2012-01-10 12:12 16K 
[IMG]CS1_50kmx20km-fall-loading-thetafix_N5e7_ExnerDev_01692000.png2012-01-10 12:13 16K 
[IMG]CS1_50kmx20km-fall-loading-thetafix_N5e7_ExnerDev_00237600.png2012-01-10 12:08 16K 
[IMG]CS1_50kmx20km-fall-loading-thetafix_N5e7_ExnerDev_01292400.png2012-01-10 12:11 16K 
[IMG]CS1_50kmx20km-fall-loading-thetafix_N5e7_ExnerDev_02444400.png2012-01-10 12:15 16K 
[IMG]CS1_50kmx20km-fall-loading-thetafix_N5e7_ExnerDev_02372400.png2012-01-10 12:15 16K 
[IMG]CS1_50kmx20km-fall-loading-thetafix_N5e7_ExnerDev_00291600.png2012-01-10 12:08 16K 
[IMG]CS1_50kmx20km-fall-loading-thetafix_N5e7_VelX_00028800.png2012-01-10 12:09 16K 
[IMG]CS1_50kmx20km-fall-loading-thetafix_N5e7_ExnerDev_02098800.png2012-01-10 12:13 16K 
[IMG]CS1_50kmx20km-fall-loading-thetafix_N5e7_ExnerDev_02206800.png2012-01-10 12:15 16K 
[IMG]CS1_50kmx20km-fall-loading-thetafix_N5e7_ExnerDev_01598400.png2012-01-10 12:12 16K 
[IMG]CS1_50kmx20km-fall-loading-thetafix_N5e7_ExnerDev_02163600.png2012-01-10 12:15 16K 
[IMG]CS1_50kmx20km-fall-loading-thetafix_N5e7_ExnerDev_02426400.png2012-01-10 12:15 16K 
[IMG]CS1_50kmx20km-fall-loading-thetafix_N5e7_ExnerDev_00720000.png2012-01-10 12:09 16K 
[IMG]CS1_50kmx20km-fall-loading-thetafix_N5e7_ExnerDev_00885600.png2012-01-10 12:11 16K 
[IMG]CS1_50kmx20km-fall-loading-thetafix_N5e7_ExnerDev_00090000.png2012-01-10 12:08 16K 
[IMG]CS1_50kmx20km-fall-loading-thetafix_N5e7_Exner_02142000.png2012-01-10 12:13 16K 
[IMG]CS1_50kmx20km-fall-loading-thetafix_N5e7_Exner_00514800.png2012-01-10 12:09 16K 
[IMG]CS1_50kmx20km-fall-loading-thetafix_N5e7_ExnerDev_00946800.png2012-01-10 12:11 16K 
[IMG]CS1_50kmx20km-fall-loading-thetafix_N5e7_ExnerDev_01062000.png2012-01-10 12:11 16K 
[IMG]CS1_50kmx20km-fall-loading-thetafix_N5e7_ExnerDev_01375200.png2012-01-10 12:12 16K 
[IMG]CS1_50kmx20km-fall-loading-thetafix_N5e7_ExnerDev_02361600.png2012-01-10 12:15 16K 
[IMG]CS1_50kmx20km-fall-loading-thetafix_N5e7_Exner_00273600.png2012-01-10 12:08 16K 
[IMG]CS1_50kmx20km-fall-loading-thetafix_N5e7_ExnerDev_01940400.png2012-01-10 12:13 16K 
[IMG]CS1_50kmx20km-fall-loading-thetafix_N5e7_ExnerDev_02109600.png2012-01-10 12:13 16K 
[IMG]CS1_50kmx20km-fall-loading-thetafix_N5e7_ExnerDev_02383200.png2012-01-10 12:15 16K 
[IMG]CS1_50kmx20km-fall-loading-thetafix_N5e7_ExnerDev_00363600.png2012-01-10 12:08 16K 
[IMG]CS1_50kmx20km-fall-loading-thetafix_N5e7_ExnerDev_01260000.png2012-01-10 12:11 16K 
[IMG]CS1_50kmx20km-fall-loading-thetafix_N5e7_Exner_00043200.png2012-01-10 12:08 16K 
[IMG]CS1_50kmx20km-fall-loading-thetafix_N5e7_VelX_00237600.png2012-01-10 12:09 16K 
[IMG]CS1_50kmx20km-fall-loading-thetafix_N5e7_ExnerDev_02570400.png2012-01-10 12:15 16K 
[IMG]CS1_50kmx20km-fall-loading-thetafix_N5e7_ExnerDev_00802800.png2012-01-10 12:09 16K 
[IMG]CS1_50kmx20km-fall-loading-thetafix_N5e7_VelX_00493200.png2012-01-10 12:10 16K 
[IMG]CS1_50kmx20km-fall-loading-thetafix_N5e7_ExnerDev_00367200.png2012-01-10 12:08 16K 
[IMG]CS1_50kmx20km-fall-loading-thetafix_N5e7_ExnerDev_01868400.png2012-01-10 12:13 16K 
[IMG]CS1_50kmx20km-fall-loading-thetafix_N5e7_VelX_00500400.png2012-01-10 12:10 16K 
[IMG]CS1_50kmx20km-fall-loading-thetafix_N5e7_VelX_00381600.png2012-01-10 12:09 16K 
[IMG]CS1_50kmx20km-fall-loading-thetafix_N5e7_ExnerDev_00187200.png2012-01-10 12:08 16K 
[IMG]CS1_50kmx20km-fall-loading-thetafix_N5e7_ExnerDev_00954000.png2012-01-10 12:11 16K 
[IMG]CS1_50kmx20km-fall-loading-thetafix_N5e7_ExnerDev_02350800.png2012-01-10 12:15 16K 
[IMG]CS1_50kmx20km-fall-loading-thetafix_N5e7_ExnerDev_00957600.png2012-01-10 12:11 16K 
[IMG]CS1_50kmx20km-fall-loading-thetafix_N5e7_ExnerDev_01584000.png2012-01-10 12:12 16K 
[IMG]CS1_50kmx20km-fall-loading-thetafix_N5e7_ExnerDev_01098000.png2012-01-10 12:11 16K 
[IMG]CS1_50kmx20km-fall-loading-thetafix_N5e7_VelX_00968400.png2012-01-10 12:12 16K 
[IMG]CS1_50kmx20km-fall-loading-thetafix_N5e7_Exner_01004400.png2012-01-10 12:11 16K 
[IMG]CS1_50kmx20km-fall-loading-thetafix_N5e7_ExnerDev_01893600.png2012-01-10 12:13 16K 
[IMG]CS1_50kmx20km-fall-loading-thetafix_N5e7_ExnerDev_01951200.png2012-01-10 12:13 16K 
[IMG]CS1_50kmx20km-fall-loading-thetafix_N5e7_ExnerDev_01800000.png2012-01-10 12:13 16K 
[IMG]CS1_50kmx20km-fall-loading-thetafix_N5e7_ExnerDev_01753200.png2012-01-10 12:13 16K 
[IMG]CS1_50kmx20km-fall-loading-thetafix_N5e7_Exner_00039600.png2012-01-10 12:08 16K 
[IMG]CS1_50kmx20km-fall-loading-thetafix_N5e7_ExnerDev_01206000.png2012-01-10 12:11 16K 
[IMG]CS1_50kmx20km-fall-loading-thetafix_N5e7_ExnerDev_01990800.png2012-01-10 12:13 16K 
[IMG]CS1_50kmx20km-fall-loading-thetafix_N5e7_ExnerDev_02030400.png2012-01-10 12:13 16K 
[IMG]CS1_50kmx20km-fall-loading-thetafix_N5e7_ExnerDev_00518400.png2012-01-10 12:09 16K 
[IMG]CS1_50kmx20km-fall-loading-thetafix_N5e7_Exner_00187200.png2012-01-10 12:08 16K 
[IMG]CS1_50kmx20km-fall-loading-thetafix_N5e7_ExnerDev_01792800.png2012-01-10 12:13 16K 
[IMG]CS1_50kmx20km-fall-loading-thetafix_N5e7_ExnerDev_00824400.png2012-01-10 12:09 16K 
[IMG]CS1_50kmx20km-fall-loading-thetafix_N5e7_ExnerDev_01224000.png2012-01-10 12:11 16K 
[IMG]CS1_50kmx20km-fall-loading-thetafix_N5e7_ExnerDev_02138400.png2012-01-10 12:13 16K 
[IMG]CS1_50kmx20km-fall-loading-thetafix_N5e7_VelX_00543600.png2012-01-10 12:10 16K 
[IMG]CS1_50kmx20km-fall-loading-thetafix_N5e7_ExnerDev_01476000.png2012-01-10 12:12 16K 
[IMG]CS1_50kmx20km-fall-loading-thetafix_N5e7_ExnerDev_01108800.png2012-01-10 12:11 16K 
[IMG]CS1_50kmx20km-fall-loading-thetafix_N5e7_DensCloud_00036000.png2012-01-10 12:08 16K 
[IMG]CS1_50kmx20km-fall-loading-thetafix_N5e7_ExnerDev_02116800.png2012-01-10 12:13 16K 
[IMG]CS1_50kmx20km-fall-loading-thetafix_N5e7_ExnerDev_00723600.png2012-01-10 12:09 16K 
[IMG]CS1_50kmx20km-fall-loading-thetafix_N5e7_ExnerDev_01861200.png2012-01-10 12:13 16K 
[IMG]CS1_50kmx20km-fall-loading-thetafix_N5e7_ExnerDev_00507600.png2012-01-10 12:09 16K 
[IMG]CS1_50kmx20km-fall-loading-thetafix_N5e7_VelX_01033200.png2012-01-10 12:12 16K 
[IMG]CS1_50kmx20km-fall-loading-thetafix_N5e7_ExnerDev_01047600.png2012-01-10 12:11 16K 
[IMG]CS1_50kmx20km-fall-loading-thetafix_N5e7_Exner_01522800.png2012-01-10 12:13 16K 
[IMG]CS1_50kmx20km-fall-loading-thetafix_N5e7_VelX_00090000.png2012-01-10 12:09 16K 
[IMG]CS1_50kmx20km-fall-loading-thetafix_N5e7_VelX_00964800.png2012-01-10 12:12 16K 
[IMG]CS1_50kmx20km-fall-loading-thetafix_N5e7_ExnerDev_01778400.png2012-01-10 12:13 16K 
[IMG]CS1_50kmx20km-fall-loading-thetafix_N5e7_ExnerDev_00727200.png2012-01-10 12:09 16K 
[IMG]CS1_50kmx20km-fall-loading-thetafix_N5e7_ExnerDev_00644400.png2012-01-10 12:09 16K 
[IMG]CS1_50kmx20km-fall-loading-thetafix_N5e7_ExnerDev_00716400.png2012-01-10 12:09 16K 
[IMG]CS1_50kmx20km-fall-loading-thetafix_N5e7_VelX_00385200.png2012-01-10 12:09 16K 
[IMG]CS1_50kmx20km-fall-loading-thetafix_N5e7_ExnerDev_02563200.png2012-01-10 12:15 16K 
[IMG]CS1_50kmx20km-fall-loading-thetafix_N5e7_ExnerDev_02127600.png2012-01-10 12:13 16K 
[IMG]CS1_50kmx20km-fall-loading-thetafix_N5e7_Exner_00309600.png2012-01-10 12:08 16K 
[IMG]CS1_50kmx20km-fall-loading-thetafix_N5e7_VelX_00579600.png2012-01-10 12:10 16K 
[IMG]CS1_50kmx20km-fall-loading-thetafix_N5e7_ExnerDev_02318400.png2012-01-10 12:15 16K 
[IMG]CS1_50kmx20km-fall-loading-thetafix_N5e7_Exner_00252000.png2012-01-10 12:08 16K 
[IMG]CS1_50kmx20km-fall-loading-thetafix_N5e7_ExnerDev_01850400.png2012-01-10 12:13 16K 
[IMG]CS1_50kmx20km-fall-loading-thetafix_N5e7_ExnerDev_02325600.png2012-01-10 12:15 16K 
[IMG]CS1_50kmx20km-fall-loading-thetafix_N5e7_ExnerDev_01807200.png2012-01-10 12:13 16K 
[IMG]CS1_50kmx20km-fall-loading-thetafix_N5e7_ExnerDev_02386800.png2012-01-10 12:15 16K 
[IMG]CS1_50kmx20km-fall-loading-thetafix_N5e7_ExnerDev_01641600.png2012-01-10 12:12 16K 
[IMG]CS1_50kmx20km-fall-loading-thetafix_N5e7_ExnerDev_01191600.png2012-01-10 12:11 16K 
[IMG]CS1_50kmx20km-fall-loading-thetafix_N5e7_ExnerDev_01832400.png2012-01-10 12:13 16K 
[IMG]CS1_50kmx20km-fall-loading-thetafix_N5e7_ExnerDev_00878400.png2012-01-10 12:11 16K 
[IMG]CS1_50kmx20km-fall-loading-thetafix_N5e7_VelX_00514800.png2012-01-10 12:10 16K 
[IMG]CS1_50kmx20km-fall-loading-thetafix_N5e7_ExnerDev_01447200.png2012-01-10 12:12 16K 
[IMG]CS1_50kmx20km-fall-loading-thetafix_N5e7_Exner_01875600.png2012-01-10 12:13 16K 
[IMG]CS1_50kmx20km-fall-loading-thetafix_N5e7_ExnerDev_01094400.png2012-01-10 12:11 16K 
[IMG]CS1_50kmx20km-fall-loading-thetafix_N5e7_ExnerDev_00190800.png2012-01-10 12:08 16K 
[IMG]CS1_50kmx20km-fall-loading-thetafix_N5e7_ExnerDev_01303200.png2012-01-10 12:12 16K 
[IMG]CS1_50kmx20km-fall-loading-thetafix_N5e7_ExnerDev_01296000.png2012-01-10 12:12 16K 
[IMG]CS1_50kmx20km-fall-loading-thetafix_N5e7_Exner_00828000.png2012-01-10 12:09 16K 
[IMG]CS1_50kmx20km-fall-loading-thetafix_N5e7_VelX_00525600.png2012-01-10 12:10 16K 
[IMG]CS1_50kmx20km-fall-loading-thetafix_N5e7_VelX_00982800.png2012-01-10 12:12 16K 
[IMG]CS1_50kmx20km-fall-loading-thetafix_N5e7_Exner_01400400.png2012-01-10 12:13 16K 
[IMG]CS1_50kmx20km-fall-loading-thetafix_N5e7_Exner_01720800.png2012-01-10 12:13 16K 
[IMG]CS1_50kmx20km-fall-loading-thetafix_N5e7_VelZ_00025200.png2012-01-10 12:09 16K 
[IMG]CS1_50kmx20km-fall-loading-thetafix_N5e7_ExnerDev_00619200.png2012-01-10 12:09 16K 
[IMG]CS1_50kmx20km-fall-loading-thetafix_N5e7_ExnerDev_00576000.png2012-01-10 12:09 16K 
[IMG]CS1_50kmx20km-fall-loading-thetafix_N5e7_ExnerDev_00972000.png2012-01-10 12:11 16K 
[IMG]CS1_50kmx20km-fall-loading-thetafix_N5e7_Exner_01843200.png2012-01-10 12:13 16K 
[IMG]CS1_50kmx20km-fall-loading-thetafix_N5e7_VelX_00475200.png2012-01-10 12:10 16K 
[IMG]CS1_50kmx20km-fall-loading-thetafix_N5e7_VelX_00360000.png2012-01-10 12:09 16K 
[IMG]CS1_50kmx20km-fall-loading-thetafix_N5e7_ExnerDev_01594800.png2012-01-10 12:12 16K 
[IMG]CS1_50kmx20km-fall-loading-thetafix_N5e7_ExnerDev_01036800.png2012-01-10 12:11 16K 
[IMG]CS1_50kmx20km-fall-loading-thetafix_N5e7_VelX_00403200.png2012-01-10 12:09 16K 
[IMG]CS1_50kmx20km-fall-loading-thetafix_N5e7_ExnerDev_00493200.png2012-01-10 12:09 16K 
[IMG]CS1_50kmx20km-fall-loading-thetafix_N5e7_ExnerDev_01123200.png2012-01-10 12:11 16K 
[IMG]CS1_50kmx20km-fall-loading-thetafix_N5e7_VelX_00198000.png2012-01-10 12:09 16K 
[IMG]CS1_50kmx20km-fall-loading-thetafix_N5e7_ExnerDev_00255600.png2012-01-10 12:08 16K 
[IMG]CS1_50kmx20km-fall-loading-thetafix_N5e7_ExnerDev_00925200.png2012-01-10 12:11 16K 
[IMG]CS1_50kmx20km-fall-loading-thetafix_N5e7_ExnerDev_02314800.png2012-01-10 12:15 16K 
[IMG]CS1_50kmx20km-fall-loading-thetafix_N5e7_ExnerDev_01497600.png2012-01-10 12:12 16K 
[IMG]CS1_50kmx20km-fall-loading-thetafix_N5e7_ExnerDev_01810800.png2012-01-10 12:13 16K 
[IMG]CS1_50kmx20km-fall-loading-thetafix_N5e7_VelX_00392400.png2012-01-10 12:09 16K 
[IMG]CS1_50kmx20km-fall-loading-thetafix_N5e7_ExnerDev_00864000.png2012-01-10 12:11 16K 
[IMG]CS1_50kmx20km-fall-loading-thetafix_N5e7_ExnerDev_01238400.png2012-01-10 12:11 16K 
[IMG]CS1_50kmx20km-fall-loading-thetafix_N5e7_ExnerDev_01490400.png2012-01-10 12:12 16K 
[IMG]CS1_50kmx20km-fall-loading-thetafix_N5e7_ExnerDev_02131200.png2012-01-10 12:13 16K 
[IMG]CS1_50kmx20km-fall-loading-thetafix_N5e7_ExnerDev_01872000.png2012-01-10 12:13 16K 
[IMG]CS1_50kmx20km-fall-loading-thetafix_N5e7_ExnerDev_01904400.png2012-01-10 12:13 16K 
[IMG]CS1_50kmx20km-fall-loading-thetafix_N5e7_ExnerDev_00241200.png2012-01-10 12:08 16K 
[IMG]CS1_50kmx20km-fall-loading-thetafix_N5e7_VelX_00061200.png2012-01-10 12:09 16K 
[IMG]CS1_50kmx20km-fall-loading-thetafix_N5e7_ExnerDev_01083600.png2012-01-10 12:11 16K 
[IMG]CS1_50kmx20km-fall-loading-thetafix_N5e7_ExnerDev_01368000.png2012-01-10 12:12 16K 
[IMG]CS1_50kmx20km-fall-loading-thetafix_N5e7_ExnerDev_01623600.png2012-01-10 12:12 16K 
[IMG]CS1_50kmx20km-fall-loading-thetafix_N5e7_ExnerDev_01627200.png2012-01-10 12:12 16K 
[IMG]CS1_50kmx20km-fall-loading-thetafix_N5e7_ExnerDev_02473200.png2012-01-10 12:15 16K 
[IMG]CS1_50kmx20km-fall-loading-thetafix_N5e7_ExnerDev_02034000.png2012-01-10 12:13 16K 
[IMG]CS1_50kmx20km-fall-loading-thetafix_N5e7_VelX_00399600.png2012-01-10 12:09 16K 
[IMG]CS1_50kmx20km-fall-loading-thetafix_N5e7_ExnerDev_01825200.png2012-01-10 12:13 16K 
[IMG]CS1_50kmx20km-fall-loading-thetafix_N5e7_ExnerDev_00180000.png2012-01-10 12:08 16K 
[IMG]CS1_50kmx20km-fall-loading-thetafix_N5e7_ExnerDev_02278800.png2012-01-10 12:15 16K 
[IMG]CS1_50kmx20km-fall-loading-thetafix_N5e7_VelX_00457200.png2012-01-10 12:10 16K 
[IMG]CS1_50kmx20km-fall-loading-thetafix_N5e7_Exner_00586800.png2012-01-10 12:09 16K 
[IMG]CS1_50kmx20km-fall-loading-thetafix_N5e7_VelX_00273600.png2012-01-10 12:09 16K 
[IMG]CS1_50kmx20km-fall-loading-thetafix_N5e7_ExnerDev_00936000.png2012-01-10 12:11 16K 
[IMG]CS1_50kmx20km-fall-loading-thetafix_N5e7_ExnerDev_01274400.png2012-01-10 12:11 16K 
[IMG]CS1_50kmx20km-fall-loading-thetafix_N5e7_Exner_01202400.png2012-01-10 12:11 16K 
[IMG]CS1_50kmx20km-fall-loading-thetafix_N5e7_ExnerDev_01278000.png2012-01-10 12:11 16K 
[IMG]CS1_50kmx20km-fall-loading-thetafix_N5e7_ExnerDev_01227600.png2012-01-10 12:11 16K 
[IMG]CS1_50kmx20km-fall-loading-thetafix_N5e7_ExnerDev_02145600.png2012-01-10 12:13 16K 
[IMG]CS1_50kmx20km-fall-loading-thetafix_N5e7_Exner_01548000.png2012-01-10 12:13 16K 
[IMG]CS1_50kmx20km-fall-loading-thetafix_N5e7_ExnerDev_01137600.png2012-01-10 12:11 16K 
[IMG]CS1_50kmx20km-fall-loading-thetafix_N5e7_ExnerDev_01234800.png2012-01-10 12:11 16K 
[IMG]CS1_50kmx20km-fall-loading-thetafix_N5e7_ExnerDev_02466000.png2012-01-10 12:15 16K 
[IMG]CS1_50kmx20km-fall-loading-thetafix_N5e7_ExnerDev_01674000.png2012-01-10 12:12 16K 
[IMG]CS1_50kmx20km-fall-loading-thetafix_N5e7_VelX_00356400.png2012-01-10 12:09 16K 
[IMG]CS1_50kmx20km-fall-loading-thetafix_N5e7_ExnerDev_01494000.png2012-01-10 12:12 16K 
[IMG]CS1_50kmx20km-fall-loading-thetafix_N5e7_ExnerDev_00655200.png2012-01-10 12:09 16K 
[IMG]CS1_50kmx20km-fall-loading-thetafix_N5e7_ExnerDev_01544400.png2012-01-10 12:12 16K 
[IMG]CS1_50kmx20km-fall-loading-thetafix_N5e7_VelX_00234000.png2012-01-10 12:09 16K 
[IMG]CS1_50kmx20km-fall-loading-thetafix_N5e7_ExnerDev_01900800.png2012-01-10 12:13 16K 
[IMG]CS1_50kmx20km-fall-loading-thetafix_N5e7_ExnerDev_02296800.png2012-01-10 12:15 16K 
[IMG]CS1_50kmx20km-fall-loading-thetafix_N5e7_Exner_01350000.png2012-01-10 12:13 16K 
[IMG]CS1_50kmx20km-fall-loading-thetafix_N5e7_Exner_00450000.png2012-01-10 12:09 16K 
[IMG]CS1_50kmx20km-fall-loading-thetafix_N5e7_Exner_00842400.png2012-01-10 12:09 16K 
[IMG]CS1_50kmx20km-fall-loading-thetafix_N5e7_ExnerDev_00561600.png2012-01-10 12:09 16K 
[IMG]CS1_50kmx20km-fall-loading-thetafix_N5e7_ExnerDev_01782000.png2012-01-10 12:13 16K 
[IMG]CS1_50kmx20km-fall-loading-thetafix_N5e7_Exner_01854000.png2012-01-10 12:13 16K 
[IMG]CS1_50kmx20km-fall-loading-thetafix_N5e7_ExnerDev_01195200.png2012-01-10 12:11 16K 
[IMG]CS1_50kmx20km-fall-loading-thetafix_N5e7_ExnerDev_02174400.png2012-01-10 12:15 16K 
[IMG]CS1_50kmx20km-fall-loading-thetafix_N5e7_Exner_01047600.png2012-01-10 12:11 16K 
[IMG]CS1_50kmx20km-fall-loading-thetafix_N5e7_VelX_00565200.png2012-01-10 12:10 16K 
[IMG]CS1_50kmx20km-fall-loading-thetafix_N5e7_ExnerDev_01681200.png2012-01-10 12:13 16K 
[IMG]CS1_50kmx20km-fall-loading-thetafix_N5e7_ExnerDev_02502000.png2012-01-10 12:15 16K 
[IMG]CS1_50kmx20km-fall-loading-thetafix_N5e7_VelX_00370800.png2012-01-10 12:09 16K 
[IMG]CS1_50kmx20km-fall-loading-thetafix_N5e7_ExnerDev_02368800.png2012-01-10 12:15 16K 
[IMG]CS1_50kmx20km-fall-loading-thetafix_N5e7_ExnerDev_00511200.png2012-01-10 12:09 16K 
[IMG]CS1_50kmx20km-fall-loading-thetafix_N5e7_ExnerDev_00046800.png2012-01-10 12:08 16K 
[IMG]CS1_50kmx20km-fall-loading-thetafix_N5e7_ExnerDev_00226800.png2012-01-10 12:08 16K 
[IMG]CS1_50kmx20km-fall-loading-thetafix_N5e7_ExnerDev_01796400.png2012-01-10 12:13 16K 
[IMG]CS1_50kmx20km-fall-loading-thetafix_N5e7_VelX_00396000.png2012-01-10 12:09 16K 
[IMG]CS1_50kmx20km-fall-loading-thetafix_N5e7_ExnerDev_01519200.png2012-01-10 12:12 16K 
[IMG]CS1_50kmx20km-fall-loading-thetafix_N5e7_ExnerDev_01245600.png2012-01-10 12:11 16K 
[IMG]CS1_50kmx20km-fall-loading-thetafix_N5e7_ExnerDev_01101600.png2012-01-10 12:11 16K 
[IMG]CS1_50kmx20km-fall-loading-thetafix_N5e7_ExnerDev_01666800.png2012-01-10 12:12 16K 
[IMG]CS1_50kmx20km-fall-loading-thetafix_N5e7_ExnerDev_02545200.png2012-01-10 12:15 16K 
[IMG]CS1_50kmx20km-fall-loading-thetafix_N5e7_ExnerDev_00450000.png2012-01-10 12:09 16K 
[IMG]CS1_50kmx20km-fall-loading-thetafix_N5e7_Exner_01728000.png2012-01-10 12:13 16K 
[IMG]CS1_50kmx20km-fall-loading-thetafix_N5e7_ExnerDev_01576800.png2012-01-10 12:12 16K 
[IMG]CS1_50kmx20km-fall-loading-thetafix_N5e7_ExnerDev_00910800.png2012-01-10 12:11 16K 
[IMG]CS1_50kmx20km-fall-loading-thetafix_N5e7_VelX_00435600.png2012-01-10 12:10 16K 
[IMG]CS1_50kmx20km-fall-loading-thetafix_N5e7_ExnerDev_00136800.png2012-01-10 12:08 16K 
[IMG]CS1_50kmx20km-fall-loading-thetafix_N5e7_ExnerDev_00514800.png2012-01-10 12:09 16K 
[IMG]CS1_50kmx20km-fall-loading-thetafix_N5e7_ExnerDev_00687600.png2012-01-10 12:09 16K 
[IMG]CS1_50kmx20km-fall-loading-thetafix_N5e7_ExnerDev_00320400.png2012-01-10 12:08 16K 
[IMG]CS1_50kmx20km-fall-loading-thetafix_N5e7_ExnerDev_02340000.png2012-01-10 12:15 16K 
[IMG]CS1_50kmx20km-fall-loading-thetafix_N5e7_ExnerDev_02458800.png2012-01-10 12:15 16K 
[IMG]CS1_50kmx20km-fall-loading-thetafix_N5e7_Exner_01616400.png2012-01-10 12:13 16K 
[IMG]CS1_50kmx20km-fall-loading-thetafix_N5e7_ExnerDev_00007200.png2012-01-10 12:08 16K 
[IMG]CS1_50kmx20km-fall-loading-thetafix_N5e7_ExnerDev_02120400.png2012-01-10 12:13 16K 
[IMG]CS1_50kmx20km-fall-loading-thetafix_N5e7_Exner_00802800.png2012-01-10 12:09 16K 
[IMG]CS1_50kmx20km-fall-loading-thetafix_N5e7_VelX_00147600.png2012-01-10 12:09 16K 
[IMG]CS1_50kmx20km-fall-loading-thetafix_N5e7_Exner_01886400.png2012-01-10 12:13 16K 
[IMG]CS1_50kmx20km-fall-loading-thetafix_N5e7_ExnerDev_01213200.png2012-01-10 12:11 16K 
[IMG]CS1_50kmx20km-fall-loading-thetafix_N5e7_ExnerDev_01220400.png2012-01-10 12:11 16K 
[IMG]CS1_50kmx20km-fall-loading-thetafix_N5e7_ExnerDev_01663200.png2012-01-10 12:12 16K 
[IMG]CS1_50kmx20km-fall-loading-thetafix_N5e7_Exner_00900000.png2012-01-10 12:11 16K 
[IMG]CS1_50kmx20km-fall-loading-thetafix_N5e7_ExnerDev_02102400.png2012-01-10 12:13 16K 
[IMG]CS1_50kmx20km-fall-loading-thetafix_N5e7_ExnerDev_01677600.png2012-01-10 12:13 16K 
[IMG]CS1_50kmx20km-fall-loading-thetafix_N5e7_VelX_00097200.png2012-01-10 12:09 16K 
[IMG]CS1_50kmx20km-fall-loading-thetafix_N5e7_ExnerDev_00702000.png2012-01-10 12:09 16K 
[IMG]CS1_50kmx20km-fall-loading-thetafix_N5e7_ExnerDev_00547200.png2012-01-10 12:09 16K 
[IMG]CS1_50kmx20km-fall-loading-thetafix_N5e7_ExnerDev_01270800.png2012-01-10 12:11 16K 
[IMG]CS1_50kmx20km-fall-loading-thetafix_N5e7_ExnerDev_02566800.png2012-01-10 12:15 16K 
[IMG]CS1_50kmx20km-fall-loading-thetafix_N5e7_Exner_01605600.png2012-01-10 12:13 16K 
[IMG]CS1_50kmx20km-fall-loading-thetafix_N5e7_ExnerDev_01684800.png2012-01-10 12:13 16K 
[IMG]CS1_50kmx20km-fall-loading-thetafix_N5e7_ExnerDev_01026000.png2012-01-10 12:11 16K 
[IMG]CS1_50kmx20km-fall-loading-thetafix_N5e7_Exner_01900800.png2012-01-10 12:13 16K 
[IMG]CS1_50kmx20km-fall-loading-thetafix_N5e7_ExnerDev_01724400.png2012-01-10 12:13 16K 
[IMG]CS1_50kmx20km-fall-loading-thetafix_N5e7_ExnerDev_00676800.png2012-01-10 12:09 16K 
[IMG]CS1_50kmx20km-fall-loading-thetafix_N5e7_Exner_01659600.png2012-01-10 12:13 16K 
[IMG]CS1_50kmx20km-fall-loading-thetafix_N5e7_Exner_01785600.png2012-01-10 12:13 16K 
[IMG]CS1_50kmx20km-fall-loading-thetafix_N5e7_ExnerDev_00586800.png2012-01-10 12:09 16K 
[IMG]CS1_50kmx20km-fall-loading-thetafix_N5e7_ExnerDev_01526400.png2012-01-10 12:12 16K 
[IMG]CS1_50kmx20km-fall-loading-thetafix_N5e7_ExnerDev_02008800.png2012-01-10 12:13 16K 
[IMG]CS1_50kmx20km-fall-loading-thetafix_N5e7_Exner_00946800.png2012-01-10 12:11 16K 
[IMG]CS1_50kmx20km-fall-loading-thetafix_N5e7_Exner_00111600.png2012-01-10 12:08 16K 
[IMG]CS1_50kmx20km-fall-loading-thetafix_N5e7_ExnerDev_02343600.png2012-01-10 12:15 16K 
[IMG]CS1_50kmx20km-fall-loading-thetafix_N5e7_Exner_02199600.png2012-01-10 12:15 16K 
[IMG]CS1_50kmx20km-fall-loading-thetafix_N5e7_VelX_00064800.png2012-01-10 12:09 16K 
[IMG]CS1_50kmx20km-fall-loading-thetafix_N5e7_ExnerDev_00478800.png2012-01-10 12:09 16K 
[IMG]CS1_50kmx20km-fall-loading-thetafix_N5e7_ExnerDev_02574000.png2012-01-10 12:15 16K 
[IMG]CS1_50kmx20km-fall-loading-thetafix_N5e7_ExnerDev_01198800.png2012-01-10 12:11 16K 
[IMG]CS1_50kmx20km-fall-loading-thetafix_N5e7_ExnerDev_01573200.png2012-01-10 12:12 16K 
[IMG]CS1_50kmx20km-fall-loading-thetafix_N5e7_ExnerDev_00054000.png2012-01-10 12:08 16K 
[IMG]CS1_50kmx20km-fall-loading-thetafix_N5e7_Exner_00572400.png2012-01-10 12:09 16K 
[IMG]CS1_50kmx20km-fall-loading-thetafix_N5e7_ExnerDev_01508400.png2012-01-10 12:12 16K 
[IMG]CS1_50kmx20km-fall-loading-thetafix_N5e7_ExnerDev_02253600.png2012-01-10 12:15 16K 
[IMG]CS1_50kmx20km-fall-loading-thetafix_N5e7_ExnerDev_02152800.png2012-01-10 12:13 16K 
[IMG]CS1_50kmx20km-fall-loading-thetafix_N5e7_VelX_00122400.png2012-01-10 12:09 16K 
[IMG]CS1_50kmx20km-fall-loading-thetafix_N5e7_ExnerDev_02203200.png2012-01-10 12:15 16K 
[IMG]CS1_50kmx20km-fall-loading-thetafix_N5e7_Exner_00806400.png2012-01-10 12:09 16K 
[IMG]CS1_50kmx20km-fall-loading-thetafix_N5e7_ExnerDev_01659600.png2012-01-10 12:12 16K 
[IMG]CS1_50kmx20km-fall-loading-thetafix_N5e7_Exner_01648800.png2012-01-10 12:13 16K 
[IMG]CS1_50kmx20km-fall-loading-thetafix_N5e7_VelX_00367200.png2012-01-10 12:09 16K 
[IMG]CS1_50kmx20km-fall-loading-thetafix_N5e7_VelX_00176400.png2012-01-10 12:09 16K 
[IMG]CS1_50kmx20km-fall-loading-thetafix_N5e7_ExnerDev_01947600.png2012-01-10 12:13 16K 
[IMG]CS1_50kmx20km-fall-loading-thetafix_N5e7_Exner_00838800.png2012-01-10 12:09 16K 
[IMG]CS1_50kmx20km-fall-loading-thetafix_N5e7_Exner_01094400.png2012-01-10 12:11 16K 
[IMG]CS1_50kmx20km-fall-loading-thetafix_N5e7_Exner_01580400.png2012-01-10 12:13 16K 
[IMG]CS1_50kmx20km-fall-loading-thetafix_N5e7_ExnerDev_00313200.png2012-01-10 12:08 16K 
[IMG]CS1_50kmx20km-fall-loading-thetafix_N5e7_ExnerDev_00568800.png2012-01-10 12:09 16K 
[IMG]CS1_50kmx20km-fall-loading-thetafix_N5e7_ExnerDev_01166400.png2012-01-10 12:11 16K 
[IMG]CS1_50kmx20km-fall-loading-thetafix_N5e7_Exner_00216000.png2012-01-10 12:08 16K 
[IMG]CS1_50kmx20km-fall-loading-thetafix_N5e7_VelX_00180000.png2012-01-10 12:09 16K 
[IMG]CS1_50kmx20km-fall-loading-thetafix_N5e7_VelX_00338400.png2012-01-10 12:09 16K 
[IMG]CS1_50kmx20km-fall-loading-thetafix_N5e7_Exner_00378000.png2012-01-10 12:08 16K 
[IMG]CS1_50kmx20km-fall-loading-thetafix_N5e7_ExnerDev_00928800.png2012-01-10 12:11 16K 
[IMG]CS1_50kmx20km-fall-loading-thetafix_N5e7_ExnerDev_01602000.png2012-01-10 12:12 16K 
[IMG]CS1_50kmx20km-fall-loading-thetafix_N5e7_ExnerDev_02581200.png2012-01-10 12:15 16K 
[IMG]CS1_50kmx20km-fall-loading-thetafix_N5e7_Exner_00612000.png2012-01-10 12:09 16K 
[IMG]CS1_50kmx20km-fall-loading-thetafix_N5e7_Exner_01504800.png2012-01-10 12:13 16K 
[IMG]CS1_50kmx20km-fall-loading-thetafix_N5e7_VelX_00489600.png2012-01-10 12:10 16K 
[IMG]CS1_50kmx20km-fall-loading-thetafix_N5e7_ExnerDev_02408400.png2012-01-10 12:15 16K 
[IMG]CS1_50kmx20km-fall-loading-thetafix_N5e7_ExnerDev_01771200.png2012-01-10 12:13 16K 
[IMG]CS1_50kmx20km-fall-loading-thetafix_N5e7_ExnerDev_01119600.png2012-01-10 12:11 16K 
[IMG]CS1_50kmx20km-fall-loading-thetafix_N5e7_ExnerDev_02509200.png2012-01-10 12:15 16K 
[IMG]CS1_50kmx20km-fall-loading-thetafix_N5e7_ExnerDev_00817200.png2012-01-10 12:09 16K 
[IMG]CS1_50kmx20km-fall-loading-thetafix_N5e7_ExnerDev_01051200.png2012-01-10 12:11 16K 
[IMG]CS1_50kmx20km-fall-loading-thetafix_N5e7_Exner_01011600.png2012-01-10 12:11 16K 
[IMG]CS1_50kmx20km-fall-loading-thetafix_N5e7_ExnerDev_01004400.png2012-01-10 12:11 16K 
[IMG]CS1_50kmx20km-fall-loading-thetafix_N5e7_VelX_00313200.png2012-01-10 12:09 16K 
[IMG]CS1_50kmx20km-fall-loading-thetafix_N5e7_VelX_00496800.png2012-01-10 12:10 16K 
[IMG]CS1_50kmx20km-fall-loading-thetafix_N5e7_ExnerDev_00327600.png2012-01-10 12:08 16K 
[IMG]CS1_50kmx20km-fall-loading-thetafix_N5e7_ExnerDev_00806400.png2012-01-10 12:09 16K 
[IMG]CS1_50kmx20km-fall-loading-thetafix_N5e7_ExnerDev_01983600.png2012-01-10 12:13 16K 
[IMG]CS1_50kmx20km-fall-loading-thetafix_N5e7_Exner_00777600.png2012-01-10 12:09 16K 
[IMG]CS1_50kmx20km-fall-loading-thetafix_N5e7_ExnerDev_02451600.png2012-01-10 12:15 16K 
[IMG]CS1_50kmx20km-fall-loading-thetafix_N5e7_ExnerDev_00529200.png2012-01-10 12:09 16K 
[IMG]CS1_50kmx20km-fall-loading-thetafix_N5e7_ExnerDev_02048400.png2012-01-10 12:13 16K 
[IMG]CS1_50kmx20km-fall-loading-thetafix_N5e7_ExnerDev_02055600.png2012-01-10 12:13 16K 
[IMG]CS1_50kmx20km-fall-loading-thetafix_N5e7_ExnerDev_00691200.png2012-01-10 12:09 16K 
[IMG]CS1_50kmx20km-fall-loading-thetafix_N5e7_ExnerDev_01915200.png2012-01-10 12:13 16K 
[IMG]CS1_50kmx20km-fall-loading-thetafix_N5e7_Exner_02354400.png2012-01-10 12:15 16K 
[IMG]CS1_50kmx20km-fall-loading-thetafix_N5e7_Exner_02516400.png2012-01-10 12:15 16K 
[IMG]CS1_50kmx20km-fall-loading-thetafix_N5e7_VelX_00518400.png2012-01-10 12:10 16K 
[IMG]CS1_50kmx20km-fall-loading-thetafix_N5e7_ExnerDev_01069200.png2012-01-10 12:11 16K 
[IMG]CS1_50kmx20km-fall-loading-thetafix_N5e7_ExnerDev_00532800.png2012-01-10 12:09 16K 
[IMG]CS1_50kmx20km-fall-loading-thetafix_N5e7_ExnerDev_01461600.png2012-01-10 12:12 16K 
[IMG]CS1_50kmx20km-fall-loading-thetafix_N5e7_ExnerDev_02001600.png2012-01-10 12:13 16K 
[IMG]CS1_50kmx20km-fall-loading-thetafix_N5e7_Exner_00144000.png2012-01-10 12:08 16K 
[IMG]CS1_50kmx20km-fall-loading-thetafix_N5e7_ExnerDev_00223200.png2012-01-10 12:08 16K 
[IMG]CS1_50kmx20km-fall-loading-thetafix_N5e7_Exner_01623600.png2012-01-10 12:13 16K 
[IMG]CS1_50kmx20km-fall-loading-thetafix_N5e7_ExnerDev_02242800.png2012-01-10 12:15 16K 
[IMG]CS1_50kmx20km-fall-loading-thetafix_N5e7_ExnerDev_00590400.png2012-01-10 12:09 16K 
[IMG]CS1_50kmx20km-fall-loading-thetafix_N5e7_Exner_02023200.png2012-01-10 12:13 16K 
[IMG]CS1_50kmx20km-fall-loading-thetafix_N5e7_VelX_00406800.png2012-01-10 12:09 16K 
[IMG]CS1_50kmx20km-fall-loading-thetafix_N5e7_ExnerDev_01314000.png2012-01-10 12:12 16K 
[IMG]CS1_50kmx20km-fall-loading-thetafix_N5e7_ExnerDev_01515600.png2012-01-10 12:12 16K 
[IMG]CS1_50kmx20km-fall-loading-thetafix_N5e7_Exner_02109600.png2012-01-10 12:13 16K 
[IMG]CS1_50kmx20km-fall-loading-thetafix_N5e7_ExnerDev_01548000.png2012-01-10 12:12 16K 
[IMG]CS1_50kmx20km-fall-loading-thetafix_N5e7_ExnerDev_00064800.png2012-01-10 12:08 16K 
[IMG]CS1_50kmx20km-fall-loading-thetafix_N5e7_Exner_00334800.png2012-01-10 12:08 16K 
[IMG]CS1_50kmx20km-fall-loading-thetafix_N5e7_Exner_00385200.png2012-01-10 12:08 16K 
[IMG]CS1_50kmx20km-fall-loading-thetafix_N5e7_ExnerDev_00626400.png2012-01-10 12:09 16K 
[IMG]CS1_50kmx20km-fall-loading-thetafix_N5e7_VelZ_00028800.png2012-01-10 12:09 16K 
[IMG]CS1_50kmx20km-fall-loading-thetafix_N5e7_ExnerDev_01342800.png2012-01-10 12:12 16K 
[IMG]CS1_50kmx20km-fall-loading-thetafix_N5e7_ExnerDev_01400400.png2012-01-10 12:12 16K 
[IMG]CS1_50kmx20km-fall-loading-thetafix_N5e7_ExnerDev_02534400.png2012-01-10 12:15 16K 
[IMG]CS1_50kmx20km-fall-loading-thetafix_N5e7_Exner_01965600.png2012-01-10 12:13 16K 
[IMG]CS1_50kmx20km-fall-loading-thetafix_N5e7_ExnerDev_01828800.png2012-01-10 12:13 16K 
[IMG]CS1_50kmx20km-fall-loading-thetafix_N5e7_ExnerDev_02156400.png2012-01-10 12:13 16K 
[IMG]CS1_50kmx20km-fall-loading-thetafix_N5e7_ExnerDev_00370800.png2012-01-10 12:08 16K 
[IMG]CS1_50kmx20km-fall-loading-thetafix_N5e7_ExnerDev_00378000.png2012-01-10 12:08 16K 
[IMG]CS1_50kmx20km-fall-loading-thetafix_N5e7_ExnerDev_02484000.png2012-01-10 12:15 16K 
[IMG]CS1_50kmx20km-fall-loading-thetafix_N5e7_ExnerDev_01090800.png2012-01-10 12:11 16K 
[IMG]CS1_50kmx20km-fall-loading-thetafix_N5e7_ExnerDev_01656000.png2012-01-10 12:12 16K 
[IMG]CS1_50kmx20km-fall-loading-thetafix_N5e7_ExnerDev_01699200.png2012-01-10 12:13 16K 
[IMG]CS1_50kmx20km-fall-loading-thetafix_N5e7_Exner_01764000.png2012-01-10 12:13 16K 
[IMG]CS1_50kmx20km-fall-loading-thetafix_N5e7_ExnerDev_00176400.png2012-01-10 12:08 16K 
[IMG]CS1_50kmx20km-fall-loading-thetafix_N5e7_ExnerDev_01065600.png2012-01-10 12:11 16K 
[IMG]CS1_50kmx20km-fall-loading-thetafix_N5e7_ExnerDev_01998000.png2012-01-10 12:13 16K 
[IMG]CS1_50kmx20km-fall-loading-thetafix_N5e7_VelX_00298800.png2012-01-10 12:09 16K 
[IMG]CS1_50kmx20km-fall-loading-thetafix_N5e7_Exner_00561600.png2012-01-10 12:09 16K 
[IMG]CS1_50kmx20km-fall-loading-thetafix_N5e7_ExnerDev_00525600.png2012-01-10 12:09 16K 
[IMG]CS1_50kmx20km-fall-loading-thetafix_N5e7_ExnerDev_01440000.png2012-01-10 12:12 16K 
[IMG]CS1_50kmx20km-fall-loading-thetafix_N5e7_Exner_01134000.png2012-01-10 12:11 16K 
[IMG]CS1_50kmx20km-fall-loading-thetafix_N5e7_Exner_01850400.png2012-01-10 12:13 16K 
[IMG]CS1_50kmx20km-fall-loading-thetafix_N5e7_Exner_02163600.png2012-01-10 12:15 16K 
[IMG]CS1_50kmx20km-fall-loading-thetafix_N5e7_Exner_02444400.png2012-01-10 12:15 16K 
[IMG]CS1_50kmx20km-fall-loading-thetafix_N5e7_ExnerDev_00126000.png2012-01-10 12:08 16K 
[IMG]CS1_50kmx20km-fall-loading-thetafix_N5e7_ExnerDev_00108000.png2012-01-10 12:08 16K 
[IMG]CS1_50kmx20km-fall-loading-thetafix_N5e7_Exner_00856800.png2012-01-10 12:09 16K 
[IMG]CS1_50kmx20km-fall-loading-thetafix_N5e7_ExnerDev_01141200.png2012-01-10 12:11 16K 
[IMG]CS1_50kmx20km-fall-loading-thetafix_N5e7_ExnerDev_00201600.png2012-01-10 12:08 16K 
[IMG]CS1_50kmx20km-fall-loading-thetafix_N5e7_Exner_01231200.png2012-01-10 12:11 16K 
[IMG]CS1_50kmx20km-fall-loading-thetafix_N5e7_ExnerDev_00489600.png2012-01-10 12:09 16K 
[IMG]CS1_50kmx20km-fall-loading-thetafix_N5e7_ExnerDev_02062800.png2012-01-10 12:13 16K 
[IMG]CS1_50kmx20km-fall-loading-thetafix_N5e7_VelX_00277200.png2012-01-10 12:09 16K 
[IMG]CS1_50kmx20km-fall-loading-thetafix_N5e7_ExnerDev_00662400.png2012-01-10 12:09 16K 
[IMG]CS1_50kmx20km-fall-loading-thetafix_N5e7_ExnerDev_01897200.png2012-01-10 12:13 16K 
[IMG]CS1_50kmx20km-fall-loading-thetafix_N5e7_ExnerDev_01987200.png2012-01-10 12:13 16K 
[IMG]CS1_50kmx20km-fall-loading-thetafix_N5e7_VelX_00558000.png2012-01-10 12:10 16K 
[IMG]CS1_50kmx20km-fall-loading-thetafix_N5e7_ExnerDev_02044800.png2012-01-10 12:13 16K 
[IMG]CS1_50kmx20km-fall-loading-thetafix_N5e7_Exner_00295200.png2012-01-10 12:08 16K 
[IMG]CS1_50kmx20km-fall-loading-thetafix_N5e7_ExnerDev_00352800.png2012-01-10 12:08 16K 
[IMG]CS1_50kmx20km-fall-loading-thetafix_N5e7_ExnerDev_01324800.png2012-01-10 12:12 16K 
[IMG]CS1_50kmx20km-fall-loading-thetafix_N5e7_ExnerDev_02541600.png2012-01-10 12:15 16K 
[IMG]CS1_50kmx20km-fall-loading-thetafix_N5e7_ExnerDev_00918000.png2012-01-10 12:11 16K 
[IMG]CS1_50kmx20km-fall-loading-thetafix_N5e7_Exner_01177200.png2012-01-10 12:11 16K 
[IMG]CS1_50kmx20km-fall-loading-thetafix_N5e7_ExnerDev_02397600.png2012-01-10 12:15 16K 
[IMG]CS1_50kmx20km-fall-loading-thetafix_N5e7_ExnerDev_00151200.png2012-01-10 12:08 16K 
[IMG]CS1_50kmx20km-fall-loading-thetafix_N5e7_ExnerDev_00284400.png2012-01-10 12:08 16K 
[IMG]CS1_50kmx20km-fall-loading-thetafix_N5e7_ExnerDev_00979200.png2012-01-10 12:11 16K 
[IMG]CS1_50kmx20km-fall-loading-thetafix_N5e7_Exner_01274400.png2012-01-10 12:11 16K 
[IMG]CS1_50kmx20km-fall-loading-thetafix_N5e7_ExnerDev_00115200.png2012-01-10 12:08 16K 
[IMG]CS1_50kmx20km-fall-loading-thetafix_N5e7_Exner_01292400.png2012-01-10 12:11 16K 
[IMG]CS1_50kmx20km-fall-loading-thetafix_N5e7_Exner_02502000.png2012-01-10 12:15 16K 
[IMG]CS1_50kmx20km-fall-loading-thetafix_N5e7_ExnerDev_00799200.png2012-01-10 12:09 16K 
[IMG]CS1_50kmx20km-fall-loading-thetafix_N5e7_ExnerDev_01634400.png2012-01-10 12:12 16K 
[IMG]CS1_50kmx20km-fall-loading-thetafix_N5e7_ExnerDev_01134000.png2012-01-10 12:11 16K 
[IMG]CS1_50kmx20km-fall-loading-thetafix_N5e7_Exner_01227600.png2012-01-10 12:11 16K 
[IMG]CS1_50kmx20km-fall-loading-thetafix_N5e7_VelX_00230400.png2012-01-10 12:09 16K 
[IMG]CS1_50kmx20km-fall-loading-thetafix_N5e7_ExnerDev_01638000.png2012-01-10 12:12 16K 
[IMG]CS1_50kmx20km-fall-loading-thetafix_N5e7_Exner_01940400.png2012-01-10 12:13 16K 
[IMG]CS1_50kmx20km-fall-loading-thetafix_N5e7_ExnerDev_01756800.png2012-01-10 12:13 16K 
[IMG]CS1_50kmx20km-fall-loading-thetafix_N5e7_ExnerDev_02217600.png2012-01-10 12:15 16K 
[IMG]CS1_50kmx20km-fall-loading-thetafix_N5e7_ExnerDev_02455200.png2012-01-10 12:15 16K 
[IMG]CS1_50kmx20km-fall-loading-thetafix_N5e7_ExnerDev_02462400.png2012-01-10 12:15 16K 
[IMG]CS1_50kmx20km-fall-loading-thetafix_N5e7_ExnerDev_02365200.png2012-01-10 12:15 16K 
[IMG]CS1_50kmx20km-fall-loading-thetafix_N5e7_ExnerDev_02476800.png2012-01-10 12:15 16K 
[IMG]CS1_50kmx20km-fall-loading-thetafix_N5e7_Exner_02055600.png2012-01-10 12:13 16K 
[IMG]CS1_50kmx20km-fall-loading-thetafix_N5e7_Exner_02221200.png2012-01-10 12:15 16K 
[IMG]CS1_50kmx20km-fall-loading-thetafix_N5e7_ExnerDev_00403200.png2012-01-10 12:08 16K 
[IMG]CS1_50kmx20km-fall-loading-thetafix_N5e7_ExnerDev_00302400.png2012-01-10 12:08 16K 
[IMG]CS1_50kmx20km-fall-loading-thetafix_N5e7_Exner_00889200.png2012-01-10 12:11 16K 
[IMG]CS1_50kmx20km-fall-loading-thetafix_N5e7_ExnerDev_01710000.png2012-01-10 12:13 16K 
[IMG]CS1_50kmx20km-fall-loading-thetafix_N5e7_ExnerDev_01450800.png2012-01-10 12:12 16K 
[IMG]CS1_50kmx20km-fall-loading-thetafix_N5e7_ExnerDev_01612800.png2012-01-10 12:12 16K 
[IMG]CS1_50kmx20km-fall-loading-thetafix_N5e7_ExnerDev_02192400.png2012-01-10 12:15 16K 
[IMG]CS1_50kmx20km-fall-loading-thetafix_N5e7_Exner_00918000.png2012-01-10 12:11 16K 
[IMG]CS1_50kmx20km-fall-loading-thetafix_N5e7_ExnerDev_02437200.png2012-01-10 12:15 16K 
[IMG]CS1_50kmx20km-fall-loading-thetafix_N5e7_Exner_00176400.png2012-01-10 12:08 16K 
[IMG]CS1_50kmx20km-fall-loading-thetafix_N5e7_VelX_00205200.png2012-01-10 12:09 16K 
[IMG]CS1_50kmx20km-fall-loading-thetafix_N5e7_ExnerDev_01022400.png2012-01-10 12:11 16K 
[IMG]CS1_50kmx20km-fall-loading-thetafix_N5e7_Exner_00061200.png2012-01-10 12:08 16K 
[IMG]CS1_50kmx20km-fall-loading-thetafix_N5e7_Exner_01252800.png2012-01-10 12:11 16K 
[IMG]CS1_50kmx20km-fall-loading-thetafix_N5e7_ExnerDev_00324000.png2012-01-10 12:08 16K 
[IMG]CS1_50kmx20km-fall-loading-thetafix_N5e7_Exner_00709200.png2012-01-10 12:09 16K 
[IMG]CS1_50kmx20km-fall-loading-thetafix_N5e7_ExnerDev_02235600.png2012-01-10 12:15 16K 
[IMG]CS1_50kmx20km-fall-loading-thetafix_N5e7_Exner_01695600.png2012-01-10 12:13 16K 
[IMG]CS1_50kmx20km-fall-loading-thetafix_N5e7_VelX_00036000.png2012-01-10 12:09 16K 
[IMG]CS1_50kmx20km-fall-loading-thetafix_N5e7_ExnerDev_00158400.png2012-01-10 12:08 16K 
[IMG]CS1_50kmx20km-fall-loading-thetafix_N5e7_ExnerDev_00234000.png2012-01-10 12:08 16K 
[IMG]CS1_50kmx20km-fall-loading-thetafix_N5e7_ExnerDev_02516400.png2012-01-10 12:15 16K 
[IMG]CS1_50kmx20km-fall-loading-thetafix_N5e7_Exner_01018800.png2012-01-10 12:11 16K 
[IMG]CS1_50kmx20km-fall-loading-thetafix_N5e7_ExnerDev_02199600.png2012-01-10 12:15 16K 
[IMG]CS1_50kmx20km-fall-loading-thetafix_N5e7_ExnerDev_00338400.png2012-01-10 12:08 16K 
[IMG]CS1_50kmx20km-fall-loading-thetafix_N5e7_ExnerDev_00637200.png2012-01-10 12:09 16K 
[IMG]CS1_50kmx20km-fall-loading-thetafix_N5e7_ExnerDev_00892800.png2012-01-10 12:11 16K 
[IMG]CS1_50kmx20km-fall-loading-thetafix_N5e7_Exner_01213200.png2012-01-10 12:11 16K 
[IMG]CS1_50kmx20km-fall-loading-thetafix_N5e7_Exner_02152800.png2012-01-10 12:13 16K 
[IMG]CS1_50kmx20km-fall-loading-thetafix_N5e7_VelX_00259200.png2012-01-10 12:09 16K 
[IMG]CS1_50kmx20km-fall-loading-thetafix_N5e7_ExnerDev_02487600.png2012-01-10 12:15 16K 
[IMG]CS1_50kmx20km-fall-loading-thetafix_N5e7_ExnerDev_00298800.png2012-01-10 12:08 16K 
[IMG]CS1_50kmx20km-fall-loading-thetafix_N5e7_ExnerDev_01735200.png2012-01-10 12:13 16K 
[IMG]CS1_50kmx20km-fall-loading-thetafix_N5e7_ExnerDev_02095200.png2012-01-10 12:13 16K 
[IMG]CS1_50kmx20km-fall-loading-thetafix_N5e7_Exner_01396800.png2012-01-10 12:13 16K 
[IMG]CS1_50kmx20km-fall-loading-thetafix_N5e7_ExnerDev_01980000.png2012-01-10 12:13 16K 
[IMG]CS1_50kmx20km-fall-loading-thetafix_N5e7_ExnerDev_02422800.png2012-01-10 12:15 16K 
[IMG]CS1_50kmx20km-fall-loading-thetafix_N5e7_ExnerDev_01432800.png2012-01-10 12:12 16K 
[IMG]CS1_50kmx20km-fall-loading-thetafix_N5e7_ExnerDev_02250000.png2012-01-10 12:15 16K 
[IMG]CS1_50kmx20km-fall-loading-thetafix_N5e7_Exner_01742400.png2012-01-10 12:13 16K 
[IMG]CS1_50kmx20km-fall-loading-thetafix_N5e7_Exner_02592000.png2012-01-10 12:15 16K 
[IMG]CS1_50kmx20km-fall-loading-thetafix_N5e7_ExnerDev_02228400.png2012-01-10 12:15 16K 
[IMG]CS1_50kmx20km-fall-loading-thetafix_N5e7_Exner_00961200.png2012-01-10 12:11 16K 
[IMG]CS1_50kmx20km-fall-loading-thetafix_N5e7_Exner_02570400.png2012-01-10 12:15 16K 
[IMG]CS1_50kmx20km-fall-loading-thetafix_N5e7_VelX_00262800.png2012-01-10 12:09 16K 
[IMG]CS1_50kmx20km-fall-loading-thetafix_N5e7_ExnerDev_02401200.png2012-01-10 12:15 16K 
[IMG]CS1_50kmx20km-fall-loading-thetafix_N5e7_Exner_01371600.png2012-01-10 12:13 16K 
[IMG]CS1_50kmx20km-fall-loading-thetafix_N5e7_ExnerDev_01288800.png2012-01-10 12:11 16K 
[IMG]CS1_50kmx20km-fall-loading-thetafix_N5e7_Exner_02246400.png2012-01-10 12:15 16K 
[IMG]CS1_50kmx20km-fall-loading-thetafix_N5e7_Exner_02286000.png2012-01-10 12:15 16K 
[IMG]CS1_50kmx20km-fall-loading-thetafix_N5e7_VelX_00093600.png2012-01-10 12:09 16K 
[IMG]CS1_50kmx20km-fall-loading-thetafix_N5e7_ExnerDev_00043200.png2012-01-10 12:08 16K 
[IMG]CS1_50kmx20km-fall-loading-thetafix_N5e7_VelX_00140400.png2012-01-10 12:09 16K 
[IMG]CS1_50kmx20km-fall-loading-thetafix_N5e7_Exner_02192400.png2012-01-10 12:15 16K 
[IMG]CS1_50kmx20km-fall-loading-thetafix_N5e7_VelX_00226800.png2012-01-10 12:09 16K 
[IMG]CS1_50kmx20km-fall-loading-thetafix_N5e7_ExnerDev_02311200.png2012-01-10 12:15 16K 
[IMG]CS1_50kmx20km-fall-loading-thetafix_N5e7_Exner_01245600.png2012-01-10 12:11 16K 
[IMG]CS1_50kmx20km-fall-loading-thetafix_N5e7_Exner_02512800.png2012-01-10 12:15 16K 
[IMG]CS1_50kmx20km-fall-loading-thetafix_N5e7_ExnerDev_00608400.png2012-01-10 12:09 16K 
[IMG]CS1_50kmx20km-fall-loading-thetafix_N5e7_Exner_01065600.png2012-01-10 12:11 16K 
[IMG]CS1_50kmx20km-fall-loading-thetafix_N5e7_ExnerDev_00421200.png2012-01-10 12:08 16K 
[IMG]CS1_50kmx20km-fall-loading-thetafix_N5e7_ExnerDev_01854000.png2012-01-10 12:13 16K 
[IMG]CS1_50kmx20km-fall-loading-thetafix_N5e7_Exner_01558800.png2012-01-10 12:13 16K 
[IMG]CS1_50kmx20km-fall-loading-thetafix_N5e7_Exner_00050400.png2012-01-10 12:08 16K 
[IMG]CS1_50kmx20km-fall-loading-thetafix_N5e7_Exner_01692000.png2012-01-10 12:13 16K 
[IMG]CS1_50kmx20km-fall-loading-thetafix_N5e7_ExnerDev_01836000.png2012-01-10 12:13 16K 
[IMG]CS1_50kmx20km-fall-loading-thetafix_N5e7_ExnerDev_00122400.png2012-01-10 12:08 16K 
[IMG]CS1_50kmx20km-fall-loading-thetafix_N5e7_ExnerDev_00932400.png2012-01-10 12:11 16K 
[IMG]CS1_50kmx20km-fall-loading-thetafix_N5e7_ExnerDev_02588400.png2012-01-10 12:15 16K 
[IMG]CS1_50kmx20km-fall-loading-thetafix_N5e7_Exner_00691200.png2012-01-10 12:09 16K 
[IMG]CS1_50kmx20km-fall-loading-thetafix_N5e7_VelX_00471600.png2012-01-10 12:10 16K 
[IMG]CS1_50kmx20km-fall-loading-thetafix_N5e7_ExnerDev_01188000.png2012-01-10 12:11 16K 
[IMG]CS1_50kmx20km-fall-loading-thetafix_N5e7_Exner_02451600.png2012-01-10 12:15 16K 
[IMG]CS1_50kmx20km-fall-loading-thetafix_N5e7_ExnerDev_02023200.png2012-01-10 12:13 16K 
[IMG]CS1_50kmx20km-fall-loading-thetafix_N5e7_ExnerDev_00712800.png2012-01-10 12:09 16K 
[IMG]CS1_50kmx20km-fall-loading-thetafix_N5e7_ExnerDev_02322000.png2012-01-10 12:15 16K 
[IMG]CS1_50kmx20km-fall-loading-thetafix_N5e7_VelX_00190800.png2012-01-10 12:09 16K 
[IMG]CS1_50kmx20km-fall-loading-thetafix_N5e7_VelX_00352800.png2012-01-10 12:09 16K 
[IMG]CS1_50kmx20km-fall-loading-thetafix_N5e7_Exner_00414000.png2012-01-10 12:08 16K 
[IMG]CS1_50kmx20km-fall-loading-thetafix_N5e7_Exner_00262800.png2012-01-10 12:08 16K 
[IMG]CS1_50kmx20km-fall-loading-thetafix_N5e7_Exner_00939600.png2012-01-10 12:11 16K 
[IMG]CS1_50kmx20km-fall-loading-thetafix_N5e7_Exner_00291600.png2012-01-10 12:08 16K 
[IMG]CS1_50kmx20km-fall-loading-thetafix_N5e7_ExnerDev_00248400.png2012-01-10 12:08 16K 
[IMG]CS1_50kmx20km-fall-loading-thetafix_N5e7_Exner_00576000.png2012-01-10 12:09 16K 
[IMG]CS1_50kmx20km-fall-loading-thetafix_N5e7_VelX_00248400.png2012-01-10 12:09 16K 
[IMG]CS1_50kmx20km-fall-loading-thetafix_N5e7_VelX_00450000.png2012-01-10 12:10 16K 
[IMG]CS1_50kmx20km-fall-loading-thetafix_N5e7_Exner_00925200.png2012-01-10 12:11 16K 
[IMG]CS1_50kmx20km-fall-loading-thetafix_N5e7_Exner_00550800.png2012-01-10 12:09 16K 
[IMG]CS1_50kmx20km-fall-loading-thetafix_N5e7_Exner_00705600.png2012-01-10 12:09 16K 
[IMG]CS1_50kmx20km-fall-loading-thetafix_N5e7_Exner_02437200.png2012-01-10 12:15 16K 
[IMG]CS1_50kmx20km-fall-loading-thetafix_N5e7_ExnerDev_01144800.png2012-01-10 12:11 16K 
[IMG]CS1_50kmx20km-fall-loading-thetafix_N5e7_ExnerDev_00867600.png2012-01-10 12:11 16K 
[IMG]CS1_50kmx20km-fall-loading-thetafix_N5e7_ExnerDev_00057600.png2012-01-10 12:08 16K 
[IMG]CS1_50kmx20km-fall-loading-thetafix_N5e7_ExnerDev_00147600.png2012-01-10 12:08 16K 
[IMG]CS1_50kmx20km-fall-loading-thetafix_N5e7_ExnerDev_00694800.png2012-01-10 12:09 16K 
[IMG]CS1_50kmx20km-fall-loading-thetafix_N5e7_ExnerDev_01112400.png2012-01-10 12:11 16K 
[IMG]CS1_50kmx20km-fall-loading-thetafix_N5e7_Exner_01044000.png2012-01-10 12:11 16K 
[IMG]CS1_50kmx20km-fall-loading-thetafix_N5e7_Exner_02116800.png2012-01-10 12:13 16K 
[IMG]CS1_50kmx20km-fall-loading-thetafix_N5e7_ExnerDev_00990000.png2012-01-10 12:11 16K 
[IMG]CS1_50kmx20km-fall-loading-thetafix_N5e7_ExnerDev_02012400.png2012-01-10 12:13 16K 
[IMG]CS1_50kmx20km-fall-loading-thetafix_N5e7_Exner_01191600.png2012-01-10 12:11 16K 
[IMG]CS1_50kmx20km-fall-loading-thetafix_N5e7_VelX_00129600.png2012-01-10 12:09 16K 
[IMG]CS1_50kmx20km-fall-loading-thetafix_N5e7_VelX_00252000.png2012-01-10 12:09 16K 
[IMG]CS1_50kmx20km-fall-loading-thetafix_N5e7_ExnerDev_02167200.png2012-01-10 12:15 16K 
[IMG]CS1_50kmx20km-fall-loading-thetafix_N5e7_Exner_00522000.png2012-01-10 12:09 16K 
[IMG]CS1_50kmx20km-fall-loading-thetafix_N5e7_ExnerDev_00597600.png2012-01-10 12:09 16K 
[IMG]CS1_50kmx20km-fall-loading-thetafix_N5e7_ExnerDev_01749600.png2012-01-10 12:13 16K 
[IMG]CS1_50kmx20km-fall-loading-thetafix_N5e7_Exner_01724400.png2012-01-10 12:13 16K 
[IMG]CS1_50kmx20km-fall-loading-thetafix_N5e7_ExnerDev_02224800.png2012-01-10 12:15 16K 
[IMG]CS1_50kmx20km-fall-loading-thetafix_N5e7_Exner_02070000.png2012-01-10 12:13 16K 
[IMG]CS1_50kmx20km-fall-loading-thetafix_N5e7_VelX_00255600.png2012-01-10 12:09 16K 
[IMG]CS1_50kmx20km-fall-loading-thetafix_N5e7_ExnerDev_01688400.png2012-01-10 12:13 16K 
[IMG]CS1_50kmx20km-fall-loading-thetafix_N5e7_Exner_01677600.png2012-01-10 12:13 16K 
[IMG]CS1_50kmx20km-fall-loading-thetafix_N5e7_ExnerDev_02440800.png2012-01-10 12:15 16K 
[IMG]CS1_50kmx20km-fall-loading-thetafix_N5e7_ExnerDev_01695600.png2012-01-10 12:13 16K 
[IMG]CS1_50kmx20km-fall-loading-thetafix_N5e7_ExnerDev_00259200.png2012-01-10 12:08 16K 
[IMG]CS1_50kmx20km-fall-loading-thetafix_N5e7_ExnerDev_01839600.png2012-01-10 12:13 16K 
[IMG]CS1_50kmx20km-fall-loading-thetafix_N5e7_ExnerDev_01029600.png2012-01-10 12:11 16K 
[IMG]CS1_50kmx20km-fall-loading-thetafix_N5e7_ExnerDev_00651600.png2012-01-10 12:09 16K 
[IMG]CS1_50kmx20km-fall-loading-thetafix_N5e7_ExnerDev_02329200.png2012-01-10 12:15 16K 
[IMG]CS1_50kmx20km-fall-loading-thetafix_N5e7_Exner_02538000.png2012-01-10 12:15 16K 
[IMG]CS1_50kmx20km-fall-loading-thetafix_N5e7_VelX_00295200.png2012-01-10 12:09 16K 
[IMG]CS1_50kmx20km-fall-loading-thetafix_N5e7_ExnerDev_01965600.png2012-01-10 12:13 16K 
[IMG]CS1_50kmx20km-fall-loading-thetafix_N5e7_ExnerDev_01357200.png2012-01-10 12:12 16K 
[IMG]CS1_50kmx20km-fall-loading-thetafix_N5e7_Exner_02012400.png2012-01-10 12:13 16K 
[IMG]CS1_50kmx20km-fall-loading-thetafix_N5e7_VelX_00183600.png2012-01-10 12:09 16K 
[IMG]CS1_50kmx20km-fall-loading-thetafix_N5e7_Exner_01857600.png2012-01-10 12:13 16K 
[IMG]CS1_50kmx20km-fall-loading-thetafix_N5e7_ExnerDev_01339200.png2012-01-10 12:12 16K 
[IMG]CS1_50kmx20km-fall-loading-thetafix_N5e7_ExnerDev_02106000.png2012-01-10 12:13 16K 
[IMG]CS1_50kmx20km-fall-loading-thetafix_N5e7_Exner_01771200.png2012-01-10 12:13 16K 
[IMG]CS1_50kmx20km-fall-loading-thetafix_N5e7_Exner_02494800.png2012-01-10 12:15 16K 
[IMG]CS1_50kmx20km-fall-loading-thetafix_N5e7_Exner_01555200.png2012-01-10 12:13 16K 
[IMG]CS1_50kmx20km-fall-loading-thetafix_N5e7_ExnerDev_00144000.png2012-01-10 12:08 16K 
[IMG]CS1_50kmx20km-fall-loading-thetafix_N5e7_VelX_00464400.png2012-01-10 12:10 16K 
[IMG]CS1_50kmx20km-fall-loading-thetafix_N5e7_Exner_00702000.png2012-01-10 12:09 16K 
[IMG]CS1_50kmx20km-fall-loading-thetafix_N5e7_VelX_00424800.png2012-01-10 12:09 16K 
[IMG]CS1_50kmx20km-fall-loading-thetafix_N5e7_VelX_00540000.png2012-01-10 12:10 16K 
[IMG]CS1_50kmx20km-fall-loading-thetafix_N5e7_ExnerDev_00406800.png2012-01-10 12:08 16K 
[IMG]CS1_50kmx20km-fall-loading-thetafix_N5e7_ExnerDev_02394000.png2012-01-10 12:15 16K 
[IMG]CS1_50kmx20km-fall-loading-thetafix_N5e7_Exner_01699200.png2012-01-10 12:13 16K 
[IMG]CS1_50kmx20km-fall-loading-thetafix_N5e7_Exner_02181600.png2012-01-10 12:15 16K 
[IMG]CS1_50kmx20km-fall-loading-thetafix_N5e7_Exner_01303200.png2012-01-10 12:13 16K 
[IMG]CS1_50kmx20km-fall-loading-thetafix_N5e7_ExnerDev_01486800.png2012-01-10 12:12 16K 
[IMG]CS1_50kmx20km-fall-loading-thetafix_N5e7_Exner_00363600.png2012-01-10 12:08 16K 
[IMG]CS1_50kmx20km-fall-loading-thetafix_N5e7_Exner_01494000.png2012-01-10 12:13 16K 
[IMG]CS1_50kmx20km-fall-loading-thetafix_N5e7_ExnerDev_00277200.png2012-01-10 12:08 16K 
[IMG]CS1_50kmx20km-fall-loading-thetafix_N5e7_ExnerDev_00777600.png2012-01-10 12:09 16K 
[IMG]CS1_50kmx20km-fall-loading-thetafix_N5e7_ExnerDev_00079200.png2012-01-10 12:08 16K 
[IMG]CS1_50kmx20km-fall-loading-thetafix_N5e7_Exner_02480400.png2012-01-10 12:15 16K 
[IMG]CS1_50kmx20km-fall-loading-thetafix_N5e7_ExnerDev_01846800.png2012-01-10 12:13 16K 
[IMG]CS1_50kmx20km-fall-loading-thetafix_N5e7_Exner_01054800.png2012-01-10 12:11 16K 
[IMG]CS1_50kmx20km-fall-loading-thetafix_N5e7_Exner_02581200.png2012-01-10 12:15 16K 
[IMG]CS1_50kmx20km-fall-loading-thetafix_N5e7_ExnerDev_00964800.png2012-01-10 12:11 16K 
[IMG]CS1_50kmx20km-fall-loading-thetafix_N5e7_Exner_01587600.png2012-01-10 12:13 16K 
[IMG]CS1_50kmx20km-fall-loading-thetafix_N5e7_ExnerDev_02073600.png2012-01-10 12:13 16K 
[IMG]CS1_50kmx20km-fall-loading-thetafix_N5e7_Exner_00608400.png2012-01-10 12:09 16K 
[IMG]CS1_50kmx20km-fall-loading-thetafix_N5e7_Exner_00626400.png2012-01-10 12:09 16K 
[IMG]CS1_50kmx20km-fall-loading-thetafix_N5e7_ExnerDev_00118800.png2012-01-10 12:08 16K 
[IMG]CS1_50kmx20km-fall-loading-thetafix_N5e7_ExnerDev_01645200.png2012-01-10 12:12 16K 
[IMG]CS1_50kmx20km-fall-loading-thetafix_N5e7_Exner_00046800.png2012-01-10 12:08 16K 
[IMG]CS1_50kmx20km-fall-loading-thetafix_N5e7_ExnerDev_00093600.png2012-01-10 12:08 16K 
[IMG]CS1_50kmx20km-fall-loading-thetafix_N5e7_Exner_00104400.png2012-01-10 12:08 16K 
[IMG]CS1_50kmx20km-fall-loading-thetafix_N5e7_ExnerDev_00504000.png2012-01-10 12:09 16K 
[IMG]CS1_50kmx20km-fall-loading-thetafix_N5e7_Exner_00464400.png2012-01-10 12:09 16K 
[IMG]CS1_50kmx20km-fall-loading-thetafix_N5e7_Exner_00831600.png2012-01-10 12:09 16K 
[IMG]CS1_50kmx20km-fall-loading-thetafix_N5e7_Exner_00723600.png2012-01-10 12:09 16K 
[IMG]CS1_50kmx20km-fall-loading-thetafix_N5e7_Exner_00914400.png2012-01-10 12:11 16K 
[IMG]CS1_50kmx20km-fall-loading-thetafix_N5e7_Exner_01990800.png2012-01-10 12:13 16K 
[IMG]CS1_50kmx20km-fall-loading-thetafix_N5e7_ExnerDev_01803600.png2012-01-10 12:13 16K 
[IMG]CS1_50kmx20km-fall-loading-thetafix_N5e7_ExnerDev_01944000.png2012-01-10 12:13 16K 
[IMG]CS1_50kmx20km-fall-loading-thetafix_N5e7_Exner_01998000.png2012-01-10 12:13 16K 
[IMG]CS1_50kmx20km-fall-loading-thetafix_N5e7_Exner_02523600.png2012-01-10 12:15 16K 
[IMG]CS1_50kmx20km-fall-loading-thetafix_N5e7_ExnerDev_00795600.png2012-01-10 12:09 16K 
[IMG]CS1_50kmx20km-fall-loading-thetafix_N5e7_VelX_00039600.png2012-01-10 12:09 16K 
[IMG]CS1_50kmx20km-fall-loading-thetafix_N5e7_Exner_00352800.png2012-01-10 12:08 16K 
[IMG]CS1_50kmx20km-fall-loading-thetafix_N5e7_Exner_00471600.png2012-01-10 12:09 16K 
[IMG]CS1_50kmx20km-fall-loading-thetafix_N5e7_ExnerDev_01015200.png2012-01-10 12:11 16K 
[IMG]CS1_50kmx20km-fall-loading-thetafix_N5e7_Exner_02268000.png2012-01-10 12:15 16K 
[IMG]CS1_50kmx20km-fall-loading-thetafix_N5e7_ExnerDev_01267200.png2012-01-10 12:11 16K 
[IMG]CS1_50kmx20km-fall-loading-thetafix_N5e7_ExnerDev_02512800.png2012-01-10 12:15 16K 
[IMG]CS1_50kmx20km-fall-loading-thetafix_N5e7_Exner_00849600.png2012-01-10 12:09 16K 
[IMG]CS1_50kmx20km-fall-loading-thetafix_N5e7_Exner_02113200.png2012-01-10 12:13 16K 
[IMG]CS1_50kmx20km-fall-loading-thetafix_N5e7_Exner_00680400.png2012-01-10 12:09 16K 
[IMG]CS1_50kmx20km-fall-loading-thetafix_N5e7_VelX_00187200.png2012-01-10 12:09 16K 
[IMG]CS1_50kmx20km-fall-loading-thetafix_N5e7_VelX_00244800.png2012-01-10 12:09 16K 
[IMG]CS1_50kmx20km-fall-loading-thetafix_N5e7_VelX_00536400.png2012-01-10 12:10 16K 
[IMG]CS1_50kmx20km-fall-loading-thetafix_N5e7_ExnerDev_01072800.png2012-01-10 12:11 16K 
[IMG]CS1_50kmx20km-fall-loading-thetafix_N5e7_Exner_02253600.png2012-01-10 12:15 16K 
[IMG]CS1_50kmx20km-fall-loading-thetafix_N5e7_ExnerDev_00921600.png2012-01-10 12:11 16K 
[IMG]CS1_50kmx20km-fall-loading-thetafix_N5e7_ExnerDev_02113200.png2012-01-10 12:13 16K 
[IMG]CS1_50kmx20km-fall-loading-thetafix_N5e7_ExnerDev_00432000.png2012-01-10 12:09 16K 
[IMG]CS1_50kmx20km-fall-loading-thetafix_N5e7_ExnerDev_00522000.png2012-01-10 12:09 16K 
[IMG]CS1_50kmx20km-fall-loading-thetafix_N5e7_VelX_00334800.png2012-01-10 12:09 16K 
[IMG]CS1_50kmx20km-fall-loading-thetafix_N5e7_Exner_00972000.png2012-01-10 12:11 16K 
[IMG]CS1_50kmx20km-fall-loading-thetafix_N5e7_ExnerDev_01418400.png2012-01-10 12:12 16K 
[IMG]CS1_50kmx20km-fall-loading-thetafix_N5e7_Exner_02019600.png2012-01-10 12:13 16K 
[IMG]CS1_50kmx20km-fall-loading-thetafix_N5e7_ExnerDev_01504800.png2012-01-10 12:12 16K 
[IMG]CS1_50kmx20km-fall-loading-thetafix_N5e7_ExnerDev_01962000.png2012-01-10 12:13 16K 
[IMG]CS1_50kmx20km-fall-loading-thetafix_N5e7_Exner_00525600.png2012-01-10 12:09 16K 
[IMG]CS1_50kmx20km-fall-loading-thetafix_N5e7_Exner_00792000.png2012-01-10 12:09 16K 
[IMG]CS1_50kmx20km-fall-loading-thetafix_N5e7_ExnerDev_00252000.png2012-01-10 12:08 16K 
[IMG]CS1_50kmx20km-fall-loading-thetafix_N5e7_Exner_00266400.png2012-01-10 12:08 16K 
[IMG]CS1_50kmx20km-fall-loading-thetafix_N5e7_Exner_00475200.png2012-01-10 12:09 16K 
[IMG]CS1_50kmx20km-fall-loading-thetafix_N5e7_Exner_00500400.png2012-01-10 12:09 16K 
[IMG]CS1_50kmx20km-fall-loading-thetafix_N5e7_Exner_01242000.png2012-01-10 12:11 16K 
[IMG]CS1_50kmx20km-fall-loading-thetafix_N5e7_Exner_01476000.png2012-01-10 12:13 16K 
[IMG]CS1_50kmx20km-fall-loading-thetafix_N5e7_ExnerDev_00331200.png2012-01-10 12:08 16K 
[IMG]CS1_50kmx20km-fall-loading-thetafix_N5e7_ExnerDev_00349200.png2012-01-10 12:08 16K 
[IMG]CS1_50kmx20km-fall-loading-thetafix_N5e7_ExnerDev_01076400.png2012-01-10 12:11 16K 
[IMG]CS1_50kmx20km-fall-loading-thetafix_N5e7_Exner_02188800.png2012-01-10 12:15 16K 
[IMG]CS1_50kmx20km-fall-loading-thetafix_N5e7_Exner_02368800.png2012-01-10 12:15 16K 
[IMG]CS1_50kmx20km-fall-loading-thetafix_N5e7_Exner_00547200.png2012-01-10 12:09 16K 
[IMG]CS1_50kmx20km-fall-loading-thetafix_N5e7_Exner_00147600.png2012-01-10 12:08 16K 
[IMG]CS1_50kmx20km-fall-loading-thetafix_N5e7_VelX_00374400.png2012-01-10 12:09 16K 
[IMG]CS1_50kmx20km-fall-loading-thetafix_N5e7_VelX_00133200.png2012-01-10 12:09 16K 
[IMG]CS1_50kmx20km-fall-loading-thetafix_N5e7_Exner_00374400.png2012-01-10 12:08 16K 
[IMG]CS1_50kmx20km-fall-loading-thetafix_N5e7_Exner_00630000.png2012-01-10 12:09 16K 
[IMG]CS1_50kmx20km-fall-loading-thetafix_N5e7_Exner_00936000.png2012-01-10 12:11 16K 
[IMG]CS1_50kmx20km-fall-loading-thetafix_N5e7_ExnerDev_00669600.png2012-01-10 12:09 16K 
[IMG]CS1_50kmx20km-fall-loading-thetafix_N5e7_Exner_00698400.png2012-01-10 12:09 16K 
[IMG]CS1_50kmx20km-fall-loading-thetafix_N5e7_Exner_01976400.png2012-01-10 12:13 16K 
[IMG]CS1_50kmx20km-fall-loading-thetafix_N5e7_ExnerDev_01616400.png2012-01-10 12:12 16K 
[IMG]CS1_50kmx20km-fall-loading-thetafix_N5e7_Exner_02178000.png2012-01-10 12:15 16K 
[IMG]CS1_50kmx20km-fall-loading-thetafix_N5e7_ExnerDev_00388800.png2012-01-10 12:08 16K 
[IMG]CS1_50kmx20km-fall-loading-thetafix_N5e7_Exner_00982800.png2012-01-10 12:11 16K 
[IMG]CS1_50kmx20km-fall-loading-thetafix_N5e7_Exner_00234000.png2012-01-10 12:08 16K 
[IMG]CS1_50kmx20km-fall-loading-thetafix_N5e7_Exner_01796400.png2012-01-10 12:13 16K 
[IMG]CS1_50kmx20km-fall-loading-thetafix_N5e7_Exner_01468800.png2012-01-10 12:13 16K 
[IMG]CS1_50kmx20km-fall-loading-thetafix_N5e7_ExnerDev_00756000.png2012-01-10 12:09 16K 
[IMG]CS1_50kmx20km-fall-loading-thetafix_N5e7_ExnerDev_01404000.png2012-01-10 12:12 16K 
[IMG]CS1_50kmx20km-fall-loading-thetafix_N5e7_Exner_01454400.png2012-01-10 12:13 16K 
[IMG]CS1_50kmx20km-fall-loading-thetafix_N5e7_Exner_01717200.png2012-01-10 12:13 16K 
[IMG]CS1_50kmx20km-fall-loading-thetafix_N5e7_ExnerDev_01202400.png2012-01-10 12:11 16K 
[IMG]CS1_50kmx20km-fall-loading-thetafix_N5e7_Exner_01422000.png2012-01-10 12:13 16K 
[IMG]CS1_50kmx20km-fall-loading-thetafix_N5e7_VelX_00342000.png2012-01-10 12:09 16K 
[IMG]CS1_50kmx20km-fall-loading-thetafix_N5e7_ExnerDev_00334800.png2012-01-10 12:08 16K 
[IMG]CS1_50kmx20km-fall-loading-thetafix_N5e7_VelX_00266400.png2012-01-10 12:09 16K 
[IMG]CS1_50kmx20km-fall-loading-thetafix_N5e7_Exner_00594000.png2012-01-10 12:09 16K 
[IMG]CS1_50kmx20km-fall-loading-thetafix_N5e7_ExnerDev_01936800.png2012-01-10 12:13 16K 
[IMG]CS1_50kmx20km-fall-loading-thetafix_N5e7_VelX_00421200.png2012-01-10 12:09 16K 
[IMG]CS1_50kmx20km-fall-loading-thetafix_N5e7_Exner_02167200.png2012-01-10 12:15 16K 
[IMG]CS1_50kmx20km-fall-loading-thetafix_N5e7_VelX_00201600.png2012-01-10 12:09 16K 
[IMG]CS1_50kmx20km-fall-loading-thetafix_N5e7_ExnerDev_01310400.png2012-01-10 12:12 16K 
[IMG]CS1_50kmx20km-fall-loading-thetafix_N5e7_ExnerDev_01562400.png2012-01-10 12:12 16K 
[IMG]CS1_50kmx20km-fall-loading-thetafix_N5e7_ExnerDev_02390400.png2012-01-10 12:15 16K 
[IMG]CS1_50kmx20km-fall-loading-thetafix_N5e7_Exner_00878400.png2012-01-10 12:11 16K 
[IMG]CS1_50kmx20km-fall-loading-thetafix_N5e7_Exner_02206800.png2012-01-10 12:15 16K 
[IMG]CS1_50kmx20km-fall-loading-thetafix_N5e7_VelX_00507600.png2012-01-10 12:10 16K 
[IMG]CS1_50kmx20km-fall-loading-thetafix_N5e7_ExnerDev_01249200.png2012-01-10 12:11 16K 
[IMG]CS1_50kmx20km-fall-loading-thetafix_N5e7_Exner_00457200.png2012-01-10 12:09 16K 
[IMG]CS1_50kmx20km-fall-loading-thetafix_N5e7_Exner_00662400.png2012-01-10 12:09 16K 
[IMG]CS1_50kmx20km-fall-loading-thetafix_N5e7_Exner_02030400.png2012-01-10 12:13 16K 
[IMG]CS1_50kmx20km-fall-loading-thetafix_N5e7_ExnerDev_00453600.png2012-01-10 12:09 16K 
[IMG]CS1_50kmx20km-fall-loading-thetafix_N5e7_Exner_01746000.png2012-01-10 12:13 16K 
[IMG]CS1_50kmx20km-fall-loading-thetafix_N5e7_Exner_02239200.png2012-01-10 12:15 16K 
[IMG]CS1_50kmx20km-fall-loading-thetafix_N5e7_VelX_00306000.png2012-01-10 12:09 16K 
[IMG]CS1_50kmx20km-fall-loading-thetafix_N5e7_Exner_01407600.png2012-01-10 12:13 16K 
[IMG]CS1_50kmx20km-fall-loading-thetafix_N5e7_Exner_01609200.png2012-01-10 12:13 16K 
[IMG]CS1_50kmx20km-fall-loading-thetafix_N5e7_Exner_01216800.png2012-01-10 12:11 16K 
[IMG]CS1_50kmx20km-fall-loading-thetafix_N5e7_Exner_01432800.png2012-01-10 12:13 16K 
[IMG]CS1_50kmx20km-fall-loading-thetafix_N5e7_Exner_02185200.png2012-01-10 12:15 16K 
[IMG]CS1_50kmx20km-fall-loading-thetafix_N5e7_ExnerDev_00975600.png2012-01-10 12:11 16K 
[IMG]CS1_50kmx20km-fall-loading-thetafix_N5e7_Exner_00504000.png2012-01-10 12:09 16K 
[IMG]CS1_50kmx20km-fall-loading-thetafix_N5e7_Exner_01375200.png2012-01-10 12:13 16K 
[IMG]CS1_50kmx20km-fall-loading-thetafix_N5e7_Exner_01814400.png2012-01-10 12:13 16K 
[IMG]CS1_50kmx20km-fall-loading-thetafix_N5e7_ExnerDev_00244800.png2012-01-10 12:08 16K 
[IMG]CS1_50kmx20km-fall-loading-thetafix_N5e7_Exner_01818000.png2012-01-10 12:13 16K 
[IMG]CS1_50kmx20km-fall-loading-thetafix_N5e7_ExnerDev_01386000.png2012-01-10 12:12 16K 
[IMG]CS1_50kmx20km-fall-loading-thetafix_N5e7_Exner_01429200.png2012-01-10 12:13 16K 
[IMG]CS1_50kmx20km-fall-loading-thetafix_N5e7_Exner_01630800.png2012-01-10 12:13 16K 
[IMG]CS1_50kmx20km-fall-loading-thetafix_N5e7_Exner_02271600.png2012-01-10 12:15 16K 
[IMG]CS1_50kmx20km-fall-loading-thetafix_N5e7_Exner_00993600.png2012-01-10 12:11 16K 
[IMG]CS1_50kmx20km-fall-loading-thetafix_N5e7_ExnerDev_01087200.png2012-01-10 12:11 16K 
[IMG]CS1_50kmx20km-fall-loading-thetafix_N5e7_Exner_00604800.png2012-01-10 12:09 16K 
[IMG]CS1_50kmx20km-fall-loading-thetafix_N5e7_Exner_00648000.png2012-01-10 12:09 16K 
[IMG]CS1_50kmx20km-fall-loading-thetafix_N5e7_ExnerDev_01209600.png2012-01-10 12:11 16K 
[IMG]CS1_50kmx20km-fall-loading-thetafix_N5e7_Exner_01879200.png2012-01-10 12:13 16K 
[IMG]CS1_50kmx20km-fall-loading-thetafix_N5e7_ExnerDev_00982800.png2012-01-10 12:11 16K 
[IMG]CS1_50kmx20km-fall-loading-thetafix_N5e7_Exner_02296800.png2012-01-10 12:15 16K 
[IMG]CS1_50kmx20km-fall-loading-thetafix_N5e7_VelX_00223200.png2012-01-10 12:09 16K 
[IMG]CS1_50kmx20km-fall-loading-thetafix_N5e7_ExnerDev_00741600.png2012-01-10 12:09 16K 
[IMG]CS1_50kmx20km-fall-loading-thetafix_N5e7_Exner_00543600.png2012-01-10 12:09 16K 
[IMG]CS1_50kmx20km-fall-loading-thetafix_N5e7_Exner_01569600.png2012-01-10 12:13 16K 
[IMG]CS1_50kmx20km-fall-loading-thetafix_N5e7_Exner_01828800.png2012-01-10 12:13 16K 
[IMG]CS1_50kmx20km-fall-loading-thetafix_N5e7_ExnerDev_00111600.png2012-01-10 12:08 16K 
[IMG]CS1_50kmx20km-fall-loading-thetafix_N5e7_ExnerDev_01540800.png2012-01-10 12:12 16K 
[IMG]CS1_50kmx20km-fall-loading-thetafix_N5e7_Exner_01234800.png2012-01-10 12:11 16K 
[IMG]CS1_50kmx20km-fall-loading-thetafix_N5e7_Exner_01641600.png2012-01-10 12:13 16K 
[IMG]CS1_50kmx20km-fall-loading-thetafix_N5e7_Exner_01782000.png2012-01-10 12:13 16K 
[IMG]CS1_50kmx20km-fall-loading-thetafix_N5e7_VelX_00111600.png2012-01-10 12:09 16K 
[IMG]CS1_50kmx20km-fall-loading-thetafix_N5e7_ExnerDev_00853200.png2012-01-10 12:09 16K 
[IMG]CS1_50kmx20km-fall-loading-thetafix_N5e7_ExnerDev_01425600.png2012-01-10 12:12 16K 
[IMG]CS1_50kmx20km-fall-loading-thetafix_N5e7_Exner_00568800.png2012-01-10 12:09 16K 
[IMG]CS1_50kmx20km-fall-loading-thetafix_N5e7_ExnerDev_00486000.png2012-01-10 12:09 16K 
[IMG]CS1_50kmx20km-fall-loading-thetafix_N5e7_Exner_00795600.png2012-01-10 12:09 16K 
[IMG]CS1_50kmx20km-fall-loading-thetafix_N5e7_Exner_01162800.png2012-01-10 12:11 16K 
[IMG]CS1_50kmx20km-fall-loading-thetafix_N5e7_Exner_02088000.png2012-01-10 12:13 16K 
[IMG]CS1_50kmx20km-fall-loading-thetafix_N5e7_ExnerDev_00140400.png2012-01-10 12:08 16K 
[IMG]CS1_50kmx20km-fall-loading-thetafix_N5e7_ExnerDev_00385200.png2012-01-10 12:08 16K 
[IMG]CS1_50kmx20km-fall-loading-thetafix_N5e7_ExnerDev_00460800.png2012-01-10 12:09 16K 
[IMG]CS1_50kmx20km-fall-loading-thetafix_N5e7_ExnerDev_01054800.png2012-01-10 12:11 16K 
[IMG]CS1_50kmx20km-fall-loading-thetafix_N5e7_ExnerDev_01918800.png2012-01-10 12:13 16K 
[IMG]CS1_50kmx20km-fall-loading-thetafix_N5e7_Exner_00237600.png2012-01-10 12:08 16K 
[IMG]CS1_50kmx20km-fall-loading-thetafix_N5e7_Exner_01022400.png2012-01-10 12:11 16K 
[IMG]CS1_50kmx20km-fall-loading-thetafix_N5e7_ExnerDev_00759600.png2012-01-10 12:09 16K 
[IMG]CS1_50kmx20km-fall-loading-thetafix_N5e7_Exner_00583200.png2012-01-10 12:09 16K 
[IMG]CS1_50kmx20km-fall-loading-thetafix_N5e7_Exner_00619200.png2012-01-10 12:09 16K 
[IMG]CS1_50kmx20km-fall-loading-thetafix_N5e7_ExnerDev_01130400.png2012-01-10 12:11 16K 
[IMG]CS1_50kmx20km-fall-loading-thetafix_N5e7_Exner_00129600.png2012-01-10 12:08 16K 
[IMG]CS1_50kmx20km-fall-loading-thetafix_N5e7_Exner_02149200.png2012-01-10 12:13 16K 
[IMG]CS1_50kmx20km-fall-loading-thetafix_N5e7_ExnerDev_00381600.png2012-01-10 12:08 16K 
[IMG]CS1_50kmx20km-fall-loading-thetafix_N5e7_ExnerDev_02170800.png2012-01-10 12:15 16K 
[IMG]CS1_50kmx20km-fall-loading-thetafix_N5e7_Exner_00493200.png2012-01-10 12:09 16K 
[IMG]CS1_50kmx20km-fall-loading-thetafix_N5e7_Exner_00669600.png2012-01-10 12:09 16K 
[IMG]CS1_50kmx20km-fall-loading-thetafix_N5e7_Exner_01980000.png2012-01-10 12:13 16K 
[IMG]CS1_50kmx20km-fall-loading-thetafix_N5e7_ExnerDev_00414000.png2012-01-10 12:08 16K 
[IMG]CS1_50kmx20km-fall-loading-thetafix_N5e7_ExnerDev_00439200.png2012-01-10 12:09 16K 
[IMG]CS1_50kmx20km-fall-loading-thetafix_N5e7_Exner_00957600.png2012-01-10 12:11 16K 
[IMG]CS1_50kmx20km-fall-loading-thetafix_N5e7_Exner_01144800.png2012-01-10 12:11 16K 
[IMG]CS1_50kmx20km-fall-loading-thetafix_N5e7_Exner_00280800.png2012-01-10 12:08 16K 
[IMG]CS1_50kmx20km-fall-loading-thetafix_N5e7_Exner_02242800.png2012-01-10 12:15 16K 
[IMG]CS1_50kmx20km-fall-loading-thetafix_N5e7_Exner_02329200.png2012-01-10 12:15 16K 
[IMG]CS1_50kmx20km-fall-loading-thetafix_N5e7_Exner_00745200.png2012-01-10 12:09 16K 
[IMG]CS1_50kmx20km-fall-loading-thetafix_N5e7_Exner_00824400.png2012-01-10 12:09 16K 
[IMG]CS1_50kmx20km-fall-loading-thetafix_N5e7_Exner_01411200.png2012-01-10 12:13 16K 
[IMG]CS1_50kmx20km-fall-loading-thetafix_N5e7_Exner_01458000.png2012-01-10 12:13 16K 
[IMG]CS1_50kmx20km-fall-loading-thetafix_N5e7_Exner_01382400.png2012-01-10 12:13 16K 
[IMG]CS1_50kmx20km-fall-loading-thetafix_N5e7_VelX_00057600.png2012-01-10 12:09 16K 
[IMG]CS1_50kmx20km-fall-loading-thetafix_N5e7_VelX_00108000.png2012-01-10 12:09 16K 
[IMG]CS1_50kmx20km-fall-loading-thetafix_N5e7_VelX_00115200.png2012-01-10 12:09 16K 
[IMG]CS1_50kmx20km-fall-loading-thetafix_N5e7_Exner_01868400.png2012-01-10 12:13 16K 
[IMG]CS1_50kmx20km-fall-loading-thetafix_N5e7_Exner_01846800.png2012-01-10 12:13 16K 
[IMG]CS1_50kmx20km-fall-loading-thetafix_N5e7_Exner_01447200.png2012-01-10 12:13 16K 
[IMG]CS1_50kmx20km-fall-loading-thetafix_N5e7_Exner_02455200.png2012-01-10 12:15 16K 
[IMG]CS1_50kmx20km-fall-loading-thetafix_N5e7_Exner_00223200.png2012-01-10 12:08 16K 
[IMG]CS1_50kmx20km-fall-loading-thetafix_N5e7_Exner_02322000.png2012-01-10 12:15 16K 
[IMG]CS1_50kmx20km-fall-loading-thetafix_N5e7_Exner_02426400.png2012-01-10 12:15 16K 
[IMG]CS1_50kmx20km-fall-loading-thetafix_N5e7_Exner_02073600.png2012-01-10 12:13 16K 
[IMG]CS1_50kmx20km-fall-loading-thetafix_N5e7_ExnerDev_00273600.png2012-01-10 12:08 16K 
[IMG]CS1_50kmx20km-fall-loading-thetafix_N5e7_ExnerDev_00630000.png2012-01-10 12:09 16K 
[IMG]CS1_50kmx20km-fall-loading-thetafix_N5e7_Exner_00986400.png2012-01-10 12:11 16K 
[IMG]CS1_50kmx20km-fall-loading-thetafix_N5e7_Exner_01864800.png2012-01-10 12:13 16K 
[IMG]CS1_50kmx20km-fall-loading-thetafix_N5e7_ExnerDev_02080800.png2012-01-10 12:13 16K 
[IMG]CS1_50kmx20km-fall-loading-thetafix_N5e7_Exner_00392400.png2012-01-10 12:08 16K 
[IMG]CS1_50kmx20km-fall-loading-thetafix_N5e7_ExnerDev_00784800.png2012-01-10 12:09 16K 
[IMG]CS1_50kmx20km-fall-loading-thetafix_N5e7_Exner_01267200.png2012-01-10 12:11 16K 
[IMG]CS1_50kmx20km-fall-loading-thetafix_N5e7_Exner_01551600.png2012-01-10 12:13 16K 
[IMG]CS1_50kmx20km-fall-loading-thetafix_N5e7_Exner_00298800.png2012-01-10 12:08 16K 
[IMG]CS1_50kmx20km-fall-loading-thetafix_N5e7_Exner_01987200.png2012-01-10 12:13 16K 
[IMG]CS1_50kmx20km-fall-loading-thetafix_N5e7_Exner_02041200.png2012-01-10 12:13 16K 
[IMG]CS1_50kmx20km-fall-loading-thetafix_N5e7_ExnerDev_01558800.png2012-01-10 12:12 16K 
[IMG]CS1_50kmx20km-fall-loading-thetafix_N5e7_ExnerDev_00446400.png2012-01-10 12:09 16K 
[IMG]CS1_50kmx20km-fall-loading-thetafix_N5e7_ExnerDev_00658800.png2012-01-10 12:09 16K 
[IMG]CS1_50kmx20km-fall-loading-thetafix_N5e7_Exner_00284400.png2012-01-10 12:08 16K 
[IMG]CS1_50kmx20km-fall-loading-thetafix_N5e7_Exner_00338400.png2012-01-10 12:08 16K 
[IMG]CS1_50kmx20km-fall-loading-thetafix_N5e7_ExnerDev_01008000.png2012-01-10 12:11 16K 
[IMG]CS1_50kmx20km-fall-loading-thetafix_N5e7_Exner_00201600.png2012-01-10 12:08 16K 
[IMG]CS1_50kmx20km-fall-loading-thetafix_N5e7_Exner_00406800.png2012-01-10 12:08 16K 
[IMG]CS1_50kmx20km-fall-loading-thetafix_N5e7_Exner_02278800.png2012-01-10 12:15 16K 
[IMG]CS1_50kmx20km-fall-loading-thetafix_N5e7_Exner_00219600.png2012-01-10 12:08 16K 
[IMG]CS1_50kmx20km-fall-loading-thetafix_N5e7_Exner_00306000.png2012-01-10 12:08 16K 
[IMG]CS1_50kmx20km-fall-loading-thetafix_N5e7_Exner_02156400.png2012-01-10 12:13 16K 
[IMG]CS1_50kmx20km-fall-loading-thetafix_N5e7_Exner_02527200.png2012-01-10 12:15 16K 
[IMG]CS1_50kmx20km-fall-loading-thetafix_N5e7_Exner_01378800.png2012-01-10 12:13 16K 
[IMG]CS1_50kmx20km-fall-loading-thetafix_N5e7_Exner_00226800.png2012-01-10 12:08 16K 
[IMG]CS1_50kmx20km-fall-loading-thetafix_N5e7_Exner_00810000.png2012-01-10 12:09 16K 
[IMG]CS1_50kmx20km-fall-loading-thetafix_N5e7_ExnerDev_01152000.png2012-01-10 12:11 16K 
[IMG]CS1_50kmx20km-fall-loading-thetafix_N5e7_ExnerDev_01414800.png2012-01-10 12:12 16K 
[IMG]CS1_50kmx20km-fall-loading-thetafix_N5e7_Exner_00633600.png2012-01-10 12:09 16K 
[IMG]CS1_50kmx20km-fall-loading-thetafix_N5e7_ExnerDev_02077200.png2012-01-10 12:13 16K 
[IMG]CS1_50kmx20km-fall-loading-thetafix_N5e7_Exner_00720000.png2012-01-10 12:09 16K 
[IMG]CS1_50kmx20km-fall-loading-thetafix_N5e7_Exner_00921600.png2012-01-10 12:11 16K 
[IMG]CS1_50kmx20km-fall-loading-thetafix_N5e7_ExnerDev_00280800.png2012-01-10 12:08 16K 
[IMG]CS1_50kmx20km-fall-loading-thetafix_N5e7_Exner_02552400.png2012-01-10 12:15 16K 
[IMG]CS1_50kmx20km-fall-loading-thetafix_N5e7_Exner_01713600.png2012-01-10 12:13 16K 
[IMG]CS1_50kmx20km-fall-loading-thetafix_N5e7_Exner_01807200.png2012-01-10 12:13 16K 
[IMG]CS1_50kmx20km-fall-loading-thetafix_N5e7_Exner_01479600.png2012-01-10 12:13 16K 
[IMG]CS1_50kmx20km-fall-loading-thetafix_N5e7_ExnerDev_02260800.png2012-01-10 12:15 16K 
[IMG]CS1_50kmx20km-fall-loading-thetafix_N5e7_Exner_00676800.png2012-01-10 12:09 16K 
[IMG]CS1_50kmx20km-fall-loading-thetafix_N5e7_Exner_02264400.png2012-01-10 12:15 16K 
[IMG]CS1_50kmx20km-fall-loading-thetafix_N5e7_VelX_00349200.png2012-01-10 12:09 16K 
[IMG]CS1_50kmx20km-fall-loading-thetafix_N5e7_ExnerDev_01000800.png2012-01-10 12:11 16K 
[IMG]CS1_50kmx20km-fall-loading-thetafix_N5e7_ExnerDev_01162800.png2012-01-10 12:11 16K 
[IMG]CS1_50kmx20km-fall-loading-thetafix_N5e7_Exner_00356400.png2012-01-10 12:08 16K 
[IMG]CS1_50kmx20km-fall-loading-thetafix_N5e7_Exner_00910800.png2012-01-10 12:11 16K 
[IMG]CS1_50kmx20km-fall-loading-thetafix_N5e7_Exner_01033200.png2012-01-10 12:11 16K 
[IMG]CS1_50kmx20km-fall-loading-thetafix_N5e7_Exner_01465200.png2012-01-10 12:13 16K 
[IMG]CS1_50kmx20km-fall-loading-thetafix_N5e7_Exner_00136800.png2012-01-10 12:08 16K 
[IMG]CS1_50kmx20km-fall-loading-thetafix_N5e7_Exner_00518400.png2012-01-10 12:09 16K 
[IMG]CS1_50kmx20km-fall-loading-thetafix_N5e7_ExnerDev_02188800.png2012-01-10 12:15 16K 
[IMG]CS1_50kmx20km-fall-loading-thetafix_N5e7_Exner_00943200.png2012-01-10 12:11 17K 
[IMG]CS1_50kmx20km-fall-loading-thetafix_N5e7_Exner_01083600.png2012-01-10 12:11 17K 
[IMG]CS1_50kmx20km-fall-loading-thetafix_N5e7_Exner_01332000.png2012-01-10 12:13 17K 
[IMG]CS1_50kmx20km-fall-loading-thetafix_N5e7_Exner_00126000.png2012-01-10 12:08 17K 
[IMG]CS1_50kmx20km-fall-loading-thetafix_N5e7_Exner_00658800.png2012-01-10 12:09 17K 
[IMG]CS1_50kmx20km-fall-loading-thetafix_N5e7_Exner_01105200.png2012-01-10 12:11 17K 
[IMG]CS1_50kmx20km-fall-loading-thetafix_N5e7_Exner_01774800.png2012-01-10 12:13 17K 
[IMG]CS1_50kmx20km-fall-loading-thetafix_N5e7_Exner_01126800.png2012-01-10 12:11 17K 
[IMG]CS1_50kmx20km-fall-loading-thetafix_N5e7_Exner_00860400.png2012-01-10 12:09 17K 
[IMG]CS1_50kmx20km-fall-loading-thetafix_N5e7_Exner_01562400.png2012-01-10 12:13 17K 
[IMG]CS1_50kmx20km-fall-loading-thetafix_N5e7_VelX_00219600.png2012-01-10 12:09 17K 
[IMG]CS1_50kmx20km-fall-loading-thetafix_N5e7_VelX_00486000.png2012-01-10 12:10 17K 
[IMG]CS1_50kmx20km-fall-loading-thetafix_N5e7_ExnerDev_01591200.png2012-01-10 12:12 17K 
[IMG]CS1_50kmx20km-fall-loading-thetafix_N5e7_ExnerDev_02448000.png2012-01-10 12:15 17K 
[IMG]CS1_50kmx20km-fall-loading-thetafix_N5e7_ExnerDev_00781200.png2012-01-10 12:09 17K 
[IMG]CS1_50kmx20km-fall-loading-thetafix_N5e7_ExnerDev_01116000.png2012-01-10 12:11 17K 
[IMG]CS1_50kmx20km-fall-loading-thetafix_N5e7_Exner_01278000.png2012-01-10 12:11 17K 
[IMG]CS1_50kmx20km-fall-loading-thetafix_N5e7_ExnerDev_01569600.png2012-01-10 12:12 17K 
[IMG]CS1_50kmx20km-fall-loading-thetafix_N5e7_Exner_00907200.png2012-01-10 12:11 17K 
[IMG]CS1_50kmx20km-fall-loading-thetafix_N5e7_Exner_00932400.png2012-01-10 12:11 17K 
[IMG]CS1_50kmx20km-fall-loading-thetafix_N5e7_ExnerDev_00230400.png2012-01-10 12:08 17K 
[IMG]CS1_50kmx20km-fall-loading-thetafix_N5e7_ExnerDev_00640800.png2012-01-10 12:09 17K 
[IMG]CS1_50kmx20km-fall-loading-thetafix_N5e7_ExnerDev_00684000.png2012-01-10 12:09 17K 
[IMG]CS1_50kmx20km-fall-loading-thetafix_N5e7_ExnerDev_00907200.png2012-01-10 12:11 17K 
[IMG]CS1_50kmx20km-fall-loading-thetafix_N5e7_ExnerDev_01512000.png2012-01-10 12:12 17K 
[IMG]CS1_50kmx20km-fall-loading-thetafix_N5e7_Exner_00752400.png2012-01-10 12:09 17K 
[IMG]CS1_50kmx20km-fall-loading-thetafix_N5e7_ExnerDev_02505600.png2012-01-10 12:15 17K 
[IMG]CS1_50kmx20km-fall-loading-thetafix_N5e7_Exner_02563200.png2012-01-10 12:15 17K 
[IMG]CS1_50kmx20km-fall-loading-thetafix_N5e7_Exner_00950400.png2012-01-10 12:11 17K 
[IMG]CS1_50kmx20km-fall-loading-thetafix_N5e7_Exner_02559600.png2012-01-10 12:15 17K 
[IMG]CS1_50kmx20km-fall-loading-thetafix_N5e7_Exner_00871200.png2012-01-10 12:11 17K 
[IMG]CS1_50kmx20km-fall-loading-thetafix_N5e7_Exner_01137600.png2012-01-10 12:11 17K 
[IMG]CS1_50kmx20km-fall-loading-thetafix_N5e7_Exner_02361600.png2012-01-10 12:15 17K 
[IMG]CS1_50kmx20km-fall-loading-thetafix_N5e7_ExnerDev_00172800.png2012-01-10 12:08 17K 
[IMG]CS1_50kmx20km-fall-loading-thetafix_N5e7_ExnerDev_00316800.png2012-01-10 12:08 17K 
[IMG]CS1_50kmx20km-fall-loading-thetafix_N5e7_Exner_01573200.png2012-01-10 12:13 17K 
[IMG]CS1_50kmx20km-fall-loading-thetafix_N5e7_Exner_02228400.png2012-01-10 12:15 17K 
[IMG]CS1_50kmx20km-fall-loading-thetafix_N5e7_ExnerDev_00262800.png2012-01-10 12:08 17K 
[IMG]CS1_50kmx20km-fall-loading-thetafix_N5e7_Exner_00666000.png2012-01-10 12:09 17K 
[IMG]CS1_50kmx20km-fall-loading-thetafix_N5e7_Exner_01544400.png2012-01-10 12:13 17K 
[IMG]CS1_50kmx20km-fall-loading-thetafix_N5e7_Exner_01951200.png2012-01-10 12:13 17K 
[IMG]CS1_50kmx20km-fall-loading-thetafix_N5e7_ExnerDev_02530800.png2012-01-10 12:15 17K 
[IMG]CS1_50kmx20km-fall-loading-thetafix_N5e7_Exner_02484000.png2012-01-10 12:15 17K 
[IMG]CS1_50kmx20km-fall-loading-thetafix_N5e7_ExnerDev_00594000.png2012-01-10 12:09 17K 
[IMG]CS1_50kmx20km-fall-loading-thetafix_N5e7_Exner_01389600.png2012-01-10 12:13 17K 
[IMG]CS1_50kmx20km-fall-loading-thetafix_N5e7_Exner_02106000.png2012-01-10 12:13 17K 
[IMG]CS1_50kmx20km-fall-loading-thetafix_N5e7_VelX_00378000.png2012-01-10 12:09 17K 
[IMG]CS1_50kmx20km-fall-loading-thetafix_N5e7_Exner_00507600.png2012-01-10 12:09 17K 
[IMG]CS1_50kmx20km-fall-loading-thetafix_N5e7_Exner_01735200.png2012-01-10 12:13 17K 
[IMG]CS1_50kmx20km-fall-loading-thetafix_N5e7_Exner_01148400.png2012-01-10 12:11 17K 
[IMG]CS1_50kmx20km-fall-loading-thetafix_N5e7_VelX_00439200.png2012-01-10 12:10 17K 
[IMG]CS1_50kmx20km-fall-loading-thetafix_N5e7_ExnerDev_01252800.png2012-01-10 12:11 17K 
[IMG]CS1_50kmx20km-fall-loading-thetafix_N5e7_ExnerDev_01530000.png2012-01-10 12:12 17K 
[IMG]CS1_50kmx20km-fall-loading-thetafix_N5e7_Exner_01983600.png2012-01-10 12:13 17K 
[IMG]CS1_50kmx20km-fall-loading-thetafix_N5e7_Exner_01256400.png2012-01-10 12:11 17K 
[IMG]CS1_50kmx20km-fall-loading-thetafix_N5e7_Exner_02491200.png2012-01-10 12:15 17K 
[IMG]CS1_50kmx20km-fall-loading-thetafix_N5e7_Exner_01119600.png2012-01-10 12:11 17K 
[IMG]CS1_50kmx20km-fall-loading-thetafix_N5e7_Exner_01598400.png2012-01-10 12:13 17K 
[IMG]CS1_50kmx20km-fall-loading-thetafix_N5e7_Exner_01612800.png2012-01-10 12:13 17K 
[IMG]CS1_50kmx20km-fall-loading-thetafix_N5e7_ExnerDev_02149200.png2012-01-10 12:13 17K 
[IMG]CS1_50kmx20km-fall-loading-thetafix_N5e7_Exner_01738800.png2012-01-10 12:13 17K 
[IMG]CS1_50kmx20km-fall-loading-thetafix_N5e7_Exner_01108800.png2012-01-10 12:11 17K 
[IMG]CS1_50kmx20km-fall-loading-thetafix_N5e7_Exner_02556000.png2012-01-10 12:15 17K 
[IMG]CS1_50kmx20km-fall-loading-thetafix_N5e7_ExnerDev_02059200.png2012-01-10 12:13 17K 
[IMG]CS1_50kmx20km-fall-loading-thetafix_N5e7_Exner_00064800.png2012-01-10 12:08 17K 
[IMG]CS1_50kmx20km-fall-loading-thetafix_N5e7_Exner_00172800.png2012-01-10 12:08 17K 
[IMG]CS1_50kmx20km-fall-loading-thetafix_N5e7_Exner_00453600.png2012-01-10 12:09 17K 
[IMG]CS1_50kmx20km-fall-loading-thetafix_N5e7_Exner_00651600.png2012-01-10 12:09 17K 
[IMG]CS1_50kmx20km-fall-loading-thetafix_N5e7_ExnerDev_02559600.png2012-01-10 12:15 17K 
[IMG]CS1_50kmx20km-fall-loading-thetafix_N5e7_Exner_01540800.png2012-01-10 12:13 17K 
[IMG]CS1_50kmx20km-fall-loading-thetafix_N5e7_Exner_01645200.png2012-01-10 12:13 17K 
[IMG]CS1_50kmx20km-fall-loading-thetafix_N5e7_ExnerDev_00730800.png2012-01-10 12:09 17K 
[IMG]CS1_50kmx20km-fall-loading-thetafix_N5e7_Exner_01263600.png2012-01-10 12:11 17K 
[IMG]CS1_50kmx20km-fall-loading-thetafix_N5e7_Exner_01436400.png2012-01-10 12:13 17K 
[IMG]CS1_50kmx20km-fall-loading-thetafix_N5e7_VelX_00280800.png2012-01-10 12:09 17K 
[IMG]CS1_50kmx20km-fall-loading-thetafix_N5e7_Exner_00496800.png2012-01-10 12:09 17K 
[IMG]CS1_50kmx20km-fall-loading-thetafix_N5e7_Exner_01706400.png2012-01-10 12:13 17K 
[IMG]CS1_50kmx20km-fall-loading-thetafix_N5e7_ExnerDev_02070000.png2012-01-10 12:13 17K 
[IMG]CS1_50kmx20km-fall-loading-thetafix_N5e7_VelX_00194400.png2012-01-10 12:09 17K 
[IMG]CS1_50kmx20km-fall-loading-thetafix_N5e7_Exner_00997200.png2012-01-10 12:11 17K 
[IMG]CS1_50kmx20km-fall-loading-thetafix_N5e7_ExnerDev_02556000.png2012-01-10 12:15 17K 
[IMG]CS1_50kmx20km-fall-loading-thetafix_N5e7_Exner_00597600.png2012-01-10 12:09 17K 
[IMG]CS1_50kmx20km-fall-loading-thetafix_N5e7_Exner_02160000.png2012-01-10 12:15 17K 
[IMG]CS1_50kmx20km-fall-loading-thetafix_N5e7_Exner_02300400.png2012-01-10 12:15 17K 
[IMG]CS1_50kmx20km-fall-loading-thetafix_N5e7_Exner_02214000.png2012-01-10 12:15 17K 
[IMG]CS1_50kmx20km-fall-loading-thetafix_N5e7_Exner_02487600.png2012-01-10 12:15 17K 
[IMG]CS1_50kmx20km-fall-loading-thetafix_N5e7_VelX_00309600.png2012-01-10 12:09 17K 
[IMG]CS1_50kmx20km-fall-loading-thetafix_N5e7_ExnerDev_00622800.png2012-01-10 12:09 17K 
[IMG]CS1_50kmx20km-fall-loading-thetafix_N5e7_ExnerDev_02210400.png2012-01-10 12:15 17K 
[IMG]CS1_50kmx20km-fall-loading-thetafix_N5e7_Exner_00345600.png2012-01-10 12:08 17K 
[IMG]CS1_50kmx20km-fall-loading-thetafix_N5e7_Exner_00442800.png2012-01-10 12:09 17K 
[IMG]CS1_50kmx20km-fall-loading-thetafix_N5e7_Exner_00734400.png2012-01-10 12:09 17K 
[IMG]CS1_50kmx20km-fall-loading-thetafix_N5e7_Exner_00954000.png2012-01-10 12:11 17K 
[IMG]CS1_50kmx20km-fall-loading-thetafix_N5e7_Exner_01220400.png2012-01-10 12:11 17K 
[IMG]CS1_50kmx20km-fall-loading-thetafix_N5e7_Exner_01674000.png2012-01-10 12:13 17K 
[IMG]CS1_50kmx20km-fall-loading-thetafix_N5e7_Exner_01515600.png2012-01-10 12:13 17K 
[IMG]CS1_50kmx20km-fall-loading-thetafix_N5e7_Exner_00684000.png2012-01-10 12:09 17K 
[IMG]CS1_50kmx20km-fall-loading-thetafix_N5e7_ExnerDev_01256400.png2012-01-10 12:11 17K 
[IMG]CS1_50kmx20km-fall-loading-thetafix_N5e7_Exner_00990000.png2012-01-10 12:11 17K 
[IMG]CS1_50kmx20km-fall-loading-thetafix_N5e7_Exner_02379600.png2012-01-10 12:15 17K 
[IMG]CS1_50kmx20km-fall-loading-thetafix_N5e7_Exner_02102400.png2012-01-10 12:13 17K 
[IMG]CS1_50kmx20km-fall-loading-thetafix_N5e7_ExnerDev_00601200.png2012-01-10 12:09 17K 
[IMG]CS1_50kmx20km-fall-loading-thetafix_N5e7_ExnerDev_02084400.png2012-01-10 12:13 17K 
[IMG]CS1_50kmx20km-fall-loading-thetafix_N5e7_Exner_00194400.png2012-01-10 12:08 17K 
[IMG]CS1_50kmx20km-fall-loading-thetafix_N5e7_VelX_00446400.png2012-01-10 12:10 17K 
[IMG]CS1_50kmx20km-fall-loading-thetafix_N5e7_ExnerDev_01044000.png2012-01-10 12:11 17K 
[IMG]CS1_50kmx20km-fall-loading-thetafix_N5e7_Exner_00799200.png2012-01-10 12:09 17K 
[IMG]CS1_50kmx20km-fall-loading-thetafix_N5e7_Exner_00108000.png2012-01-10 12:08 17K 
[IMG]CS1_50kmx20km-fall-loading-thetafix_N5e7_Exner_01112400.png2012-01-10 12:11 17K 
[IMG]CS1_50kmx20km-fall-loading-thetafix_N5e7_ExnerDev_00943200.png2012-01-10 12:11 17K 
[IMG]CS1_50kmx20km-fall-loading-thetafix_N5e7_Exner_00360000.png2012-01-10 12:08 17K 
[IMG]CS1_50kmx20km-fall-loading-thetafix_N5e7_Exner_01036800.png2012-01-10 12:11 17K 
[IMG]CS1_50kmx20km-fall-loading-thetafix_N5e7_Exner_01594800.png2012-01-10 12:13 17K 
[IMG]CS1_50kmx20km-fall-loading-thetafix_N5e7_Exner_02232000.png2012-01-10 12:15 17K 
[IMG]CS1_50kmx20km-fall-loading-thetafix_N5e7_Exner_01324800.png2012-01-10 12:13 17K 
[IMG]CS1_50kmx20km-fall-loading-thetafix_N5e7_Exner_01681200.png2012-01-10 12:13 17K 
[IMG]CS1_50kmx20km-fall-loading-thetafix_N5e7_Exner_02127600.png2012-01-10 12:13 17K 
[IMG]CS1_50kmx20km-fall-loading-thetafix_N5e7_VelX_00046800.png2012-01-10 12:09 17K 
[IMG]CS1_50kmx20km-fall-loading-thetafix_N5e7_ExnerDev_00993600.png2012-01-10 12:11 17K 
[IMG]CS1_50kmx20km-fall-loading-thetafix_N5e7_Exner_00165600.png2012-01-10 12:08 17K 
[IMG]CS1_50kmx20km-fall-loading-thetafix_N5e7_Exner_00403200.png2012-01-10 12:08 17K 
[IMG]CS1_50kmx20km-fall-loading-thetafix_N5e7_Exner_02534400.png2012-01-10 12:15 17K 
[IMG]CS1_50kmx20km-fall-loading-thetafix_N5e7_ExnerDev_01702800.png2012-01-10 12:13 17K 
[IMG]CS1_50kmx20km-fall-loading-thetafix_N5e7_ExnerDev_02300400.png2012-01-10 12:15 17K 
[IMG]CS1_50kmx20km-fall-loading-thetafix_N5e7_Exner_00054000.png2012-01-10 12:08 17K 
[IMG]CS1_50kmx20km-fall-loading-thetafix_N5e7_Exner_00212400.png2012-01-10 12:08 17K 
[IMG]CS1_50kmx20km-fall-loading-thetafix_N5e7_Exner_01170000.png2012-01-10 12:11 17K 
[IMG]CS1_50kmx20km-fall-loading-thetafix_N5e7_Exner_01450800.png2012-01-10 12:13 17K 
[IMG]CS1_50kmx20km-fall-loading-thetafix_N5e7_Exner_01184400.png2012-01-10 12:11 17K 
[IMG]CS1_50kmx20km-fall-loading-thetafix_N5e7_Exner_00421200.png2012-01-10 12:08 17K 
[IMG]CS1_50kmx20km-fall-loading-thetafix_N5e7_Exner_00716400.png2012-01-10 12:09 17K 
[IMG]CS1_50kmx20km-fall-loading-thetafix_N5e7_Exner_01702800.png2012-01-10 12:13 17K 
[IMG]CS1_50kmx20km-fall-loading-thetafix_N5e7_Exner_01861200.png2012-01-10 12:13 17K 
[IMG]CS1_50kmx20km-fall-loading-thetafix_N5e7_Exner_01929600.png2012-01-10 12:13 17K 
[IMG]CS1_50kmx20km-fall-loading-thetafix_N5e7_VelX_00136800.png2012-01-10 12:09 17K 
[IMG]CS1_50kmx20km-fall-loading-thetafix_N5e7_Exner_01933200.png2012-01-10 12:13 17K 
[IMG]CS1_50kmx20km-fall-loading-thetafix_N5e7_Exner_00874800.png2012-01-10 12:11 17K 
[IMG]CS1_50kmx20km-fall-loading-thetafix_N5e7_Exner_01155600.png2012-01-10 12:11 17K 
[IMG]CS1_50kmx20km-fall-loading-thetafix_N5e7_Exner_01152000.png2012-01-10 12:11 17K 
[IMG]CS1_50kmx20km-fall-loading-thetafix_N5e7_Exner_01342800.png2012-01-10 12:13 17K 
[IMG]CS1_50kmx20km-fall-loading-thetafix_N5e7_Exner_01821600.png2012-01-10 12:13 17K 
[IMG]CS1_50kmx20km-fall-loading-thetafix_N5e7_Exner_01969200.png2012-01-10 12:13 17K 
[IMG]CS1_50kmx20km-fall-loading-thetafix_N5e7_Exner_02052000.png2012-01-10 12:13 17K 
[IMG]CS1_50kmx20km-fall-loading-thetafix_N5e7_Exner_01360800.png2012-01-10 12:13 17K 
[IMG]CS1_50kmx20km-fall-loading-thetafix_N5e7_ExnerDev_02026800.png2012-01-10 12:13 17K 
[IMG]CS1_50kmx20km-fall-loading-thetafix_N5e7_Exner_00554400.png2012-01-10 12:09 17K 
[IMG]CS1_50kmx20km-fall-loading-thetafix_N5e7_Exner_00853200.png2012-01-10 12:09 17K 
[IMG]CS1_50kmx20km-fall-loading-thetafix_N5e7_Exner_02091600.png2012-01-10 12:13 17K 
[IMG]CS1_50kmx20km-fall-loading-thetafix_N5e7_ExnerDev_00813600.png2012-01-10 12:09 17K 
[IMG]CS1_50kmx20km-fall-loading-thetafix_N5e7_Exner_02098800.png2012-01-10 12:13 17K 
[IMG]CS1_50kmx20km-fall-loading-thetafix_N5e7_ExnerDev_00648000.png2012-01-10 12:09 17K 
[IMG]CS1_50kmx20km-fall-loading-thetafix_N5e7_ExnerDev_02041200.png2012-01-10 12:13 17K 
[IMG]CS1_50kmx20km-fall-loading-thetafix_N5e7_ExnerDev_02246400.png2012-01-10 12:15 17K 
[IMG]CS1_50kmx20km-fall-loading-thetafix_N5e7_Exner_00770400.png2012-01-10 12:09 17K 
[IMG]CS1_50kmx20km-fall-loading-thetafix_N5e7_Exner_00410400.png2012-01-10 12:08 17K 
[IMG]CS1_50kmx20km-fall-loading-thetafix_N5e7_ExnerDev_00219600.png2012-01-10 12:08 17K 
[IMG]CS1_50kmx20km-fall-loading-thetafix_N5e7_Exner_00388800.png2012-01-10 12:08 17K 
[IMG]CS1_50kmx20km-fall-loading-thetafix_N5e7_Exner_01508400.png2012-01-10 12:13 17K 
[IMG]CS1_50kmx20km-fall-loading-thetafix_N5e7_Exner_00882000.png2012-01-10 12:11 17K 
[IMG]CS1_50kmx20km-fall-loading-thetafix_N5e7_Exner_01040400.png2012-01-10 12:11 17K 
[IMG]CS1_50kmx20km-fall-loading-thetafix_N5e7_Exner_00622800.png2012-01-10 12:09 17K 
[IMG]CS1_50kmx20km-fall-loading-thetafix_N5e7_Exner_00198000.png2012-01-10 12:08 17K 
[IMG]CS1_50kmx20km-fall-loading-thetafix_N5e7_Exner_00730800.png2012-01-10 12:09 17K 
[IMG]CS1_50kmx20km-fall-loading-thetafix_N5e7_Exner_01670400.png2012-01-10 12:13 17K 
[IMG]CS1_50kmx20km-fall-loading-thetafix_N5e7_Exner_01602000.png2012-01-10 12:13 17K 
[IMG]CS1_50kmx20km-fall-loading-thetafix_N5e7_Exner_00540000.png2012-01-10 12:09 17K 
[IMG]CS1_50kmx20km-fall-loading-thetafix_N5e7_Exner_01836000.png2012-01-10 12:13 17K 
[IMG]CS1_50kmx20km-fall-loading-thetafix_N5e7_ExnerDev_00468000.png2012-01-10 12:09 17K 
[IMG]CS1_50kmx20km-fall-loading-thetafix_N5e7_Exner_01710000.png2012-01-10 12:13 17K 
[IMG]CS1_50kmx20km-fall-loading-thetafix_N5e7_Exner_01364400.png2012-01-10 12:13 17K 
[IMG]CS1_50kmx20km-fall-loading-thetafix_N5e7_Exner_01368000.png2012-01-10 12:13 17K 
[IMG]CS1_50kmx20km-fall-loading-thetafix_N5e7_Exner_02235600.png2012-01-10 12:15 17K 
[IMG]CS1_50kmx20km-fall-loading-thetafix_N5e7_VelX_00288000.png2012-01-10 12:09 17K 
[IMG]CS1_50kmx20km-fall-loading-thetafix_N5e7_Exner_00327600.png2012-01-10 12:08 17K 
[IMG]CS1_50kmx20km-fall-loading-thetafix_N5e7_Exner_01756800.png2012-01-10 12:13 17K 
[IMG]CS1_50kmx20km-fall-loading-thetafix_N5e7_Exner_00486000.png2012-01-10 12:09 17K 
[IMG]CS1_50kmx20km-fall-loading-thetafix_N5e7_ExnerDev_01040400.png2012-01-10 12:11 17K 
[IMG]CS1_50kmx20km-fall-loading-thetafix_N5e7_Exner_00190800.png2012-01-10 12:08 17K 
[IMG]CS1_50kmx20km-fall-loading-thetafix_N5e7_ExnerDev_00565200.png2012-01-10 12:09 17K 
[IMG]CS1_50kmx20km-fall-loading-thetafix_N5e7_ExnerDev_02221200.png2012-01-10 12:15 17K 
[IMG]CS1_50kmx20km-fall-loading-thetafix_N5e7_Exner_02037600.png2012-01-10 12:13 17K 
[IMG]CS1_50kmx20km-fall-loading-thetafix_N5e7_Exner_02174400.png2012-01-10 12:15 17K 
[IMG]CS1_50kmx20km-fall-loading-thetafix_N5e7_ExnerDev_01774800.png2012-01-10 12:13 17K 
[IMG]CS1_50kmx20km-fall-loading-thetafix_N5e7_Exner_00446400.png2012-01-10 12:09 17K 
[IMG]CS1_50kmx20km-fall-loading-thetafix_N5e7_Exner_01688400.png2012-01-10 12:13 17K 
[IMG]CS1_50kmx20km-fall-loading-thetafix_N5e7_Exner_00748800.png2012-01-10 12:09 17K 
[IMG]CS1_50kmx20km-fall-loading-thetafix_N5e7_Exner_01620000.png2012-01-10 12:13 17K 
[IMG]CS1_50kmx20km-fall-loading-thetafix_N5e7_Exner_00432000.png2012-01-10 12:09 17K 
[IMG]CS1_50kmx20km-fall-loading-thetafix_N5e7_Exner_00892800.png2012-01-10 12:11 17K 
[IMG]CS1_50kmx20km-fall-loading-thetafix_N5e7_Exner_00565200.png2012-01-10 12:09 17K 
[IMG]CS1_50kmx20km-fall-loading-thetafix_N5e7_Exner_01778400.png2012-01-10 12:13 17K 
[IMG]CS1_50kmx20km-fall-loading-thetafix_N5e7_ExnerDev_02091600.png2012-01-10 12:13 17K 
[IMG]CS1_50kmx20km-fall-loading-thetafix_N5e7_Exner_01537200.png2012-01-10 12:13 17K 
[IMG]CS1_50kmx20km-fall-loading-thetafix_N5e7_Exner_02282400.png2012-01-10 12:15 17K 
[IMG]CS1_50kmx20km-fall-loading-thetafix_N5e7_Exner_00316800.png2012-01-10 12:08 17K 
[IMG]CS1_50kmx20km-fall-loading-thetafix_N5e7_ExnerDev_00543600.png2012-01-10 12:09 17K 
[IMG]CS1_50kmx20km-fall-loading-thetafix_N5e7_ExnerDev_02178000.png2012-01-10 12:15 17K 
[IMG]CS1_50kmx20km-fall-loading-thetafix_N5e7_Exner_00820800.png2012-01-10 12:09 17K 
[IMG]CS1_50kmx20km-fall-loading-thetafix_N5e7_Exner_01767600.png2012-01-10 12:13 17K 
[IMG]CS1_50kmx20km-fall-loading-thetafix_N5e7_ExnerDev_00399600.png2012-01-10 12:08 17K 
[IMG]CS1_50kmx20km-fall-loading-thetafix_N5e7_ExnerDev_00464400.png2012-01-10 12:09 17K 
[IMG]CS1_50kmx20km-fall-loading-thetafix_N5e7_Exner_02250000.png2012-01-10 12:15 17K 
[IMG]CS1_50kmx20km-fall-loading-thetafix_N5e7_ExnerDev_00500400.png2012-01-10 12:09 17K 
[IMG]CS1_50kmx20km-fall-loading-thetafix_N5e7_Exner_02372400.png2012-01-10 12:15 17K 
[IMG]CS1_50kmx20km-fall-loading-thetafix_N5e7_ExnerDev_00216000.png2012-01-10 12:08 17K 
[IMG]CS1_50kmx20km-fall-loading-thetafix_N5e7_Exner_02170800.png2012-01-10 12:15 17K 
[IMG]CS1_50kmx20km-fall-loading-thetafix_N5e7_Exner_02440800.png2012-01-10 12:15 17K 
[IMG]CS1_50kmx20km-fall-loading-thetafix_N5e7_ExnerDev_02066400.png2012-01-10 12:13 17K 
[IMG]CS1_50kmx20km-fall-loading-thetafix_N5e7_Exner_00205200.png2012-01-10 12:08 17K 
[IMG]CS1_50kmx20km-fall-loading-thetafix_N5e7_Exner_02376000.png2012-01-10 12:15 17K 
[IMG]CS1_50kmx20km-fall-loading-thetafix_N5e7_Exner_00536400.png2012-01-10 12:09 17K 
[IMG]CS1_50kmx20km-fall-loading-thetafix_N5e7_VelX_00417600.png2012-01-10 12:09 17K 
[IMG]CS1_50kmx20km-fall-loading-thetafix_N5e7_Exner_02584800.png2012-01-10 12:15 17K 
[IMG]CS1_50kmx20km-fall-loading-thetafix_N5e7_ExnerDev_02304000.png2012-01-10 12:15 17K 
[IMG]CS1_50kmx20km-fall-loading-thetafix_N5e7_Exner_00468000.png2012-01-10 12:09 17K 
[IMG]CS1_50kmx20km-fall-loading-thetafix_N5e7_Exner_00162000.png2012-01-10 12:08 17K 
[IMG]CS1_50kmx20km-fall-loading-thetafix_N5e7_ExnerDev_00097200.png2012-01-10 12:08 17K 
[IMG]CS1_50kmx20km-fall-loading-thetafix_N5e7_VelX_00118800.png2012-01-10 12:09 17K 
[IMG]CS1_50kmx20km-fall-loading-thetafix_N5e7_Exner_01339200.png2012-01-10 12:13 17K 
[IMG]CS1_50kmx20km-fall-loading-thetafix_N5e7_Exner_02340000.png2012-01-10 12:15 17K 
[IMG]CS1_50kmx20km-fall-loading-thetafix_N5e7_ExnerDev_02584800.png2012-01-10 12:15 17K 
[IMG]CS1_50kmx20km-fall-loading-thetafix_N5e7_Exner_01443600.png2012-01-10 12:13 17K 
[IMG]CS1_50kmx20km-fall-loading-thetafix_N5e7_VelX_00345600.png2012-01-10 12:09 17K 
[IMG]CS1_50kmx20km-fall-loading-thetafix_N5e7_Exner_01180800.png2012-01-10 12:11 17K 
[IMG]CS1_50kmx20km-fall-loading-thetafix_N5e7_Exner_02577600.png2012-01-10 12:15 17K 
[IMG]CS1_50kmx20km-fall-loading-thetafix_N5e7_VelX_00158400.png2012-01-10 12:09 17K 
[IMG]CS1_50kmx20km-fall-loading-thetafix_N5e7_Exner_00331200.png2012-01-10 12:08 17K 
[IMG]CS1_50kmx20km-fall-loading-thetafix_N5e7_Exner_01296000.png2012-01-10 12:13 17K 
[IMG]CS1_50kmx20km-fall-loading-thetafix_N5e7_ExnerDev_00266400.png2012-01-10 12:08 17K 
[IMG]CS1_50kmx20km-fall-loading-thetafix_N5e7_ExnerDev_00345600.png2012-01-10 12:08 17K 
[IMG]CS1_50kmx20km-fall-loading-thetafix_N5e7_Exner_02224800.png2012-01-10 12:15 17K 
[IMG]CS1_50kmx20km-fall-loading-thetafix_N5e7_Exner_02422800.png2012-01-10 12:15 17K 
[IMG]CS1_50kmx20km-fall-loading-thetafix_N5e7_Exner_02138400.png2012-01-10 12:13 17K 
[IMG]CS1_50kmx20km-fall-loading-thetafix_N5e7_ExnerDev_02160000.png2012-01-10 12:15 17K 
[IMG]CS1_50kmx20km-fall-loading-thetafix_N5e7_Exner_00601200.png2012-01-10 12:09 17K 
[IMG]CS1_50kmx20km-fall-loading-thetafix_N5e7_Exner_02289600.png2012-01-10 12:15 17K 
[IMG]CS1_50kmx20km-fall-loading-thetafix_N5e7_Exner_02394000.png2012-01-10 12:15 17K 
[IMG]CS1_50kmx20km-fall-loading-thetafix_N5e7_ExnerDev_02379600.png2012-01-10 12:15 17K 
[IMG]CS1_50kmx20km-fall-loading-thetafix_N5e7_Exner_01029600.png2012-01-10 12:11 17K 
[IMG]CS1_50kmx20km-fall-loading-thetafix_N5e7_Exner_02016000.png2012-01-10 12:13 17K 
[IMG]CS1_50kmx20km-fall-loading-thetafix_N5e7_Exner_02401200.png2012-01-10 12:15 17K 
[IMG]CS1_50kmx20km-fall-loading-thetafix_N5e7_Exner_00342000.png2012-01-10 12:08 17K 
[IMG]CS1_50kmx20km-fall-loading-thetafix_N5e7_ExnerDev_02196000.png2012-01-10 12:15 17K 
[IMG]CS1_50kmx20km-fall-loading-thetafix_N5e7_ExnerDev_01411200.png2012-01-10 12:12 17K 
[IMG]CS1_50kmx20km-fall-loading-thetafix_N5e7_ExnerDev_00129600.png2012-01-10 12:08 17K 
[IMG]CS1_50kmx20km-fall-loading-thetafix_N5e7_Exner_00183600.png2012-01-10 12:08 17K 
[IMG]CS1_50kmx20km-fall-loading-thetafix_N5e7_Exner_01173600.png2012-01-10 12:11 17K 
[IMG]CS1_50kmx20km-fall-loading-thetafix_N5e7_Exner_00511200.png2012-01-10 12:09 17K 
[IMG]CS1_50kmx20km-fall-loading-thetafix_N5e7_Exner_01526400.png2012-01-10 12:13 17K 
[IMG]CS1_50kmx20km-fall-loading-thetafix_N5e7_ExnerDev_01170000.png2012-01-10 12:11 17K 
[IMG]CS1_50kmx20km-fall-loading-thetafix_N5e7_Exner_00928800.png2012-01-10 12:11 17K 
[IMG]CS1_50kmx20km-fall-loading-thetafix_N5e7_VelX_00388800.png2012-01-10 12:09 17K 
[IMG]CS1_50kmx20km-fall-loading-thetafix_N5e7_ExnerDev_00072000.png2012-01-10 12:08 17K 
[IMG]CS1_50kmx20km-fall-loading-thetafix_N5e7_Exner_00324000.png2012-01-10 12:08 17K 
[IMG]CS1_50kmx20km-fall-loading-thetafix_N5e7_Exner_01749600.png2012-01-10 12:13 17K 
[IMG]CS1_50kmx20km-fall-loading-thetafix_N5e7_Exner_02062800.png2012-01-10 12:13 17K 
[IMG]CS1_50kmx20km-fall-loading-thetafix_N5e7_ExnerDev_00417600.png2012-01-10 12:08 17K 
[IMG]CS1_50kmx20km-fall-loading-thetafix_N5e7_ExnerDev_01429200.png2012-01-10 12:12 17K 
[IMG]CS1_50kmx20km-fall-loading-thetafix_N5e7_Exner_00396000.png2012-01-10 12:08 17K 
[IMG]CS1_50kmx20km-fall-loading-thetafix_N5e7_ExnerDev_00396000.png2012-01-10 12:08 17K 
[IMG]CS1_50kmx20km-fall-loading-thetafix_N5e7_Exner_01260000.png2012-01-10 12:11 17K 
[IMG]CS1_50kmx20km-fall-loading-thetafix_N5e7_Exner_01270800.png2012-01-10 12:11 17K 
[IMG]CS1_50kmx20km-fall-loading-thetafix_N5e7_Exner_01893600.png2012-01-10 12:13 17K 
[IMG]CS1_50kmx20km-fall-loading-thetafix_N5e7_Exner_02044800.png2012-01-10 12:13 17K 
[IMG]CS1_50kmx20km-fall-loading-thetafix_N5e7_ExnerDev_02307600.png2012-01-10 12:15 17K 
[IMG]CS1_50kmx20km-fall-loading-thetafix_N5e7_ExnerDev_02239200.png2012-01-10 12:15 17K 
[IMG]CS1_50kmx20km-fall-loading-thetafix_N5e7_VelX_00327600.png2012-01-10 12:09 17K 
[IMG]CS1_50kmx20km-fall-loading-thetafix_N5e7_ExnerDev_02433600.png2012-01-10 12:15 17K 
[IMG]CS1_50kmx20km-fall-loading-thetafix_N5e7_ExnerDev_00068400.png2012-01-10 12:08 17K 
[IMG]CS1_50kmx20km-fall-loading-thetafix_N5e7_Exner_01994400.png2012-01-10 12:13 17K 
[IMG]CS1_50kmx20km-fall-loading-thetafix_N5e7_Exner_02008800.png2012-01-10 12:13 17K 
[IMG]CS1_50kmx20km-fall-loading-thetafix_N5e7_ExnerDev_00554400.png2012-01-10 12:09 17K 
[IMG]CS1_50kmx20km-fall-loading-thetafix_N5e7_ExnerDev_01177200.png2012-01-10 12:11 17K 
[IMG]CS1_50kmx20km-fall-loading-thetafix_N5e7_Exner_00813600.png2012-01-10 12:09 17K 
[IMG]CS1_50kmx20km-fall-loading-thetafix_N5e7_Exner_00835200.png2012-01-10 12:09 17K 
[IMG]CS1_50kmx20km-fall-loading-thetafix_N5e7_VelX_00054000.png2012-01-10 12:09 17K 
[IMG]CS1_50kmx20km-fall-loading-thetafix_N5e7_Exner_01015200.png2012-01-10 12:11 17K 
[IMG]CS1_50kmx20km-fall-loading-thetafix_N5e7_Exner_01198800.png2012-01-10 12:11 17K 
[IMG]CS1_50kmx20km-fall-loading-thetafix_N5e7_ExnerDev_00306000.png2012-01-10 12:08 17K 
[IMG]CS1_50kmx20km-fall-loading-thetafix_N5e7_Exner_00637200.png2012-01-10 12:09 17K 
[IMG]CS1_50kmx20km-fall-loading-thetafix_N5e7_Exner_00727200.png2012-01-10 12:09 17K 
[IMG]CS1_50kmx20km-fall-loading-thetafix_N5e7_Exner_01958400.png2012-01-10 12:13 17K 
[IMG]CS1_50kmx20km-fall-loading-thetafix_N5e7_ExnerDev_00392400.png2012-01-10 12:08 17K 
[IMG]CS1_50kmx20km-fall-loading-thetafix_N5e7_ExnerDev_01566000.png2012-01-10 12:12 17K 
[IMG]CS1_50kmx20km-fall-loading-thetafix_N5e7_Exner_01335600.png2012-01-10 12:13 17K 
[IMG]CS1_50kmx20km-fall-loading-thetafix_N5e7_Exner_02386800.png2012-01-10 12:15 17K 
[IMG]CS1_50kmx20km-fall-loading-thetafix_N5e7_Exner_00122400.png2012-01-10 12:08 17K 
[IMG]CS1_50kmx20km-fall-loading-thetafix_N5e7_Exner_02124000.png2012-01-10 12:13 17K 
[IMG]CS1_50kmx20km-fall-loading-thetafix_N5e7_ExnerDev_02491200.png2012-01-10 12:15 17K 
[IMG]CS1_50kmx20km-fall-loading-thetafix_N5e7_Exner_01058400.png2012-01-10 12:11 17K 
[IMG]CS1_50kmx20km-fall-loading-thetafix_N5e7_Exner_02275200.png2012-01-10 12:15 17K 
[IMG]CS1_50kmx20km-fall-loading-thetafix_N5e7_VelX_00320400.png2012-01-10 12:09 17K 
[IMG]CS1_50kmx20km-fall-loading-thetafix_N5e7_VelX_00414000.png2012-01-10 12:09 17K 
[IMG]CS1_50kmx20km-fall-loading-thetafix_N5e7_Exner_00313200.png2012-01-10 12:08 17K 
[IMG]CS1_50kmx20km-fall-loading-thetafix_N5e7_Exner_00241200.png2012-01-10 12:08 17K 
[IMG]CS1_50kmx20km-fall-loading-thetafix_N5e7_Exner_01098000.png2012-01-10 12:11 17K 
[IMG]CS1_50kmx20km-fall-loading-thetafix_N5e7_ExnerDev_01465200.png2012-01-10 12:12 17K 
[IMG]CS1_50kmx20km-fall-loading-thetafix_N5e7_VelX_00172800.png2012-01-10 12:09 17K 
[IMG]CS1_50kmx20km-fall-loading-thetafix_N5e7_VelX_00284400.png2012-01-10 12:09 17K 
[IMG]CS1_50kmx20km-fall-loading-thetafix_N5e7_Exner_00079200.png2012-01-10 12:08 17K 
[IMG]CS1_50kmx20km-fall-loading-thetafix_N5e7_Exner_00133200.png2012-01-10 12:08 17K 
[IMG]CS1_50kmx20km-fall-loading-thetafix_N5e7_Exner_02383200.png2012-01-10 12:15 17K 
[IMG]CS1_50kmx20km-fall-loading-thetafix_N5e7_Exner_00741600.png2012-01-10 12:09 17K 
[IMG]CS1_50kmx20km-fall-loading-thetafix_N5e7_Exner_00482400.png2012-01-10 12:09 17K 
[IMG]CS1_50kmx20km-fall-loading-thetafix_N5e7_Exner_02001600.png2012-01-10 12:13 17K 
[IMG]CS1_50kmx20km-fall-loading-thetafix_N5e7_Exner_02350800.png2012-01-10 12:15 17K 
[IMG]CS1_50kmx20km-fall-loading-thetafix_N5e7_Exner_02566800.png2012-01-10 12:15 17K 
[IMG]CS1_50kmx20km-fall-loading-thetafix_N5e7_Exner_00756000.png2012-01-10 12:09 17K 
[IMG]CS1_50kmx20km-fall-loading-thetafix_N5e7_Exner_01472400.png2012-01-10 12:13 17K 
[IMG]CS1_50kmx20km-fall-loading-thetafix_N5e7_Exner_01908000.png2012-01-10 12:13 17K 
[IMG]CS1_50kmx20km-fall-loading-thetafix_N5e7_ExnerDev_00961200.png2012-01-10 12:11 17K 
[IMG]CS1_50kmx20km-fall-loading-thetafix_N5e7_Exner_01076400.png2012-01-10 12:11 17K 
[IMG]CS1_50kmx20km-fall-loading-thetafix_N5e7_Exner_01663200.png2012-01-10 12:13 17K 
[IMG]CS1_50kmx20km-fall-loading-thetafix_N5e7_Exner_00788400.png2012-01-10 12:09 17K 
[IMG]CS1_50kmx20km-fall-loading-thetafix_N5e7_Exner_01195200.png2012-01-10 12:11 17K 
[IMG]CS1_50kmx20km-fall-loading-thetafix_N5e7_Exner_02343600.png2012-01-10 12:15 17K 
[IMG]CS1_50kmx20km-fall-loading-thetafix_N5e7_Exner_01414800.png2012-01-10 12:13 17K 
[IMG]CS1_50kmx20km-fall-loading-thetafix_N5e7_VelX_00165600.png2012-01-10 12:09 17K 
[IMG]CS1_50kmx20km-fall-loading-thetafix_N5e7_Exner_01328400.png2012-01-10 12:13 17K 
[IMG]CS1_50kmx20km-fall-loading-thetafix_N5e7_Exner_00673200.png2012-01-10 12:09 17K 
[IMG]CS1_50kmx20km-fall-loading-thetafix_N5e7_Exner_02196000.png2012-01-10 12:15 17K 
[IMG]CS1_50kmx20km-fall-loading-thetafix_N5e7_VelX_00050400.png2012-01-10 12:09 17K 
[IMG]CS1_50kmx20km-fall-loading-thetafix_N5e7_Exner_00979200.png2012-01-10 12:11 17K 
[IMG]CS1_50kmx20km-fall-loading-thetafix_N5e7_Exner_01882800.png2012-01-10 12:13 17K 
[IMG]CS1_50kmx20km-fall-loading-thetafix_N5e7_ExnerDev_02552400.png2012-01-10 12:15 17K 
[IMG]CS1_50kmx20km-fall-loading-thetafix_N5e7_Exner_01123200.png2012-01-10 12:11 17K 
[IMG]CS1_50kmx20km-fall-loading-thetafix_N5e7_ExnerDev_01533600.png2012-01-10 12:12 17K 
[IMG]CS1_50kmx20km-fall-loading-thetafix_N5e7_Exner_00093600.png2012-01-10 12:08 17K 
[IMG]CS1_50kmx20km-fall-loading-thetafix_N5e7_Exner_02336400.png2012-01-10 12:15 17K 
[IMG]CS1_50kmx20km-fall-loading-thetafix_N5e7_ExnerDev_01382400.png2012-01-10 12:12 17K 
[IMG]CS1_50kmx20km-fall-loading-thetafix_N5e7_Exner_01188000.png2012-01-10 12:11 17K 
[IMG]CS1_50kmx20km-fall-loading-thetafix_N5e7_Exner_00864000.png2012-01-10 12:11 17K 
[IMG]CS1_50kmx20km-fall-loading-thetafix_N5e7_Exner_01288800.png2012-01-10 12:11 17K 
[IMG]CS1_50kmx20km-fall-loading-thetafix_N5e7_Exner_01584000.png2012-01-10 12:13 17K 
[IMG]CS1_50kmx20km-fall-loading-thetafix_N5e7_Exner_01792800.png2012-01-10 12:13 17K 
[IMG]CS1_50kmx20km-fall-loading-thetafix_N5e7_VelX_00460800.png2012-01-10 12:10 17K 
[IMG]CS1_50kmx20km-fall-loading-thetafix_N5e7_Exner_00255600.png2012-01-10 12:08 17K 
[IMG]CS1_50kmx20km-fall-loading-thetafix_N5e7_Exner_01634400.png2012-01-10 12:13 17K 
[IMG]CS1_50kmx20km-fall-loading-thetafix_N5e7_Exner_00655200.png2012-01-10 12:09 17K 
[IMG]CS1_50kmx20km-fall-loading-thetafix_N5e7_Exner_00846000.png2012-01-10 12:09 17K 
[IMG]CS1_50kmx20km-fall-loading-thetafix_N5e7_Exner_01418400.png2012-01-10 12:13 17K 
[IMG]CS1_50kmx20km-fall-loading-thetafix_N5e7_Exner_01897200.png2012-01-10 12:13 17K 
[IMG]CS1_50kmx20km-fall-loading-thetafix_N5e7_Exner_01911600.png2012-01-10 12:13 17K 
[IMG]CS1_50kmx20km-fall-loading-thetafix_N5e7_ExnerDev_02415600.png2012-01-10 12:15 17K 
[IMG]CS1_50kmx20km-fall-loading-thetafix_N5e7_VelX_00302400.png2012-01-10 12:09 17K 
[IMG]CS1_50kmx20km-fall-loading-thetafix_N5e7_Exner_01087200.png2012-01-10 12:11 17K 
[IMG]CS1_50kmx20km-fall-loading-thetafix_N5e7_Exner_01238400.png2012-01-10 12:11 17K 
[IMG]CS1_50kmx20km-fall-loading-thetafix_N5e7_Exner_02257200.png2012-01-10 12:15 17K 
[IMG]CS1_50kmx20km-fall-loading-thetafix_N5e7_Exner_01141200.png2012-01-10 12:11 17K 
[IMG]CS1_50kmx20km-fall-loading-thetafix_N5e7_Exner_01440000.png2012-01-10 12:13 17K 
[IMG]CS1_50kmx20km-fall-loading-thetafix_N5e7_Exner_00068400.png2012-01-10 12:08 17K 
[IMG]CS1_50kmx20km-fall-loading-thetafix_N5e7_Exner_00774000.png2012-01-10 12:09 17K 
[IMG]CS1_50kmx20km-fall-loading-thetafix_N5e7_Exner_01101600.png2012-01-10 12:11 17K 
[IMG]CS1_50kmx20km-fall-loading-thetafix_N5e7_Exner_01890000.png2012-01-10 12:13 17K 
[IMG]CS1_50kmx20km-fall-loading-thetafix_N5e7_Exner_01576800.png2012-01-10 12:13 17K 
[IMG]CS1_50kmx20km-fall-loading-thetafix_N5e7_Exner_01486800.png2012-01-10 12:13 17K 
[IMG]CS1_50kmx20km-fall-loading-thetafix_N5e7_Exner_01972800.png2012-01-10 12:13 17K 
[IMG]CS1_50kmx20km-fall-loading-thetafix_N5e7_VelX_00216000.png2012-01-10 12:09 17K 
[IMG]CS1_50kmx20km-fall-loading-thetafix_N5e7_Exner_01314000.png2012-01-10 12:13 17K 
[IMG]CS1_50kmx20km-fall-loading-thetafix_N5e7_Exner_00180000.png2012-01-10 12:08 17K 
[IMG]CS1_50kmx20km-fall-loading-thetafix_N5e7_Exner_00529200.png2012-01-10 12:09 17K 
[IMG]CS1_50kmx20km-fall-loading-thetafix_N5e7_Exner_01825200.png2012-01-10 12:13 17K 
[IMG]CS1_50kmx20km-fall-loading-thetafix_N5e7_Exner_01310400.png2012-01-10 12:13 17K 
[IMG]CS1_50kmx20km-fall-loading-thetafix_N5e7_Exner_00489600.png2012-01-10 12:09 17K 
[IMG]CS1_50kmx20km-fall-loading-thetafix_N5e7_Exner_01810800.png2012-01-10 12:13 17K 
[IMG]CS1_50kmx20km-fall-loading-thetafix_N5e7_Exner_02430000.png2012-01-10 12:15 17K 
[IMG]CS1_50kmx20km-fall-loading-thetafix_N5e7_Exner_01393200.png2012-01-10 12:13 17K 
[IMG]CS1_50kmx20km-fall-loading-thetafix_N5e7_Exner_02095200.png2012-01-10 12:13 17K 
[IMG]CS1_50kmx20km-fall-loading-thetafix_N5e7_ExnerDev_02430000.png2012-01-10 12:15 17K 
[IMG]CS1_50kmx20km-fall-loading-thetafix_N5e7_Exner_00640800.png2012-01-10 12:09 17K 
[IMG]CS1_50kmx20km-fall-loading-thetafix_N5e7_Exner_02469600.png2012-01-10 12:15 17K 
[IMG]CS1_50kmx20km-fall-loading-thetafix_N5e7_Exner_00367200.png2012-01-10 12:08 17K 
[IMG]CS1_50kmx20km-fall-loading-thetafix_N5e7_Exner_01800000.png2012-01-10 12:13 17K 
[IMG]CS1_50kmx20km-fall-loading-thetafix_N5e7_ExnerDev_00810000.png2012-01-10 12:09 17K 
[IMG]CS1_50kmx20km-fall-loading-thetafix_N5e7_Exner_01490400.png2012-01-10 12:13 17K 
[IMG]CS1_50kmx20km-fall-loading-thetafix_N5e7_ExnerDev_00374400.png2012-01-10 12:08 17K 
[IMG]CS1_50kmx20km-fall-loading-thetafix_N5e7_Exner_02509200.png2012-01-10 12:15 17K 
[IMG]CS1_50kmx20km-fall-loading-thetafix_N5e7_Exner_00140400.png2012-01-10 12:08 17K 
[IMG]CS1_50kmx20km-fall-loading-thetafix_N5e7_Exner_00158400.png2012-01-10 12:08 17K 
[IMG]CS1_50kmx20km-fall-loading-thetafix_N5e7_Exner_02131200.png2012-01-10 12:13 17K 
[IMG]CS1_50kmx20km-fall-loading-thetafix_N5e7_ExnerDev_01173600.png2012-01-10 12:11 17K 
[IMG]CS1_50kmx20km-fall-loading-thetafix_N5e7_Exner_01922400.png2012-01-10 12:13 17K 
[IMG]CS1_50kmx20km-fall-loading-thetafix_N5e7_Exner_01008000.png2012-01-10 12:11 17K 
[IMG]CS1_50kmx20km-fall-loading-thetafix_N5e7_Exner_02588400.png2012-01-10 12:15 17K 
[IMG]CS1_50kmx20km-fall-loading-thetafix_N5e7_ExnerDev_00997200.png2012-01-10 12:11 17K 
[IMG]CS1_50kmx20km-fall-loading-thetafix_N5e7_Exner_00590400.png2012-01-10 12:09 17K 
[IMG]CS1_50kmx20km-fall-loading-thetafix_N5e7_Exner_02059200.png2012-01-10 12:13 17K 
[IMG]CS1_50kmx20km-fall-loading-thetafix_N5e7_VelX_00043200.png2012-01-10 12:09 17K 
[IMG]CS1_50kmx20km-fall-loading-thetafix_N5e7_ExnerDev_00633600.png2012-01-10 12:09 17K 
[IMG]CS1_50kmx20km-fall-loading-thetafix_N5e7_Exner_00964800.png2012-01-10 12:11 17K 
[IMG]CS1_50kmx20km-fall-loading-thetafix_N5e7_Exner_02498400.png2012-01-10 12:15 17K 
[IMG]CS1_50kmx20km-fall-loading-thetafix_N5e7_Exner_01306800.png2012-01-10 12:13 17K 
[IMG]CS1_50kmx20km-fall-loading-thetafix_N5e7_Exner_01533600.png2012-01-10 12:13 17K 
[IMG]CS1_50kmx20km-fall-loading-thetafix_N5e7_Exner_02458800.png2012-01-10 12:15 17K 
[IMG]CS1_50kmx20km-fall-loading-thetafix_N5e7_ExnerDev_00475200.png2012-01-10 12:09 17K 
[IMG]CS1_50kmx20km-fall-loading-thetafix_N5e7_Exner_01839600.png2012-01-10 12:13 17K 
[IMG]CS1_50kmx20km-fall-loading-thetafix_N5e7_ExnerDev_01789200.png2012-01-10 12:13 17K 
[IMG]CS1_50kmx20km-fall-loading-thetafix_N5e7_Exner_02210400.png2012-01-10 12:15 17K 
[IMG]CS1_50kmx20km-fall-loading-thetafix_N5e7_Exner_00439200.png2012-01-10 12:09 17K 
[IMG]CS1_50kmx20km-fall-loading-thetafix_N5e7_Exner_01090800.png2012-01-10 12:11 17K 
[IMG]CS1_50kmx20km-fall-loading-thetafix_N5e7_Exner_01803600.png2012-01-10 12:13 17K 
[IMG]CS1_50kmx20km-fall-loading-thetafix_N5e7_Exner_00417600.png2012-01-10 12:08 17K 
[IMG]CS1_50kmx20km-fall-loading-thetafix_N5e7_Exner_00738000.png2012-01-10 12:09 17K 
[IMG]CS1_50kmx20km-fall-loading-thetafix_N5e7_Exner_01666800.png2012-01-10 12:13 17K 
[IMG]CS1_50kmx20km-fall-loading-thetafix_N5e7_Exner_02448000.png2012-01-10 12:15 17K 
[IMG]CS1_50kmx20km-fall-loading-thetafix_N5e7_ExnerDev_00558000.png2012-01-10 12:09 17K 
[IMG]CS1_50kmx20km-fall-loading-thetafix_N5e7_Exner_01731600.png2012-01-10 12:13 17K 
[IMG]CS1_50kmx20km-fall-loading-thetafix_N5e7_Exner_01753200.png2012-01-10 12:13 17K 
[IMG]CS1_50kmx20km-fall-loading-thetafix_N5e7_ExnerDev_00104400.png2012-01-10 12:08 17K 
[IMG]CS1_50kmx20km-fall-loading-thetafix_N5e7_VelX_00291600.png2012-01-10 12:09 17K 
[IMG]CS1_50kmx20km-fall-loading-thetafix_N5e7_ExnerDev_00424800.png2012-01-10 12:08 17K 
[IMG]CS1_50kmx20km-fall-loading-thetafix_N5e7_ExnerDev_01969200.png2012-01-10 12:13 17K 
[IMG]CS1_50kmx20km-fall-loading-thetafix_N5e7_Exner_02545200.png2012-01-10 12:15 17K 
[IMG]CS1_50kmx20km-fall-loading-thetafix_N5e7_Exner_02048400.png2012-01-10 12:13 17K 
[IMG]CS1_50kmx20km-fall-loading-thetafix_N5e7_Exner_02412000.png2012-01-10 12:15 17K 
[IMG]CS1_50kmx20km-fall-loading-thetafix_N5e7_Exner_02260800.png2012-01-10 12:15 17K 
[IMG]CS1_50kmx20km-fall-loading-thetafix_N5e7_ExnerDev_02052000.png2012-01-10 12:13 17K 
[IMG]CS1_50kmx20km-fall-loading-thetafix_N5e7_ExnerDev_02538000.png2012-01-10 12:15 17K 
[IMG]CS1_50kmx20km-fall-loading-thetafix_N5e7_Exner_00115200.png2012-01-10 12:08 17K 
[IMG]CS1_50kmx20km-fall-loading-thetafix_N5e7_Exner_02203200.png2012-01-10 12:15 17K 
[IMG]CS1_50kmx20km-fall-loading-thetafix_N5e7_ExnerDev_00086400.png2012-01-10 12:08 17K 
[IMG]CS1_50kmx20km-fall-loading-thetafix_N5e7_Exner_01353600.png2012-01-10 12:13 17K 
[IMG]CS1_50kmx20km-fall-loading-thetafix_N5e7_Exner_01566000.png2012-01-10 12:13 17K 
[IMG]CS1_50kmx20km-fall-loading-thetafix_N5e7_Exner_01638000.png2012-01-10 12:13 17K 
[IMG]CS1_50kmx20km-fall-loading-thetafix_N5e7_Exner_02397600.png2012-01-10 12:15 17K 
[IMG]CS1_50kmx20km-fall-loading-thetafix_N5e7_Exner_02293200.png2012-01-10 12:15 17K 
[IMG]CS1_50kmx20km-fall-loading-thetafix_N5e7_Exner_00090000.png2012-01-10 12:08 17K 
[IMG]CS1_50kmx20km-fall-loading-thetafix_N5e7_Exner_01281600.png2012-01-10 12:11 17K 
[IMG]CS1_50kmx20km-fall-loading-thetafix_N5e7_Exner_00244800.png2012-01-10 12:08 17K 
[IMG]CS1_50kmx20km-fall-loading-thetafix_N5e7_Exner_00435600.png2012-01-10 12:09 17K 
[IMG]CS1_50kmx20km-fall-loading-thetafix_N5e7_VelX_00104400.png2012-01-10 12:09 17K 
[IMG]CS1_50kmx20km-fall-loading-thetafix_N5e7_VelX_00154800.png2012-01-10 12:09 17K 
[IMG]CS1_50kmx20km-fall-loading-thetafix_N5e7_Exner_00460800.png2012-01-10 12:09 17K 
[IMG]CS1_50kmx20km-fall-loading-thetafix_N5e7_Exner_00579600.png2012-01-10 12:09 17K 
[IMG]CS1_50kmx20km-fall-loading-thetafix_N5e7_Exner_00694800.png2012-01-10 12:09 17K 
[IMG]CS1_50kmx20km-fall-loading-thetafix_N5e7_Exner_02520000.png2012-01-10 12:15 17K 
[IMG]CS1_50kmx20km-fall-loading-thetafix_N5e7_Exner_02080800.png2012-01-10 12:13 17K 
[IMG]CS1_50kmx20km-fall-loading-thetafix_N5e7_Exner_00277200.png2012-01-10 12:08 17K 
[IMG]CS1_50kmx20km-fall-loading-thetafix_N5e7_Exner_00424800.png2012-01-10 12:08 17K 
[IMG]CS1_50kmx20km-fall-loading-thetafix_N5e7_Exner_01166400.png2012-01-10 12:11 17K 
[IMG]CS1_50kmx20km-fall-loading-thetafix_N5e7_Exner_00712800.png2012-01-10 12:09 17K 
[IMG]CS1_50kmx20km-fall-loading-thetafix_N5e7_Exner_02358000.png2012-01-10 12:15 17K 
[IMG]CS1_50kmx20km-fall-loading-thetafix_N5e7_Exner_02548800.png2012-01-10 12:15 17K 
[IMG]CS1_50kmx20km-fall-loading-thetafix_N5e7_ExnerDev_00288000.png2012-01-10 12:08 17K 
[IMG]CS1_50kmx20km-fall-loading-thetafix_N5e7_ExnerDev_00705600.png2012-01-10 12:09 17K 
[IMG]CS1_50kmx20km-fall-loading-thetafix_N5e7_ExnerDev_02005200.png2012-01-10 12:13 17K 
[IMG]CS1_50kmx20km-fall-loading-thetafix_N5e7_Exner_02120400.png2012-01-10 12:13 17K 
[IMG]CS1_50kmx20km-fall-loading-thetafix_N5e7_Exner_00885600.png2012-01-10 12:11 17K 
[IMG]CS1_50kmx20km-fall-loading-thetafix_N5e7_Exner_00349200.png2012-01-10 12:08 17K 
[IMG]CS1_50kmx20km-fall-loading-thetafix_N5e7_Exner_01116000.png2012-01-10 12:11 17K 
[IMG]CS1_50kmx20km-fall-loading-thetafix_N5e7_ExnerDev_00471600.png2012-01-10 12:09 17K 
[IMG]CS1_50kmx20km-fall-loading-thetafix_N5e7_Exner_01501200.png2012-01-10 12:13 17K 
[IMG]CS1_50kmx20km-fall-loading-thetafix_N5e7_Exner_00154800.png2012-01-10 12:08 17K 
[IMG]CS1_50kmx20km-fall-loading-thetafix_N5e7_Exner_01684800.png2012-01-10 12:13 17K 
[IMG]CS1_50kmx20km-fall-loading-thetafix_N5e7_Exner_01209600.png2012-01-10 12:11 17K 
[IMG]CS1_50kmx20km-fall-loading-thetafix_N5e7_ExnerDev_00194400.png2012-01-10 12:08 17K 
[IMG]CS1_50kmx20km-fall-loading-thetafix_N5e7_Exner_02307600.png2012-01-10 12:15 17K 
[IMG]CS1_50kmx20km-fall-loading-thetafix_N5e7_ExnerDev_01159200.png2012-01-10 12:11 17K 
[IMG]CS1_50kmx20km-fall-loading-thetafix_N5e7_ExnerDev_00698400.png2012-01-10 12:09 17K 
[IMG]CS1_50kmx20km-fall-loading-thetafix_N5e7_Exner_00903600.png2012-01-10 12:11 17K 
[IMG]CS1_50kmx20km-fall-loading-thetafix_N5e7_Exner_02332800.png2012-01-10 12:15 17K 
[IMG]CS1_50kmx20km-fall-loading-thetafix_N5e7_Exner_01249200.png2012-01-10 12:11 17K 
[IMG]CS1_50kmx20km-fall-loading-thetafix_N5e7_ExnerDev_02282400.png2012-01-10 12:15 17K 
[IMG]CS1_50kmx20km-fall-loading-thetafix_N5e7_Exner_02505600.png2012-01-10 12:15 17K 
[IMG]CS1_50kmx20km-fall-loading-thetafix_N5e7_ExnerDev_00442800.png2012-01-10 12:09 17K 
[IMG]CS1_50kmx20km-fall-loading-thetafix_N5e7_Exner_01130400.png2012-01-10 12:11 17K 
[IMG]CS1_50kmx20km-fall-loading-thetafix_N5e7_ExnerDev_00482400.png2012-01-10 12:09 17K 
[IMG]CS1_50kmx20km-fall-loading-thetafix_N5e7_Exner_00082800.png2012-01-10 12:08 17K 
[IMG]CS1_50kmx20km-fall-loading-thetafix_N5e7_Exner_00118800.png2012-01-10 12:08 17K 
[IMG]CS1_50kmx20km-fall-loading-thetafix_N5e7_Exner_00169200.png2012-01-10 12:08 17K 
[IMG]CS1_50kmx20km-fall-loading-thetafix_N5e7_VelX_00316800.png2012-01-10 12:09 17K 
[IMG]CS1_50kmx20km-fall-loading-thetafix_N5e7_Exner_01656000.png2012-01-10 12:13 17K 
[IMG]CS1_50kmx20km-fall-loading-thetafix_N5e7_Exner_00781200.png2012-01-10 12:09 17K 
[IMG]CS1_50kmx20km-fall-loading-thetafix_N5e7_Exner_00151200.png2012-01-10 12:08 17K 
[IMG]CS1_50kmx20km-fall-loading-thetafix_N5e7_Exner_01299600.png2012-01-10 12:13 17K 
[IMG]CS1_50kmx20km-fall-loading-thetafix_N5e7_Exner_00208800.png2012-01-10 12:08 17K 
[IMG]CS1_50kmx20km-fall-loading-thetafix_N5e7_ExnerDev_02404800.png2012-01-10 12:15 17K 
[IMG]CS1_50kmx20km-fall-loading-thetafix_N5e7_Exner_01224000.png2012-01-10 12:11 17K 
[IMG]CS1_50kmx20km-fall-loading-thetafix_N5e7_ExnerDev_02257200.png2012-01-10 12:15 17K 
[IMG]CS1_50kmx20km-fall-loading-thetafix_N5e7_ExnerDev_01760400.png2012-01-10 12:13 17K 
[IMG]CS1_50kmx20km-fall-loading-thetafix_N5e7_Exner_00288000.png2012-01-10 12:08 17K 
[IMG]CS1_50kmx20km-fall-loading-thetafix_N5e7_VelX_00169200.png2012-01-10 12:09 17K 
[IMG]CS1_50kmx20km-fall-loading-thetafix_N5e7_Exner_01872000.png2012-01-10 12:13 17K 
[IMG]CS1_50kmx20km-fall-loading-thetafix_N5e7_Exner_01425600.png2012-01-10 12:13 17K 
[IMG]CS1_50kmx20km-fall-loading-thetafix_N5e7_VelX_00331200.png2012-01-10 12:09 17K 
[IMG]CS1_50kmx20km-fall-loading-thetafix_N5e7_Exner_02476800.png2012-01-10 12:15 17K 
[IMG]CS1_50kmx20km-fall-loading-thetafix_N5e7_Exner_01285200.png2012-01-10 12:11 17K 
[IMG]CS1_50kmx20km-fall-loading-thetafix_N5e7_VelX_00100800.png2012-01-10 12:09 17K 
[IMG]CS1_50kmx20km-fall-loading-thetafix_N5e7_VelX_00410400.png2012-01-10 12:09 17K 
[IMG]CS1_50kmx20km-fall-loading-thetafix_N5e7_Exner_01317600.png2012-01-10 12:13 17K 
[IMG]CS1_50kmx20km-fall-loading-thetafix_N5e7_Exner_01591200.png2012-01-10 12:13 17K 
[IMG]CS1_50kmx20km-fall-loading-thetafix_N5e7_Exner_01915200.png2012-01-10 12:13 17K 
[IMG]CS1_50kmx20km-fall-loading-thetafix_N5e7_ExnerDev_01537200.png2012-01-10 12:12 17K 
[IMG]CS1_50kmx20km-fall-loading-thetafix_N5e7_Exner_01497600.png2012-01-10 12:13 17K 
[IMG]CS1_50kmx20km-fall-loading-thetafix_N5e7_Exner_02473200.png2012-01-10 12:15 17K 
[IMG]CS1_50kmx20km-fall-loading-thetafix_N5e7_Exner_00896400.png2012-01-10 12:11 17K 
[IMG]CS1_50kmx20km-fall-loading-thetafix_N5e7_Exner_01386000.png2012-01-10 12:13 17K 
[IMG]CS1_50kmx20km-fall-loading-thetafix_N5e7_Exner_02134800.png2012-01-10 12:13 17K 
[IMG]CS1_50kmx20km-fall-loading-thetafix_N5e7_ExnerDev_02419200.png2012-01-10 12:15 17K 
[IMG]CS1_50kmx20km-fall-loading-thetafix_N5e7_ExnerDev_01080000.png2012-01-10 12:11 17K 
[IMG]CS1_50kmx20km-fall-loading-thetafix_N5e7_VelX_00126000.png2012-01-10 12:09 17K 
[IMG]CS1_50kmx20km-fall-loading-thetafix_N5e7_Exner_02084400.png2012-01-10 12:13 17K 
[IMG]CS1_50kmx20km-fall-loading-thetafix_N5e7_ExnerDev_00579600.png2012-01-10 12:09 17K 
[IMG]CS1_50kmx20km-fall-loading-thetafix_N5e7_ExnerDev_01731600.png2012-01-10 12:13 17K 
[IMG]CS1_50kmx20km-fall-loading-thetafix_N5e7_Exner_02408400.png2012-01-10 12:15 17K 
[IMG]CS1_50kmx20km-fall-loading-thetafix_N5e7_Exner_02217600.png2012-01-10 12:15 17K 
[IMG]CS1_50kmx20km-fall-loading-thetafix_N5e7_ExnerDev_00752400.png2012-01-10 12:09 17K 
[IMG]CS1_50kmx20km-fall-loading-thetafix_N5e7_Exner_02077200.png2012-01-10 12:13 17K 
[IMG]CS1_50kmx20km-fall-loading-thetafix_N5e7_Exner_00615600.png2012-01-10 12:09 17K 
[IMG]CS1_50kmx20km-fall-loading-thetafix_N5e7_ExnerDev_02548800.png2012-01-10 12:15 17K 
[IMG]CS1_50kmx20km-fall-loading-thetafix_N5e7_ExnerDev_00154800.png2012-01-10 12:08 17K 
[IMG]CS1_50kmx20km-fall-loading-thetafix_N5e7_Exner_01926000.png2012-01-10 12:13 17K 
[IMG]CS1_50kmx20km-fall-loading-thetafix_N5e7_Exner_00478800.png2012-01-10 12:09 17K 
[IMG]CS1_50kmx20km-fall-loading-thetafix_N5e7_Exner_01080000.png2012-01-10 12:11 17K 
[IMG]CS1_50kmx20km-fall-loading-thetafix_N5e7_Exner_00644400.png2012-01-10 12:09 17K 
[IMG]CS1_50kmx20km-fall-loading-thetafix_N5e7_Exner_01051200.png2012-01-10 12:11 17K 
[IMG]CS1_50kmx20km-fall-loading-thetafix_N5e7_Exner_01652400.png2012-01-10 12:13 17K 
[IMG]CS1_50kmx20km-fall-loading-thetafix_N5e7_Exner_00867600.png2012-01-10 12:11 17K 
[IMG]CS1_50kmx20km-fall-loading-thetafix_N5e7_ExnerDev_00169200.png2012-01-10 12:08 17K 
[IMG]CS1_50kmx20km-fall-loading-thetafix_N5e7_Exner_00086400.png2012-01-10 12:08 17K 
[IMG]CS1_50kmx20km-fall-loading-thetafix_N5e7_ExnerDev_00536400.png2012-01-10 12:09 17K 
[IMG]CS1_50kmx20km-fall-loading-thetafix_N5e7_ExnerDev_00165600.png2012-01-10 12:08 17K 
[IMG]CS1_50kmx20km-fall-loading-thetafix_N5e7_Exner_01954800.png2012-01-10 12:13 17K 
[IMG]CS1_50kmx20km-fall-loading-thetafix_N5e7_Exner_00248400.png2012-01-10 12:08 17K 
[IMG]CS1_50kmx20km-fall-loading-thetafix_N5e7_ExnerDev_00950400.png2012-01-10 12:11 17K 
[IMG]CS1_50kmx20km-fall-loading-thetafix_N5e7_Exner_00381600.png2012-01-10 12:08 17K 
[IMG]CS1_50kmx20km-fall-loading-thetafix_N5e7_Exner_01936800.png2012-01-10 12:13 17K 
[IMG]CS1_50kmx20km-fall-loading-thetafix_N5e7_Exner_01461600.png2012-01-10 12:13 17K 
[IMG]CS1_50kmx20km-fall-loading-thetafix_N5e7_Exner_01789200.png2012-01-10 12:13 17K 
[IMG]CS1_50kmx20km-fall-loading-thetafix_N5e7_ExnerDev_02469600.png2012-01-10 12:15 17K 
[IMG]CS1_50kmx20km-fall-loading-thetafix_N5e7_Exner_01832400.png2012-01-10 12:13 17K 
[IMG]CS1_50kmx20km-fall-loading-thetafix_N5e7_Exner_02415600.png2012-01-10 12:15 17K 
[IMG]CS1_50kmx20km-fall-loading-thetafix_N5e7_Exner_01069200.png2012-01-10 12:11 17K 
[IMG]CS1_50kmx20km-fall-loading-thetafix_N5e7_Exner_00558000.png2012-01-10 12:09 17K 
[IMG]CS1_50kmx20km-fall-loading-thetafix_N5e7_Exner_01000800.png2012-01-10 12:11 17K 
[IMG]CS1_50kmx20km-fall-loading-thetafix_N5e7_Exner_02530800.png2012-01-10 12:15 17K 
[IMG]CS1_50kmx20km-fall-loading-thetafix_N5e7_ExnerDev_00903600.png2012-01-10 12:11 17K 
[IMG]CS1_50kmx20km-fall-loading-thetafix_N5e7_Exner_00370800.png2012-01-10 12:08 17K 
[IMG]CS1_50kmx20km-fall-loading-thetafix_N5e7_Exner_01947600.png2012-01-10 12:13 17K 
[IMG]CS1_50kmx20km-fall-loading-thetafix_N5e7_VelX_00086400.png2012-01-10 12:09 17K 
[IMG]CS1_50kmx20km-fall-loading-thetafix_N5e7_Exner_01206000.png2012-01-10 12:11 17K 
[IMG]CS1_50kmx20km-fall-loading-thetafix_N5e7_Exner_02145600.png2012-01-10 12:13 17K 
[IMG]CS1_50kmx20km-fall-loading-thetafix_N5e7_Exner_01026000.png2012-01-10 12:11 17K 
[IMG]CS1_50kmx20km-fall-loading-thetafix_N5e7_ExnerDev_02268000.png2012-01-10 12:15 17K 
[IMG]CS1_50kmx20km-fall-loading-thetafix_N5e7_Exner_02325600.png2012-01-10 12:15 17K 
[IMG]CS1_50kmx20km-fall-loading-thetafix_N5e7_ExnerDev_00270000.png2012-01-10 12:08 17K 
[IMG]CS1_50kmx20km-fall-loading-thetafix_N5e7_ExnerDev_02412000.png2012-01-10 12:15 17K 
[IMG]CS1_50kmx20km-fall-loading-thetafix_N5e7_Exner_00687600.png2012-01-10 12:09 17K 
[IMG]CS1_50kmx20km-fall-loading-thetafix_N5e7_Exner_01404000.png2012-01-10 12:13 17K 
[IMG]CS1_50kmx20km-fall-loading-thetafix_N5e7_VelX_00208800.png2012-01-10 12:09 17K 
[IMG]CS1_50kmx20km-fall-loading-thetafix_N5e7_Exner_02541600.png2012-01-10 12:15 17K 
[IMG]CS1_50kmx20km-fall-loading-thetafix_N5e7_Exner_00817200.png2012-01-10 12:09 17K 
[IMG]CS1_50kmx20km-fall-loading-thetafix_N5e7_ExnerDev_01148400.png2012-01-10 12:11 17K 
[IMG]CS1_50kmx20km-fall-loading-thetafix_N5e7_Exner_02390400.png2012-01-10 12:15 17K 
[IMG]CS1_50kmx20km-fall-loading-thetafix_N5e7_Exner_00302400.png2012-01-10 12:08 17K 
[IMG]CS1_50kmx20km-fall-loading-thetafix_N5e7_Exner_01760400.png2012-01-10 12:13 17K 
[IMG]CS1_50kmx20km-fall-loading-thetafix_N5e7_Exner_02419200.png2012-01-10 12:15 17K 
[IMG]CS1_50kmx20km-fall-loading-thetafix_N5e7_Exner_01062000.png2012-01-10 12:11 17K 
[IMG]CS1_50kmx20km-fall-loading-thetafix_N5e7_Exner_02318400.png2012-01-10 12:15 17K 
[IMG]CS1_50kmx20km-fall-loading-thetafix_N5e7_ExnerDev_01620000.png2012-01-10 12:12 17K 
[IMG]CS1_50kmx20km-fall-loading-thetafix_N5e7_VelZ_00032400.png2012-01-10 12:09 17K 
[IMG]CS1_50kmx20km-fall-loading-thetafix_N5e7_Exner_02347200.png2012-01-10 12:15 17K 
[IMG]CS1_50kmx20km-fall-loading-thetafix_N5e7_ExnerDev_01501200.png2012-01-10 12:12 17K 
[IMG]CS1_50kmx20km-fall-loading-thetafix_N5e7_Exner_01483200.png2012-01-10 12:13 17K 
[IMG]CS1_50kmx20km-fall-loading-thetafix_N5e7_Exner_02304000.png2012-01-10 12:15 17K 
[IMG]CS1_50kmx20km-fall-loading-thetafix_N5e7_Exner_00270000.png2012-01-10 12:08 17K 
[IMG]CS1_50kmx20km-fall-loading-thetafix_N5e7_Exner_00784800.png2012-01-10 12:09 17K 
[IMG]CS1_50kmx20km-fall-loading-thetafix_N5e7_ExnerDev_01728000.png2012-01-10 12:13 17K 
[IMG]CS1_50kmx20km-fall-loading-thetafix_N5e7_Exner_02034000.png2012-01-10 12:13 17K 
[IMG]CS1_50kmx20km-fall-loading-thetafix_N5e7_Exner_00320400.png2012-01-10 12:08 17K 
[IMG]CS1_50kmx20km-fall-loading-thetafix_N5e7_Exner_00259200.png2012-01-10 12:08 17K 
[IMG]CS1_50kmx20km-fall-loading-thetafix_N5e7_Exner_00100800.png2012-01-10 12:08 17K 
[IMG]CS1_50kmx20km-fall-loading-thetafix_N5e7_ExnerDev_01033200.png2012-01-10 12:11 17K 
[IMG]CS1_50kmx20km-fall-loading-thetafix_N5e7_Exner_02026800.png2012-01-10 12:13 17K 
[IMG]CS1_50kmx20km-fall-loading-thetafix_N5e7_Exner_01346400.png2012-01-10 12:13 17K 
[IMG]CS1_50kmx20km-fall-loading-thetafix_N5e7_Exner_01918800.png2012-01-10 12:13 17K 
[IMG]CS1_50kmx20km-fall-loading-thetafix_N5e7_ExnerDev_02498400.png2012-01-10 12:15 17K 
[IMG]CS1_50kmx20km-fall-loading-thetafix_N5e7_Exner_02314800.png2012-01-10 12:15 17K 
[IMG]CS1_50kmx20km-fall-loading-thetafix_N5e7_Exner_01962000.png2012-01-10 12:13 17K 
[IMG]CS1_50kmx20km-fall-loading-thetafix_N5e7_Exner_02005200.png2012-01-10 12:13 17K 
[IMG]CS1_50kmx20km-fall-loading-thetafix_N5e7_VelX_00428400.png2012-01-10 12:09 17K 
[IMG]CS1_50kmx20km-fall-loading-thetafix_N5e7_Exner_00975600.png2012-01-10 12:11 17K 
[IMG]CS1_50kmx20km-fall-loading-thetafix_N5e7_Exner_00399600.png2012-01-10 12:08 17K 
[IMG]CS1_50kmx20km-fall-loading-thetafix_N5e7_Exner_01904400.png2012-01-10 12:13 17K 
[IMG]CS1_50kmx20km-fall-loading-thetafix_N5e7_Exner_00428400.png2012-01-10 12:08 17K 
[IMG]CS1_50kmx20km-fall-loading-thetafix_N5e7_Exner_00759600.png2012-01-10 12:09 17K 
[IMG]CS1_50kmx20km-fall-loading-thetafix_N5e7_Exner_01321200.png2012-01-10 12:13 17K 
[IMG]CS1_50kmx20km-fall-loading-thetafix_N5e7_Exner_02433600.png2012-01-10 12:15 17K 
[IMG]CS1_50kmx20km-fall-loading-thetafix_N5e7_ExnerDev_01821600.png2012-01-10 12:13 17K 
[IMG]CS1_50kmx20km-fall-loading-thetafix_N5e7_Exner_02574000.png2012-01-10 12:15 17K 
[IMG]CS1_50kmx20km-fall-loading-thetafix_N5e7_VelX_00082800.png2012-01-10 12:09 17K 
[IMG]CS1_50kmx20km-fall-loading-thetafix_N5e7_ExnerDev_00205200.png2012-01-10 12:08 17K 
[IMG]CS1_50kmx20km-fall-loading-thetafix_N5e7_ExnerDev_00162000.png2012-01-10 12:08 17K 
[IMG]CS1_50kmx20km-fall-loading-thetafix_N5e7_Exner_00072000.png2012-01-10 12:08 17K 
[IMG]CS1_50kmx20km-fall-loading-thetafix_N5e7_Exner_01072800.png2012-01-10 12:11 17K 
[IMG]CS1_50kmx20km-fall-loading-thetafix_N5e7_Exner_02365200.png2012-01-10 12:15 17K 
[IMG]CS1_50kmx20km-fall-loading-thetafix_N5e7_Exner_00230400.png2012-01-10 12:08 17K 
[IMG]CS1_50kmx20km-fall-loading-thetafix_N5e7_Exner_01357200.png2012-01-10 12:13 17K 
[IMG]CS1_50kmx20km-fall-loading-thetafix_N5e7_ExnerDev_01706400.png2012-01-10 12:13 17K 
[IMG]CS1_50kmx20km-fall-loading-thetafix_N5e7_Exner_00057600.png2012-01-10 12:08 17K 
[IMG]CS1_50kmx20km-fall-loading-thetafix_N5e7_Exner_00766800.png2012-01-10 12:09 17K 
[IMG]CS1_50kmx20km-fall-loading-thetafix_N5e7_Exner_00532800.png2012-01-10 12:09 17K 
[IMG]CS1_50kmx20km-fall-loading-thetafix_N5e7_ExnerDev_00410400.png2012-01-10 12:08 17K 
[IMG]CS1_50kmx20km-fall-loading-thetafix_N5e7_VelX_00072000.png2012-01-10 12:09 17K 
[IMG]CS1_50kmx20km-fall-loading-thetafix_N5e7_Exner_01519200.png2012-01-10 12:13 17K 
[IMG]CS1_50kmx20km-fall-loading-thetafix_N5e7_DensCloud_00039600.png2012-01-10 12:08 17K 
[IMG]CS1_50kmx20km-fall-loading-thetafix_N5e7_ExnerDev_01155600.png2012-01-10 12:11 17K 
[IMG]CS1_50kmx20km-fall-loading-thetafix_N5e7_ExnerDev_02480400.png2012-01-10 12:15 17K 
[IMG]CS1_50kmx20km-fall-loading-thetafix_N5e7_Exner_01627200.png2012-01-10 12:13 17K 
[IMG]CS1_50kmx20km-fall-loading-thetafix_N5e7_VelX_00075600.png2012-01-10 12:09 17K 
[IMG]CS1_50kmx20km-fall-loading-thetafix_N5e7_VelX_00212400.png2012-01-10 12:09 17K 
[IMG]CS1_50kmx20km-fall-loading-thetafix_N5e7_ExnerDev_00968400.png2012-01-10 12:11 17K 
[IMG]CS1_50kmx20km-fall-loading-thetafix_N5e7_ExnerDev_00075600.png2012-01-10 12:08 17K 
[IMG]CS1_50kmx20km-fall-loading-thetafix_N5e7_ExnerDev_00540000.png2012-01-10 12:09 17K 
[IMG]CS1_50kmx20km-fall-loading-thetafix_N5e7_VelX_00079200.png2012-01-10 12:09 17K 
[IMG]CS1_50kmx20km-fall-loading-thetafix_N5e7_Exner_02404800.png2012-01-10 12:15 17K 
[IMG]CS1_50kmx20km-fall-loading-thetafix_N5e7_Exner_00763200.png2012-01-10 12:09 17K 
[IMG]CS1_50kmx20km-fall-loading-thetafix_N5e7_ExnerDev_01422000.png2012-01-10 12:12 17K 
[IMG]CS1_50kmx20km-fall-loading-thetafix_N5e7_ExnerDev_00100800.png2012-01-10 12:08 17K 
[IMG]CS1_50kmx20km-fall-loading-thetafix_N5e7_Exner_01944000.png2012-01-10 12:13 17K 
[IMG]CS1_50kmx20km-fall-loading-thetafix_N5e7_ExnerDev_00212400.png2012-01-10 12:08 17K 
[IMG]CS1_50kmx20km-fall-loading-thetafix_N5e7_Exner_01512000.png2012-01-10 12:13 17K 
[IMG]CS1_50kmx20km-fall-loading-thetafix_N5e7_ExnerDev_00208800.png2012-01-10 12:08 17K 
[IMG]CS1_50kmx20km-fall-loading-thetafix_N5e7_ExnerDev_00435600.png2012-01-10 12:09 17K 
[IMG]CS1_50kmx20km-fall-loading-thetafix_N5e7_ExnerDev_01670400.png2012-01-10 12:12 17K 
[IMG]CS1_50kmx20km-fall-loading-thetafix_N5e7_Exner_02311200.png2012-01-10 12:15 17K 
[IMG]CS1_50kmx20km-fall-loading-thetafix_N5e7_Exner_00968400.png2012-01-10 12:11 17K 
[IMG]CS1_50kmx20km-fall-loading-thetafix_N5e7_VelX_00324000.png2012-01-10 12:09 17K 
[IMG]CS1_50kmx20km-fall-loading-thetafix_N5e7_DensCloud_00043200.png2012-01-10 12:08 17K 
[IMG]CS1_50kmx20km-fall-loading-thetafix_N5e7_Exner_01159200.png2012-01-10 12:11 17K 
[IMG]CS1_50kmx20km-fall-loading-thetafix_N5e7_VelX_00068400.png2012-01-10 12:09 17K 
[IMG]CS1_50kmx20km-fall-loading-thetafix_N5e7_ExnerDev_02527200.png2012-01-10 12:15 17K 
[IMG]CS1_50kmx20km-fall-loading-thetafix_N5e7_Exner_02066400.png2012-01-10 12:13 17K 
[IMG]CS1_50kmx20km-fall-loading-thetafix_N5e7_Exner_02466000.png2012-01-10 12:15 17K 
[IMG]CS1_50kmx20km-fall-loading-thetafix_N5e7_Exner_00075600.png2012-01-10 12:08 17K 
[IMG]CS1_50kmx20km-fall-loading-thetafix_N5e7_VelX_00162000.png2012-01-10 12:09 17K 
[IMG]CS1_50kmx20km-fall-loading-thetafix_N5e7_Exner_02462400.png2012-01-10 12:15 18K 
[IMG]CS1_50kmx20km-fall-loading-thetafix_N5e7_Exner_00097200.png2012-01-10 12:08 18K 
[IMG]CS1_50kmx20km-fall-loading-thetafix_N5e7_ExnerDev_00082800.png2012-01-10 12:08 18K 
[IMG]CS1_50kmx20km-fall-loading-thetafix_N5e7_Exner_01530000.png2012-01-10 12:13 18K 
[IMG]CS1_50kmx20km-fall-loading-thetafix_N5e7_ExnerDev_00428400.png2012-01-10 12:08 18K 
[IMG]CS1_50kmx20km-fall-loading-thetafix_N5e7_ExnerDev_00133200.png2012-01-10 12:08 18K 
[IMG]CS1_50kmx20km-fall-loading-thetafix_N5e7_VelZ_01868400.png2012-01-10 12:14 18K 
[IMG]CS1_50kmx20km-fall-loading-thetafix_N5e7_VelZ_01857600.png2012-01-10 12:14 18K 
[IMG]CS1_50kmx20km-fall-loading-thetafix_N5e7_VelZ_01879200.png2012-01-10 12:14 18K 
[IMG]CS1_50kmx20km-fall-loading-thetafix_N5e7_DensCloud_01900800.png2012-01-10 12:12 18K 
[IMG]CS1_50kmx20km-fall-loading-thetafix_N5e7_VelZ_01908000.png2012-01-10 12:14 18K 
[IMG]CS1_50kmx20km-fall-loading-thetafix_N5e7_VelZ_02376000.png2012-01-10 12:16 18K 
[IMG]CS1_50kmx20km-fall-loading-thetafix_N5e7_VelZ_02394000.png2012-01-10 12:16 18K 
[IMG]CS1_50kmx20km-fall-loading-thetafix_N5e7_VelZ_02293200.png2012-01-10 12:16 18K 
[IMG]CS1_50kmx20km-fall-loading-thetafix_N5e7_DensCloud_01850400.png2012-01-10 12:12 18K 
[IMG]CS1_50kmx20km-fall-loading-thetafix_N5e7_VelZ_01911600.png2012-01-10 12:14 18K 
[IMG]CS1_50kmx20km-fall-loading-thetafix_N5e7_DensCloud_01868400.png2012-01-10 12:12 18K 
[IMG]CS1_50kmx20km-fall-loading-thetafix_N5e7_VelZ_01875600.png2012-01-10 12:14 18K 
[IMG]CS1_50kmx20km-fall-loading-thetafix_N5e7_DensCloud_01843200.png2012-01-10 12:12 18K 
[IMG]CS1_50kmx20km-fall-loading-thetafix_N5e7_DensCloud_01854000.png2012-01-10 12:12 18K 
[IMG]CS1_50kmx20km-fall-loading-thetafix_N5e7_ExnerDev_00003600.png2012-01-10 12:08 18K 
[IMG]CS1_50kmx20km-fall-loading-thetafix_N5e7_DensCloud_01332000.png2012-01-10 12:12 18K 
[IMG]CS1_50kmx20km-fall-loading-thetafix_N5e7_VelZ_02278800.png2012-01-10 12:16 18K 
[IMG]CS1_50kmx20km-fall-loading-thetafix_N5e7_VelZ_01843200.png2012-01-10 12:14 18K 
[IMG]CS1_50kmx20km-fall-loading-thetafix_N5e7_VelZ_01339200.png2012-01-10 12:14 18K 
[IMG]CS1_50kmx20km-fall-loading-thetafix_N5e7_DensCloud_00914400.png2012-01-10 12:10 18K 
[IMG]CS1_50kmx20km-fall-loading-thetafix_N5e7_VelZ_01861200.png2012-01-10 12:14 18K 
[IMG]CS1_50kmx20km-fall-loading-thetafix_N5e7_VelZ_01296000.png2012-01-10 12:14 18K 
[IMG]CS1_50kmx20km-fall-loading-thetafix_N5e7_DensCloud_02361600.png2012-01-10 12:15 18K 
[IMG]CS1_50kmx20km-fall-loading-thetafix_N5e7_VelZ_01213200.png2012-01-10 12:12 18K 
[IMG]CS1_50kmx20km-fall-loading-thetafix_N5e7_VelZ_02372400.png2012-01-10 12:16 18K 
[IMG]CS1_50kmx20km-fall-loading-thetafix_N5e7_DensCloud_01857600.png2012-01-10 12:12 18K 
[IMG]CS1_50kmx20km-fall-loading-thetafix_N5e7_VelZ_02178000.png2012-01-10 12:16 18K 
[IMG]CS1_50kmx20km-fall-loading-thetafix_N5e7_VelX_00007200.png2012-01-10 12:09 18K 
[IMG]CS1_50kmx20km-fall-loading-thetafix_N5e7_VelZ_01929600.png2012-01-10 12:14 18K 
[IMG]CS1_50kmx20km-fall-loading-thetafix_N5e7_VelZ_01828800.png2012-01-10 12:14 18K 
[IMG]CS1_50kmx20km-fall-loading-thetafix_N5e7_VelZ_01321200.png2012-01-10 12:14 18K 
[IMG]CS1_50kmx20km-fall-loading-thetafix_N5e7_DensCloud_02376000.png2012-01-10 12:15 18K 
[IMG]CS1_50kmx20km-fall-loading-thetafix_N5e7_DensCloud_00838800.png2012-01-10 12:09 18K 
[IMG]CS1_50kmx20km-fall-loading-thetafix_N5e7_VelZ_00831600.png2012-01-10 12:10 18K 
[IMG]CS1_50kmx20km-fall-loading-thetafix_N5e7_VelZ_00867600.png2012-01-10 12:12 18K 
[IMG]CS1_50kmx20km-fall-loading-thetafix_N5e7_VelZ_01407600.png2012-01-10 12:14 18K 
[IMG]CS1_50kmx20km-fall-loading-thetafix_N5e7_DensCloud_00802800.png2012-01-10 12:09 18K 
[IMG]CS1_50kmx20km-fall-loading-thetafix_N5e7_DensCloud_00842400.png2012-01-10 12:09 18K 
[IMG]CS1_50kmx20km-fall-loading-thetafix_N5e7_DensCloud_00853200.png2012-01-10 12:09 18K 
[IMG]CS1_50kmx20km-fall-loading-thetafix_N5e7_VelZ_00842400.png2012-01-10 12:10 18K 
[IMG]CS1_50kmx20km-fall-loading-thetafix_N5e7_VelZ_02336400.png2012-01-10 12:16 18K 
[IMG]CS1_50kmx20km-fall-loading-thetafix_N5e7_DensCloud_01479600.png2012-01-10 12:12 18K 
[IMG]CS1_50kmx20km-fall-loading-thetafix_N5e7_VelZ_02048400.png2012-01-10 12:14 18K 
[IMG]CS1_50kmx20km-fall-loading-thetafix_N5e7_DensCloud_02253600.png2012-01-10 12:14 18K 
[IMG]CS1_50kmx20km-fall-loading-thetafix_N5e7_VelZ_01652400.png2012-01-10 12:14 18K 
[IMG]CS1_50kmx20km-fall-loading-thetafix_N5e7_DensCloud_02332800.png2012-01-10 12:14 18K 
[IMG]CS1_50kmx20km-fall-loading-thetafix_N5e7_PotTempDev_00014400.png2012-01-10 12:08 18K 
[IMG]CS1_50kmx20km-fall-loading-thetafix_N5e7_DensCloud_00849600.png2012-01-10 12:09 18K 
[IMG]CS1_50kmx20km-fall-loading-thetafix_N5e7_VelZ_01360800.png2012-01-10 12:14 18K 
[IMG]CS1_50kmx20km-fall-loading-thetafix_N5e7_VelZ_02116800.png2012-01-10 12:14 18K 
[IMG]CS1_50kmx20km-fall-loading-thetafix_N5e7_DensCloud_01353600.png2012-01-10 12:12 18K 
[IMG]CS1_50kmx20km-fall-loading-thetafix_N5e7_SatRatio_00025200.png2012-01-10 12:09 18K 
[IMG]CS1_50kmx20km-fall-loading-thetafix_N5e7_VelZ_01904400.png2012-01-10 12:14 18K 
[IMG]CS1_50kmx20km-fall-loading-thetafix_N5e7_VelZ_01807200.png2012-01-10 12:14 18K 
[IMG]CS1_50kmx20km-fall-loading-thetafix_N5e7_VelZ_02430000.png2012-01-10 12:16 18K 
[IMG]CS1_50kmx20km-fall-loading-thetafix_N5e7_VelZ_01342800.png2012-01-10 12:14 18K 
[IMG]CS1_50kmx20km-fall-loading-thetafix_N5e7_VelZ_02332800.png2012-01-10 12:16 18K 
[IMG]CS1_50kmx20km-fall-loading-thetafix_N5e7_DensCloud_01396800.png2012-01-10 12:12 18K 
[IMG]CS1_50kmx20km-fall-loading-thetafix_N5e7_VelZ_01893600.png2012-01-10 12:14 18K 
[IMG]CS1_50kmx20km-fall-loading-thetafix_N5e7_DensCloud_00457200.png2012-01-10 12:08 18K 
[IMG]CS1_50kmx20km-fall-loading-thetafix_N5e7_DensCloud_01551600.png2012-01-10 12:12 18K 
[IMG]CS1_50kmx20km-fall-loading-thetafix_N5e7_DensCloud_00774000.png2012-01-10 12:09 18K 
[IMG]CS1_50kmx20km-fall-loading-thetafix_N5e7_DensCloud_01375200.png2012-01-10 12:12 18K 
[IMG]CS1_50kmx20km-fall-loading-thetafix_N5e7_DensCloud_00806400.png2012-01-10 12:09 18K 
[IMG]CS1_50kmx20km-fall-loading-thetafix_N5e7_SatRatio_00028800.png2012-01-10 12:09 18K 
[IMG]CS1_50kmx20km-fall-loading-thetafix_N5e7_VelZ_01641600.png2012-01-10 12:14 18K 
[IMG]CS1_50kmx20km-fall-loading-thetafix_N5e7_VelZ_00849600.png2012-01-10 12:10 18K 
[IMG]CS1_50kmx20km-fall-loading-thetafix_N5e7_DensCloud_01296000.png2012-01-10 12:12 18K 
[IMG]CS1_50kmx20km-fall-loading-thetafix_N5e7_DensCloud_01321200.png2012-01-10 12:12 18K 
[IMG]CS1_50kmx20km-fall-loading-thetafix_N5e7_VelZ_00856800.png2012-01-10 12:10 18K 
[IMG]CS1_50kmx20km-fall-loading-thetafix_N5e7_VelZ_02408400.png2012-01-10 12:16 18K 
[IMG]CS1_50kmx20km-fall-loading-thetafix_N5e7_DensCloud_01364400.png2012-01-10 12:12 18K 
[IMG]CS1_50kmx20km-fall-loading-thetafix_N5e7_VelZ_00792000.png2012-01-10 12:10 18K 
[IMG]CS1_50kmx20km-fall-loading-thetafix_N5e7_VelZ_01890000.png2012-01-10 12:14 18K 
[IMG]CS1_50kmx20km-fall-loading-thetafix_N5e7_DensCloud_02142000.png2012-01-10 12:13 18K 
[IMG]CS1_50kmx20km-fall-loading-thetafix_N5e7_VelZ_01314000.png2012-01-10 12:14 18K 
[IMG]CS1_50kmx20km-fall-loading-thetafix_N5e7_VelZ_01353600.png2012-01-10 12:14 18K 
[IMG]CS1_50kmx20km-fall-loading-thetafix_N5e7_DensCloud_00514800.png2012-01-10 12:08 18K 
[IMG]CS1_50kmx20km-fall-loading-thetafix_N5e7_DensCloud_02372400.png2012-01-10 12:15 18K 
[IMG]CS1_50kmx20km-fall-loading-thetafix_N5e7_VelZ_00036000.png2012-01-10 12:09 18K 
[IMG]CS1_50kmx20km-fall-loading-thetafix_N5e7_VelZ_00108000.png2012-01-10 12:09 18K 
[IMG]CS1_50kmx20km-fall-loading-thetafix_N5e7_VelZ_02314800.png2012-01-10 12:16 18K 
[IMG]CS1_50kmx20km-fall-loading-thetafix_N5e7_VelZ_01209600.png2012-01-10 12:12 18K 
[IMG]CS1_50kmx20km-fall-loading-thetafix_N5e7_VelZ_00615600.png2012-01-10 12:10 18K 
[IMG]CS1_50kmx20km-fall-loading-thetafix_N5e7_VelZ_00846000.png2012-01-10 12:10 18K 
[IMG]CS1_50kmx20km-fall-loading-thetafix_N5e7_DensCloud_02430000.png2012-01-10 12:15 18K 
[IMG]CS1_50kmx20km-fall-loading-thetafix_N5e7_DensCloud_02322000.png2012-01-10 12:14 18K 
[IMG]CS1_50kmx20km-fall-loading-thetafix_N5e7_DensCloud_01886400.png2012-01-10 12:12 18K 
[IMG]CS1_50kmx20km-fall-loading-thetafix_N5e7_VelZ_00806400.png2012-01-10 12:10 18K 
[IMG]CS1_50kmx20km-fall-loading-thetafix_N5e7_DensCloud_02444400.png2012-01-10 12:15 18K 
[IMG]CS1_50kmx20km-fall-loading-thetafix_N5e7_DensCloud_01350000.png2012-01-10 12:12 18K 
[IMG]CS1_50kmx20km-fall-loading-thetafix_N5e7_DensCloud_00856800.png2012-01-10 12:09 18K 
[IMG]CS1_50kmx20km-fall-loading-thetafix_N5e7_VelZ_01270800.png2012-01-10 12:12 18K 
[IMG]CS1_50kmx20km-fall-loading-thetafix_N5e7_DensCloud_01911600.png2012-01-10 12:12 18K 
[IMG]CS1_50kmx20km-fall-loading-thetafix_N5e7_VelZ_02163600.png2012-01-10 12:16 18K 
[IMG]CS1_50kmx20km-fall-loading-thetafix_N5e7_DensCloud_00878400.png2012-01-10 12:10 18K 
[IMG]CS1_50kmx20km-fall-loading-thetafix_N5e7_DensCloud_00583200.png2012-01-10 12:08 18K 
[IMG]CS1_50kmx20km-fall-loading-thetafix_N5e7_DensCloud_02408400.png2012-01-10 12:15 18K 
[IMG]CS1_50kmx20km-fall-loading-thetafix_N5e7_DensCloud_01386000.png2012-01-10 12:12 18K 
[IMG]CS1_50kmx20km-fall-loading-thetafix_N5e7_DensCloud_00568800.png2012-01-10 12:08 18K 
[IMG]CS1_50kmx20km-fall-loading-thetafix_N5e7_DensCloud_01933200.png2012-01-10 12:12 18K 
[IMG]CS1_50kmx20km-fall-loading-thetafix_N5e7_DensCloud_01256400.png2012-01-10 12:11 18K 
[IMG]CS1_50kmx20km-fall-loading-thetafix_N5e7_DensCloud_00892800.png2012-01-10 12:10 18K 
[IMG]CS1_50kmx20km-fall-loading-thetafix_N5e7_VelZ_01954800.png2012-01-10 12:14 18K 
[IMG]CS1_50kmx20km-fall-loading-thetafix_N5e7_VelZ_01263600.png2012-01-10 12:12 18K 
[IMG]CS1_50kmx20km-fall-loading-thetafix_N5e7_DensCloud_00561600.png2012-01-10 12:08 18K 
[IMG]CS1_50kmx20km-fall-loading-thetafix_N5e7_VelZ_00813600.png2012-01-10 12:10 18K 
[IMG]CS1_50kmx20km-fall-loading-thetafix_N5e7_DensCloud_01803600.png2012-01-10 12:12 18K 
[IMG]CS1_50kmx20km-fall-loading-thetafix_N5e7_DensCloud_00910800.png2012-01-10 12:10 19K 
[IMG]CS1_50kmx20km-fall-loading-thetafix_N5e7_DensCloud_01328400.png2012-01-10 12:12 19K 
[IMG]CS1_50kmx20km-fall-loading-thetafix_N5e7_DensCloud_01890000.png2012-01-10 12:12 19K 
[IMG]CS1_50kmx20km-fall-loading-thetafix_N5e7_VelZ_00774000.png2012-01-10 12:10 19K 
[IMG]CS1_50kmx20km-fall-loading-thetafix_N5e7_VelZ_01818000.png2012-01-10 12:14 19K 
[IMG]CS1_50kmx20km-fall-loading-thetafix_N5e7_VelZ_02354400.png2012-01-10 12:16 19K 
[IMG]CS1_50kmx20km-fall-loading-thetafix_N5e7_DensCloud_01393200.png2012-01-10 12:12 19K 
[IMG]CS1_50kmx20km-fall-loading-thetafix_N5e7_VelZ_00860400.png2012-01-10 12:10 19K 
[IMG]CS1_50kmx20km-fall-loading-thetafix_N5e7_VelZ_01933200.png2012-01-10 12:14 19K 
[IMG]CS1_50kmx20km-fall-loading-thetafix_N5e7_DensCloud_01314000.png2012-01-10 12:12 19K 
[IMG]CS1_50kmx20km-fall-loading-thetafix_N5e7_VelZ_01335600.png2012-01-10 12:14 19K 
[IMG]CS1_50kmx20km-fall-loading-thetafix_N5e7_VelZ_01623600.png2012-01-10 12:14 19K 
[IMG]CS1_50kmx20km-fall-loading-thetafix_N5e7_VelZ_01872000.png2012-01-10 12:14 19K 
[IMG]CS1_50kmx20km-fall-loading-thetafix_N5e7_DensCloud_00820800.png2012-01-10 12:09 19K 
[IMG]CS1_50kmx20km-fall-loading-thetafix_N5e7_DensCloud_01846800.png2012-01-10 12:12 19K 
[IMG]CS1_50kmx20km-fall-loading-thetafix_N5e7_VelZ_01915200.png2012-01-10 12:14 19K 
[IMG]CS1_50kmx20km-fall-loading-thetafix_N5e7_VelZ_01389600.png2012-01-10 12:14 19K 
[IMG]CS1_50kmx20km-fall-loading-thetafix_N5e7_VelZ_00619200.png2012-01-10 12:10 19K 
[IMG]CS1_50kmx20km-fall-loading-thetafix_N5e7_VelZ_01900800.png2012-01-10 12:14 19K 
[IMG]CS1_50kmx20km-fall-loading-thetafix_N5e7_DensCloud_01404000.png2012-01-10 12:12 19K 
[IMG]CS1_50kmx20km-fall-loading-thetafix_N5e7_VelZ_00907200.png2012-01-10 12:12 19K 
[IMG]CS1_50kmx20km-fall-loading-thetafix_N5e7_VelZ_01306800.png2012-01-10 12:14 19K 
[IMG]CS1_50kmx20km-fall-loading-thetafix_N5e7_VelZ_02350800.png2012-01-10 12:16 19K 
[IMG]CS1_50kmx20km-fall-loading-thetafix_N5e7_DensCloud_02336400.png2012-01-10 12:14 19K 
[IMG]CS1_50kmx20km-fall-loading-thetafix_N5e7_DensCloud_01400400.png2012-01-10 12:12 19K 
[IMG]CS1_50kmx20km-fall-loading-thetafix_N5e7_VelZ_01814400.png2012-01-10 12:14 19K 
[IMG]CS1_50kmx20km-fall-loading-thetafix_N5e7_VelZ_01278000.png2012-01-10 12:12 19K 
[IMG]CS1_50kmx20km-fall-loading-thetafix_N5e7_VelZ_02185200.png2012-01-10 12:16 19K 
[IMG]CS1_50kmx20km-fall-loading-thetafix_N5e7_DensCloud_01051200.png2012-01-10 12:10 19K 
[IMG]CS1_50kmx20km-fall-loading-thetafix_N5e7_VelZ_01454400.png2012-01-10 12:14 19K 
[IMG]CS1_50kmx20km-fall-loading-thetafix_N5e7_VelZ_01832400.png2012-01-10 12:14 19K 
[IMG]CS1_50kmx20km-fall-loading-thetafix_N5e7_DensCloud_01861200.png2012-01-10 12:12 19K 
[IMG]CS1_50kmx20km-fall-loading-thetafix_N5e7_DensCloud_01195200.png2012-01-10 12:11 19K 
[IMG]CS1_50kmx20km-fall-loading-thetafix_N5e7_VelZ_00756000.png2012-01-10 12:10 19K 
[IMG]CS1_50kmx20km-fall-loading-thetafix_N5e7_DensCloud_02275200.png2012-01-10 12:14 19K 
[IMG]CS1_50kmx20km-fall-loading-thetafix_N5e7_DensCloud_00889200.png2012-01-10 12:10 19K 
[IMG]CS1_50kmx20km-fall-loading-thetafix_N5e7_VelZ_00900000.png2012-01-10 12:12 19K 
[IMG]CS1_50kmx20km-fall-loading-thetafix_N5e7_VelZ_00889200.png2012-01-10 12:12 19K 
[IMG]CS1_50kmx20km-fall-loading-thetafix_N5e7_VelZ_01958400.png2012-01-10 12:14 19K 
[IMG]CS1_50kmx20km-fall-loading-thetafix_N5e7_VelZ_01011600.png2012-01-10 12:12 19K 
[IMG]CS1_50kmx20km-fall-loading-thetafix_N5e7_DensCloud_02354400.png2012-01-10 12:15 19K 
[IMG]CS1_50kmx20km-fall-loading-thetafix_N5e7_DensCloud_02368800.png2012-01-10 12:15 19K 
[IMG]CS1_50kmx20km-fall-loading-thetafix_N5e7_DensCloud_00572400.png2012-01-10 12:08 19K 
[IMG]CS1_50kmx20km-fall-loading-thetafix_N5e7_DensCloud_01389600.png2012-01-10 12:12 19K 
[IMG]CS1_50kmx20km-fall-loading-thetafix_N5e7_VelZ_01458000.png2012-01-10 12:14 19K 
[IMG]CS1_50kmx20km-fall-loading-thetafix_N5e7_VelZ_01396800.png2012-01-10 12:14 19K 
[IMG]CS1_50kmx20km-fall-loading-thetafix_N5e7_VelZ_01299600.png2012-01-10 12:14 19K 
[IMG]CS1_50kmx20km-fall-loading-thetafix_N5e7_VelZ_02214000.png2012-01-10 12:16 19K 
[IMG]CS1_50kmx20km-fall-loading-thetafix_N5e7_VelZ_02462400.png2012-01-10 12:16 19K 
[IMG]CS1_50kmx20km-fall-loading-thetafix_N5e7_VelZ_01803600.png2012-01-10 12:14 19K 
[IMG]CS1_50kmx20km-fall-loading-thetafix_N5e7_VelZ_00388800.png2012-01-10 12:09 19K 
[IMG]CS1_50kmx20km-fall-loading-thetafix_N5e7_VelZ_01375200.png2012-01-10 12:14 19K 
[IMG]CS1_50kmx20km-fall-loading-thetafix_N5e7_VelZ_02304000.png2012-01-10 12:16 19K 
[IMG]CS1_50kmx20km-fall-loading-thetafix_N5e7_VelZ_00550800.png2012-01-10 12:10 19K 
[IMG]CS1_50kmx20km-fall-loading-thetafix_N5e7_DensCloud_01717200.png2012-01-10 12:12 19K 
[IMG]CS1_50kmx20km-fall-loading-thetafix_N5e7_DensCloud_02278800.png2012-01-10 12:14 19K 
[IMG]CS1_50kmx20km-fall-loading-thetafix_N5e7_VelZ_00201600.png2012-01-10 12:09 19K 
[IMG]CS1_50kmx20km-fall-loading-thetafix_N5e7_VelZ_00864000.png2012-01-10 12:12 19K 
[IMG]CS1_50kmx20km-fall-loading-thetafix_N5e7_DensCloud_01468800.png2012-01-10 12:12 19K 
[IMG]CS1_50kmx20km-fall-loading-thetafix_N5e7_DensCloud_01634400.png2012-01-10 12:12 19K 
[IMG]CS1_50kmx20km-fall-loading-thetafix_N5e7_DensCloud_02188800.png2012-01-10 12:14 19K 
[IMG]CS1_50kmx20km-fall-loading-thetafix_N5e7_DensCloud_00828000.png2012-01-10 12:09 19K 
[IMG]CS1_50kmx20km-fall-loading-thetafix_N5e7_DensCloud_02440800.png2012-01-10 12:15 19K 
[IMG]CS1_50kmx20km-fall-loading-thetafix_N5e7_VelZ_00932400.png2012-01-10 12:12 19K 
[IMG]CS1_50kmx20km-fall-loading-thetafix_N5e7_PotTempDev_00018000.png2012-01-10 12:08 19K 
[IMG]CS1_50kmx20km-fall-loading-thetafix_N5e7_VelZ_02358000.png2012-01-10 12:16 19K 
[IMG]CS1_50kmx20km-fall-loading-thetafix_N5e7_SatRatio_00021600.png2012-01-10 12:09 19K 
[IMG]CS1_50kmx20km-fall-loading-thetafix_N5e7_VelZ_02433600.png2012-01-10 12:16 19K 
[IMG]CS1_50kmx20km-fall-loading-thetafix_N5e7_DensCloud_00050400.png2012-01-10 12:08 19K 
[IMG]CS1_50kmx20km-fall-loading-thetafix_N5e7_DensCloud_00586800.png2012-01-10 12:08 19K 
[IMG]CS1_50kmx20km-fall-loading-thetafix_N5e7_VelZ_00748800.png2012-01-10 12:10 19K 
[IMG]CS1_50kmx20km-fall-loading-thetafix_N5e7_DensCloud_00590400.png2012-01-10 12:08 19K 
[IMG]CS1_50kmx20km-fall-loading-thetafix_N5e7_DensCloud_00781200.png2012-01-10 12:09 19K 
[IMG]CS1_50kmx20km-fall-loading-thetafix_N5e7_DensCloud_01339200.png2012-01-10 12:12 19K 
[IMG]CS1_50kmx20km-fall-loading-thetafix_N5e7_DensCloud_01810800.png2012-01-10 12:12 19K 
[IMG]CS1_50kmx20km-fall-loading-thetafix_N5e7_DensCloud_01875600.png2012-01-10 12:12 19K 
[IMG]CS1_50kmx20km-fall-loading-thetafix_N5e7_VelZ_01108800.png2012-01-10 12:12 19K 
[IMG]CS1_50kmx20km-fall-loading-thetafix_N5e7_DensCloud_01897200.png2012-01-10 12:12 19K 
[IMG]CS1_50kmx20km-fall-loading-thetafix_N5e7_DensCloud_00788400.png2012-01-10 12:09 19K 
[IMG]CS1_50kmx20km-fall-loading-thetafix_N5e7_DensCloud_01342800.png2012-01-10 12:12 19K 
[IMG]CS1_50kmx20km-fall-loading-thetafix_N5e7_VelZ_00666000.png2012-01-10 12:10 19K 
[IMG]CS1_50kmx20km-fall-loading-thetafix_N5e7_VelZ_02570400.png2012-01-10 12:16 19K 
[IMG]CS1_50kmx20km-fall-loading-thetafix_N5e7_VelZ_01666800.png2012-01-10 12:14 19K 
[IMG]CS1_50kmx20km-fall-loading-thetafix_N5e7_DensCloud_02329200.png2012-01-10 12:14 19K 
[IMG]CS1_50kmx20km-fall-loading-thetafix_N5e7_VelZ_02286000.png2012-01-10 12:16 19K 
[IMG]CS1_50kmx20km-fall-loading-thetafix_N5e7_DensCloud_01864800.png2012-01-10 12:12 19K 
[IMG]CS1_50kmx20km-fall-loading-thetafix_N5e7_DensCloud_01882800.png2012-01-10 12:12 19K 
[IMG]CS1_50kmx20km-fall-loading-thetafix_N5e7_VelZ_00835200.png2012-01-10 12:10 19K 
[IMG]CS1_50kmx20km-fall-loading-thetafix_N5e7_VelZ_01332000.png2012-01-10 12:14 19K 
[IMG]CS1_50kmx20km-fall-loading-thetafix_N5e7_VelZ_00457200.png2012-01-10 12:10 19K 
[IMG]CS1_50kmx20km-fall-loading-thetafix_N5e7_VelZ_00979200.png2012-01-10 12:12 19K 
[IMG]CS1_50kmx20km-fall-loading-thetafix_N5e7_VelZ_00723600.png2012-01-10 12:10 19K 
[IMG]CS1_50kmx20km-fall-loading-thetafix_N5e7_VelZ_00928800.png2012-01-10 12:12 19K 
[IMG]CS1_50kmx20km-fall-loading-thetafix_N5e7_DensCloud_00860400.png2012-01-10 12:09 19K 
[IMG]CS1_50kmx20km-fall-loading-thetafix_N5e7_VelZ_00918000.png2012-01-10 12:12 19K 
[IMG]CS1_50kmx20km-fall-loading-thetafix_N5e7_DensCloud_01216800.png2012-01-10 12:11 19K 
[IMG]CS1_50kmx20km-fall-loading-thetafix_N5e7_VelZ_02361600.png2012-01-10 12:16 19K 
[IMG]CS1_50kmx20km-fall-loading-thetafix_N5e7_VelZ_02379600.png2012-01-10 12:16 19K 
[IMG]CS1_50kmx20km-fall-loading-thetafix_N5e7_DensCloud_02023200.png2012-01-10 12:12 19K 
[IMG]CS1_50kmx20km-fall-loading-thetafix_N5e7_VelZ_01886400.png2012-01-10 12:14 19K 
[IMG]CS1_50kmx20km-fall-loading-thetafix_N5e7_PotTempDev_00007200.png2012-01-10 12:08 19K 
[IMG]CS1_50kmx20km-fall-loading-thetafix_N5e7_DensCloud_01879200.png2012-01-10 12:12 19K 
[IMG]CS1_50kmx20km-fall-loading-thetafix_N5e7_VelZ_00795600.png2012-01-10 12:10 19K 
[IMG]CS1_50kmx20km-fall-loading-thetafix_N5e7_VelZ_01198800.png2012-01-10 12:12 19K 
[IMG]CS1_50kmx20km-fall-loading-thetafix_N5e7_DensCloud_01303200.png2012-01-10 12:12 19K 
[IMG]CS1_50kmx20km-fall-loading-thetafix_N5e7_DensCloud_00144000.png2012-01-10 12:08 19K 
[IMG]CS1_50kmx20km-fall-loading-thetafix_N5e7_DensCloud_01368000.png2012-01-10 12:12 19K 
[IMG]CS1_50kmx20km-fall-loading-thetafix_N5e7_VelZ_01126800.png2012-01-10 12:12 19K 
[IMG]CS1_50kmx20km-fall-loading-thetafix_N5e7_DensCloud_02239200.png2012-01-10 12:14 19K 
[IMG]CS1_50kmx20km-fall-loading-thetafix_N5e7_VelZ_01746000.png2012-01-10 12:14 19K 
[IMG]CS1_50kmx20km-fall-loading-thetafix_N5e7_DensCloud_02347200.png2012-01-10 12:15 19K 
[IMG]CS1_50kmx20km-fall-loading-thetafix_N5e7_VelZ_01717200.png2012-01-10 12:14 19K 
[IMG]CS1_50kmx20km-fall-loading-thetafix_N5e7_DensCloud_01245600.png2012-01-10 12:11 19K 
[IMG]CS1_50kmx20km-fall-loading-thetafix_N5e7_DensCloud_01771200.png2012-01-10 12:12 19K 
[IMG]CS1_50kmx20km-fall-loading-thetafix_N5e7_VelZ_01382400.png2012-01-10 12:14 19K 
[IMG]CS1_50kmx20km-fall-loading-thetafix_N5e7_VelZ_02282400.png2012-01-10 12:16 19K 
[IMG]CS1_50kmx20km-fall-loading-thetafix_N5e7_VelZ_01864800.png2012-01-10 12:14 19K 
[IMG]CS1_50kmx20km-fall-loading-thetafix_N5e7_VelZ_00309600.png2012-01-10 12:09 19K 
[IMG]CS1_50kmx20km-fall-loading-thetafix_N5e7_DensCloud_01893600.png2012-01-10 12:12 19K 
[IMG]CS1_50kmx20km-fall-loading-thetafix_N5e7_DensCloud_00576000.png2012-01-10 12:08 19K 
[IMG]CS1_50kmx20km-fall-loading-thetafix_N5e7_VelZ_01440000.png2012-01-10 12:14 19K 
[IMG]CS1_50kmx20km-fall-loading-thetafix_N5e7_DensCloud_01728000.png2012-01-10 12:12 19K 
[IMG]CS1_50kmx20km-fall-loading-thetafix_N5e7_VelZ_01551600.png2012-01-10 12:14 19K 
[IMG]CS1_50kmx20km-fall-loading-thetafix_N5e7_DensCloud_01648800.png2012-01-10 12:12 19K 
[IMG]CS1_50kmx20km-fall-loading-thetafix_N5e7_VelZ_00802800.png2012-01-10 12:10 19K 
[IMG]CS1_50kmx20km-fall-loading-thetafix_N5e7_VelZ_01328400.png2012-01-10 12:14 19K 
[IMG]CS1_50kmx20km-fall-loading-thetafix_N5e7_VelZ_02368800.png2012-01-10 12:16 19K 
[IMG]CS1_50kmx20km-fall-loading-thetafix_N5e7_DensCloud_00835200.png2012-01-10 12:09 19K 
[IMG]CS1_50kmx20km-fall-loading-thetafix_N5e7_DensCloud_01504800.png2012-01-10 12:12 19K 
[IMG]CS1_50kmx20km-fall-loading-thetafix_N5e7_DensCloud_01260000.png2012-01-10 12:11 19K 
[IMG]CS1_50kmx20km-fall-loading-thetafix_N5e7_VelZ_01036800.png2012-01-10 12:12 19K 
[IMG]CS1_50kmx20km-fall-loading-thetafix_N5e7_VelZ_01800000.png2012-01-10 12:14 19K 
[IMG]CS1_50kmx20km-fall-loading-thetafix_N5e7_VelZ_02264400.png2012-01-10 12:16 19K 
[IMG]CS1_50kmx20km-fall-loading-thetafix_N5e7_DensCloud_01011600.png2012-01-10 12:10 19K 
[IMG]CS1_50kmx20km-fall-loading-thetafix_N5e7_DensCloud_01904400.png2012-01-10 12:12 19K 
[IMG]CS1_50kmx20km-fall-loading-thetafix_N5e7_DensCloud_02019600.png2012-01-10 12:12 19K 
[IMG]CS1_50kmx20km-fall-loading-thetafix_N5e7_VelZ_01386000.png2012-01-10 12:14 19K 
[IMG]CS1_50kmx20km-fall-loading-thetafix_N5e7_VelZ_01785600.png2012-01-10 12:14 19K 
[IMG]CS1_50kmx20km-fall-loading-thetafix_N5e7_VelZ_02415600.png2012-01-10 12:16 19K 
[IMG]CS1_50kmx20km-fall-loading-thetafix_N5e7_DensCloud_01476000.png2012-01-10 12:12 19K 
[IMG]CS1_50kmx20km-fall-loading-thetafix_N5e7_VelZ_00583200.png2012-01-10 12:10 19K 
[IMG]CS1_50kmx20km-fall-loading-thetafix_N5e7_DensCloud_01360800.png2012-01-10 12:12 19K 
[IMG]CS1_50kmx20km-fall-loading-thetafix_N5e7_DensCloud_01425600.png2012-01-10 12:12 19K 
[IMG]CS1_50kmx20km-fall-loading-thetafix_N5e7_DensCloud_02412000.png2012-01-10 12:15 19K 
[IMG]CS1_50kmx20km-fall-loading-thetafix_N5e7_VelZ_01022400.png2012-01-10 12:12 19K 
[IMG]CS1_50kmx20km-fall-loading-thetafix_N5e7_DensCloud_00871200.png2012-01-10 12:10 19K 
[IMG]CS1_50kmx20km-fall-loading-thetafix_N5e7_DensCloud_01908000.png2012-01-10 12:12 19K 
[IMG]CS1_50kmx20km-fall-loading-thetafix_N5e7_VelZ_00090000.png2012-01-10 12:09 19K 
[IMG]CS1_50kmx20km-fall-loading-thetafix_N5e7_DensCloud_01443600.png2012-01-10 12:12 19K 
[IMG]CS1_50kmx20km-fall-loading-thetafix_N5e7_DensCloud_02401200.png2012-01-10 12:15 19K 
[IMG]CS1_50kmx20km-fall-loading-thetafix_N5e7_VelZ_01483200.png2012-01-10 12:14 19K 
[IMG]CS1_50kmx20km-fall-loading-thetafix_N5e7_VelZ_02534400.png2012-01-10 12:16 19K 
[IMG]CS1_50kmx20km-fall-loading-thetafix_N5e7_DensCloud_00309600.png2012-01-10 12:08 19K 
[IMG]CS1_50kmx20km-fall-loading-thetafix_N5e7_DensCloud_00932400.png2012-01-10 12:10 19K 
[IMG]CS1_50kmx20km-fall-loading-thetafix_N5e7_DensCloud_01454400.png2012-01-10 12:12 19K 
[IMG]CS1_50kmx20km-fall-loading-thetafix_N5e7_DensCloud_01976400.png2012-01-10 12:12 19K 
[IMG]CS1_50kmx20km-fall-loading-thetafix_N5e7_VelZ_00198000.png2012-01-10 12:09 19K 
[IMG]CS1_50kmx20km-fall-loading-thetafix_N5e7_VelZ_00576000.png2012-01-10 12:10 19K 
[IMG]CS1_50kmx20km-fall-loading-thetafix_N5e7_DensCloud_01609200.png2012-01-10 12:12 19K 
[IMG]CS1_50kmx20km-fall-loading-thetafix_N5e7_VelZ_02347200.png2012-01-10 12:16 19K 
[IMG]CS1_50kmx20km-fall-loading-thetafix_N5e7_VelZ_01792800.png2012-01-10 12:14 19K 
[IMG]CS1_50kmx20km-fall-loading-thetafix_N5e7_DensCloud_01591200.png2012-01-10 12:12 19K 
[IMG]CS1_50kmx20km-fall-loading-thetafix_N5e7_DensCloud_00864000.png2012-01-10 12:10 19K 
[IMG]CS1_50kmx20km-fall-loading-thetafix_N5e7_DensCloud_02271600.png2012-01-10 12:14 19K 
[IMG]CS1_50kmx20km-fall-loading-thetafix_N5e7_DensCloud_00356400.png2012-01-10 12:08 19K 
[IMG]CS1_50kmx20km-fall-loading-thetafix_N5e7_DensCloud_02394000.png2012-01-10 12:15 19K 
[IMG]CS1_50kmx20km-fall-loading-thetafix_N5e7_VelZ_01756800.png2012-01-10 12:14 19K 
[IMG]CS1_50kmx20km-fall-loading-thetafix_N5e7_DensCloud_00550800.png2012-01-10 12:08 19K 
[IMG]CS1_50kmx20km-fall-loading-thetafix_N5e7_VelZ_00064800.png2012-01-10 12:09 19K 
[IMG]CS1_50kmx20km-fall-loading-thetafix_N5e7_DensCloud_01616400.png2012-01-10 12:12 19K 
[IMG]CS1_50kmx20km-fall-loading-thetafix_N5e7_DensCloud_01623600.png2012-01-10 12:12 19K 
[IMG]CS1_50kmx20km-fall-loading-thetafix_N5e7_DensCloud_01753200.png2012-01-10 12:12 19K 
[IMG]CS1_50kmx20km-fall-loading-thetafix_N5e7_DensCloud_02156400.png2012-01-10 12:13 19K 
[IMG]CS1_50kmx20km-fall-loading-thetafix_N5e7_VelZ_02325600.png2012-01-10 12:16 19K 
[IMG]CS1_50kmx20km-fall-loading-thetafix_N5e7_VelZ_01674000.png2012-01-10 12:14 19K 
[IMG]CS1_50kmx20km-fall-loading-thetafix_N5e7_DensCloud_01238400.png2012-01-10 12:11 19K 
[IMG]CS1_50kmx20km-fall-loading-thetafix_N5e7_VelZ_00046800.png2012-01-10 12:09 19K 
[IMG]CS1_50kmx20km-fall-loading-thetafix_N5e7_VelZ_01220400.png2012-01-10 12:12 19K 
[IMG]CS1_50kmx20km-fall-loading-thetafix_N5e7_DensCloud_00831600.png2012-01-10 12:09 19K 
[IMG]CS1_50kmx20km-fall-loading-thetafix_N5e7_DensCloud_01587600.png2012-01-10 12:12 19K 
[IMG]CS1_50kmx20km-fall-loading-thetafix_N5e7_DensCloud_02340000.png2012-01-10 12:14 19K 
[IMG]CS1_50kmx20km-fall-loading-thetafix_N5e7_DensCloud_02343600.png2012-01-10 12:15 19K 
[IMG]CS1_50kmx20km-fall-loading-thetafix_N5e7_VelZ_01951200.png2012-01-10 12:14 19K 
[IMG]CS1_50kmx20km-fall-loading-thetafix_N5e7_VelZ_02109600.png2012-01-10 12:14 19K 
[IMG]CS1_50kmx20km-fall-loading-thetafix_N5e7_DensCloud_00846000.png2012-01-10 12:09 19K 
[IMG]CS1_50kmx20km-fall-loading-thetafix_N5e7_DensCloud_01994400.png2012-01-10 12:12 19K 
[IMG]CS1_50kmx20km-fall-loading-thetafix_N5e7_VelZ_00684000.png2012-01-10 12:10 19K 
[IMG]CS1_50kmx20km-fall-loading-thetafix_N5e7_DensCloud_00273600.png2012-01-10 12:08 19K 
[IMG]CS1_50kmx20km-fall-loading-thetafix_N5e7_VelZ_02412000.png2012-01-10 12:16 19K 
[IMG]CS1_50kmx20km-fall-loading-thetafix_N5e7_DensCloud_00525600.png2012-01-10 12:08 19K 
[IMG]CS1_50kmx20km-fall-loading-thetafix_N5e7_VelZ_02383200.png2012-01-10 12:16 19K 
[IMG]CS1_50kmx20km-fall-loading-thetafix_N5e7_DensCloud_01371600.png2012-01-10 12:12 19K 
[IMG]CS1_50kmx20km-fall-loading-thetafix_N5e7_VelZ_00882000.png2012-01-10 12:12 19K 
[IMG]CS1_50kmx20km-fall-loading-thetafix_N5e7_DensCloud_00928800.png2012-01-10 12:10 19K 
[IMG]CS1_50kmx20km-fall-loading-thetafix_N5e7_VelZ_02059200.png2012-01-10 12:14 19K 
[IMG]CS1_50kmx20km-fall-loading-thetafix_N5e7_VelZ_01771200.png2012-01-10 12:14 19K 
[IMG]CS1_50kmx20km-fall-loading-thetafix_N5e7_DensCloud_02152800.png2012-01-10 12:13 19K 
[IMG]CS1_50kmx20km-fall-loading-thetafix_N5e7_DensCloud_01954800.png2012-01-10 12:12 19K 
[IMG]CS1_50kmx20km-fall-loading-thetafix_N5e7_DensCloud_01548000.png2012-01-10 12:12 19K 
[IMG]CS1_50kmx20km-fall-loading-thetafix_N5e7_VelZ_01659600.png2012-01-10 12:14 19K 
[IMG]CS1_50kmx20km-fall-loading-thetafix_N5e7_VelZ_02088000.png2012-01-10 12:14 19K 
[IMG]CS1_50kmx20km-fall-loading-thetafix_N5e7_VelZ_00039600.png2012-01-10 12:09 19K 
[IMG]CS1_50kmx20km-fall-loading-thetafix_N5e7_VelZ_01897200.png2012-01-10 12:14 19K 
[IMG]CS1_50kmx20km-fall-loading-thetafix_N5e7_VelZ_02340000.png2012-01-10 12:16 19K 
[IMG]CS1_50kmx20km-fall-loading-thetafix_N5e7_VelZ_00777600.png2012-01-10 12:10 19K 
[IMG]CS1_50kmx20km-fall-loading-thetafix_N5e7_DensCloud_01206000.png2012-01-10 12:11 19K 
[IMG]CS1_50kmx20km-fall-loading-thetafix_N5e7_DensCloud_02048400.png2012-01-10 12:12 19K 
[IMG]CS1_50kmx20km-fall-loading-thetafix_N5e7_VelZ_01836000.png2012-01-10 12:14 19K 
[IMG]CS1_50kmx20km-fall-loading-thetafix_N5e7_VelZ_02091600.png2012-01-10 12:14 19K 
[IMG]CS1_50kmx20km-fall-loading-thetafix_N5e7_DensCloud_01929600.png2012-01-10 12:12 19K 
[IMG]CS1_50kmx20km-fall-loading-thetafix_N5e7_DensCloud_02455200.png2012-01-10 12:15 19K 
[IMG]CS1_50kmx20km-fall-loading-thetafix_N5e7_VelZ_02268000.png2012-01-10 12:16 19K 
[IMG]CS1_50kmx20km-fall-loading-thetafix_N5e7_VelZ_01008000.png2012-01-10 12:12 19K 
[IMG]CS1_50kmx20km-fall-loading-thetafix_N5e7_DensCloud_01378800.png2012-01-10 12:12 19K 
[IMG]CS1_50kmx20km-fall-loading-thetafix_N5e7_DensCloud_01429200.png2012-01-10 12:12 19K 
[IMG]CS1_50kmx20km-fall-loading-thetafix_N5e7_DensCloud_01299600.png2012-01-10 12:12 19K 
[IMG]CS1_50kmx20km-fall-loading-thetafix_N5e7_DensCloud_00046800.png2012-01-10 12:08 19K 
[IMG]CS1_50kmx20km-fall-loading-thetafix_N5e7_DensCloud_01357200.png2012-01-10 12:12 19K 
[IMG]CS1_50kmx20km-fall-loading-thetafix_N5e7_DensCloud_00885600.png2012-01-10 12:10 19K 
[IMG]CS1_50kmx20km-fall-loading-thetafix_N5e7_DensCloud_01972800.png2012-01-10 12:12 19K 
[IMG]CS1_50kmx20km-fall-loading-thetafix_N5e7_DensCloud_01213200.png2012-01-10 12:11 19K 
[IMG]CS1_50kmx20km-fall-loading-thetafix_N5e7_DensCloud_01695600.png2012-01-10 12:12 19K 
[IMG]CS1_50kmx20km-fall-loading-thetafix_N5e7_DensCloud_00691200.png2012-01-10 12:09 19K 
[IMG]CS1_50kmx20km-fall-loading-thetafix_N5e7_DensCloud_01447200.png2012-01-10 12:12 19K 
[IMG]CS1_50kmx20km-fall-loading-thetafix_N5e7_VelZ_01976400.png2012-01-10 12:14 19K 
[IMG]CS1_50kmx20km-fall-loading-thetafix_N5e7_DensCloud_02016000.png2012-01-10 12:12 19K 
[IMG]CS1_50kmx20km-fall-loading-thetafix_N5e7_DensCloud_02242800.png2012-01-10 12:14 19K 
[IMG]CS1_50kmx20km-fall-loading-thetafix_N5e7_DensCloud_02296800.png2012-01-10 12:14 19K 
[IMG]CS1_50kmx20km-fall-loading-thetafix_N5e7_DensCloud_02109600.png2012-01-10 12:13 19K 
[IMG]CS1_50kmx20km-fall-loading-thetafix_N5e7_VelZ_02041200.png2012-01-10 12:14 19K 
[IMG]CS1_50kmx20km-fall-loading-thetafix_N5e7_DensCloud_01825200.png2012-01-10 12:12 19K 
[IMG]CS1_50kmx20km-fall-loading-thetafix_N5e7_DensCloud_01652400.png2012-01-10 12:12 19K 
[IMG]CS1_50kmx20km-fall-loading-thetafix_N5e7_VelZ_01231200.png2012-01-10 12:12 19K 
[IMG]CS1_50kmx20km-fall-loading-thetafix_N5e7_DensCloud_01324800.png2012-01-10 12:12 19K 
[IMG]CS1_50kmx20km-fall-loading-thetafix_N5e7_VelZ_01638000.png2012-01-10 12:14 19K 
[IMG]CS1_50kmx20km-fall-loading-thetafix_N5e7_DensCloud_02458800.png2012-01-10 12:15 19K 
[IMG]CS1_50kmx20km-fall-loading-thetafix_N5e7_VelZ_00939600.png2012-01-10 12:12 19K 
[IMG]CS1_50kmx20km-fall-loading-thetafix_N5e7_VelZ_02253600.png2012-01-10 12:16 19K 
[IMG]CS1_50kmx20km-fall-loading-thetafix_N5e7_DensCloud_01022400.png2012-01-10 12:10 19K 
[IMG]CS1_50kmx20km-fall-loading-thetafix_N5e7_DensCloud_02232000.png2012-01-10 12:14 19K 
[IMG]CS1_50kmx20km-fall-loading-thetafix_N5e7_VelZ_00781200.png2012-01-10 12:10 19K 
[IMG]CS1_50kmx20km-fall-loading-thetafix_N5e7_VelZ_02005200.png2012-01-10 12:14 19K 
[IMG]CS1_50kmx20km-fall-loading-thetafix_N5e7_VelZ_00043200.png2012-01-10 12:09 19K 
[IMG]CS1_50kmx20km-fall-loading-thetafix_N5e7_VelZ_00745200.png2012-01-10 12:10 19K 
[IMG]CS1_50kmx20km-fall-loading-thetafix_N5e7_VelZ_01292400.png2012-01-10 12:12 19K 
[IMG]CS1_50kmx20km-fall-loading-thetafix_N5e7_DensCloud_01382400.png2012-01-10 12:12 19K 
[IMG]CS1_50kmx20km-fall-loading-thetafix_N5e7_VelZ_00691200.png2012-01-10 12:10 19K 
[IMG]CS1_50kmx20km-fall-loading-thetafix_N5e7_VelZ_01699200.png2012-01-10 12:14 19K 
[IMG]CS1_50kmx20km-fall-loading-thetafix_N5e7_DensCloud_02257200.png2012-01-10 12:14 19K 
[IMG]CS1_50kmx20km-fall-loading-thetafix_N5e7_VelZ_00914400.png2012-01-10 12:12 19K 
[IMG]CS1_50kmx20km-fall-loading-thetafix_N5e7_VelZ_00637200.png2012-01-10 12:10 19K 
[IMG]CS1_50kmx20km-fall-loading-thetafix_N5e7_DensCloud_01465200.png2012-01-10 12:12 19K 
[IMG]CS1_50kmx20km-fall-loading-thetafix_N5e7_DensCloud_01936800.png2012-01-10 12:12 19K 
[IMG]CS1_50kmx20km-fall-loading-thetafix_N5e7_DensCloud_01242000.png2012-01-10 12:11 19K 
[IMG]CS1_50kmx20km-fall-loading-thetafix_N5e7_VelZ_01594800.png2012-01-10 12:14 19K 
[IMG]CS1_50kmx20km-fall-loading-thetafix_N5e7_VelZ_01918800.png2012-01-10 12:14 19K 
[IMG]CS1_50kmx20km-fall-loading-thetafix_N5e7_VelZ_00601200.png2012-01-10 12:10 19K 
[IMG]CS1_50kmx20km-fall-loading-thetafix_N5e7_VelZ_00727200.png2012-01-10 12:10 19K 
[IMG]CS1_50kmx20km-fall-loading-thetafix_N5e7_VelZ_02466000.png2012-01-10 12:16 19K 
[IMG]CS1_50kmx20km-fall-loading-thetafix_N5e7_VelZ_02455200.png2012-01-10 12:16 19K 
[IMG]CS1_50kmx20km-fall-loading-thetafix_N5e7_DensCloud_01317600.png2012-01-10 12:12 19K 
[IMG]CS1_50kmx20km-fall-loading-thetafix_N5e7_VelZ_02444400.png2012-01-10 12:16 19K 
[IMG]CS1_50kmx20km-fall-loading-thetafix_N5e7_VelZ_00061200.png2012-01-10 12:09 19K 
[IMG]CS1_50kmx20km-fall-loading-thetafix_N5e7_VelZ_02113200.png2012-01-10 12:14 19K 
[IMG]CS1_50kmx20km-fall-loading-thetafix_N5e7_VelZ_01357200.png2012-01-10 12:14 19K 
[IMG]CS1_50kmx20km-fall-loading-thetafix_N5e7_VelZ_01825200.png2012-01-10 12:14 19K 
[IMG]CS1_50kmx20km-fall-loading-thetafix_N5e7_VelZ_01422000.png2012-01-10 12:14 19K 
[IMG]CS1_50kmx20km-fall-loading-thetafix_N5e7_DensCloud_00108000.png2012-01-10 12:08 19K 
[IMG]CS1_50kmx20km-fall-loading-thetafix_N5e7_DensCloud_01422000.png2012-01-10 12:12 19K 
[IMG]CS1_50kmx20km-fall-loading-thetafix_N5e7_DensCloud_02426400.png2012-01-10 12:15 19K 
[IMG]CS1_50kmx20km-fall-loading-thetafix_N5e7_DensCloud_01818000.png2012-01-10 12:12 19K 
[IMG]CS1_50kmx20km-fall-loading-thetafix_N5e7_VelZ_02026800.png2012-01-10 12:14 19K 
[IMG]CS1_50kmx20km-fall-loading-thetafix_N5e7_VelZ_00766800.png2012-01-10 12:10 19K 
[IMG]CS1_50kmx20km-fall-loading-thetafix_N5e7_VelZ_00522000.png2012-01-10 12:10 19K 
[IMG]CS1_50kmx20km-fall-loading-thetafix_N5e7_VelZ_01047600.png2012-01-10 12:12 19K 
[IMG]CS1_50kmx20km-fall-loading-thetafix_N5e7_VelZ_02246400.png2012-01-10 12:16 19K 
[IMG]CS1_50kmx20km-fall-loading-thetafix_N5e7_DensCloud_01191600.png2012-01-10 12:11 19K 
[IMG]CS1_50kmx20km-fall-loading-thetafix_N5e7_DensCloud_01209600.png2012-01-10 12:11 19K 
[IMG]CS1_50kmx20km-fall-loading-thetafix_N5e7_DensCloud_02221200.png2012-01-10 12:14 19K 
[IMG]CS1_50kmx20km-fall-loading-thetafix_N5e7_VelZ_02296800.png2012-01-10 12:16 19K 
[IMG]CS1_50kmx20km-fall-loading-thetafix_N5e7_DensCloud_01188000.png2012-01-10 12:11 19K 
[IMG]CS1_50kmx20km-fall-loading-thetafix_N5e7_DensCloud_00637200.png2012-01-10 12:08 19K 
[IMG]CS1_50kmx20km-fall-loading-thetafix_N5e7_VelZ_01774800.png2012-01-10 12:14 19K 
[IMG]CS1_50kmx20km-fall-loading-thetafix_N5e7_VelZ_00226800.png2012-01-10 12:09 19K 
[IMG]CS1_50kmx20km-fall-loading-thetafix_N5e7_VelZ_01983600.png2012-01-10 12:14 19K 
[IMG]CS1_50kmx20km-fall-loading-thetafix_N5e7_DensCloud_01800000.png2012-01-10 12:12 19K 
[IMG]CS1_50kmx20km-fall-loading-thetafix_N5e7_DensCloud_00684000.png2012-01-10 12:09 19K 
[IMG]CS1_50kmx20km-fall-loading-thetafix_N5e7_DensCloud_00547200.png2012-01-10 12:08 19K 
[IMG]CS1_50kmx20km-fall-loading-thetafix_N5e7_DensCloud_01688400.png2012-01-10 12:12 19K 
[IMG]CS1_50kmx20km-fall-loading-thetafix_N5e7_VelZ_01695600.png2012-01-10 12:14 19K 
[IMG]CS1_50kmx20km-fall-loading-thetafix_N5e7_VelZ_02584800.png2012-01-10 12:16 19K 
[IMG]CS1_50kmx20km-fall-loading-thetafix_N5e7_VelZ_00820800.png2012-01-10 12:10 19K 
[IMG]CS1_50kmx20km-fall-loading-thetafix_N5e7_VelZ_01926000.png2012-01-10 12:14 19K 
[IMG]CS1_50kmx20km-fall-loading-thetafix_N5e7_DensCloud_01227600.png2012-01-10 12:11 19K 
[IMG]CS1_50kmx20km-fall-loading-thetafix_N5e7_DensCloud_01432800.png2012-01-10 12:12 19K 
[IMG]CS1_50kmx20km-fall-loading-thetafix_N5e7_VelZ_02095200.png2012-01-10 12:14 19K 
[IMG]CS1_50kmx20km-fall-loading-thetafix_N5e7_DensCloud_01641600.png2012-01-10 12:12 19K 
[IMG]CS1_50kmx20km-fall-loading-thetafix_N5e7_VelZ_00475200.png2012-01-10 12:10 19K 
[IMG]CS1_50kmx20km-fall-loading-thetafix_N5e7_DensCloud_01044000.png2012-01-10 12:10 19K 
[IMG]CS1_50kmx20km-fall-loading-thetafix_N5e7_VelZ_01364400.png2012-01-10 12:14 19K 
[IMG]CS1_50kmx20km-fall-loading-thetafix_N5e7_DensCloud_01054800.png2012-01-10 12:10 19K 
[IMG]CS1_50kmx20km-fall-loading-thetafix_N5e7_VelX_00003600.png2012-01-10 12:09 19K 
[IMG]CS1_50kmx20km-fall-loading-thetafix_N5e7_VelZ_02343600.png2012-01-10 12:16 19K 
[IMG]CS1_50kmx20km-fall-loading-thetafix_N5e7_DensCloud_01411200.png2012-01-10 12:12 19K 
[IMG]CS1_50kmx20km-fall-loading-thetafix_N5e7_DensCloud_01836000.png2012-01-10 12:12 19K 
[IMG]CS1_50kmx20km-fall-loading-thetafix_N5e7_DensCloud_01756800.png2012-01-10 12:12 19K 
[IMG]CS1_50kmx20km-fall-loading-thetafix_N5e7_DensCloud_01184400.png2012-01-10 12:11 19K 
[IMG]CS1_50kmx20km-fall-loading-thetafix_N5e7_VelZ_01555200.png2012-01-10 12:14 19K 
[IMG]CS1_50kmx20km-fall-loading-thetafix_N5e7_VelZ_02073600.png2012-01-10 12:14 19K 
[IMG]CS1_50kmx20km-fall-loading-thetafix_N5e7_DensCloud_00608400.png2012-01-10 12:08 19K 
[IMG]CS1_50kmx20km-fall-loading-thetafix_N5e7_VelZ_01821600.png2012-01-10 12:14 19K 
[IMG]CS1_50kmx20km-fall-loading-thetafix_N5e7_DensCloud_01278000.png2012-01-10 12:11 19K 
[IMG]CS1_50kmx20km-fall-loading-thetafix_N5e7_VelZ_00349200.png2012-01-10 12:09 19K 
[IMG]CS1_50kmx20km-fall-loading-thetafix_N5e7_DensCloud_02170800.png2012-01-10 12:14 19K 
[IMG]CS1_50kmx20km-fall-loading-thetafix_N5e7_PotTempDev_00003600.png2012-01-10 12:08 19K 
[IMG]CS1_50kmx20km-fall-loading-thetafix_N5e7_VelZ_02300400.png2012-01-10 12:16 19K 
[IMG]CS1_50kmx20km-fall-loading-thetafix_N5e7_DensCloud_01598400.png2012-01-10 12:12 19K 
[IMG]CS1_50kmx20km-fall-loading-thetafix_N5e7_VelZ_02145600.png2012-01-10 12:14 19K 
[IMG]CS1_50kmx20km-fall-loading-thetafix_N5e7_VelZ_02574000.png2012-01-10 12:16 19K 
[IMG]CS1_50kmx20km-fall-loading-thetafix_N5e7_DensCloud_00939600.png2012-01-10 12:10 19K 
[IMG]CS1_50kmx20km-fall-loading-thetafix_N5e7_DensCloud_02390400.png2012-01-10 12:15 19K 
[IMG]CS1_50kmx20km-fall-loading-thetafix_N5e7_VelZ_00770400.png2012-01-10 12:10 19K 
[IMG]CS1_50kmx20km-fall-loading-thetafix_N5e7_DensCloud_02592000.png2012-01-10 12:15 19K 
[IMG]CS1_50kmx20km-fall-loading-thetafix_N5e7_VelZ_00885600.png2012-01-10 12:12 19K 
[IMG]CS1_50kmx20km-fall-loading-thetafix_N5e7_DensCloud_01872000.png2012-01-10 12:12 19K 
[IMG]CS1_50kmx20km-fall-loading-thetafix_N5e7_DensCloud_02386800.png2012-01-10 12:15 19K 
[IMG]CS1_50kmx20km-fall-loading-thetafix_N5e7_DensCloud_02160000.png2012-01-10 12:14 19K 
[IMG]CS1_50kmx20km-fall-loading-thetafix_N5e7_VelZ_00590400.png2012-01-10 12:10 19K 
[IMG]CS1_50kmx20km-fall-loading-thetafix_N5e7_VelZ_01947600.png2012-01-10 12:14 19K 
[IMG]CS1_50kmx20km-fall-loading-thetafix_N5e7_DensCloud_02311200.png2012-01-10 12:14 19K 
[IMG]CS1_50kmx20km-fall-loading-thetafix_N5e7_DensCloud_02448000.png2012-01-10 12:15 19K 
[IMG]CS1_50kmx20km-fall-loading-thetafix_N5e7_VelZ_00896400.png2012-01-10 12:12 19K 
[IMG]CS1_50kmx20km-fall-loading-thetafix_N5e7_VelZ_00972000.png2012-01-10 12:12 19K 
[IMG]CS1_50kmx20km-fall-loading-thetafix_N5e7_DensCloud_01767600.png2012-01-10 12:12 19K 
[IMG]CS1_50kmx20km-fall-loading-thetafix_N5e7_DensCloud_01789200.png2012-01-10 12:12 19K 
[IMG]CS1_50kmx20km-fall-loading-thetafix_N5e7_VelZ_01789200.png2012-01-10 12:14 19K 
[IMG]CS1_50kmx20km-fall-loading-thetafix_N5e7_VelZ_01688400.png2012-01-10 12:14 19K 
[IMG]CS1_50kmx20km-fall-loading-thetafix_N5e7_DensCloud_01915200.png2012-01-10 12:12 19K 
[IMG]CS1_50kmx20km-fall-loading-thetafix_N5e7_DensCloud_02174400.png2012-01-10 12:14 19K 
[IMG]CS1_50kmx20km-fall-loading-thetafix_N5e7_VelZ_01180800.png2012-01-10 12:12 19K 
[IMG]CS1_50kmx20km-fall-loading-thetafix_N5e7_DensCloud_00522000.png2012-01-10 12:08 19K 
[IMG]CS1_50kmx20km-fall-loading-thetafix_N5e7_VelZ_02577600.png2012-01-10 12:16 19K 
[IMG]CS1_50kmx20km-fall-loading-thetafix_N5e7_DensCloud_01069200.png2012-01-10 12:10 19K 
[IMG]CS1_50kmx20km-fall-loading-thetafix_N5e7_DensCloud_01119600.png2012-01-10 12:11 19K 
[IMG]CS1_50kmx20km-fall-loading-thetafix_N5e7_DensCloud_01922400.png2012-01-10 12:12 19K 
[IMG]CS1_50kmx20km-fall-loading-thetafix_N5e7_DensCloud_01015200.png2012-01-10 12:10 19K 
[IMG]CS1_50kmx20km-fall-loading-thetafix_N5e7_DensCloud_00619200.png2012-01-10 12:08 19K 
[IMG]CS1_50kmx20km-fall-loading-thetafix_N5e7_DensCloud_02404800.png2012-01-10 12:15 19K 
[IMG]CS1_50kmx20km-fall-loading-thetafix_N5e7_DensCloud_01346400.png2012-01-10 12:12 19K 
[IMG]CS1_50kmx20km-fall-loading-thetafix_N5e7_DensCloud_02480400.png2012-01-10 12:15 19K 
[IMG]CS1_50kmx20km-fall-loading-thetafix_N5e7_VelZ_01195200.png2012-01-10 12:12 19K 
[IMG]CS1_50kmx20km-fall-loading-thetafix_N5e7_VelZ_00910800.png2012-01-10 12:12 19K 
[IMG]CS1_50kmx20km-fall-loading-thetafix_N5e7_DensCloud_01731600.png2012-01-10 12:12 19K 
[IMG]CS1_50kmx20km-fall-loading-thetafix_N5e7_VelZ_00871200.png2012-01-10 12:12 19K 
[IMG]CS1_50kmx20km-fall-loading-thetafix_N5e7_DensCloud_02358000.png2012-01-10 12:15 19K 
[IMG]CS1_50kmx20km-fall-loading-thetafix_N5e7_VelZ_00482400.png2012-01-10 12:10 19K 
[IMG]CS1_50kmx20km-fall-loading-thetafix_N5e7_VelZ_01962000.png2012-01-10 12:14 19K 
[IMG]CS1_50kmx20km-fall-loading-thetafix_N5e7_DensCloud_02523600.png2012-01-10 12:15 19K 
[IMG]CS1_50kmx20km-fall-loading-thetafix_N5e7_DensCloud_02520000.png2012-01-10 12:15 19K 
[IMG]CS1_50kmx20km-fall-loading-thetafix_N5e7_VelZ_02181600.png2012-01-10 12:16 19K 
[IMG]CS1_50kmx20km-fall-loading-thetafix_N5e7_DensCloud_00900000.png2012-01-10 12:10 19K 
[IMG]CS1_50kmx20km-fall-loading-thetafix_N5e7_DensCloud_01281600.png2012-01-10 12:11 19K 
[IMG]CS1_50kmx20km-fall-loading-thetafix_N5e7_VelZ_00327600.png2012-01-10 12:09 19K 
[IMG]CS1_50kmx20km-fall-loading-thetafix_N5e7_DensCloud_02127600.png2012-01-10 12:13 19K 
[IMG]CS1_50kmx20km-fall-loading-thetafix_N5e7_DensCloud_00946800.png2012-01-10 12:10 19K 
[IMG]CS1_50kmx20km-fall-loading-thetafix_N5e7_DensCloud_00558000.png2012-01-10 12:08 19K 
[IMG]CS1_50kmx20km-fall-loading-thetafix_N5e7_DensCloud_02300400.png2012-01-10 12:14 19K 
[IMG]CS1_50kmx20km-fall-loading-thetafix_N5e7_DensCloud_00612000.png2012-01-10 12:08 19K 
[IMG]CS1_50kmx20km-fall-loading-thetafix_N5e7_VelZ_01936800.png2012-01-10 12:14 19K 
[IMG]CS1_50kmx20km-fall-loading-thetafix_N5e7_VelZ_00190800.png2012-01-10 12:09 19K 
[IMG]CS1_50kmx20km-fall-loading-thetafix_N5e7_VelZ_00853200.png2012-01-10 12:10 19K 
[IMG]CS1_50kmx20km-fall-loading-thetafix_N5e7_DensCloud_01558800.png2012-01-10 12:12 19K 
[IMG]CS1_50kmx20km-fall-loading-thetafix_N5e7_VelZ_01368000.png2012-01-10 12:14 19K 
[IMG]CS1_50kmx20km-fall-loading-thetafix_N5e7_DensCloud_00756000.png2012-01-10 12:09 19K 
[IMG]CS1_50kmx20km-fall-loading-thetafix_N5e7_DensCloud_02451600.png2012-01-10 12:15 19K 
[IMG]CS1_50kmx20km-fall-loading-thetafix_N5e7_DensCloud_01638000.png2012-01-10 12:12 19K 
[IMG]CS1_50kmx20km-fall-loading-thetafix_N5e7_DensCloud_01785600.png2012-01-10 12:12 19K 
[IMG]CS1_50kmx20km-fall-loading-thetafix_N5e7_VelZ_01274400.png2012-01-10 12:12 19K 
[IMG]CS1_50kmx20km-fall-loading-thetafix_N5e7_VelZ_01702800.png2012-01-10 12:14 19K 
[IMG]CS1_50kmx20km-fall-loading-thetafix_N5e7_DensCloud_00597600.png2012-01-10 12:08 19K 
[IMG]CS1_50kmx20km-fall-loading-thetafix_N5e7_DensCloud_00579600.png2012-01-10 12:08 19K 
[IMG]CS1_50kmx20km-fall-loading-thetafix_N5e7_DensCloud_01418400.png2012-01-10 12:12 19K 
[IMG]CS1_50kmx20km-fall-loading-thetafix_N5e7_DensCloud_01450800.png2012-01-10 12:12 19K 
[IMG]CS1_50kmx20km-fall-loading-thetafix_N5e7_VelZ_02224800.png2012-01-10 12:16 19K 
[IMG]CS1_50kmx20km-fall-loading-thetafix_N5e7_DensCloud_01407600.png2012-01-10 12:12 19K 
[IMG]CS1_50kmx20km-fall-loading-thetafix_N5e7_DensCloud_01774800.png2012-01-10 12:12 19K 
[IMG]CS1_50kmx20km-fall-loading-thetafix_N5e7_VelZ_00608400.png2012-01-10 12:10 19K 
[IMG]CS1_50kmx20km-fall-loading-thetafix_N5e7_DensCloud_02538000.png2012-01-10 12:15 19K 
[IMG]CS1_50kmx20km-fall-loading-thetafix_N5e7_VelZ_00396000.png2012-01-10 12:09 19K 
[IMG]CS1_50kmx20km-fall-loading-thetafix_N5e7_VelZ_00144000.png2012-01-10 12:09 19K 
[IMG]CS1_50kmx20km-fall-loading-thetafix_N5e7_DensCloud_01252800.png2012-01-10 12:11 19K 
[IMG]CS1_50kmx20km-fall-loading-thetafix_N5e7_DensCloud_02397600.png2012-01-10 12:15 19K 
[IMG]CS1_50kmx20km-fall-loading-thetafix_N5e7_DensCloud_02235600.png2012-01-10 12:14 19K 
[IMG]CS1_50kmx20km-fall-loading-thetafix_N5e7_VelZ_00529200.png2012-01-10 12:10 19K 
[IMG]CS1_50kmx20km-fall-loading-thetafix_N5e7_VelZ_01238400.png2012-01-10 12:12 19K 
[IMG]CS1_50kmx20km-fall-loading-thetafix_N5e7_VelZ_02311200.png2012-01-10 12:16 19K 
[IMG]CS1_50kmx20km-fall-loading-thetafix_N5e7_VelZ_01224000.png2012-01-10 12:12 19K 
[IMG]CS1_50kmx20km-fall-loading-thetafix_N5e7_DensCloud_02217600.png2012-01-10 12:14 19K 
[IMG]CS1_50kmx20km-fall-loading-thetafix_N5e7_VelZ_02419200.png2012-01-10 12:16 19K 
[IMG]CS1_50kmx20km-fall-loading-thetafix_N5e7_VelZ_01965600.png2012-01-10 12:14 19K 
[IMG]CS1_50kmx20km-fall-loading-thetafix_N5e7_VelZ_02318400.png2012-01-10 12:16 19K 
[IMG]CS1_50kmx20km-fall-loading-thetafix_N5e7_VelZ_01152000.png2012-01-10 12:12 19K 
[IMG]CS1_50kmx20km-fall-loading-thetafix_N5e7_VelZ_00676800.png2012-01-10 12:10 19K 
[IMG]CS1_50kmx20km-fall-loading-thetafix_N5e7_DensCloud_00147600.png2012-01-10 12:08 19K 
[IMG]CS1_50kmx20km-fall-loading-thetafix_N5e7_DensCloud_00352800.png2012-01-10 12:08 19K 
[IMG]CS1_50kmx20km-fall-loading-thetafix_N5e7_DensCloud_02325600.png2012-01-10 12:14 19K 
[IMG]CS1_50kmx20km-fall-loading-thetafix_N5e7_DensCloud_00504000.png2012-01-10 12:08 19K 
[IMG]CS1_50kmx20km-fall-loading-thetafix_N5e7_DensCloud_00615600.png2012-01-10 12:08 19K 
[IMG]CS1_50kmx20km-fall-loading-thetafix_N5e7_VelZ_00118800.png2012-01-10 12:09 19K 
[IMG]CS1_50kmx20km-fall-loading-thetafix_N5e7_DensCloud_00882000.png2012-01-10 12:10 19K 
[IMG]CS1_50kmx20km-fall-loading-thetafix_N5e7_DensCloud_00187200.png2012-01-10 12:08 19K 
[IMG]CS1_50kmx20km-fall-loading-thetafix_N5e7_DensCloud_00709200.png2012-01-10 12:09 19K 
[IMG]CS1_50kmx20km-fall-loading-thetafix_N5e7_VelZ_00291600.png2012-01-10 12:09 19K 
[IMG]CS1_50kmx20km-fall-loading-thetafix_N5e7_DensCloud_00777600.png2012-01-10 12:09 19K 
[IMG]CS1_50kmx20km-fall-loading-thetafix_N5e7_DensCloud_00867600.png2012-01-10 12:10 19K 
[IMG]CS1_50kmx20km-fall-loading-thetafix_N5e7_VelZ_00050400.png2012-01-10 12:09 19K 
[IMG]CS1_50kmx20km-fall-loading-thetafix_N5e7_DensCloud_01008000.png2012-01-10 12:10 19K 
[IMG]CS1_50kmx20km-fall-loading-thetafix_N5e7_DensCloud_02383200.png2012-01-10 12:15 19K 
[IMG]CS1_50kmx20km-fall-loading-thetafix_N5e7_VelZ_01029600.png2012-01-10 12:12 19K 
[IMG]CS1_50kmx20km-fall-loading-thetafix_N5e7_DensCloud_00622800.png2012-01-10 12:08 19K 
[IMG]CS1_50kmx20km-fall-loading-thetafix_N5e7_VelZ_00111600.png2012-01-10 12:09 19K 
[IMG]CS1_50kmx20km-fall-loading-thetafix_N5e7_VelZ_02458800.png2012-01-10 12:16 19K 
[IMG]CS1_50kmx20km-fall-loading-thetafix_N5e7_DensCloud_02116800.png2012-01-10 12:13 19K 
[IMG]CS1_50kmx20km-fall-loading-thetafix_N5e7_DensCloud_02293200.png2012-01-10 12:14 19K 
[IMG]CS1_50kmx20km-fall-loading-thetafix_N5e7_VelZ_00946800.png2012-01-10 12:12 19K 
[IMG]CS1_50kmx20km-fall-loading-thetafix_N5e7_DensCloud_01047600.png2012-01-10 12:10 19K 
[IMG]CS1_50kmx20km-fall-loading-thetafix_N5e7_VelZ_01260000.png2012-01-10 12:12 19K 
[IMG]CS1_50kmx20km-fall-loading-thetafix_N5e7_DensCloud_01814400.png2012-01-10 12:12 19K 
[IMG]CS1_50kmx20km-fall-loading-thetafix_N5e7_DensCloud_02250000.png2012-01-10 12:14 19K 
[IMG]CS1_50kmx20km-fall-loading-thetafix_N5e7_VelZ_01566000.png2012-01-10 12:14 19K 
[IMG]CS1_50kmx20km-fall-loading-thetafix_N5e7_DensCloud_00241200.png2012-01-10 12:08 19K 
[IMG]CS1_50kmx20km-fall-loading-thetafix_N5e7_VelZ_01249200.png2012-01-10 12:12 19K 
[IMG]CS1_50kmx20km-fall-loading-thetafix_N5e7_DensCloud_02167200.png2012-01-10 12:14 19K 
[IMG]CS1_50kmx20km-fall-loading-thetafix_N5e7_DensCloud_01494000.png2012-01-10 12:12 19K 
[IMG]CS1_50kmx20km-fall-loading-thetafix_N5e7_DensCloud_02286000.png2012-01-10 12:14 19K 
[IMG]CS1_50kmx20km-fall-loading-thetafix_N5e7_DensCloud_01677600.png2012-01-10 12:12 19K 
[IMG]CS1_50kmx20km-fall-loading-thetafix_N5e7_DensCloud_00990000.png2012-01-10 12:10 19K 
[IMG]CS1_50kmx20km-fall-loading-thetafix_N5e7_VelZ_01753200.png2012-01-10 12:14 19K 
[IMG]CS1_50kmx20km-fall-loading-thetafix_N5e7_VelZ_02386800.png2012-01-10 12:16 19K 
[IMG]CS1_50kmx20km-fall-loading-thetafix_N5e7_DensCloud_00712800.png2012-01-10 12:09 19K 
[IMG]CS1_50kmx20km-fall-loading-thetafix_N5e7_VelZ_02192400.png2012-01-10 12:16 19K 
[IMG]CS1_50kmx20km-fall-loading-thetafix_N5e7_DensCloud_02030400.png2012-01-10 12:12 19K 
[IMG]CS1_50kmx20km-fall-loading-thetafix_N5e7_VelZ_01418400.png2012-01-10 12:14 19K 
[IMG]CS1_50kmx20km-fall-loading-thetafix_N5e7_VelZ_01526400.png2012-01-10 12:14 19K 
[IMG]CS1_50kmx20km-fall-loading-thetafix_N5e7_DensCloud_02246400.png2012-01-10 12:14 19K 
[IMG]CS1_50kmx20km-fall-loading-thetafix_N5e7_VelZ_02422800.png2012-01-10 12:16 19K 
[IMG]CS1_50kmx20km-fall-loading-thetafix_N5e7_DensCloud_02268000.png2012-01-10 12:14 19K 
[IMG]CS1_50kmx20km-fall-loading-thetafix_N5e7_DensCloud_01231200.png2012-01-10 12:11 19K 
[IMG]CS1_50kmx20km-fall-loading-thetafix_N5e7_DensCloud_01926000.png2012-01-10 12:12 19K 
[IMG]CS1_50kmx20km-fall-loading-thetafix_N5e7_DensCloud_02289600.png2012-01-10 12:14 19K 
[IMG]CS1_50kmx20km-fall-loading-thetafix_N5e7_VelZ_01242000.png2012-01-10 12:12 19K 
[IMG]CS1_50kmx20km-fall-loading-thetafix_N5e7_VelZ_01609200.png2012-01-10 12:14 19K 
[IMG]CS1_50kmx20km-fall-loading-thetafix_N5e7_DensCloud_01234800.png2012-01-10 12:11 19K 
[IMG]CS1_50kmx20km-fall-loading-thetafix_N5e7_VelZ_00151200.png2012-01-10 12:09 19K 
[IMG]CS1_50kmx20km-fall-loading-thetafix_N5e7_DensCloud_01267200.png2012-01-10 12:11 19K 
[IMG]CS1_50kmx20km-fall-loading-thetafix_N5e7_VelZ_00450000.png2012-01-10 12:10 19K 
[IMG]CS1_50kmx20km-fall-loading-thetafix_N5e7_DensCloud_00061200.png2012-01-10 12:08 19K 
[IMG]CS1_50kmx20km-fall-loading-thetafix_N5e7_DensCloud_01965600.png2012-01-10 12:12 19K 
[IMG]CS1_50kmx20km-fall-loading-thetafix_N5e7_DensCloud_01108800.png2012-01-10 12:10 19K 
[IMG]CS1_50kmx20km-fall-loading-thetafix_N5e7_DensCloud_01177200.png2012-01-10 12:11 19K 
[IMG]CS1_50kmx20km-fall-loading-thetafix_N5e7_VelZ_01040400.png2012-01-10 12:12 19K 
[IMG]CS1_50kmx20km-fall-loading-thetafix_N5e7_DensCloud_01969200.png2012-01-10 12:12 19K 
[IMG]CS1_50kmx20km-fall-loading-thetafix_N5e7_VelZ_02365200.png2012-01-10 12:16 19K 
[IMG]CS1_50kmx20km-fall-loading-thetafix_N5e7_DensCloud_01724400.png2012-01-10 12:12 19K 
[IMG]CS1_50kmx20km-fall-loading-thetafix_N5e7_VelZ_02390400.png2012-01-10 12:16 19K 
[IMG]CS1_50kmx20km-fall-loading-thetafix_N5e7_DensCloud_02181600.png2012-01-10 12:14 19K 
[IMG]CS1_50kmx20km-fall-loading-thetafix_N5e7_DensCloud_00223200.png2012-01-10 12:08 19K 
[IMG]CS1_50kmx20km-fall-loading-thetafix_N5e7_VelZ_00892800.png2012-01-10 12:12 19K 
[IMG]CS1_50kmx20km-fall-loading-thetafix_N5e7_DensCloud_00918000.png2012-01-10 12:10 19K 
[IMG]CS1_50kmx20km-fall-loading-thetafix_N5e7_VelZ_00694800.png2012-01-10 12:10 19K 
[IMG]CS1_50kmx20km-fall-loading-thetafix_N5e7_DensCloud_00651600.png2012-01-10 12:08 19K 
[IMG]CS1_50kmx20km-fall-loading-thetafix_N5e7_VelZ_00234000.png2012-01-10 12:09 19K 
[IMG]CS1_50kmx20km-fall-loading-thetafix_N5e7_DensCloud_00450000.png2012-01-10 12:08 19K 
[IMG]CS1_50kmx20km-fall-loading-thetafix_N5e7_DensCloud_01738800.png2012-01-10 12:12 19K 
[IMG]CS1_50kmx20km-fall-loading-thetafix_N5e7_DensCloud_01998000.png2012-01-10 12:12 19K 
[IMG]CS1_50kmx20km-fall-loading-thetafix_N5e7_VelZ_00655200.png2012-01-10 12:10 19K 
[IMG]CS1_50kmx20km-fall-loading-thetafix_N5e7_VelZ_00936000.png2012-01-10 12:12 19K 
[IMG]CS1_50kmx20km-fall-loading-thetafix_N5e7_VelZ_01994400.png2012-01-10 12:14 19K 
[IMG]CS1_50kmx20km-fall-loading-thetafix_N5e7_VelZ_00568800.png2012-01-10 12:10 19K 
[IMG]CS1_50kmx20km-fall-loading-thetafix_N5e7_VelZ_00586800.png2012-01-10 12:10 19K 
[IMG]CS1_50kmx20km-fall-loading-thetafix_N5e7_VelZ_02448000.png2012-01-10 12:16 19K 
[IMG]CS1_50kmx20km-fall-loading-thetafix_N5e7_VelZ_02149200.png2012-01-10 12:14 19K 
[IMG]CS1_50kmx20km-fall-loading-thetafix_N5e7_VelZ_02142000.png2012-01-10 12:14 19K 
[IMG]CS1_50kmx20km-fall-loading-thetafix_N5e7_DensCloud_01036800.png2012-01-10 12:10 19K 
[IMG]CS1_50kmx20km-fall-loading-thetafix_N5e7_DensCloud_02484000.png2012-01-10 12:15 19K 
[IMG]CS1_50kmx20km-fall-loading-thetafix_N5e7_VelZ_01587600.png2012-01-10 12:14 19K 
[IMG]CS1_50kmx20km-fall-loading-thetafix_N5e7_DensCloud_01580400.png2012-01-10 12:12 19K 
[IMG]CS1_50kmx20km-fall-loading-thetafix_N5e7_DensCloud_00554400.png2012-01-10 12:08 19K 
[IMG]CS1_50kmx20km-fall-loading-thetafix_N5e7_DensCloud_01292400.png2012-01-10 12:11 19K 
[IMG]CS1_50kmx20km-fall-loading-thetafix_N5e7_DensCloud_01605600.png2012-01-10 12:12 19K 
[IMG]CS1_50kmx20km-fall-loading-thetafix_N5e7_VelZ_01584000.png2012-01-10 12:14 19K 
[IMG]CS1_50kmx20km-fall-loading-thetafix_N5e7_DensCloud_02570400.png2012-01-10 12:15 19K 
[IMG]CS1_50kmx20km-fall-loading-thetafix_N5e7_VelZ_02545200.png2012-01-10 12:16 19K 
[IMG]CS1_50kmx20km-fall-loading-thetafix_N5e7_DensCloud_00957600.png2012-01-10 12:10 19K 
[IMG]CS1_50kmx20km-fall-loading-thetafix_N5e7_DensCloud_00385200.png2012-01-10 12:08 19K 
[IMG]CS1_50kmx20km-fall-loading-thetafix_N5e7_DensCloud_01224000.png2012-01-10 12:11 19K 
[IMG]CS1_50kmx20km-fall-loading-thetafix_N5e7_DensCloud_01760400.png2012-01-10 12:12 19K 
[IMG]CS1_50kmx20km-fall-loading-thetafix_N5e7_DensCloud_02260800.png2012-01-10 12:14 19K 
[IMG]CS1_50kmx20km-fall-loading-thetafix_N5e7_VelZ_01432800.png2012-01-10 12:14 19K 
[IMG]CS1_50kmx20km-fall-loading-thetafix_N5e7_VelZ_01767600.png2012-01-10 12:14 19K 
[IMG]CS1_50kmx20km-fall-loading-thetafix_N5e7_DensCloud_00727200.png2012-01-10 12:09 19K 
[IMG]CS1_50kmx20km-fall-loading-thetafix_N5e7_DensCloud_02516400.png2012-01-10 12:15 19K 
[IMG]CS1_50kmx20km-fall-loading-thetafix_N5e7_DensCloud_01202400.png2012-01-10 12:11 19K 
[IMG]CS1_50kmx20km-fall-loading-thetafix_N5e7_DensCloud_00972000.png2012-01-10 12:10 19K 
[IMG]CS1_50kmx20km-fall-loading-thetafix_N5e7_DensCloud_01058400.png2012-01-10 12:10 19K 
[IMG]CS1_50kmx20km-fall-loading-thetafix_N5e7_DensCloud_01152000.png2012-01-10 12:11 19K 
[IMG]CS1_50kmx20km-fall-loading-thetafix_N5e7_VelZ_00054000.png2012-01-10 12:09 19K 
[IMG]CS1_50kmx20km-fall-loading-thetafix_N5e7_VelZ_00342000.png2012-01-10 12:09 19K 
[IMG]CS1_50kmx20km-fall-loading-thetafix_N5e7_VelZ_00763200.png2012-01-10 12:10 19K 
[IMG]CS1_50kmx20km-fall-loading-thetafix_N5e7_VelZ_02588400.png2012-01-10 12:16 19K 
[IMG]CS1_50kmx20km-fall-loading-thetafix_N5e7_VelZ_00500400.png2012-01-10 12:10 19K 
[IMG]CS1_50kmx20km-fall-loading-thetafix_N5e7_VelZ_02523600.png2012-01-10 12:16 19K 
[IMG]CS1_50kmx20km-fall-loading-thetafix_N5e7_DensCloud_00792000.png2012-01-10 12:09 19K 
[IMG]CS1_50kmx20km-fall-loading-thetafix_N5e7_DensCloud_01458000.png2012-01-10 12:12 19K 
[IMG]CS1_50kmx20km-fall-loading-thetafix_N5e7_VelZ_00464400.png2012-01-10 12:10 19K 
[IMG]CS1_50kmx20km-fall-loading-thetafix_N5e7_VelZ_02289600.png2012-01-10 12:16 19K 
[IMG]CS1_50kmx20km-fall-loading-thetafix_N5e7_VelZ_00838800.png2012-01-10 12:10 19K 
[IMG]CS1_50kmx20km-fall-loading-thetafix_N5e7_VelZ_00950400.png2012-01-10 12:12 19K 
[IMG]CS1_50kmx20km-fall-loading-thetafix_N5e7_VelZ_01782000.png2012-01-10 12:14 19K 
[IMG]CS1_50kmx20km-fall-loading-thetafix_N5e7_DensCloud_01414800.png2012-01-10 12:12 19K 
[IMG]CS1_50kmx20km-fall-loading-thetafix_N5e7_VelZ_02404800.png2012-01-10 12:16 19K 
[IMG]CS1_50kmx20km-fall-loading-thetafix_N5e7_VelZ_02494800.png2012-01-10 12:16 19K 
[IMG]CS1_50kmx20km-fall-loading-thetafix_N5e7_DensCloud_00752400.png2012-01-10 12:09 19K 
[IMG]CS1_50kmx20km-fall-loading-thetafix_N5e7_DensCloud_00896400.png2012-01-10 12:10 19K 
[IMG]CS1_50kmx20km-fall-loading-thetafix_N5e7_DensCloud_00475200.png2012-01-10 12:08 19K 
[IMG]CS1_50kmx20km-fall-loading-thetafix_N5e7_DensCloud_02102400.png2012-01-10 12:13 19K 
[IMG]CS1_50kmx20km-fall-loading-thetafix_N5e7_VelZ_01810800.png2012-01-10 12:14 19K 
[IMG]CS1_50kmx20km-fall-loading-thetafix_N5e7_DensCloud_01807200.png2012-01-10 12:12 19K 
[IMG]CS1_50kmx20km-fall-loading-thetafix_N5e7_VelZ_00478800.png2012-01-10 12:10 19K 
[IMG]CS1_50kmx20km-fall-loading-thetafix_N5e7_VelZ_01148400.png2012-01-10 12:12 19K 
[IMG]CS1_50kmx20km-fall-loading-thetafix_N5e7_VelZ_01468800.png2012-01-10 12:14 19K 
[IMG]CS1_50kmx20km-fall-loading-thetafix_N5e7_DensCloud_01249200.png2012-01-10 12:11 19K 
[IMG]CS1_50kmx20km-fall-loading-thetafix_N5e7_VelZ_01371600.png2012-01-10 12:14 19K 
[IMG]CS1_50kmx20km-fall-loading-thetafix_N5e7_VelZ_01400400.png2012-01-10 12:14 19K 
[IMG]CS1_50kmx20km-fall-loading-thetafix_N5e7_VelZ_01558800.png2012-01-10 12:14 19K 
[IMG]CS1_50kmx20km-fall-loading-thetafix_N5e7_DensCloud_01198800.png2012-01-10 12:11 19K 
[IMG]CS1_50kmx20km-fall-loading-thetafix_N5e7_VelZ_02250000.png2012-01-10 12:16 19K 
[IMG]CS1_50kmx20km-fall-loading-thetafix_N5e7_DensCloud_00259200.png2012-01-10 12:08 19K 
[IMG]CS1_50kmx20km-fall-loading-thetafix_N5e7_DensCloud_02318400.png2012-01-10 12:14 19K 
[IMG]CS1_50kmx20km-fall-loading-thetafix_N5e7_VelZ_02271600.png2012-01-10 12:16 19K 
[IMG]CS1_50kmx20km-fall-loading-thetafix_N5e7_DensCloud_01990800.png2012-01-10 12:12 19K 
[IMG]CS1_50kmx20km-fall-loading-thetafix_N5e7_DensCloud_02005200.png2012-01-10 12:12 19K 
[IMG]CS1_50kmx20km-fall-loading-thetafix_N5e7_VelZ_00709200.png2012-01-10 12:10 19K 
[IMG]CS1_50kmx20km-fall-loading-thetafix_N5e7_VelZ_01324800.png2012-01-10 12:14 19K 
[IMG]CS1_50kmx20km-fall-loading-thetafix_N5e7_VelZ_02080800.png2012-01-10 12:14 19K 
[IMG]CS1_50kmx20km-fall-loading-thetafix_N5e7_VelZ_02275200.png2012-01-10 12:16 19K 
[IMG]CS1_50kmx20km-fall-loading-thetafix_N5e7_DensCloud_01720800.png2012-01-10 12:12 19K 
[IMG]CS1_50kmx20km-fall-loading-thetafix_N5e7_VelZ_00788400.png2012-01-10 12:10 19K 
[IMG]CS1_50kmx20km-fall-loading-thetafix_N5e7_VelZ_02134800.png2012-01-10 12:14 19K 
[IMG]CS1_50kmx20km-fall-loading-thetafix_N5e7_VelZ_01656000.png2012-01-10 12:14 19K 
[IMG]CS1_50kmx20km-fall-loading-thetafix_N5e7_VelZ_01944000.png2012-01-10 12:14 19K 
[IMG]CS1_50kmx20km-fall-loading-thetafix_N5e7_DensCloud_01749600.png2012-01-10 12:12 19K 
[IMG]CS1_50kmx20km-fall-loading-thetafix_N5e7_VelZ_01472400.png2012-01-10 12:14 19K 
[IMG]CS1_50kmx20km-fall-loading-thetafix_N5e7_DensCloud_01285200.png2012-01-10 12:11 19K 
[IMG]CS1_50kmx20km-fall-loading-thetafix_N5e7_DensCloud_00644400.png2012-01-10 12:08 19K 
[IMG]CS1_50kmx20km-fall-loading-thetafix_N5e7_DensCloud_01692000.png2012-01-10 12:12 19K 
[IMG]CS1_50kmx20km-fall-loading-thetafix_N5e7_DensCloud_01832400.png2012-01-10 12:12 19K 
[IMG]CS1_50kmx20km-fall-loading-thetafix_N5e7_DensCloud_02210400.png2012-01-10 12:14 19K 
[IMG]CS1_50kmx20km-fall-loading-thetafix_N5e7_DensCloud_02563200.png2012-01-10 12:15 19K 
[IMG]CS1_50kmx20km-fall-loading-thetafix_N5e7_VelZ_01051200.png2012-01-10 12:12 19K 
[IMG]CS1_50kmx20km-fall-loading-thetafix_N5e7_VelZ_01854000.png2012-01-10 12:14 19K 
[IMG]CS1_50kmx20km-fall-loading-thetafix_N5e7_DensCloud_01483200.png2012-01-10 12:12 19K 
[IMG]CS1_50kmx20km-fall-loading-thetafix_N5e7_VelZ_00990000.png2012-01-10 12:12 19K 
[IMG]CS1_50kmx20km-fall-loading-thetafix_N5e7_DensCloud_00925200.png2012-01-10 12:10 19K 
[IMG]CS1_50kmx20km-fall-loading-thetafix_N5e7_DensCloud_01137600.png2012-01-10 12:11 19K 
[IMG]CS1_50kmx20km-fall-loading-thetafix_N5e7_VelZ_00921600.png2012-01-10 12:12 19K 
[IMG]CS1_50kmx20km-fall-loading-thetafix_N5e7_DensCloud_01944000.png2012-01-10 12:12 19K 
[IMG]CS1_50kmx20km-fall-loading-thetafix_N5e7_VelZ_01922400.png2012-01-10 12:14 19K 
[IMG]CS1_50kmx20km-fall-loading-thetafix_N5e7_VelZ_02563200.png2012-01-10 12:16 19K 
[IMG]CS1_50kmx20km-fall-loading-thetafix_N5e7_VelZ_00507600.png2012-01-10 12:10 19K 
[IMG]CS1_50kmx20km-fall-loading-thetafix_N5e7_DensCloud_00997200.png2012-01-10 12:10 19K 
[IMG]CS1_50kmx20km-fall-loading-thetafix_N5e7_VelZ_01591200.png2012-01-10 12:14 19K 
[IMG]CS1_50kmx20km-fall-loading-thetafix_N5e7_DensCloud_00799200.png2012-01-10 12:09 19K 
[IMG]CS1_50kmx20km-fall-loading-thetafix_N5e7_VelZ_01202400.png2012-01-10 12:12 19K 
[IMG]CS1_50kmx20km-fall-loading-thetafix_N5e7_DensCloud_00986400.png2012-01-10 12:10 19K 
[IMG]CS1_50kmx20km-fall-loading-thetafix_N5e7_VelZ_01972800.png2012-01-10 12:14 19K 
[IMG]CS1_50kmx20km-fall-loading-thetafix_N5e7_DensCloud_00478800.png2012-01-10 12:08 19K 
[IMG]CS1_50kmx20km-fall-loading-thetafix_N5e7_VelZ_01648800.png2012-01-10 12:14 19K 
[IMG]CS1_50kmx20km-fall-loading-thetafix_N5e7_DensCloud_00655200.png2012-01-10 12:08 19K 
[IMG]CS1_50kmx20km-fall-loading-thetafix_N5e7_DensCloud_00673200.png2012-01-10 12:08 19K 
[IMG]CS1_50kmx20km-fall-loading-thetafix_N5e7_DensCloud_02584800.png2012-01-10 12:15 19K 
[IMG]CS1_50kmx20km-fall-loading-thetafix_N5e7_VelZ_00381600.png2012-01-10 12:09 19K 
[IMG]CS1_50kmx20km-fall-loading-thetafix_N5e7_VelZ_02235600.png2012-01-10 12:16 19K 
[IMG]CS1_50kmx20km-fall-loading-thetafix_N5e7_VelZ_01735200.png2012-01-10 12:14 19K 
[IMG]CS1_50kmx20km-fall-loading-thetafix_N5e7_VelZ_00957600.png2012-01-10 12:12 19K 
[IMG]CS1_50kmx20km-fall-loading-thetafix_N5e7_VelZ_01346400.png2012-01-10 12:14 19K 
[IMG]CS1_50kmx20km-fall-loading-thetafix_N5e7_DensCloud_01436400.png2012-01-10 12:12 19K 
[IMG]CS1_50kmx20km-fall-loading-thetafix_N5e7_VelZ_02030400.png2012-01-10 12:14 19K 
[IMG]CS1_50kmx20km-fall-loading-thetafix_N5e7_DensCloud_01018800.png2012-01-10 12:10 19K 
[IMG]CS1_50kmx20km-fall-loading-thetafix_N5e7_DensCloud_00270000.png2012-01-10 12:08 19K 
[IMG]CS1_50kmx20km-fall-loading-thetafix_N5e7_DensCloud_02365200.png2012-01-10 12:15 19K 
[IMG]CS1_50kmx20km-fall-loading-thetafix_N5e7_VelZ_01245600.png2012-01-10 12:12 19K 
[IMG]CS1_50kmx20km-fall-loading-thetafix_N5e7_DensCloud_00216000.png2012-01-10 12:08 19K 
[IMG]CS1_50kmx20km-fall-loading-thetafix_N5e7_DensCloud_00633600.png2012-01-10 12:08 19K 
[IMG]CS1_50kmx20km-fall-loading-thetafix_N5e7_VelZ_00316800.png2012-01-10 12:09 19K 
[IMG]CS1_50kmx20km-fall-loading-thetafix_N5e7_DensCloud_01576800.png2012-01-10 12:12 19K 
[IMG]CS1_50kmx20km-fall-loading-thetafix_N5e7_VelZ_01317600.png2012-01-10 12:14 19K 
[IMG]CS1_50kmx20km-fall-loading-thetafix_N5e7_VelZ_01684800.png2012-01-10 12:14 19K 
[IMG]CS1_50kmx20km-fall-loading-thetafix_N5e7_VelZ_01310400.png2012-01-10 12:14 19K 
[IMG]CS1_50kmx20km-fall-loading-thetafix_N5e7_DensCloud_01144800.png2012-01-10 12:11 19K 
[IMG]CS1_50kmx20km-fall-loading-thetafix_N5e7_DensCloud_02379600.png2012-01-10 12:15 19K 
[IMG]CS1_50kmx20km-fall-loading-thetafix_N5e7_VelZ_01882800.png2012-01-10 12:14 19K 
[IMG]CS1_50kmx20km-fall-loading-thetafix_N5e7_DensCloud_01918800.png2012-01-10 12:12 19K 
[IMG]CS1_50kmx20km-fall-loading-thetafix_N5e7_DensCloud_00954000.png2012-01-10 12:10 19K 
[IMG]CS1_50kmx20km-fall-loading-thetafix_N5e7_DensCloud_02178000.png2012-01-10 12:14 19K 
[IMG]CS1_50kmx20km-fall-loading-thetafix_N5e7_DensCloud_01555200.png2012-01-10 12:12 19K 
[IMG]CS1_50kmx20km-fall-loading-thetafix_N5e7_DensCloud_01659600.png2012-01-10 12:12 19K 
[IMG]CS1_50kmx20km-fall-loading-thetafix_N5e7_VelZ_01515600.png2012-01-10 12:14 19K 
[IMG]CS1_50kmx20km-fall-loading-thetafix_N5e7_VelZ_02203200.png2012-01-10 12:16 19K 
[IMG]CS1_50kmx20km-fall-loading-thetafix_N5e7_DensCloud_02084400.png2012-01-10 12:13 19K 
[IMG]CS1_50kmx20km-fall-loading-thetafix_N5e7_VelZ_00496800.png2012-01-10 12:10 19K 
[IMG]CS1_50kmx20km-fall-loading-thetafix_N5e7_VelZ_01393200.png2012-01-10 12:14 19K 
[IMG]CS1_50kmx20km-fall-loading-thetafix_N5e7_DensCloud_01508400.png2012-01-10 12:12 19K 
[IMG]CS1_50kmx20km-fall-loading-thetafix_N5e7_DensCloud_00676800.png2012-01-10 12:08 19K 
[IMG]CS1_50kmx20km-fall-loading-thetafix_N5e7_DensCloud_00658800.png2012-01-10 12:08 19K 
[IMG]CS1_50kmx20km-fall-loading-thetafix_N5e7_DensCloud_01306800.png2012-01-10 12:12 19K 
[IMG]CS1_50kmx20km-fall-loading-thetafix_N5e7_DensCloud_01656000.png2012-01-10 12:12 19K 
[IMG]CS1_50kmx20km-fall-loading-thetafix_N5e7_VelZ_01724400.png2012-01-10 12:14 19K 
[IMG]CS1_50kmx20km-fall-loading-thetafix_N5e7_VelZ_02556000.png2012-01-10 12:16 19K 
[IMG]CS1_50kmx20km-fall-loading-thetafix_N5e7_VelZ_02023200.png2012-01-10 12:14 19K 
[IMG]CS1_50kmx20km-fall-loading-thetafix_N5e7_DensCloud_02214000.png2012-01-10 12:14 19K 
[IMG]CS1_50kmx20km-fall-loading-thetafix_N5e7_DensCloud_00730800.png2012-01-10 12:09 19K 
[IMG]CS1_50kmx20km-fall-loading-thetafix_N5e7_VelZ_02541600.png2012-01-10 12:16 19K 
[IMG]CS1_50kmx20km-fall-loading-thetafix_N5e7_DensCloud_00921600.png2012-01-10 12:10 19K 
[IMG]CS1_50kmx20km-fall-loading-thetafix_N5e7_VelZ_00734400.png2012-01-10 12:10 19K 
[IMG]CS1_50kmx20km-fall-loading-thetafix_N5e7_DensCloud_00907200.png2012-01-10 12:10 19K 
[IMG]CS1_50kmx20km-fall-loading-thetafix_N5e7_VelZ_00219600.png2012-01-10 12:09 19K 
[IMG]CS1_50kmx20km-fall-loading-thetafix_N5e7_VelZ_00954000.png2012-01-10 12:12 19K 
[IMG]CS1_50kmx20km-fall-loading-thetafix_N5e7_DensCloud_01742400.png2012-01-10 12:12 19K 
[IMG]CS1_50kmx20km-fall-loading-thetafix_N5e7_DensCloud_02001600.png2012-01-10 12:12 19K 
[IMG]CS1_50kmx20km-fall-loading-thetafix_N5e7_VelZ_01184400.png2012-01-10 12:12 19K 
[IMG]CS1_50kmx20km-fall-loading-thetafix_N5e7_VelZ_01562400.png2012-01-10 12:14 19K 
[IMG]CS1_50kmx20km-fall-loading-thetafix_N5e7_DensCloud_02149200.png2012-01-10 12:13 19K 
[IMG]CS1_50kmx20km-fall-loading-thetafix_N5e7_DensCloud_02433600.png2012-01-10 12:15 19K 
[IMG]CS1_50kmx20km-fall-loading-thetafix_N5e7_DensCloud_01735200.png2012-01-10 12:12 19K 
[IMG]CS1_50kmx20km-fall-loading-thetafix_N5e7_VelZ_01281600.png2012-01-10 12:12 19K 
[IMG]CS1_50kmx20km-fall-loading-thetafix_N5e7_DensCloud_01839600.png2012-01-10 12:12 19K 
[IMG]CS1_50kmx20km-fall-loading-thetafix_N5e7_VelZ_01443600.png2012-01-10 12:14 19K 
[IMG]CS1_50kmx20km-fall-loading-thetafix_N5e7_DensCloud_02581200.png2012-01-10 12:15 19K 
[IMG]CS1_50kmx20km-fall-loading-thetafix_N5e7_VelZ_00147600.png2012-01-10 12:09 19K 
[IMG]CS1_50kmx20km-fall-loading-thetafix_N5e7_DensCloud_02512800.png2012-01-10 12:15 19K 
[IMG]CS1_50kmx20km-fall-loading-thetafix_N5e7_VelZ_01677600.png2012-01-10 12:14 19K 
[IMG]CS1_50kmx20km-fall-loading-thetafix_N5e7_DensCloud_00396000.png2012-01-10 12:08 19K 
[IMG]CS1_50kmx20km-fall-loading-thetafix_N5e7_DensCloud_01094400.png2012-01-10 12:10 19K 
[IMG]CS1_50kmx20km-fall-loading-thetafix_N5e7_VelZ_00738000.png2012-01-10 12:10 19K 
[IMG]CS1_50kmx20km-fall-loading-thetafix_N5e7_VelZ_01573200.png2012-01-10 12:14 19K 
[IMG]CS1_50kmx20km-fall-loading-thetafix_N5e7_DensCloud_00338400.png2012-01-10 12:08 19K 
[IMG]CS1_50kmx20km-fall-loading-thetafix_N5e7_VelZ_00705600.png2012-01-10 12:10 19K 
[IMG]CS1_50kmx20km-fall-loading-thetafix_N5e7_VelZ_01026000.png2012-01-10 12:12 19K 
[IMG]CS1_50kmx20km-fall-loading-thetafix_N5e7_VelZ_02397600.png2012-01-10 12:16 19K 
[IMG]CS1_50kmx20km-fall-loading-thetafix_N5e7_VelZ_00622800.png2012-01-10 12:10 19K 
[IMG]CS1_50kmx20km-fall-loading-thetafix_N5e7_DensCloud_02304000.png2012-01-10 12:14 19K 
[IMG]CS1_50kmx20km-fall-loading-thetafix_N5e7_DensCloud_01335600.png2012-01-10 12:12 19K 
[IMG]CS1_50kmx20km-fall-loading-thetafix_N5e7_DensCloud_00770400.png2012-01-10 12:09 19K 
[IMG]CS1_50kmx20km-fall-loading-thetafix_N5e7_VelZ_00334800.png2012-01-10 12:09 19K 
[IMG]CS1_50kmx20km-fall-loading-thetafix_N5e7_DensCloud_02228400.png2012-01-10 12:14 19K 
[IMG]CS1_50kmx20km-fall-loading-thetafix_N5e7_DensCloud_00190800.png2012-01-10 12:08 19K 
[IMG]CS1_50kmx20km-fall-loading-thetafix_N5e7_DensCloud_01123200.png2012-01-10 12:11 19K 
[IMG]CS1_50kmx20km-fall-loading-thetafix_N5e7_DensCloud_01821600.png2012-01-10 12:12 19K 
[IMG]CS1_50kmx20km-fall-loading-thetafix_N5e7_DensCloud_00734400.png2012-01-10 12:09 19K 
[IMG]CS1_50kmx20km-fall-loading-thetafix_N5e7_VelZ_00068400.png2012-01-10 12:09 19K 
[IMG]CS1_50kmx20km-fall-loading-thetafix_N5e7_DensCloud_00064800.png2012-01-10 12:08 19K 
[IMG]CS1_50kmx20km-fall-loading-thetafix_N5e7_DensCloud_01940400.png2012-01-10 12:12 19K 
[IMG]CS1_50kmx20km-fall-loading-thetafix_N5e7_VelZ_00410400.png2012-01-10 12:09 19K 
[IMG]CS1_50kmx20km-fall-loading-thetafix_N5e7_VelZ_02206800.png2012-01-10 12:16 19K 
[IMG]CS1_50kmx20km-fall-loading-thetafix_N5e7_DensCloud_02314800.png2012-01-10 12:14 19K 
[IMG]CS1_50kmx20km-fall-loading-thetafix_N5e7_VelZ_01234800.png2012-01-10 12:12 19K 
[IMG]CS1_50kmx20km-fall-loading-thetafix_N5e7_VelZ_02152800.png2012-01-10 12:14 19K 
[IMG]CS1_50kmx20km-fall-loading-thetafix_N5e7_DensCloud_00810000.png2012-01-10 12:09 19K 
[IMG]CS1_50kmx20km-fall-loading-thetafix_N5e7_DensCloud_01112400.png2012-01-10 12:10 19K 
[IMG]CS1_50kmx20km-fall-loading-thetafix_N5e7_DensCloud_02574000.png2012-01-10 12:15 19K 
[IMG]CS1_50kmx20km-fall-loading-thetafix_N5e7_VelZ_00824400.png2012-01-10 12:10 19K 
[IMG]CS1_50kmx20km-fall-loading-thetafix_N5e7_VelZ_00874800.png2012-01-10 12:12 19K 
[IMG]CS1_50kmx20km-fall-loading-thetafix_N5e7_DensCloud_02138400.png2012-01-10 12:13 19K 
[IMG]CS1_50kmx20km-fall-loading-thetafix_N5e7_DensCloud_02134800.png2012-01-10 12:13 19K 
[IMG]CS1_50kmx20km-fall-loading-thetafix_N5e7_VelZ_01112400.png2012-01-10 12:12 19K 
[IMG]CS1_50kmx20km-fall-loading-thetafix_N5e7_DensCloud_01155600.png2012-01-10 12:11 19K 
[IMG]CS1_50kmx20km-fall-loading-thetafix_N5e7_VelZ_01530000.png2012-01-10 12:14 19K 
[IMG]CS1_50kmx20km-fall-loading-thetafix_N5e7_VelZ_01004400.png2012-01-10 12:12 19K 
[IMG]CS1_50kmx20km-fall-loading-thetafix_N5e7_VelZ_02451600.png2012-01-10 12:16 19K 
[IMG]CS1_50kmx20km-fall-loading-thetafix_N5e7_DensCloud_01472400.png2012-01-10 12:12 19K 
[IMG]CS1_50kmx20km-fall-loading-thetafix_N5e7_DensCloud_01630800.png2012-01-10 12:12 19K 
[IMG]CS1_50kmx20km-fall-loading-thetafix_N5e7_DensCloud_02545200.png2012-01-10 12:15 19K 
[IMG]CS1_50kmx20km-fall-loading-thetafix_N5e7_VelZ_00730800.png2012-01-10 12:10 19K 
[IMG]CS1_50kmx20km-fall-loading-thetafix_N5e7_VelZ_02019600.png2012-01-10 12:14 19K 
[IMG]CS1_50kmx20km-fall-loading-thetafix_N5e7_DensCloud_00604800.png2012-01-10 12:08 19K 
[IMG]CS1_50kmx20km-fall-loading-thetafix_N5e7_VelZ_00320400.png2012-01-10 12:09 19K 
[IMG]CS1_50kmx20km-fall-loading-thetafix_N5e7_DensCloud_01792800.png2012-01-10 12:12 19K 
[IMG]CS1_50kmx20km-fall-loading-thetafix_N5e7_DensCloud_02077200.png2012-01-10 12:13 19K 
[IMG]CS1_50kmx20km-fall-loading-thetafix_N5e7_DensCloud_00176400.png2012-01-10 12:08 19K 
[IMG]CS1_50kmx20km-fall-loading-thetafix_N5e7_DensCloud_02041200.png2012-01-10 12:12 19K 
[IMG]CS1_50kmx20km-fall-loading-thetafix_N5e7_DensCloud_00370800.png2012-01-10 12:08 19K 
[IMG]CS1_50kmx20km-fall-loading-thetafix_N5e7_DensCloud_02091600.png2012-01-10 12:13 19K 
[IMG]CS1_50kmx20km-fall-loading-thetafix_N5e7_VelZ_00716400.png2012-01-10 12:10 19K 
[IMG]CS1_50kmx20km-fall-loading-thetafix_N5e7_DensCloud_02055600.png2012-01-10 12:12 19K 
[IMG]CS1_50kmx20km-fall-loading-thetafix_N5e7_DensCloud_02282400.png2012-01-10 12:14 19K 
[IMG]CS1_50kmx20km-fall-loading-thetafix_N5e7_DensCloud_02203200.png2012-01-10 12:14 19K 
[IMG]CS1_50kmx20km-fall-loading-thetafix_N5e7_VelZ_01490400.png2012-01-10 12:14 19K 
[IMG]CS1_50kmx20km-fall-loading-thetafix_N5e7_VelZ_02098800.png2012-01-10 12:14 19K 
[IMG]CS1_50kmx20km-fall-loading-thetafix_N5e7_VelZ_01580400.png2012-01-10 12:14 19K 
[IMG]CS1_50kmx20km-fall-loading-thetafix_N5e7_VelZ_01497600.png2012-01-10 12:14 19K 
[IMG]CS1_50kmx20km-fall-loading-thetafix_N5e7_DensCloud_02163600.png2012-01-10 12:14 19K 
[IMG]CS1_50kmx20km-fall-loading-thetafix_N5e7_DensCloud_02494800.png2012-01-10 12:15 19K 
[IMG]CS1_50kmx20km-fall-loading-thetafix_N5e7_DensCloud_00198000.png2012-01-10 12:08 19K 
[IMG]CS1_50kmx20km-fall-loading-thetafix_N5e7_DensCloud_00565200.png2012-01-10 12:08 19K 
[IMG]CS1_50kmx20km-fall-loading-thetafix_N5e7_DensCloud_01594800.png2012-01-10 12:12 19K 
[IMG]CS1_50kmx20km-fall-loading-thetafix_N5e7_VelZ_01119600.png2012-01-10 12:12 19K 
[IMG]CS1_50kmx20km-fall-loading-thetafix_N5e7_VelZ_00086400.png2012-01-10 12:09 19K 
[IMG]CS1_50kmx20km-fall-loading-thetafix_N5e7_DensCloud_00378000.png2012-01-10 12:08 19K 
[IMG]CS1_50kmx20km-fall-loading-thetafix_N5e7_DensCloud_00720000.png2012-01-10 12:09 19K 
[IMG]CS1_50kmx20km-fall-loading-thetafix_N5e7_DensCloud_00262800.png2012-01-10 12:08 19K 
[IMG]CS1_50kmx20km-fall-loading-thetafix_N5e7_DensCloud_01602000.png2012-01-10 12:12 19K 
[IMG]CS1_50kmx20km-fall-loading-thetafix_N5e7_DensCloud_01951200.png2012-01-10 12:12 19K 
[IMG]CS1_50kmx20km-fall-loading-thetafix_N5e7_VelZ_00241200.png2012-01-10 12:09 19K 
[IMG]CS1_50kmx20km-fall-loading-thetafix_N5e7_DensCloud_00169200.png2012-01-10 12:08 19K 
[IMG]CS1_50kmx20km-fall-loading-thetafix_N5e7_DensCloud_00219600.png2012-01-10 12:08 19K 
[IMG]CS1_50kmx20km-fall-loading-thetafix_N5e7_DensCloud_00518400.png2012-01-10 12:08 19K 
[IMG]CS1_50kmx20km-fall-loading-thetafix_N5e7_DensCloud_00507600.png2012-01-10 12:08 19K 
[IMG]CS1_50kmx20km-fall-loading-thetafix_N5e7_DensCloud_00795600.png2012-01-10 12:09 19K 
[IMG]CS1_50kmx20km-fall-loading-thetafix_N5e7_DensCloud_02502000.png2012-01-10 12:15 19K 
[IMG]CS1_50kmx20km-fall-loading-thetafix_N5e7_VelZ_01018800.png2012-01-10 12:12 19K 
[IMG]CS1_50kmx20km-fall-loading-thetafix_N5e7_VelZ_02037600.png2012-01-10 12:14 19K 
[IMG]CS1_50kmx20km-fall-loading-thetafix_N5e7_DensCloud_00784800.png2012-01-10 12:09 19K 
[IMG]CS1_50kmx20km-fall-loading-thetafix_N5e7_VelZ_00284400.png2012-01-10 12:09 19K 
[IMG]CS1_50kmx20km-fall-loading-thetafix_N5e7_DensCloud_01501200.png2012-01-10 12:12 19K 
[IMG]CS1_50kmx20km-fall-loading-thetafix_N5e7_VelZ_00997200.png2012-01-10 12:12 19K 
[IMG]CS1_50kmx20km-fall-loading-thetafix_N5e7_VelZ_01940400.png2012-01-10 12:14 19K 
[IMG]CS1_50kmx20km-fall-loading-thetafix_N5e7_DensCloud_02556000.png2012-01-10 12:15 19K 
[IMG]CS1_50kmx20km-fall-loading-thetafix_N5e7_VelZ_01216800.png2012-01-10 12:12 19K 
[IMG]CS1_50kmx20km-fall-loading-thetafix_N5e7_DensCloud_02206800.png2012-01-10 12:14 19K 
[IMG]CS1_50kmx20km-fall-loading-thetafix_N5e7_VelZ_01191600.png2012-01-10 12:12 19K 
[IMG]CS1_50kmx20km-fall-loading-thetafix_N5e7_DensCloud_01796400.png2012-01-10 12:12 19K 
[IMG]CS1_50kmx20km-fall-loading-thetafix_N5e7_DensCloud_00961200.png2012-01-10 12:10 19K 
[IMG]CS1_50kmx20km-fall-loading-thetafix_N5e7_DensCloud_01033200.png2012-01-10 12:10 19K 
[IMG]CS1_50kmx20km-fall-loading-thetafix_N5e7_DensCloud_01764000.png2012-01-10 12:12 19K 
[IMG]CS1_50kmx20km-fall-loading-thetafix_N5e7_VelZ_02127600.png2012-01-10 12:14 19K 
[IMG]CS1_50kmx20km-fall-loading-thetafix_N5e7_DensCloud_02350800.png2012-01-10 12:15 19K 
[IMG]CS1_50kmx20km-fall-loading-thetafix_N5e7_VelZ_02232000.png2012-01-10 12:16 19K 
[IMG]CS1_50kmx20km-fall-loading-thetafix_N5e7_VelZ_00561600.png2012-01-10 12:10 19K 
[IMG]CS1_50kmx20km-fall-loading-thetafix_N5e7_VelZ_00943200.png2012-01-10 12:12 19K 
[IMG]CS1_50kmx20km-fall-loading-thetafix_N5e7_DensCloud_00529200.png2012-01-10 12:08 19K 
[IMG]CS1_50kmx20km-fall-loading-thetafix_N5e7_VelZ_01155600.png2012-01-10 12:12 19K 
[IMG]CS1_50kmx20km-fall-loading-thetafix_N5e7_DensCloud_01746000.png2012-01-10 12:12 19K 
[IMG]CS1_50kmx20km-fall-loading-thetafix_N5e7_DensCloud_02415600.png2012-01-10 12:15 19K 
[IMG]CS1_50kmx20km-fall-loading-thetafix_N5e7_DensCloud_00702000.png2012-01-10 12:09 19K 
[IMG]CS1_50kmx20km-fall-loading-thetafix_N5e7_DensCloud_01569600.png2012-01-10 12:12 19K 
[IMG]CS1_50kmx20km-fall-loading-thetafix_N5e7_VelZ_00626400.png2012-01-10 12:10 19K 
[IMG]CS1_50kmx20km-fall-loading-thetafix_N5e7_VelZ_00817200.png2012-01-10 12:10 19K 
[IMG]CS1_50kmx20km-fall-loading-thetafix_N5e7_DensCloud_01584000.png2012-01-10 12:12 19K 
[IMG]CS1_50kmx20km-fall-loading-thetafix_N5e7_DensCloud_01000800.png2012-01-10 12:10 19K 
[IMG]CS1_50kmx20km-fall-loading-thetafix_N5e7_DensCloud_01310400.png2012-01-10 12:12 19K 
[IMG]CS1_50kmx20km-fall-loading-thetafix_N5e7_VelZ_01429200.png2012-01-10 12:14 19K 
[IMG]CS1_50kmx20km-fall-loading-thetafix_N5e7_DensCloud_02080800.png2012-01-10 12:13 19K 
[IMG]CS1_50kmx20km-fall-loading-thetafix_N5e7_VelZ_01710000.png2012-01-10 12:14 19K 
[IMG]CS1_50kmx20km-fall-loading-thetafix_N5e7_DensCloud_01828800.png2012-01-10 12:12 19K 
[IMG]CS1_50kmx20km-fall-loading-thetafix_N5e7_VelZ_00237600.png2012-01-10 12:09 19K 
[IMG]CS1_50kmx20km-fall-loading-thetafix_N5e7_DensCloud_00543600.png2012-01-10 12:08 19K 
[IMG]CS1_50kmx20km-fall-loading-thetafix_N5e7_DensCloud_00824400.png2012-01-10 12:09 19K 
[IMG]CS1_50kmx20km-fall-loading-thetafix_N5e7_VelZ_01123200.png2012-01-10 12:12 19K 
[IMG]CS1_50kmx20km-fall-loading-thetafix_N5e7_VelZ_01742400.png2012-01-10 12:14 19K 
[IMG]CS1_50kmx20km-fall-loading-thetafix_N5e7_VelZ_00378000.png2012-01-10 12:09 19K 
[IMG]CS1_50kmx20km-fall-loading-thetafix_N5e7_VelZ_02322000.png2012-01-10 12:16 19K 
[IMG]CS1_50kmx20km-fall-loading-thetafix_N5e7_VelZ_01447200.png2012-01-10 12:14 19K 
[IMG]CS1_50kmx20km-fall-loading-thetafix_N5e7_DensCloud_00648000.png2012-01-10 12:08 19K 
[IMG]CS1_50kmx20km-fall-loading-thetafix_N5e7_VelZ_01998000.png2012-01-10 12:14 19K 
[IMG]CS1_50kmx20km-fall-loading-thetafix_N5e7_DensCloud_01537200.png2012-01-10 12:12 19K 
[IMG]CS1_50kmx20km-fall-loading-thetafix_N5e7_DensCloud_02224800.png2012-01-10 12:14 19K 
[IMG]CS1_50kmx20km-fall-loading-thetafix_N5e7_DensCloud_02527200.png2012-01-10 12:15 19K 
[IMG]CS1_50kmx20km-fall-loading-thetafix_N5e7_VelZ_00266400.png2012-01-10 12:09 19K 
[IMG]CS1_50kmx20km-fall-loading-thetafix_N5e7_VelZ_01519200.png2012-01-10 12:14 19K 
[IMG]CS1_50kmx20km-fall-loading-thetafix_N5e7_VelZ_01990800.png2012-01-10 12:14 19K 
[IMG]CS1_50kmx20km-fall-loading-thetafix_N5e7_VelZ_00493200.png2012-01-10 12:10 19K 
[IMG]CS1_50kmx20km-fall-loading-thetafix_N5e7_VelZ_01015200.png2012-01-10 12:12 19K 
[IMG]CS1_50kmx20km-fall-loading-thetafix_N5e7_DensCloud_02559600.png2012-01-10 12:15 20K 
[IMG]CS1_50kmx20km-fall-loading-thetafix_N5e7_VelZ_02307600.png2012-01-10 12:16 20K 
[IMG]CS1_50kmx20km-fall-loading-thetafix_N5e7_VelZ_00759600.png2012-01-10 12:10 20K 
[IMG]CS1_50kmx20km-fall-loading-thetafix_N5e7_VelZ_01980000.png2012-01-10 12:14 20K 
[IMG]CS1_50kmx20km-fall-loading-thetafix_N5e7_DensCloud_00964800.png2012-01-10 12:10 20K 
[IMG]CS1_50kmx20km-fall-loading-thetafix_N5e7_VelZ_01461600.png2012-01-10 12:14 20K 
[IMG]CS1_50kmx20km-fall-loading-thetafix_N5e7_VelZ_02062800.png2012-01-10 12:14 20K 
[IMG]CS1_50kmx20km-fall-loading-thetafix_N5e7_DensCloud_00349200.png2012-01-10 12:08 20K 
[IMG]CS1_50kmx20km-fall-loading-thetafix_N5e7_VelZ_01062000.png2012-01-10 12:12 20K 
[IMG]CS1_50kmx20km-fall-loading-thetafix_N5e7_DensCloud_00594000.png2012-01-10 12:08 20K 
[IMG]CS1_50kmx20km-fall-loading-thetafix_N5e7_VelZ_00828000.png2012-01-10 12:10 20K 
[IMG]CS1_50kmx20km-fall-loading-thetafix_N5e7_DensCloud_01627200.png2012-01-10 12:12 20K 
[IMG]CS1_50kmx20km-fall-loading-thetafix_N5e7_VelZ_00262800.png2012-01-10 12:09 20K 
[IMG]CS1_50kmx20km-fall-loading-thetafix_N5e7_VelZ_01616400.png2012-01-10 12:14 20K 
[IMG]CS1_50kmx20km-fall-loading-thetafix_N5e7_DensCloud_00111600.png2012-01-10 12:08 20K 
[IMG]CS1_50kmx20km-fall-loading-thetafix_N5e7_DensCloud_00716400.png2012-01-10 12:09 20K 
[IMG]CS1_50kmx20km-fall-loading-thetafix_N5e7_DensCloud_00698400.png2012-01-10 12:09 20K 
[IMG]CS1_50kmx20km-fall-loading-thetafix_N5e7_VelZ_00216000.png2012-01-10 12:09 20K 
[IMG]CS1_50kmx20km-fall-loading-thetafix_N5e7_VelZ_00255600.png2012-01-10 12:09 20K 
[IMG]CS1_50kmx20km-fall-loading-thetafix_N5e7_VelZ_00712800.png2012-01-10 12:10 20K 
[IMG]CS1_50kmx20km-fall-loading-thetafix_N5e7_VelZ_01072800.png2012-01-10 12:12 20K 
[IMG]CS1_50kmx20km-fall-loading-thetafix_N5e7_VelZ_01778400.png2012-01-10 12:14 20K 
[IMG]CS1_50kmx20km-fall-loading-thetafix_N5e7_VelZ_01411200.png2012-01-10 12:14 20K 
[IMG]CS1_50kmx20km-fall-loading-thetafix_N5e7_DensCloud_00471600.png2012-01-10 12:08 20K 
[IMG]CS1_50kmx20km-fall-loading-thetafix_N5e7_DensCloud_00759600.png2012-01-10 12:09 20K 
[IMG]CS1_50kmx20km-fall-loading-thetafix_N5e7_VelZ_01512000.png2012-01-10 12:14 20K 
[IMG]CS1_50kmx20km-fall-loading-thetafix_N5e7_VelZ_00356400.png2012-01-10 12:09 20K 
[IMG]CS1_50kmx20km-fall-loading-thetafix_N5e7_VelZ_00572400.png2012-01-10 12:10 20K 
[IMG]CS1_50kmx20km-fall-loading-thetafix_N5e7_VelZ_02538000.png2012-01-10 12:16 20K 
[IMG]CS1_50kmx20km-fall-loading-thetafix_N5e7_VelZ_01486800.png2012-01-10 12:14 20K 
[IMG]CS1_50kmx20km-fall-loading-thetafix_N5e7_DensCloud_00968400.png2012-01-10 12:10 20K 
[IMG]CS1_50kmx20km-fall-loading-thetafix_N5e7_VelZ_01796400.png2012-01-10 12:14 20K 
[IMG]CS1_50kmx20km-fall-loading-thetafix_N5e7_DensCloud_02476800.png2012-01-10 12:15 20K 
[IMG]CS1_50kmx20km-fall-loading-thetafix_N5e7_VelZ_02052000.png2012-01-10 12:14 20K 
[IMG]CS1_50kmx20km-fall-loading-thetafix_N5e7_VelZ_00658800.png2012-01-10 12:10 20K 
[IMG]CS1_50kmx20km-fall-loading-thetafix_N5e7_VelZ_01681200.png2012-01-10 12:14 20K 
[IMG]CS1_50kmx20km-fall-loading-thetafix_N5e7_DensCloud_00453600.png2012-01-10 12:08 20K 
[IMG]CS1_50kmx20km-fall-loading-thetafix_N5e7_VelZ_02001600.png2012-01-10 12:14 20K 
[IMG]CS1_50kmx20km-fall-loading-thetafix_N5e7_DensCloud_00414000.png2012-01-10 12:08 20K 
[IMG]CS1_50kmx20km-fall-loading-thetafix_N5e7_DensCloud_01076400.png2012-01-10 12:10 20K 
[IMG]CS1_50kmx20km-fall-loading-thetafix_N5e7_VelZ_00687600.png2012-01-10 12:10 20K 
[IMG]CS1_50kmx20km-fall-loading-thetafix_N5e7_VelZ_01206000.png2012-01-10 12:12 20K 
[IMG]CS1_50kmx20km-fall-loading-thetafix_N5e7_VelZ_00338400.png2012-01-10 12:09 20K 
[IMG]CS1_50kmx20km-fall-loading-thetafix_N5e7_VelZ_01285200.png2012-01-10 12:12 20K 
[IMG]CS1_50kmx20km-fall-loading-thetafix_N5e7_DensCloud_01713600.png2012-01-10 12:12 20K 
[IMG]CS1_50kmx20km-fall-loading-thetafix_N5e7_VelZ_01465200.png2012-01-10 12:14 20K 
[IMG]CS1_50kmx20km-fall-loading-thetafix_N5e7_DensCloud_01080000.png2012-01-10 12:10 20K 
[IMG]CS1_50kmx20km-fall-loading-thetafix_N5e7_DensCloud_02098800.png2012-01-10 12:13 20K 
[IMG]CS1_50kmx20km-fall-loading-thetafix_N5e7_VelZ_00673200.png2012-01-10 12:10 20K 
[IMG]CS1_50kmx20km-fall-loading-thetafix_N5e7_DensCloud_00313200.png2012-01-10 12:08 20K 
[IMG]CS1_50kmx20km-fall-loading-thetafix_N5e7_DensCloud_01134000.png2012-01-10 12:11 20K 
[IMG]CS1_50kmx20km-fall-loading-thetafix_N5e7_VelZ_01476000.png2012-01-10 12:14 20K 
[IMG]CS1_50kmx20km-fall-loading-thetafix_N5e7_DensCloud_02185200.png2012-01-10 12:14 20K 
[IMG]CS1_50kmx20km-fall-loading-thetafix_N5e7_DensCloud_00532800.png2012-01-10 12:08 20K 
[IMG]CS1_50kmx20km-fall-loading-thetafix_N5e7_VelZ_02505600.png2012-01-10 12:16 20K 
[IMG]CS1_50kmx20km-fall-loading-thetafix_N5e7_DensCloud_00903600.png2012-01-10 12:10 20K 
[IMG]CS1_50kmx20km-fall-loading-thetafix_N5e7_DensCloud_02044800.png2012-01-10 12:12 20K 
[IMG]CS1_50kmx20km-fall-loading-thetafix_N5e7_DensCloud_01105200.png2012-01-10 12:10 20K 
[IMG]CS1_50kmx20km-fall-loading-thetafix_N5e7_VelZ_01598400.png2012-01-10 12:14 20K 
[IMG]CS1_50kmx20km-fall-loading-thetafix_N5e7_DensCloud_00327600.png2012-01-10 12:08 20K 
[IMG]CS1_50kmx20km-fall-loading-thetafix_N5e7_VelZ_01749600.png2012-01-10 12:14 20K 
[IMG]CS1_50kmx20km-fall-loading-thetafix_N5e7_DensCloud_01947600.png2012-01-10 12:12 20K 
[IMG]CS1_50kmx20km-fall-loading-thetafix_N5e7_VelZ_02516400.png2012-01-10 12:16 20K 
[IMG]CS1_50kmx20km-fall-loading-thetafix_N5e7_DensCloud_00360000.png2012-01-10 12:08 20K 
[IMG]CS1_50kmx20km-fall-loading-thetafix_N5e7_DensCloud_00662400.png2012-01-10 12:08 20K 
[IMG]CS1_50kmx20km-fall-loading-thetafix_N5e7_DensCloud_00874800.png2012-01-10 12:10 20K 
[IMG]CS1_50kmx20km-fall-loading-thetafix_N5e7_DensCloud_02012400.png2012-01-10 12:12 20K 
[IMG]CS1_50kmx20km-fall-loading-thetafix_N5e7_VelZ_00097200.png2012-01-10 12:09 20K 
[IMG]CS1_50kmx20km-fall-loading-thetafix_N5e7_VelZ_00993600.png2012-01-10 12:12 20K 
[IMG]CS1_50kmx20km-fall-loading-thetafix_N5e7_DensCloud_00126000.png2012-01-10 12:08 20K 
[IMG]CS1_50kmx20km-fall-loading-thetafix_N5e7_VelZ_02055600.png2012-01-10 12:14 20K 
[IMG]CS1_50kmx20km-fall-loading-thetafix_N5e7_VelZ_02530800.png2012-01-10 12:16 20K 
[IMG]CS1_50kmx20km-fall-loading-thetafix_N5e7_DensCloud_01486800.png2012-01-10 12:12 20K 
[IMG]CS1_50kmx20km-fall-loading-thetafix_N5e7_DensCloud_00302400.png2012-01-10 12:08 20K 
[IMG]CS1_50kmx20km-fall-loading-thetafix_N5e7_VelZ_00964800.png2012-01-10 12:12 20K 
[IMG]CS1_50kmx20km-fall-loading-thetafix_N5e7_VelZ_02487600.png2012-01-10 12:16 20K 
[IMG]CS1_50kmx20km-fall-loading-thetafix_N5e7_VelZ_02520000.png2012-01-10 12:16 20K 
[IMG]CS1_50kmx20km-fall-loading-thetafix_N5e7_DensCloud_00687600.png2012-01-10 12:09 20K 
[IMG]CS1_50kmx20km-fall-loading-thetafix_N5e7_VelZ_00471600.png2012-01-10 12:10 20K 
[IMG]CS1_50kmx20km-fall-loading-thetafix_N5e7_VelZ_00644400.png2012-01-10 12:10 20K 
[IMG]CS1_50kmx20km-fall-loading-thetafix_N5e7_DensCloud_02264400.png2012-01-10 12:14 20K 
[IMG]CS1_50kmx20km-fall-loading-thetafix_N5e7_DensCloud_00738000.png2012-01-10 12:09 20K 
[IMG]CS1_50kmx20km-fall-loading-thetafix_N5e7_VelZ_01634400.png2012-01-10 12:14 20K 
[IMG]CS1_50kmx20km-fall-loading-thetafix_N5e7_DensCloud_01699200.png2012-01-10 12:12 20K 
[IMG]CS1_50kmx20km-fall-loading-thetafix_N5e7_VelZ_00162000.png2012-01-10 12:09 20K 
[IMG]CS1_50kmx20km-fall-loading-thetafix_N5e7_VelZ_00925200.png2012-01-10 12:12 20K 
[IMG]CS1_50kmx20km-fall-loading-thetafix_N5e7_DensCloud_00140400.png2012-01-10 12:08 20K 
[IMG]CS1_50kmx20km-fall-loading-thetafix_N5e7_VelZ_00878400.png2012-01-10 12:12 20K 
[IMG]CS1_50kmx20km-fall-loading-thetafix_N5e7_DensCloud_02505600.png2012-01-10 12:15 20K 
[IMG]CS1_50kmx20km-fall-loading-thetafix_N5e7_VelZ_00133200.png2012-01-10 12:09 20K 
[IMG]CS1_50kmx20km-fall-loading-thetafix_N5e7_VelZ_00280800.png2012-01-10 12:09 20K 
[IMG]CS1_50kmx20km-fall-loading-thetafix_N5e7_VelZ_00442800.png2012-01-10 12:10 20K 
[IMG]CS1_50kmx20km-fall-loading-thetafix_N5e7_DensCloud_02307600.png2012-01-10 12:14 20K 
[IMG]CS1_50kmx20km-fall-loading-thetafix_N5e7_VelZ_01605600.png2012-01-10 12:14 20K 
[IMG]CS1_50kmx20km-fall-loading-thetafix_N5e7_DensCloud_01004400.png2012-01-10 12:10 20K 
[IMG]CS1_50kmx20km-fall-loading-thetafix_N5e7_VelZ_00903600.png2012-01-10 12:12 20K 
[IMG]CS1_50kmx20km-fall-loading-thetafix_N5e7_VelZ_00406800.png2012-01-10 12:09 20K 
[IMG]CS1_50kmx20km-fall-loading-thetafix_N5e7_DensCloud_00151200.png2012-01-10 12:08 20K 
[IMG]CS1_50kmx20km-fall-loading-thetafix_N5e7_DensCloud_00230400.png2012-01-10 12:08 20K 
[IMG]CS1_50kmx20km-fall-loading-thetafix_N5e7_DensCloud_00489600.png2012-01-10 12:08 20K 
[IMG]CS1_50kmx20km-fall-loading-thetafix_N5e7_DensCloud_01526400.png2012-01-10 12:12 20K 
[IMG]CS1_50kmx20km-fall-loading-thetafix_N5e7_DensCloud_01440000.png2012-01-10 12:12 20K 
[IMG]CS1_50kmx20km-fall-loading-thetafix_N5e7_DensCloud_01681200.png2012-01-10 12:12 20K 
[IMG]CS1_50kmx20km-fall-loading-thetafix_N5e7_VelZ_02329200.png2012-01-10 12:16 20K 
[IMG]CS1_50kmx20km-fall-loading-thetafix_N5e7_VelZ_01414800.png2012-01-10 12:14 20K 
[IMG]CS1_50kmx20km-fall-loading-thetafix_N5e7_DensCloud_00406800.png2012-01-10 12:08 20K 
[IMG]CS1_50kmx20km-fall-loading-thetafix_N5e7_DensCloud_00432000.png2012-01-10 12:08 20K 
[IMG]CS1_50kmx20km-fall-loading-thetafix_N5e7_DensCloud_00979200.png2012-01-10 12:10 20K 
[IMG]CS1_50kmx20km-fall-loading-thetafix_N5e7_DensCloud_02088000.png2012-01-10 12:13 20K 
[IMG]CS1_50kmx20km-fall-loading-thetafix_N5e7_VelZ_02120400.png2012-01-10 12:14 20K 
[IMG]CS1_50kmx20km-fall-loading-thetafix_N5e7_DensCloud_00280800.png2012-01-10 12:08 20K 
[IMG]CS1_50kmx20km-fall-loading-thetafix_N5e7_DensCloud_00367200.png2012-01-10 12:08 20K 
[IMG]CS1_50kmx20km-fall-loading-thetafix_N5e7_DensCloud_01065600.png2012-01-10 12:10 20K 
[IMG]CS1_50kmx20km-fall-loading-thetafix_N5e7_VelZ_01450800.png2012-01-10 12:14 20K 
[IMG]CS1_50kmx20km-fall-loading-thetafix_N5e7_DensCloud_01270800.png2012-01-10 12:11 20K 
[IMG]CS1_50kmx20km-fall-loading-thetafix_N5e7_DensCloud_00936000.png2012-01-10 12:10 20K 
[IMG]CS1_50kmx20km-fall-loading-thetafix_N5e7_VelZ_01170000.png2012-01-10 12:12 20K 
[IMG]CS1_50kmx20km-fall-loading-thetafix_N5e7_VelZ_02260800.png2012-01-10 12:16 20K 
[IMG]CS1_50kmx20km-fall-loading-thetafix_N5e7_VelZ_00547200.png2012-01-10 12:10 20K 
[IMG]CS1_50kmx20km-fall-loading-thetafix_N5e7_DensCloud_02037600.png2012-01-10 12:12 20K 
[IMG]CS1_50kmx20km-fall-loading-thetafix_N5e7_VelZ_01044000.png2012-01-10 12:12 20K 
[IMG]CS1_50kmx20km-fall-loading-thetafix_N5e7_DensCloud_02437200.png2012-01-10 12:15 20K 
[IMG]CS1_50kmx20km-fall-loading-thetafix_N5e7_VelZ_01094400.png2012-01-10 12:12 20K 
[IMG]CS1_50kmx20km-fall-loading-thetafix_N5e7_DensCloud_01684800.png2012-01-10 12:12 20K 
[IMG]CS1_50kmx20km-fall-loading-thetafix_N5e7_DensCloud_01958400.png2012-01-10 12:12 20K 
[IMG]CS1_50kmx20km-fall-loading-thetafix_N5e7_DensCloud_01663200.png2012-01-10 12:12 20K 
[IMG]CS1_50kmx20km-fall-loading-thetafix_N5e7_DensCloud_00493200.png2012-01-10 12:08 20K 
[IMG]CS1_50kmx20km-fall-loading-thetafix_N5e7_DensCloud_00680400.png2012-01-10 12:08 20K 
[IMG]CS1_50kmx20km-fall-loading-thetafix_N5e7_DensCloud_00324000.png2012-01-10 12:08 20K 
[IMG]CS1_50kmx20km-fall-loading-thetafix_N5e7_VelZ_00489600.png2012-01-10 12:10 20K 
[IMG]CS1_50kmx20km-fall-loading-thetafix_N5e7_DensCloud_00342000.png2012-01-10 12:08 20K 
[IMG]CS1_50kmx20km-fall-loading-thetafix_N5e7_DensCloud_01544400.png2012-01-10 12:12 20K 
[IMG]CS1_50kmx20km-fall-loading-thetafix_N5e7_DensCloud_02062800.png2012-01-10 12:12 20K 
[IMG]CS1_50kmx20km-fall-loading-thetafix_N5e7_DensCloud_00054000.png2012-01-10 12:08 20K 
[IMG]CS1_50kmx20km-fall-loading-thetafix_N5e7_DensCloud_00252000.png2012-01-10 12:08 20K 
[IMG]CS1_50kmx20km-fall-loading-thetafix_N5e7_DensCloud_02026800.png2012-01-10 12:12 20K 
[IMG]CS1_50kmx20km-fall-loading-thetafix_N5e7_VelZ_01090800.png2012-01-10 12:12 20K 
[IMG]CS1_50kmx20km-fall-loading-thetafix_N5e7_VelZ_02131200.png2012-01-10 12:14 20K 
[IMG]CS1_50kmx20km-fall-loading-thetafix_N5e7_DensCloud_00745200.png2012-01-10 12:09 20K 
[IMG]CS1_50kmx20km-fall-loading-thetafix_N5e7_VelZ_01508400.png2012-01-10 12:14 20K 
[IMG]CS1_50kmx20km-fall-loading-thetafix_N5e7_DensCloud_01263600.png2012-01-10 12:11 20K 
[IMG]CS1_50kmx20km-fall-loading-thetafix_N5e7_DensCloud_00172800.png2012-01-10 12:08 20K 
[IMG]CS1_50kmx20km-fall-loading-thetafix_N5e7_DensCloud_00381600.png2012-01-10 12:08 20K 
[IMG]CS1_50kmx20km-fall-loading-thetafix_N5e7_VelZ_02196000.png2012-01-10 12:16 20K 
[IMG]CS1_50kmx20km-fall-loading-thetafix_N5e7_DensCloud_00950400.png2012-01-10 12:10 20K 
[IMG]CS1_50kmx20km-fall-loading-thetafix_N5e7_DensCloud_01987200.png2012-01-10 12:12 20K 
[IMG]CS1_50kmx20km-fall-loading-thetafix_N5e7_VelZ_01058400.png2012-01-10 12:12 20K 
[IMG]CS1_50kmx20km-fall-loading-thetafix_N5e7_DensCloud_00374400.png2012-01-10 12:08 20K 
[IMG]CS1_50kmx20km-fall-loading-thetafix_N5e7_DensCloud_01490400.png2012-01-10 12:12 20K 
[IMG]CS1_50kmx20km-fall-loading-thetafix_N5e7_VelZ_00518400.png2012-01-10 12:10 20K 
[IMG]CS1_50kmx20km-fall-loading-thetafix_N5e7_VelZ_00252000.png2012-01-10 12:09 20K 
[IMG]CS1_50kmx20km-fall-loading-thetafix_N5e7_DensCloud_02199600.png2012-01-10 12:14 20K 
[IMG]CS1_50kmx20km-fall-loading-thetafix_N5e7_VelZ_02473200.png2012-01-10 12:16 20K 
[IMG]CS1_50kmx20km-fall-loading-thetafix_N5e7_DensCloud_02422800.png2012-01-10 12:15 20K 
[IMG]CS1_50kmx20km-fall-loading-thetafix_N5e7_DensCloud_00482400.png2012-01-10 12:08 20K 
[IMG]CS1_50kmx20km-fall-loading-thetafix_N5e7_VelZ_02102400.png2012-01-10 12:14 20K 
[IMG]CS1_50kmx20km-fall-loading-thetafix_N5e7_VelZ_01850400.png2012-01-10 12:14 20K 
[IMG]CS1_50kmx20km-fall-loading-thetafix_N5e7_DensCloud_00162000.png2012-01-10 12:08 20K 
[IMG]CS1_50kmx20km-fall-loading-thetafix_N5e7_DensCloud_00284400.png2012-01-10 12:08 20K 
[IMG]CS1_50kmx20km-fall-loading-thetafix_N5e7_DensCloud_02034000.png2012-01-10 12:12 20K 
[IMG]CS1_50kmx20km-fall-loading-thetafix_N5e7_DensCloud_02059200.png2012-01-10 12:12 20K 
[IMG]CS1_50kmx20km-fall-loading-thetafix_N5e7_DensCloud_01702800.png2012-01-10 12:12 20K 
[IMG]CS1_50kmx20km-fall-loading-thetafix_N5e7_VelZ_00720000.png2012-01-10 12:10 20K 
[IMG]CS1_50kmx20km-fall-loading-thetafix_N5e7_VelZ_01494000.png2012-01-10 12:14 20K 
[IMG]CS1_50kmx20km-fall-loading-thetafix_N5e7_DensCloud_02192400.png2012-01-10 12:14 20K 
[IMG]CS1_50kmx20km-fall-loading-thetafix_N5e7_VelZ_00277200.png2012-01-10 12:09 20K 
[IMG]CS1_50kmx20km-fall-loading-thetafix_N5e7_VelZ_02138400.png2012-01-10 12:14 20K 
[IMG]CS1_50kmx20km-fall-loading-thetafix_N5e7_VelZ_00633600.png2012-01-10 12:10 20K 
[IMG]CS1_50kmx20km-fall-loading-thetafix_N5e7_DensCloud_00266400.png2012-01-10 12:08 20K 
[IMG]CS1_50kmx20km-fall-loading-thetafix_N5e7_DensCloud_00464400.png2012-01-10 12:08 20K 
[IMG]CS1_50kmx20km-fall-loading-thetafix_N5e7_DensCloud_00439200.png2012-01-10 12:08 20K 
[IMG]CS1_50kmx20km-fall-loading-thetafix_N5e7_DensCloud_01645200.png2012-01-10 12:12 20K 
[IMG]CS1_50kmx20km-fall-loading-thetafix_N5e7_VelZ_00799200.png2012-01-10 12:10 20K 
[IMG]CS1_50kmx20km-fall-loading-thetafix_N5e7_DensCloud_01040400.png2012-01-10 12:10 20K 
[IMG]CS1_50kmx20km-fall-loading-thetafix_N5e7_VelZ_02044800.png2012-01-10 12:14 20K 
[IMG]CS1_50kmx20km-fall-loading-thetafix_N5e7_DensCloud_01522800.png2012-01-10 12:12 20K 
[IMG]CS1_50kmx20km-fall-loading-thetafix_N5e7_VelZ_01033200.png2012-01-10 12:12 20K 
[IMG]CS1_50kmx20km-fall-loading-thetafix_N5e7_VelZ_02228400.png2012-01-10 12:16 20K 
[IMG]CS1_50kmx20km-fall-loading-thetafix_N5e7_VelZ_00072000.png2012-01-10 12:09 20K 
[IMG]CS1_50kmx20km-fall-loading-thetafix_N5e7_DensCloud_00244800.png2012-01-10 12:08 20K 
[IMG]CS1_50kmx20km-fall-loading-thetafix_N5e7_VelZ_01692000.png2012-01-10 12:14 20K 
[IMG]CS1_50kmx20km-fall-loading-thetafix_N5e7_DensCloud_01180800.png2012-01-10 12:11 20K 
[IMG]CS1_50kmx20km-fall-loading-thetafix_N5e7_DensCloud_01666800.png2012-01-10 12:12 20K 
[IMG]CS1_50kmx20km-fall-loading-thetafix_N5e7_VelZ_01256400.png2012-01-10 12:12 20K 
[IMG]CS1_50kmx20km-fall-loading-thetafix_N5e7_VelZ_00532800.png2012-01-10 12:10 20K 
[IMG]CS1_50kmx20km-fall-loading-thetafix_N5e7_VelZ_02257200.png2012-01-10 12:16 20K 
[IMG]CS1_50kmx20km-fall-loading-thetafix_N5e7_VelZ_02437200.png2012-01-10 12:16 20K 
[IMG]CS1_50kmx20km-fall-loading-thetafix_N5e7_DensCloud_00640800.png2012-01-10 12:08 20K 
[IMG]CS1_50kmx20km-fall-loading-thetafix_N5e7_DensCloud_02530800.png2012-01-10 12:15 20K 
[IMG]CS1_50kmx20km-fall-loading-thetafix_N5e7_DensCloud_00122400.png2012-01-10 12:08 20K 
[IMG]CS1_50kmx20km-fall-loading-thetafix_N5e7_DensCloud_02113200.png2012-01-10 12:13 20K 
[IMG]CS1_50kmx20km-fall-loading-thetafix_N5e7_VelZ_01728000.png2012-01-10 12:14 20K 
[IMG]CS1_50kmx20km-fall-loading-thetafix_N5e7_VelZ_02016000.png2012-01-10 12:14 20K 
[IMG]CS1_50kmx20km-fall-loading-thetafix_N5e7_DensCloud_00601200.png2012-01-10 12:08 20K 
[IMG]CS1_50kmx20km-fall-loading-thetafix_N5e7_DensCloud_01087200.png2012-01-10 12:10 20K 
[IMG]CS1_50kmx20km-fall-loading-thetafix_N5e7_DensCloud_00630000.png2012-01-10 12:08 20K 
[IMG]CS1_50kmx20km-fall-loading-thetafix_N5e7_VelZ_02426400.png2012-01-10 12:16 20K 
[IMG]CS1_50kmx20km-fall-loading-thetafix_N5e7_DensCloud_00363600.png2012-01-10 12:08 20K 
[IMG]CS1_50kmx20km-fall-loading-thetafix_N5e7_VelZ_02008800.png2012-01-10 12:14 20K 
[IMG]CS1_50kmx20km-fall-loading-thetafix_N5e7_DensCloud_01288800.png2012-01-10 12:11 20K 
[IMG]CS1_50kmx20km-fall-loading-thetafix_N5e7_DensCloud_00813600.png2012-01-10 12:09 20K 
[IMG]CS1_50kmx20km-fall-loading-thetafix_N5e7_VelZ_00435600.png2012-01-10 12:10 20K 
[IMG]CS1_50kmx20km-fall-loading-thetafix_N5e7_VelZ_02498400.png2012-01-10 12:16 20K 
[IMG]CS1_50kmx20km-fall-loading-thetafix_N5e7_DensCloud_00626400.png2012-01-10 12:08 20K 
[IMG]CS1_50kmx20km-fall-loading-thetafix_N5e7_DensCloud_00723600.png2012-01-10 12:09 20K 
[IMG]CS1_50kmx20km-fall-loading-thetafix_N5e7_VelZ_01645200.png2012-01-10 12:14 20K 
[IMG]CS1_50kmx20km-fall-loading-thetafix_N5e7_VelZ_00223200.png2012-01-10 12:09 20K 
[IMG]CS1_50kmx20km-fall-loading-thetafix_N5e7_VelZ_01065600.png2012-01-10 12:12 20K 
[IMG]CS1_50kmx20km-fall-loading-thetafix_N5e7_VelZ_02401200.png2012-01-10 12:16 20K 
[IMG]CS1_50kmx20km-fall-loading-thetafix_N5e7_DensCloud_00536400.png2012-01-10 12:08 20K 
[IMG]CS1_50kmx20km-fall-loading-thetafix_N5e7_VelZ_00986400.png2012-01-10 12:12 20K 
[IMG]CS1_50kmx20km-fall-loading-thetafix_N5e7_VelZ_00784800.png2012-01-10 12:10 20K 
[IMG]CS1_50kmx20km-fall-loading-thetafix_N5e7_DensCloud_00421200.png2012-01-10 12:08 20K 
[IMG]CS1_50kmx20km-fall-loading-thetafix_N5e7_VelZ_00180000.png2012-01-10 12:09 20K 
[IMG]CS1_50kmx20km-fall-loading-thetafix_N5e7_VelZ_00421200.png2012-01-10 12:09 20K 
[IMG]CS1_50kmx20km-fall-loading-thetafix_N5e7_DensCloud_01562400.png2012-01-10 12:12 20K 
[IMG]CS1_50kmx20km-fall-loading-thetafix_N5e7_VelZ_00367200.png2012-01-10 12:09 20K 
[IMG]CS1_50kmx20km-fall-loading-thetafix_N5e7_VelZ_00165600.png2012-01-10 12:09 20K 
[IMG]CS1_50kmx20km-fall-loading-thetafix_N5e7_VelZ_01350000.png2012-01-10 12:14 20K 
[IMG]CS1_50kmx20km-fall-loading-thetafix_N5e7_VelZ_01663200.png2012-01-10 12:14 20K 
[IMG]CS1_50kmx20km-fall-loading-thetafix_N5e7_VelZ_00176400.png2012-01-10 12:09 20K 
[IMG]CS1_50kmx20km-fall-loading-thetafix_N5e7_VelZ_01000800.png2012-01-10 12:12 20K 
[IMG]CS1_50kmx20km-fall-loading-thetafix_N5e7_DensCloud_00136800.png2012-01-10 12:08 20K 
[IMG]CS1_50kmx20km-fall-loading-thetafix_N5e7_DensCloud_00496800.png2012-01-10 12:08 20K 
[IMG]CS1_50kmx20km-fall-loading-thetafix_N5e7_DensCloud_01220400.png2012-01-10 12:11 20K 
[IMG]CS1_50kmx20km-fall-loading-thetafix_N5e7_VelZ_00093600.png2012-01-10 12:09 20K 
[IMG]CS1_50kmx20km-fall-loading-thetafix_N5e7_DensCloud_01461600.png2012-01-10 12:12 20K 
[IMG]CS1_50kmx20km-fall-loading-thetafix_N5e7_VelZ_00187200.png2012-01-10 12:09 20K 
[IMG]CS1_50kmx20km-fall-loading-thetafix_N5e7_DensCloud_00180000.png2012-01-10 12:08 20K 
[IMG]CS1_50kmx20km-fall-loading-thetafix_N5e7_VelZ_02084400.png2012-01-10 12:14 20K 
[IMG]CS1_50kmx20km-fall-loading-thetafix_N5e7_VelZ_01116000.png2012-01-10 12:12 20K 
[IMG]CS1_50kmx20km-fall-loading-thetafix_N5e7_DensCloud_01062000.png2012-01-10 12:10 20K 
[IMG]CS1_50kmx20km-fall-loading-thetafix_N5e7_DensCloud_00295200.png2012-01-10 12:08 20K 
[IMG]CS1_50kmx20km-fall-loading-thetafix_N5e7_DensCloud_00468000.png2012-01-10 12:08 20K 
[IMG]CS1_50kmx20km-fall-loading-thetafix_N5e7_VelZ_01054800.png2012-01-10 12:12 20K 
[IMG]CS1_50kmx20km-fall-loading-thetafix_N5e7_DensCloud_00158400.png2012-01-10 12:08 20K 
[IMG]CS1_50kmx20km-fall-loading-thetafix_N5e7_VelZ_01288800.png2012-01-10 12:12 20K 
[IMG]CS1_50kmx20km-fall-loading-thetafix_N5e7_DensCloud_00183600.png2012-01-10 12:08 20K 
[IMG]CS1_50kmx20km-fall-loading-thetafix_N5e7_DensCloud_00741600.png2012-01-10 12:09 20K 
[IMG]CS1_50kmx20km-fall-loading-thetafix_N5e7_DensCloud_02145600.png2012-01-10 12:13 20K 
[IMG]CS1_50kmx20km-fall-loading-thetafix_N5e7_VelZ_01764000.png2012-01-10 12:14 20K 
[IMG]CS1_50kmx20km-fall-loading-thetafix_N5e7_DensCloud_02196000.png2012-01-10 12:14 20K 
[IMG]CS1_50kmx20km-fall-loading-thetafix_N5e7_VelZ_01378800.png2012-01-10 12:14 20K 
[IMG]CS1_50kmx20km-fall-loading-thetafix_N5e7_VelZ_00536400.png2012-01-10 12:10 20K 
[IMG]CS1_50kmx20km-fall-loading-thetafix_N5e7_VelZ_00363600.png2012-01-10 12:09 20K 
[IMG]CS1_50kmx20km-fall-loading-thetafix_N5e7_DensCloud_00666000.png2012-01-10 12:08 20K 
[IMG]CS1_50kmx20km-fall-loading-thetafix_N5e7_DensCloud_00705600.png2012-01-10 12:09 20K 
[IMG]CS1_50kmx20km-fall-loading-thetafix_N5e7_VelZ_02012400.png2012-01-10 12:14 20K 
[IMG]CS1_50kmx20km-fall-loading-thetafix_N5e7_VelZ_00558000.png2012-01-10 12:10 20K 
[IMG]CS1_50kmx20km-fall-loading-thetafix_N5e7_VelZ_00597600.png2012-01-10 12:10 20K 
[IMG]CS1_50kmx20km-fall-loading-thetafix_N5e7_DensCloud_02124000.png2012-01-10 12:13 20K 
[IMG]CS1_50kmx20km-fall-loading-thetafix_N5e7_VelZ_01987200.png2012-01-10 12:14 20K 
[IMG]CS1_50kmx20km-fall-loading-thetafix_N5e7_VelZ_00640800.png2012-01-10 12:10 20K 
[IMG]CS1_50kmx20km-fall-loading-thetafix_N5e7_DensCloud_00399600.png2012-01-10 12:08 20K 
[IMG]CS1_50kmx20km-fall-loading-thetafix_N5e7_VelZ_00360000.png2012-01-10 12:09 20K 
[IMG]CS1_50kmx20km-fall-loading-thetafix_N5e7_VelZ_02592000.png2012-01-10 12:16 20K 
[IMG]CS1_50kmx20km-fall-loading-thetafix_N5e7_VelZ_02581200.png2012-01-10 12:16 20K 
[IMG]CS1_50kmx20km-fall-loading-thetafix_N5e7_DensCloud_00511200.png2012-01-10 12:08 20K 
[IMG]CS1_50kmx20km-fall-loading-thetafix_N5e7_VelZ_00313200.png2012-01-10 12:09 20K 
[IMG]CS1_50kmx20km-fall-loading-thetafix_N5e7_VelZ_01134000.png2012-01-10 12:12 20K 
[IMG]CS1_50kmx20km-fall-loading-thetafix_N5e7_DensCloud_01029600.png2012-01-10 12:10 20K 
[IMG]CS1_50kmx20km-fall-loading-thetafix_N5e7_VelZ_00244800.png2012-01-10 12:09 20K 
[IMG]CS1_50kmx20km-fall-loading-thetafix_N5e7_DensCloud_01148400.png2012-01-10 12:11 20K 
[IMG]CS1_50kmx20km-fall-loading-thetafix_N5e7_VelZ_01252800.png2012-01-10 12:12 20K 
[IMG]CS1_50kmx20km-fall-loading-thetafix_N5e7_VelZ_01731600.png2012-01-10 12:14 20K 
[IMG]CS1_50kmx20km-fall-loading-thetafix_N5e7_VelZ_00298800.png2012-01-10 12:09 20K 
[IMG]CS1_50kmx20km-fall-loading-thetafix_N5e7_VelZ_01602000.png2012-01-10 12:14 20K 
[IMG]CS1_50kmx20km-fall-loading-thetafix_N5e7_VelZ_00554400.png2012-01-10 12:10 20K 
[IMG]CS1_50kmx20km-fall-loading-thetafix_N5e7_VelZ_00702000.png2012-01-10 12:10 20K 
[IMG]CS1_50kmx20km-fall-loading-thetafix_N5e7_DensCloud_02095200.png2012-01-10 12:13 20K 
[IMG]CS1_50kmx20km-fall-loading-thetafix_N5e7_DensCloud_01612800.png2012-01-10 12:12 20K 
[IMG]CS1_50kmx20km-fall-loading-thetafix_N5e7_DensCloud_01512000.png2012-01-10 12:12 20K 
[IMG]CS1_50kmx20km-fall-loading-thetafix_N5e7_VelZ_02480400.png2012-01-10 12:16 20K 
[IMG]CS1_50kmx20km-fall-loading-thetafix_N5e7_VelZ_01760400.png2012-01-10 12:14 20K 
[IMG]CS1_50kmx20km-fall-loading-thetafix_N5e7_DensCloud_00334800.png2012-01-10 12:08 20K 
[IMG]CS1_50kmx20km-fall-loading-thetafix_N5e7_VelZ_01569600.png2012-01-10 12:14 20K 
[IMG]CS1_50kmx20km-fall-loading-thetafix_N5e7_DensCloud_00090000.png2012-01-10 12:08 20K 
[IMG]CS1_50kmx20km-fall-loading-thetafix_N5e7_VelZ_01087200.png2012-01-10 12:12 20K 
[IMG]CS1_50kmx20km-fall-loading-thetafix_N5e7_DensCloud_01980000.png2012-01-10 12:12 20K 
[IMG]CS1_50kmx20km-fall-loading-thetafix_N5e7_VelZ_00399600.png2012-01-10 12:09 20K 
[IMG]CS1_50kmx20km-fall-loading-thetafix_N5e7_DensCloud_01101600.png2012-01-10 12:10 20K 
[IMG]CS1_50kmx20km-fall-loading-thetafix_N5e7_VelZ_01083600.png2012-01-10 12:12 20K 
[IMG]CS1_50kmx20km-fall-loading-thetafix_N5e7_VelZ_02066400.png2012-01-10 12:14 20K 
[IMG]CS1_50kmx20km-fall-loading-thetafix_N5e7_DensCloud_01515600.png2012-01-10 12:12 20K 
[IMG]CS1_50kmx20km-fall-loading-thetafix_N5e7_DensCloud_01710000.png2012-01-10 12:12 20K 
[IMG]CS1_50kmx20km-fall-loading-thetafix_N5e7_VelZ_02156400.png2012-01-10 12:14 20K 
[IMG]CS1_50kmx20km-fall-loading-thetafix_N5e7_VelZ_01425600.png2012-01-10 12:14 20K 
[IMG]CS1_50kmx20km-fall-loading-thetafix_N5e7_DensCloud_00201600.png2012-01-10 12:08 20K 
[IMG]CS1_50kmx20km-fall-loading-thetafix_N5e7_VelZ_00273600.png2012-01-10 12:09 20K 
[IMG]CS1_50kmx20km-fall-loading-thetafix_N5e7_VelZ_00403200.png2012-01-10 12:09 20K 
[IMG]CS1_50kmx20km-fall-loading-thetafix_N5e7_DensCloud_00460800.png2012-01-10 12:08 20K 
[IMG]CS1_50kmx20km-fall-loading-thetafix_N5e7_DensCloud_01274400.png2012-01-10 12:11 20K 
[IMG]CS1_50kmx20km-fall-loading-thetafix_N5e7_DensCloud_00500400.png2012-01-10 12:08 20K 
[IMG]CS1_50kmx20km-fall-loading-thetafix_N5e7_DensCloud_02052000.png2012-01-10 12:12 20K 
[IMG]CS1_50kmx20km-fall-loading-thetafix_N5e7_VelZ_00486000.png2012-01-10 12:10 20K 
[IMG]CS1_50kmx20km-fall-loading-thetafix_N5e7_DensCloud_01026000.png2012-01-10 12:10 20K 
[IMG]CS1_50kmx20km-fall-loading-thetafix_N5e7_VelZ_02034000.png2012-01-10 12:14 20K 
[IMG]CS1_50kmx20km-fall-loading-thetafix_N5e7_VelZ_01548000.png2012-01-10 12:14 20K 
[IMG]CS1_50kmx20km-fall-loading-thetafix_N5e7_VelZ_00525600.png2012-01-10 12:10 20K 
[IMG]CS1_50kmx20km-fall-loading-thetafix_N5e7_VelZ_00982800.png2012-01-10 12:12 20K 
[IMG]CS1_50kmx20km-fall-loading-thetafix_N5e7_VelZ_00100800.png2012-01-10 12:09 20K 
[IMG]CS1_50kmx20km-fall-loading-thetafix_N5e7_DensCloud_00766800.png2012-01-10 12:09 20K 
[IMG]CS1_50kmx20km-fall-loading-thetafix_N5e7_DensCloud_02070000.png2012-01-10 12:13 20K 
[IMG]CS1_50kmx20km-fall-loading-thetafix_N5e7_DensCloud_00226800.png2012-01-10 12:08 20K 
[IMG]CS1_50kmx20km-fall-loading-thetafix_N5e7_DensCloud_00306000.png2012-01-10 12:08 20K 
[IMG]CS1_50kmx20km-fall-loading-thetafix_N5e7_VelZ_00514800.png2012-01-10 12:10 20K 
[IMG]CS1_50kmx20km-fall-loading-thetafix_N5e7_DensCloud_00424800.png2012-01-10 12:08 20K 
[IMG]CS1_50kmx20km-fall-loading-thetafix_N5e7_DensCloud_02073600.png2012-01-10 12:13 20K 
[IMG]CS1_50kmx20km-fall-loading-thetafix_N5e7_VelZ_00115200.png2012-01-10 12:09 20K 
[IMG]CS1_50kmx20km-fall-loading-thetafix_N5e7_VelZ_01166400.png2012-01-10 12:12 20K 
[IMG]CS1_50kmx20km-fall-loading-thetafix_N5e7_DensCloud_00154800.png2012-01-10 12:08 20K 
[IMG]CS1_50kmx20km-fall-loading-thetafix_N5e7_DensCloud_02534400.png2012-01-10 12:15 20K 
[IMG]CS1_50kmx20km-fall-loading-thetafix_N5e7_VelZ_00136800.png2012-01-10 12:09 20K 
[IMG]CS1_50kmx20km-fall-loading-thetafix_N5e7_VelZ_02239200.png2012-01-10 12:16 20K 
[IMG]CS1_50kmx20km-fall-loading-thetafix_N5e7_DensCloud_01090800.png2012-01-10 12:10 20K 
[IMG]CS1_50kmx20km-fall-loading-thetafix_N5e7_VelZ_00194400.png2012-01-10 12:09 20K 
[IMG]CS1_50kmx20km-fall-loading-thetafix_N5e7_VelZ_00446400.png2012-01-10 12:10 20K 
[IMG]CS1_50kmx20km-fall-loading-thetafix_N5e7_VelZ_00810000.png2012-01-10 12:10 20K 
[IMG]CS1_50kmx20km-fall-loading-thetafix_N5e7_DensCloud_02487600.png2012-01-10 12:15 20K 
[IMG]CS1_50kmx20km-fall-loading-thetafix_N5e7_VelZ_01630800.png2012-01-10 12:14 20K 
[IMG]CS1_50kmx20km-fall-loading-thetafix_N5e7_VelZ_00331200.png2012-01-10 12:09 20K 
[IMG]CS1_50kmx20km-fall-loading-thetafix_N5e7_DensCloud_00104400.png2012-01-10 12:08 20K 
[IMG]CS1_50kmx20km-fall-loading-thetafix_N5e7_DensCloud_00982800.png2012-01-10 12:10 20K 
[IMG]CS1_50kmx20km-fall-loading-thetafix_N5e7_DensCloud_01620000.png2012-01-10 12:12 20K 
[IMG]CS1_50kmx20km-fall-loading-thetafix_N5e7_DensCloud_02106000.png2012-01-10 12:13 20K 
[IMG]CS1_50kmx20km-fall-loading-thetafix_N5e7_VelZ_01522800.png2012-01-10 12:14 20K 
[IMG]CS1_50kmx20km-fall-loading-thetafix_N5e7_VelZ_01537200.png2012-01-10 12:14 20K 
[IMG]CS1_50kmx20km-fall-loading-thetafix_N5e7_DensCloud_00486000.png2012-01-10 12:08 20K 
[IMG]CS1_50kmx20km-fall-loading-thetafix_N5e7_DensCloud_01706400.png2012-01-10 12:12 20K 
[IMG]CS1_50kmx20km-fall-loading-thetafix_N5e7_DensCloud_02419200.png2012-01-10 12:15 20K 
[IMG]CS1_50kmx20km-fall-loading-thetafix_N5e7_DensCloud_01519200.png2012-01-10 12:12 20K 
[IMG]CS1_50kmx20km-fall-loading-thetafix_N5e7_DensCloud_01130400.png2012-01-10 12:11 20K 
[IMG]CS1_50kmx20km-fall-loading-thetafix_N5e7_VelZ_01130400.png2012-01-10 12:12 20K 
[IMG]CS1_50kmx20km-fall-loading-thetafix_N5e7_VelZ_00594000.png2012-01-10 12:10 20K 
[IMG]CS1_50kmx20km-fall-loading-thetafix_N5e7_VelZ_01141200.png2012-01-10 12:12 20K 
[IMG]CS1_50kmx20km-fall-loading-thetafix_N5e7_VelZ_02070000.png2012-01-10 12:14 20K 
[IMG]CS1_50kmx20km-fall-loading-thetafix_N5e7_DensCloud_00298800.png2012-01-10 12:08 20K 
[IMG]CS1_50kmx20km-fall-loading-thetafix_N5e7_DensCloud_02469600.png2012-01-10 12:15 20K 
[IMG]CS1_50kmx20km-fall-loading-thetafix_N5e7_VelZ_01105200.png2012-01-10 12:12 20K 
[IMG]CS1_50kmx20km-fall-loading-thetafix_N5e7_DensCloud_01670400.png2012-01-10 12:12 20K 
[IMG]CS1_50kmx20km-fall-loading-thetafix_N5e7_DensCloud_01573200.png2012-01-10 12:12 20K 
[IMG]CS1_50kmx20km-fall-loading-thetafix_N5e7_VelZ_00392400.png2012-01-10 12:09 20K 
[IMG]CS1_50kmx20km-fall-loading-thetafix_N5e7_DensCloud_00205200.png2012-01-10 12:08 20K 
[IMG]CS1_50kmx20km-fall-loading-thetafix_N5e7_VelZ_02170800.png2012-01-10 12:16 20K 
[IMG]CS1_50kmx20km-fall-loading-thetafix_N5e7_VelZ_01162800.png2012-01-10 12:12 20K 
[IMG]CS1_50kmx20km-fall-loading-thetafix_N5e7_DensCloud_00129600.png2012-01-10 12:08 20K 
[IMG]CS1_50kmx20km-fall-loading-thetafix_N5e7_VelZ_01404000.png2012-01-10 12:14 20K 
[IMG]CS1_50kmx20km-fall-loading-thetafix_N5e7_VelZ_01670400.png2012-01-10 12:14 20K 
[IMG]CS1_50kmx20km-fall-loading-thetafix_N5e7_VelZ_02491200.png2012-01-10 12:16 20K 
[IMG]CS1_50kmx20km-fall-loading-thetafix_N5e7_VelZ_02484000.png2012-01-10 12:16 20K 
[IMG]CS1_50kmx20km-fall-loading-thetafix_N5e7_VelZ_00270000.png2012-01-10 12:09 20K 
[IMG]CS1_50kmx20km-fall-loading-thetafix_N5e7_VelZ_00082800.png2012-01-10 12:09 20K 
[IMG]CS1_50kmx20km-fall-loading-thetafix_N5e7_VelZ_02199600.png2012-01-10 12:16 20K 
[IMG]CS1_50kmx20km-fall-loading-thetafix_N5e7_VelZ_00540000.png2012-01-10 12:10 20K 
[IMG]CS1_50kmx20km-fall-loading-thetafix_N5e7_DensCloud_00392400.png2012-01-10 12:08 20K 
[IMG]CS1_50kmx20km-fall-loading-thetafix_N5e7_VelZ_02509200.png2012-01-10 12:16 20K 
[IMG]CS1_50kmx20km-fall-loading-thetafix_N5e7_DensCloud_00993600.png2012-01-10 12:10 20K 
[IMG]CS1_50kmx20km-fall-loading-thetafix_N5e7_VelZ_01504800.png2012-01-10 12:14 20K 
[IMG]CS1_50kmx20km-fall-loading-thetafix_N5e7_VelZ_00961200.png2012-01-10 12:12 20K 
[IMG]CS1_50kmx20km-fall-loading-thetafix_N5e7_VelZ_02077200.png2012-01-10 12:14 20K 
[IMG]CS1_50kmx20km-fall-loading-thetafix_N5e7_VelZ_02217600.png2012-01-10 12:16 20K 
[IMG]CS1_50kmx20km-fall-loading-thetafix_N5e7_DensCloud_00237600.png2012-01-10 12:08 20K 
[IMG]CS1_50kmx20km-fall-loading-thetafix_N5e7_VelZ_01303200.png2012-01-10 12:14 20K 
[IMG]CS1_50kmx20km-fall-loading-thetafix_N5e7_VelZ_00612000.png2012-01-10 12:10 20K 
[IMG]CS1_50kmx20km-fall-loading-thetafix_N5e7_VelZ_00975600.png2012-01-10 12:12 20K 
[IMG]CS1_50kmx20km-fall-loading-thetafix_N5e7_DensCloud_02566800.png2012-01-10 12:15 20K 
[IMG]CS1_50kmx20km-fall-loading-thetafix_N5e7_VelZ_00057600.png2012-01-10 12:09 20K 
[IMG]CS1_50kmx20km-fall-loading-thetafix_N5e7_DensCloud_02473200.png2012-01-10 12:15 20K 
[IMG]CS1_50kmx20km-fall-loading-thetafix_N5e7_DensCloud_00446400.png2012-01-10 12:08 20K 
[IMG]CS1_50kmx20km-fall-loading-thetafix_N5e7_VelZ_00453600.png2012-01-10 12:10 20K 
[IMG]CS1_50kmx20km-fall-loading-thetafix_N5e7_VelZ_01098000.png2012-01-10 12:12 20K 
[IMG]CS1_50kmx20km-fall-loading-thetafix_N5e7_VelZ_01479600.png2012-01-10 12:14 20K 
[IMG]CS1_50kmx20km-fall-loading-thetafix_N5e7_DensCloud_02541600.png2012-01-10 12:15 20K 
[IMG]CS1_50kmx20km-fall-loading-thetafix_N5e7_VelZ_01436400.png2012-01-10 12:14 20K 
[IMG]CS1_50kmx20km-fall-loading-thetafix_N5e7_VelZ_00212400.png2012-01-10 12:09 20K 
[IMG]CS1_50kmx20km-fall-loading-thetafix_N5e7_DensCloud_00540000.png2012-01-10 12:08 20K 
[IMG]CS1_50kmx20km-fall-loading-thetafix_N5e7_VelZ_02167200.png2012-01-10 12:16 20K 
[IMG]CS1_50kmx20km-fall-loading-thetafix_N5e7_VelZ_01627200.png2012-01-10 12:14 20K 
[IMG]CS1_50kmx20km-fall-loading-thetafix_N5e7_VelZ_01738800.png2012-01-10 12:14 20K 
[IMG]CS1_50kmx20km-fall-loading-thetafix_N5e7_VelZ_02174400.png2012-01-10 12:16 20K 
[IMG]CS1_50kmx20km-fall-loading-thetafix_N5e7_VelZ_00126000.png2012-01-10 12:09 20K 
[IMG]CS1_50kmx20km-fall-loading-thetafix_N5e7_DensCloud_01116000.png2012-01-10 12:11 20K 
[IMG]CS1_50kmx20km-fall-loading-thetafix_N5e7_VelZ_00104400.png2012-01-10 12:09 20K 
[IMG]CS1_50kmx20km-fall-loading-thetafix_N5e7_VelZ_00370800.png2012-01-10 12:09 20K 
[IMG]CS1_50kmx20km-fall-loading-thetafix_N5e7_VelZ_02221200.png2012-01-10 12:16 20K 
[IMG]CS1_50kmx20km-fall-loading-thetafix_N5e7_DensCloud_02120400.png2012-01-10 12:13 20K 
[IMG]CS1_50kmx20km-fall-loading-thetafix_N5e7_DensCloud_02588400.png2012-01-10 12:15 20K 
[IMG]CS1_50kmx20km-fall-loading-thetafix_N5e7_DensCloud_00403200.png2012-01-10 12:08 20K 
[IMG]CS1_50kmx20km-fall-loading-thetafix_N5e7_DensCloud_00082800.png2012-01-10 12:08 20K 
[IMG]CS1_50kmx20km-fall-loading-thetafix_N5e7_VelZ_01069200.png2012-01-10 12:12 20K 
[IMG]CS1_50kmx20km-fall-loading-thetafix_N5e7_VelZ_01076400.png2012-01-10 12:12 20K 
[IMG]CS1_50kmx20km-fall-loading-thetafix_N5e7_VelZ_00968400.png2012-01-10 12:12 20K 
[IMG]CS1_50kmx20km-fall-loading-thetafix_N5e7_DensCloud_02466000.png2012-01-10 12:15 20K 
[IMG]CS1_50kmx20km-fall-loading-thetafix_N5e7_DensCloud_00277200.png2012-01-10 12:08 20K 
[IMG]CS1_50kmx20km-fall-loading-thetafix_N5e7_VelZ_00129600.png2012-01-10 12:09 20K 
[IMG]CS1_50kmx20km-fall-loading-thetafix_N5e7_VelZ_02242800.png2012-01-10 12:16 20K 
[IMG]CS1_50kmx20km-fall-loading-thetafix_N5e7_VelZ_00385200.png2012-01-10 12:09 20K 
[IMG]CS1_50kmx20km-fall-loading-thetafix_N5e7_DensCloud_01530000.png2012-01-10 12:12 20K 
[IMG]CS1_50kmx20km-fall-loading-thetafix_N5e7_VelZ_00295200.png2012-01-10 12:09 20K 
[IMG]CS1_50kmx20km-fall-loading-thetafix_N5e7_DensCloud_01166400.png2012-01-10 12:11 20K 
[IMG]CS1_50kmx20km-fall-loading-thetafix_N5e7_VelZ_00230400.png2012-01-10 12:09 20K 
[IMG]CS1_50kmx20km-fall-loading-thetafix